<?xml version="1.0" encoding="utf-8"?>
<gpx xmlns:xsi="http://www.w3.org/2001/XMLSchema-instance" xmlns:xsd="http://www.w3.org/2001/XMLSchema" version="1.1" creator="Shapelink.com" xmlns="http://www.topografix.com/GPX/1/1" xmlns:gpxtpx="http://www.garmin.com/xmlschemas/TrackPointExtension/v1">
  <metadata>
    <name>Alpine skiing 50.00 km, 2014-01-29</name>
    <desc></desc>
    <author><name>Stefan Östlund</name></author> 
    <time>2014-01-29T09:15:17Z</time>
  </metadata>
  <trk>
    <name>Alpine skiing 50.00 km, 2014-01-29</name>
    <trkseg>
      <trkpt lat="45.9331545" lon="7.6297224">
        <ele>1939.8</ele>
        <time>2014-01-29T09:15:17Z</time>
      </trkpt>
      <trkpt lat="45.9331627" lon="7.6297288">
        <ele>1939.8</ele>
        <time>2014-01-29T09:15:18Z</time>
      </trkpt>
      <trkpt lat="45.9331251" lon="7.629811">
        <ele>1939.8</ele>
        <time>2014-01-29T09:15:21Z</time>
      </trkpt>
      <trkpt lat="45.9331003" lon="7.6297844">
        <ele>1939.8</ele>
        <time>2014-01-29T09:15:25Z</time>
      </trkpt>
      <trkpt lat="45.9332395" lon="7.6296284">
        <ele>1939.8</ele>
        <time>2014-01-29T09:15:28Z</time>
      </trkpt>
      <trkpt lat="45.9332722" lon="7.6296036">
        <ele>1939.8</ele>
        <time>2014-01-29T09:15:29Z</time>
      </trkpt>
      <trkpt lat="45.9333651" lon="7.6295487">
        <ele>1939.8</ele>
        <time>2014-01-29T09:15:36Z</time>
      </trkpt>
      <trkpt lat="45.933346" lon="7.6295568">
        <ele>1939.8</ele>
        <time>2014-01-29T09:15:37Z</time>
      </trkpt>
      <trkpt lat="45.9332798" lon="7.6295785">
        <ele>1939.8</ele>
        <time>2014-01-29T09:15:39Z</time>
      </trkpt>
      <trkpt lat="45.9332563" lon="7.6295886">
        <ele>1939.8</ele>
        <time>2014-01-29T09:15:40Z</time>
      </trkpt>
      <trkpt lat="45.9331203" lon="7.6296407">
        <ele>1939.8</ele>
        <time>2014-01-29T09:15:43Z</time>
      </trkpt>
      <trkpt lat="45.9331805" lon="7.6296041">
        <ele>1939.8</ele>
        <time>2014-01-29T09:15:46Z</time>
      </trkpt>
      <trkpt lat="45.9332753" lon="7.6295832">
        <ele>1939.8</ele>
        <time>2014-01-29T09:15:49Z</time>
      </trkpt>
      <trkpt lat="45.9333139" lon="7.6295798">
        <ele>1939.8</ele>
        <time>2014-01-29T09:15:50Z</time>
      </trkpt>
      <trkpt lat="45.9334204" lon="7.6297102">
        <ele>1939.8</ele>
        <time>2014-01-29T09:15:54Z</time>
      </trkpt>
      <trkpt lat="45.9334779" lon="7.6298731">
        <ele>1939.8</ele>
        <time>2014-01-29T09:15:57Z</time>
      </trkpt>
      <trkpt lat="45.9335032" lon="7.6299427">
        <ele>1939.8</ele>
        <time>2014-01-29T09:15:58Z</time>
      </trkpt>
      <trkpt lat="45.9335302" lon="7.6300049">
        <ele>1941.8</ele>
        <time>2014-01-29T09:15:59Z</time>
      </trkpt>
      <trkpt lat="45.9335703" lon="7.6300895">
        <ele>1943.2</ele>
        <time>2014-01-29T09:16:00Z</time>
      </trkpt>
      <trkpt lat="45.9335985" lon="7.6301667">
        <ele>1944.2</ele>
        <time>2014-01-29T09:16:01Z</time>
      </trkpt>
      <trkpt lat="45.9336617" lon="7.6302872">
        <ele>1944.2</ele>
        <time>2014-01-29T09:16:02Z</time>
      </trkpt>
      <trkpt lat="45.9337419" lon="7.6303593">
        <ele>1944.2</ele>
        <time>2014-01-29T09:16:03Z</time>
      </trkpt>
      <trkpt lat="45.9338694" lon="7.6305521">
        <ele>1944.2</ele>
        <time>2014-01-29T09:16:05Z</time>
      </trkpt>
      <trkpt lat="45.9339234" lon="7.6306317">
        <ele>1945.2</ele>
        <time>2014-01-29T09:16:06Z</time>
      </trkpt>
      <trkpt lat="45.9340128" lon="7.6307393">
        <ele>1945.2</ele>
        <time>2014-01-29T09:16:07Z</time>
      </trkpt>
      <trkpt lat="45.9341038" lon="7.6308261">
        <ele>1946.4</ele>
        <time>2014-01-29T09:16:08Z</time>
      </trkpt>
      <trkpt lat="45.9341794" lon="7.6308888">
        <ele>1946.4</ele>
        <time>2014-01-29T09:16:09Z</time>
      </trkpt>
      <trkpt lat="45.9342937" lon="7.6310213">
        <ele>1947.4</ele>
        <time>2014-01-29T09:16:11Z</time>
      </trkpt>
      <trkpt lat="45.9343556" lon="7.6310884">
        <ele>1947.4</ele>
        <time>2014-01-29T09:16:12Z</time>
      </trkpt>
      <trkpt lat="45.9344077" lon="7.6311493">
        <ele>1947.4</ele>
        <time>2014-01-29T09:16:13Z</time>
      </trkpt>
      <trkpt lat="45.9344483" lon="7.6313106">
        <ele>1948.4</ele>
        <time>2014-01-29T09:16:15Z</time>
      </trkpt>
      <trkpt lat="45.934466" lon="7.6313916">
        <ele>1948.4</ele>
        <time>2014-01-29T09:16:16Z</time>
      </trkpt>
      <trkpt lat="45.9344663" lon="7.6314539">
        <ele>1948.4</ele>
        <time>2014-01-29T09:16:17Z</time>
      </trkpt>
      <trkpt lat="45.9344458" lon="7.6315106">
        <ele>1949.6</ele>
        <time>2014-01-29T09:16:18Z</time>
      </trkpt>
      <trkpt lat="45.9343463" lon="7.6315953">
        <ele>1950.6</ele>
        <time>2014-01-29T09:16:20Z</time>
      </trkpt>
      <trkpt lat="45.9341871" lon="7.631527">
        <ele>1952.4</ele>
        <time>2014-01-29T09:16:22Z</time>
      </trkpt>
      <trkpt lat="45.9341043" lon="7.6314599">
        <ele>1952.4</ele>
        <time>2014-01-29T09:16:23Z</time>
      </trkpt>
      <trkpt lat="45.9340148" lon="7.6314524">
        <ele>1953.4</ele>
        <time>2014-01-29T09:16:24Z</time>
      </trkpt>
      <trkpt lat="45.9338619" lon="7.6314261">
        <ele>1954.6</ele>
        <time>2014-01-29T09:16:26Z</time>
      </trkpt>
      <trkpt lat="45.933706" lon="7.6313653">
        <ele>1955.8</ele>
        <time>2014-01-29T09:16:28Z</time>
      </trkpt>
      <trkpt lat="45.9335855" lon="7.6313207">
        <ele>1956.8</ele>
        <time>2014-01-29T09:16:30Z</time>
      </trkpt>
      <trkpt lat="45.9335418" lon="7.6313199">
        <ele>1956.8</ele>
        <time>2014-01-29T09:16:31Z</time>
      </trkpt>
      <trkpt lat="45.9334839" lon="7.6313442">
        <ele>1957.8</ele>
        <time>2014-01-29T09:16:32Z</time>
      </trkpt>
      <trkpt lat="45.9334489" lon="7.6313627">
        <ele>1957.8</ele>
        <time>2014-01-29T09:16:33Z</time>
      </trkpt>
      <trkpt lat="45.9334213" lon="7.6314093">
        <ele>1959</ele>
        <time>2014-01-29T09:16:34Z</time>
      </trkpt>
      <trkpt lat="45.9334113" lon="7.6314627">
        <ele>1960.2</ele>
        <time>2014-01-29T09:16:35Z</time>
      </trkpt>
      <trkpt lat="45.9334195" lon="7.6315305">
        <ele>1960.2</ele>
        <time>2014-01-29T09:16:36Z</time>
      </trkpt>
      <trkpt lat="45.9334518" lon="7.6315964">
        <ele>1961.4</ele>
        <time>2014-01-29T09:16:37Z</time>
      </trkpt>
      <trkpt lat="45.933499" lon="7.6316623">
        <ele>1962.4</ele>
        <time>2014-01-29T09:16:38Z</time>
      </trkpt>
      <trkpt lat="45.9335561" lon="7.6317062">
        <ele>1962.4</ele>
        <time>2014-01-29T09:16:39Z</time>
      </trkpt>
      <trkpt lat="45.9336181" lon="7.6317766">
        <ele>1963.8</ele>
        <time>2014-01-29T09:16:40Z</time>
      </trkpt>
      <trkpt lat="45.9336824" lon="7.6318297">
        <ele>1965</ele>
        <time>2014-01-29T09:16:41Z</time>
      </trkpt>
      <trkpt lat="45.9339141" lon="7.6319098">
        <ele>1966</ele>
        <time>2014-01-29T09:16:43Z</time>
      </trkpt>
      <trkpt lat="45.9340917" lon="7.6319331">
        <ele>1967.2</ele>
        <time>2014-01-29T09:16:45Z</time>
      </trkpt>
      <trkpt lat="45.934154" lon="7.6319438">
        <ele>1968.2</ele>
        <time>2014-01-29T09:16:46Z</time>
      </trkpt>
      <trkpt lat="45.9342515" lon="7.6319674">
        <ele>1969.4</ele>
        <time>2014-01-29T09:16:48Z</time>
      </trkpt>
      <trkpt lat="45.9342399" lon="7.63203">
        <ele>1969.4</ele>
        <time>2014-01-29T09:16:50Z</time>
      </trkpt>
      <trkpt lat="45.9341717" lon="7.6320699">
        <ele>1969.4</ele>
        <time>2014-01-29T09:16:51Z</time>
      </trkpt>
      <trkpt lat="45.9340935" lon="7.6321101">
        <ele>1970.4</ele>
        <time>2014-01-29T09:16:52Z</time>
      </trkpt>
      <trkpt lat="45.9340747" lon="7.632111">
        <ele>1970.4</ele>
        <time>2014-01-29T09:16:53Z</time>
      </trkpt>
      <trkpt lat="45.9340116" lon="7.6320267">
        <ele>1970.4</ele>
        <time>2014-01-29T09:16:55Z</time>
      </trkpt>
      <trkpt lat="45.933974" lon="7.63201">
        <ele>1970.4</ele>
        <time>2014-01-29T09:16:56Z</time>
      </trkpt>
      <trkpt lat="45.9338902" lon="7.6320406">
        <ele>1971.6</ele>
        <time>2014-01-29T09:16:58Z</time>
      </trkpt>
      <trkpt lat="45.9338648" lon="7.6320793">
        <ele>1971.6</ele>
        <time>2014-01-29T09:16:59Z</time>
      </trkpt>
      <trkpt lat="45.933851" lon="7.6322305">
        <ele>1971.6</ele>
        <time>2014-01-29T09:17:02Z</time>
      </trkpt>
      <trkpt lat="45.9338681" lon="7.6322559">
        <ele>1972.6</ele>
        <time>2014-01-29T09:17:03Z</time>
      </trkpt>
      <trkpt lat="45.9338792" lon="7.6322978">
        <ele>1972.6</ele>
        <time>2014-01-29T09:17:05Z</time>
      </trkpt>
      <trkpt lat="45.9338881" lon="7.632319">
        <ele>1972.6</ele>
        <time>2014-01-29T09:17:06Z</time>
      </trkpt>
      <trkpt lat="45.9338701" lon="7.6323165">
        <ele>1972.6</ele>
        <time>2014-01-29T09:17:10Z</time>
      </trkpt>
      <trkpt lat="45.9338752" lon="7.6323121">
        <ele>1972.6</ele>
        <time>2014-01-29T09:17:15Z</time>
      </trkpt>
      <trkpt lat="45.9338768" lon="7.6322999">
        <ele>1972.6</ele>
        <time>2014-01-29T09:17:22Z</time>
      </trkpt>
      <trkpt lat="45.9338624" lon="7.6322973">
        <ele>1972.6</ele>
        <time>2014-01-29T09:17:31Z</time>
      </trkpt>
      <trkpt lat="45.9338503" lon="7.6322941">
        <ele>1972.6</ele>
        <time>2014-01-29T09:17:36Z</time>
      </trkpt>
      <trkpt lat="45.9338382" lon="7.6322823">
        <ele>1972.6</ele>
        <time>2014-01-29T09:17:42Z</time>
      </trkpt>
      <trkpt lat="45.9338371" lon="7.6322719">
        <ele>1972.6</ele>
        <time>2014-01-29T09:17:50Z</time>
      </trkpt>
      <trkpt lat="45.9338346" lon="7.6322723">
        <ele>1972.6</ele>
        <time>2014-01-29T09:17:56Z</time>
      </trkpt>
      <trkpt lat="45.9338402" lon="7.6323288">
        <ele>1972.6</ele>
        <time>2014-01-29T09:18:04Z</time>
      </trkpt>
      <trkpt lat="45.9338397" lon="7.6323336">
        <ele>1972.6</ele>
        <time>2014-01-29T09:18:11Z</time>
      </trkpt>
      <trkpt lat="45.9338351" lon="7.6323509">
        <ele>1972.6</ele>
        <time>2014-01-29T09:18:24Z</time>
      </trkpt>
      <trkpt lat="45.9338501" lon="7.6323928">
        <ele>1972.6</ele>
        <time>2014-01-29T09:18:32Z</time>
      </trkpt>
      <trkpt lat="45.9338611" lon="7.632422">
        <ele>1972.6</ele>
        <time>2014-01-29T09:18:41Z</time>
      </trkpt>
      <trkpt lat="45.933865" lon="7.6324479">
        <ele>1972.6</ele>
        <time>2014-01-29T09:18:47Z</time>
      </trkpt>
      <trkpt lat="45.9338542" lon="7.6324419">
        <ele>1972.6</ele>
        <time>2014-01-29T09:18:55Z</time>
      </trkpt>
      <trkpt lat="45.9338435" lon="7.6324368">
        <ele>1972.6</ele>
        <time>2014-01-29T09:19:00Z</time>
      </trkpt>
      <trkpt lat="45.9338386" lon="7.6324424">
        <ele>1972.6</ele>
        <time>2014-01-29T09:19:01Z</time>
      </trkpt>
      <trkpt lat="45.9338293" lon="7.6324434">
        <ele>1973.8</ele>
        <time>2014-01-29T09:19:04Z</time>
      </trkpt>
      <trkpt lat="45.933819" lon="7.6324429">
        <ele>1973.8</ele>
        <time>2014-01-29T09:19:06Z</time>
      </trkpt>
      <trkpt lat="45.9337947" lon="7.6324701">
        <ele>1973.8</ele>
        <time>2014-01-29T09:19:12Z</time>
      </trkpt>
      <trkpt lat="45.9338228" lon="7.6324658">
        <ele>1973.8</ele>
        <time>2014-01-29T09:19:17Z</time>
      </trkpt>
      <trkpt lat="45.9338158" lon="7.6324714">
        <ele>1973.8</ele>
        <time>2014-01-29T09:19:18Z</time>
      </trkpt>
      <trkpt lat="45.9338359" lon="7.6324433">
        <ele>1973.8</ele>
        <time>2014-01-29T09:19:19Z</time>
      </trkpt>
      <trkpt lat="45.9338831" lon="7.6323688">
        <ele>1973.8</ele>
        <time>2014-01-29T09:19:24Z</time>
      </trkpt>
      <trkpt lat="45.9338204" lon="7.6324372">
        <ele>1973.8</ele>
        <time>2014-01-29T09:19:28Z</time>
      </trkpt>
      <trkpt lat="45.9337608" lon="7.6326179">
        <ele>1973.8</ele>
        <time>2014-01-29T09:19:35Z</time>
      </trkpt>
      <trkpt lat="45.9337457" lon="7.6326686">
        <ele>1973.8</ele>
        <time>2014-01-29T09:19:39Z</time>
      </trkpt>
      <trkpt lat="45.9337411" lon="7.6326583">
        <ele>1973.8</ele>
        <time>2014-01-29T09:19:40Z</time>
      </trkpt>
      <trkpt lat="45.9337148" lon="7.6325863">
        <ele>1974.8</ele>
        <time>2014-01-29T09:19:43Z</time>
      </trkpt>
      <trkpt lat="45.9337159" lon="7.6325817">
        <ele>1974.8</ele>
        <time>2014-01-29T09:19:44Z</time>
      </trkpt>
      <trkpt lat="45.9337381" lon="7.6326775">
        <ele>1974.8</ele>
        <time>2014-01-29T09:19:48Z</time>
      </trkpt>
      <trkpt lat="45.9338852" lon="7.6329486">
        <ele>1974.8</ele>
        <time>2014-01-29T09:19:55Z</time>
      </trkpt>
      <trkpt lat="45.9339277" lon="7.6329961">
        <ele>1974.8</ele>
        <time>2014-01-29T09:20:00Z</time>
      </trkpt>
      <trkpt lat="45.9339427" lon="7.6330171">
        <ele>1974.8</ele>
        <time>2014-01-29T09:20:01Z</time>
      </trkpt>
      <trkpt lat="45.9339634" lon="7.6330972">
        <ele>1974.8</ele>
        <time>2014-01-29T09:20:06Z</time>
      </trkpt>
      <trkpt lat="45.933955" lon="7.6331509">
        <ele>1974.8</ele>
        <time>2014-01-29T09:20:08Z</time>
      </trkpt>
      <trkpt lat="45.933966" lon="7.6331848">
        <ele>1974.8</ele>
        <time>2014-01-29T09:20:11Z</time>
      </trkpt>
      <trkpt lat="45.934007" lon="7.633255">
        <ele>1974.8</ele>
        <time>2014-01-29T09:20:17Z</time>
      </trkpt>
      <trkpt lat="45.9340212" lon="7.6332599">
        <ele>1974.8</ele>
        <time>2014-01-29T09:20:18Z</time>
      </trkpt>
      <trkpt lat="45.9340628" lon="7.6333219">
        <ele>1974.8</ele>
        <time>2014-01-29T09:20:22Z</time>
      </trkpt>
      <trkpt lat="45.9340248" lon="7.6333983">
        <ele>1974.8</ele>
        <time>2014-01-29T09:20:26Z</time>
      </trkpt>
      <trkpt lat="45.9340634" lon="7.6334011">
        <ele>1974.8</ele>
        <time>2014-01-29T09:20:28Z</time>
      </trkpt>
      <trkpt lat="45.9340483" lon="7.6334277">
        <ele>1974.8</ele>
        <time>2014-01-29T09:20:30Z</time>
      </trkpt>
      <trkpt lat="45.9340194" lon="7.6334431">
        <ele>1974.8</ele>
        <time>2014-01-29T09:20:31Z</time>
      </trkpt>
      <trkpt lat="45.9339203" lon="7.633475">
        <ele>1974.8</ele>
        <time>2014-01-29T09:20:35Z</time>
      </trkpt>
      <trkpt lat="45.9337484" lon="7.6335786">
        <ele>1968.6</ele>
        <time>2014-01-29T09:21:07Z</time>
      </trkpt>
      <trkpt lat="45.9338034" lon="7.6335575">
        <ele>1968.6</ele>
        <time>2014-01-29T09:21:08Z</time>
      </trkpt>
      <trkpt lat="45.9338903" lon="7.6335294">
        <ele>1968.6</ele>
        <time>2014-01-29T09:21:12Z</time>
      </trkpt>
      <trkpt lat="45.9339164" lon="7.6335295">
        <ele>1968.6</ele>
        <time>2014-01-29T09:21:13Z</time>
      </trkpt>
      <trkpt lat="45.9340208" lon="7.6334965">
        <ele>1968.6</ele>
        <time>2014-01-29T09:21:19Z</time>
      </trkpt>
      <trkpt lat="45.9340277" lon="7.6334943">
        <ele>1968.6</ele>
        <time>2014-01-29T09:21:20Z</time>
      </trkpt>
      <trkpt lat="45.9340339" lon="7.6335222">
        <ele>1968.6</ele>
        <time>2014-01-29T09:21:24Z</time>
      </trkpt>
      <trkpt lat="45.934022" lon="7.6335099">
        <ele>1968.6</ele>
        <time>2014-01-29T09:21:29Z</time>
      </trkpt>
      <trkpt lat="45.9340671" lon="7.6334768">
        <ele>1968.6</ele>
        <time>2014-01-29T09:21:31Z</time>
      </trkpt>
      <trkpt lat="45.9341034" lon="7.6334762">
        <ele>1968.6</ele>
        <time>2014-01-29T09:21:33Z</time>
      </trkpt>
      <trkpt lat="45.934066" lon="7.6334971">
        <ele>1968.6</ele>
        <time>2014-01-29T09:21:38Z</time>
      </trkpt>
      <trkpt lat="45.9340497" lon="7.6335465">
        <ele>1968.6</ele>
        <time>2014-01-29T09:21:41Z</time>
      </trkpt>
      <trkpt lat="45.9340479" lon="7.6336029">
        <ele>1968.6</ele>
        <time>2014-01-29T09:21:43Z</time>
      </trkpt>
      <trkpt lat="45.934034" lon="7.6336281">
        <ele>1968.6</ele>
        <time>2014-01-29T09:21:44Z</time>
      </trkpt>
      <trkpt lat="45.9340127" lon="7.6336451">
        <ele>1968.6</ele>
        <time>2014-01-29T09:21:47Z</time>
      </trkpt>
      <trkpt lat="45.9340033" lon="7.6337353">
        <ele>1967.6</ele>
        <time>2014-01-29T09:21:52Z</time>
      </trkpt>
      <trkpt lat="45.9339825" lon="7.6337674">
        <ele>1967.6</ele>
        <time>2014-01-29T09:21:54Z</time>
      </trkpt>
      <trkpt lat="45.9339639" lon="7.6338871">
        <ele>1967.6</ele>
        <time>2014-01-29T09:21:57Z</time>
      </trkpt>
      <trkpt lat="45.9339391" lon="7.6340235">
        <ele>1967.6</ele>
        <time>2014-01-29T09:22:01Z</time>
      </trkpt>
      <trkpt lat="45.9339396" lon="7.6340472">
        <ele>1967.6</ele>
        <time>2014-01-29T09:22:02Z</time>
      </trkpt>
      <trkpt lat="45.9342855" lon="7.6342804">
        <ele>1967.6</ele>
        <time>2014-01-29T09:22:26Z</time>
      </trkpt>
      <trkpt lat="45.9343862" lon="7.6343883">
        <ele>1967.6</ele>
        <time>2014-01-29T09:22:31Z</time>
      </trkpt>
      <trkpt lat="45.9344453" lon="7.6344689">
        <ele>1970.6</ele>
        <time>2014-01-29T09:22:33Z</time>
      </trkpt>
      <trkpt lat="45.9344955" lon="7.6345619">
        <ele>1970.6</ele>
        <time>2014-01-29T09:22:35Z</time>
      </trkpt>
      <trkpt lat="45.9345763" lon="7.6347969">
        <ele>1970.6</ele>
        <time>2014-01-29T09:22:40Z</time>
      </trkpt>
      <trkpt lat="45.934698" lon="7.6351645">
        <ele>1971.6</ele>
        <time>2014-01-29T09:22:48Z</time>
      </trkpt>
      <trkpt lat="45.9347499" lon="7.6353547">
        <ele>1972.8</ele>
        <time>2014-01-29T09:22:52Z</time>
      </trkpt>
      <trkpt lat="45.93479" lon="7.6354373">
        <ele>1974</ele>
        <time>2014-01-29T09:22:54Z</time>
      </trkpt>
      <trkpt lat="45.9348004" lon="7.635482">
        <ele>1974</ele>
        <time>2014-01-29T09:22:55Z</time>
      </trkpt>
      <trkpt lat="45.9348113" lon="7.6355379">
        <ele>1975.2</ele>
        <time>2014-01-29T09:22:56Z</time>
      </trkpt>
      <trkpt lat="45.9348447" lon="7.6356253">
        <ele>1976.6</ele>
        <time>2014-01-29T09:22:58Z</time>
      </trkpt>
      <trkpt lat="45.9348902" lon="7.6357622">
        <ele>1976.6</ele>
        <time>2014-01-29T09:23:01Z</time>
      </trkpt>
      <trkpt lat="45.9350302" lon="7.6361885">
        <ele>1976.6</ele>
        <time>2014-01-29T09:23:10Z</time>
      </trkpt>
      <trkpt lat="45.9351135" lon="7.6364803">
        <ele>1977.6</ele>
        <time>2014-01-29T09:23:16Z</time>
      </trkpt>
      <trkpt lat="45.935152" lon="7.63661">
        <ele>1978.8</ele>
        <time>2014-01-29T09:23:19Z</time>
      </trkpt>
      <trkpt lat="45.9351685" lon="7.6366702">
        <ele>1978.8</ele>
        <time>2014-01-29T09:23:20Z</time>
      </trkpt>
      <trkpt lat="45.9351794" lon="7.6367106">
        <ele>1979.8</ele>
        <time>2014-01-29T09:23:21Z</time>
      </trkpt>
      <trkpt lat="45.9351984" lon="7.6367665">
        <ele>1980.8</ele>
        <time>2014-01-29T09:23:22Z</time>
      </trkpt>
      <trkpt lat="45.9352926" lon="7.6370439">
        <ele>1980.8</ele>
        <time>2014-01-29T09:23:28Z</time>
      </trkpt>
      <trkpt lat="45.9353975" lon="7.6373624">
        <ele>1981.8</ele>
        <time>2014-01-29T09:23:35Z</time>
      </trkpt>
      <trkpt lat="45.9354322" lon="7.6374501">
        <ele>1981.8</ele>
        <time>2014-01-29T09:23:37Z</time>
      </trkpt>
      <trkpt lat="45.9354851" lon="7.6375941">
        <ele>1983</ele>
        <time>2014-01-29T09:23:40Z</time>
      </trkpt>
      <trkpt lat="45.9355208" lon="7.6376785">
        <ele>1984</ele>
        <time>2014-01-29T09:23:42Z</time>
      </trkpt>
      <trkpt lat="45.9355477" lon="7.6377704">
        <ele>1985.2</ele>
        <time>2014-01-29T09:23:44Z</time>
      </trkpt>
      <trkpt lat="45.9355662" lon="7.6378103">
        <ele>1986.4</ele>
        <time>2014-01-29T09:23:45Z</time>
      </trkpt>
      <trkpt lat="45.9356552" lon="7.6380275">
        <ele>1986.4</ele>
        <time>2014-01-29T09:23:50Z</time>
      </trkpt>
      <trkpt lat="45.9357773" lon="7.638345">
        <ele>1986.4</ele>
        <time>2014-01-29T09:23:57Z</time>
      </trkpt>
      <trkpt lat="45.9358728" lon="7.6386258">
        <ele>1987.4</ele>
        <time>2014-01-29T09:24:03Z</time>
      </trkpt>
      <trkpt lat="45.9359018" lon="7.6387134">
        <ele>1988.6</ele>
        <time>2014-01-29T09:24:05Z</time>
      </trkpt>
      <trkpt lat="45.9359191" lon="7.6387742">
        <ele>1988.6</ele>
        <time>2014-01-29T09:24:06Z</time>
      </trkpt>
      <trkpt lat="45.9359613" lon="7.6389087">
        <ele>1989.6</ele>
        <time>2014-01-29T09:24:09Z</time>
      </trkpt>
      <trkpt lat="45.9359785" lon="7.6389632">
        <ele>1990.6</ele>
        <time>2014-01-29T09:24:10Z</time>
      </trkpt>
      <trkpt lat="45.9360065" lon="7.639055">
        <ele>1991.6</ele>
        <time>2014-01-29T09:24:12Z</time>
      </trkpt>
      <trkpt lat="45.9360345" lon="7.6391491">
        <ele>1992.8</ele>
        <time>2014-01-29T09:24:14Z</time>
      </trkpt>
      <trkpt lat="45.9360643" lon="7.6392463">
        <ele>1994</ele>
        <time>2014-01-29T09:24:16Z</time>
      </trkpt>
      <trkpt lat="45.936078" lon="7.6392879">
        <ele>1995</ele>
        <time>2014-01-29T09:24:17Z</time>
      </trkpt>
      <trkpt lat="45.9360924" lon="7.6393396">
        <ele>1995</ele>
        <time>2014-01-29T09:24:18Z</time>
      </trkpt>
      <trkpt lat="45.9361651" lon="7.6395604">
        <ele>1996.2</ele>
        <time>2014-01-29T09:24:23Z</time>
      </trkpt>
      <trkpt lat="45.9361784" lon="7.6396122">
        <ele>1996.2</ele>
        <time>2014-01-29T09:24:24Z</time>
      </trkpt>
      <trkpt lat="45.9362344" lon="7.6398095">
        <ele>1997.2</ele>
        <time>2014-01-29T09:24:28Z</time>
      </trkpt>
      <trkpt lat="45.9362689" lon="7.6399472">
        <ele>1998.4</ele>
        <time>2014-01-29T09:24:31Z</time>
      </trkpt>
      <trkpt lat="45.936287" lon="7.6400009">
        <ele>1998.4</ele>
        <time>2014-01-29T09:24:32Z</time>
      </trkpt>
      <trkpt lat="45.936318" lon="7.6400917">
        <ele>1999.4</ele>
        <time>2014-01-29T09:24:34Z</time>
      </trkpt>
      <trkpt lat="45.9363508" lon="7.6401863">
        <ele>2000.8</ele>
        <time>2014-01-29T09:24:36Z</time>
      </trkpt>
      <trkpt lat="45.9363797" lon="7.6402793">
        <ele>2001.8</ele>
        <time>2014-01-29T09:24:38Z</time>
      </trkpt>
      <trkpt lat="45.9364056" lon="7.6403723">
        <ele>2003</ele>
        <time>2014-01-29T09:24:40Z</time>
      </trkpt>
      <trkpt lat="45.9364188" lon="7.6404094">
        <ele>2003</ele>
        <time>2014-01-29T09:24:41Z</time>
      </trkpt>
      <trkpt lat="45.9364427" lon="7.6404629">
        <ele>2004</ele>
        <time>2014-01-29T09:24:42Z</time>
      </trkpt>
      <trkpt lat="45.9365126" lon="7.6406935">
        <ele>2005.2</ele>
        <time>2014-01-29T09:24:47Z</time>
      </trkpt>
      <trkpt lat="45.9365461" lon="7.6407871">
        <ele>2006.4</ele>
        <time>2014-01-29T09:24:49Z</time>
      </trkpt>
      <trkpt lat="45.9365758" lon="7.6408777">
        <ele>2007.8</ele>
        <time>2014-01-29T09:24:51Z</time>
      </trkpt>
      <trkpt lat="45.9365991" lon="7.6409194">
        <ele>2009.2</ele>
        <time>2014-01-29T09:24:52Z</time>
      </trkpt>
      <trkpt lat="45.9366129" lon="7.640956">
        <ele>2011.8</ele>
        <time>2014-01-29T09:24:53Z</time>
      </trkpt>
      <trkpt lat="45.9366262" lon="7.6410055">
        <ele>2013</ele>
        <time>2014-01-29T09:24:54Z</time>
      </trkpt>
      <trkpt lat="45.936649" lon="7.6410505">
        <ele>2015.4</ele>
        <time>2014-01-29T09:24:55Z</time>
      </trkpt>
      <trkpt lat="45.9366701" lon="7.6410966">
        <ele>2016.6</ele>
        <time>2014-01-29T09:24:56Z</time>
      </trkpt>
      <trkpt lat="45.9366901" lon="7.6411229">
        <ele>2017.8</ele>
        <time>2014-01-29T09:24:57Z</time>
      </trkpt>
      <trkpt lat="45.9367173" lon="7.6411563">
        <ele>2017.8</ele>
        <time>2014-01-29T09:24:58Z</time>
      </trkpt>
      <trkpt lat="45.9367606" lon="7.6412668">
        <ele>2020.4</ele>
        <time>2014-01-29T09:25:01Z</time>
      </trkpt>
      <trkpt lat="45.9367944" lon="7.641351">
        <ele>2021.8</ele>
        <time>2014-01-29T09:25:03Z</time>
      </trkpt>
      <trkpt lat="45.9368198" lon="7.6414273">
        <ele>2023</ele>
        <time>2014-01-29T09:25:05Z</time>
      </trkpt>
      <trkpt lat="45.9368488" lon="7.6415089">
        <ele>2024.4</ele>
        <time>2014-01-29T09:25:07Z</time>
      </trkpt>
      <trkpt lat="45.9368699" lon="7.6416035">
        <ele>2026.2</ele>
        <time>2014-01-29T09:25:09Z</time>
      </trkpt>
      <trkpt lat="45.9368802" lon="7.6416556">
        <ele>2027.4</ele>
        <time>2014-01-29T09:25:10Z</time>
      </trkpt>
      <trkpt lat="45.936921" lon="7.6417431">
        <ele>2029</ele>
        <time>2014-01-29T09:25:12Z</time>
      </trkpt>
      <trkpt lat="45.9369562" lon="7.6418266">
        <ele>2030</ele>
        <time>2014-01-29T09:25:14Z</time>
      </trkpt>
      <trkpt lat="45.9369902" lon="7.6419063">
        <ele>2031.6</ele>
        <time>2014-01-29T09:25:16Z</time>
      </trkpt>
      <trkpt lat="45.9369995" lon="7.6419374">
        <ele>2032.6</ele>
        <time>2014-01-29T09:25:17Z</time>
      </trkpt>
      <trkpt lat="45.9370182" lon="7.6419868">
        <ele>2033.6</ele>
        <time>2014-01-29T09:25:18Z</time>
      </trkpt>
      <trkpt lat="45.9370503" lon="7.642071">
        <ele>2035.2</ele>
        <time>2014-01-29T09:25:20Z</time>
      </trkpt>
      <trkpt lat="45.9370701" lon="7.6420906">
        <ele>2035.2</ele>
        <time>2014-01-29T09:25:21Z</time>
      </trkpt>
      <trkpt lat="45.9370879" lon="7.6421427">
        <ele>2036.6</ele>
        <time>2014-01-29T09:25:22Z</time>
      </trkpt>
      <trkpt lat="45.9371005" lon="7.6421777">
        <ele>2037.6</ele>
        <time>2014-01-29T09:25:23Z</time>
      </trkpt>
      <trkpt lat="45.9371157" lon="7.6422211">
        <ele>2038.8</ele>
        <time>2014-01-29T09:25:24Z</time>
      </trkpt>
      <trkpt lat="45.9371453" lon="7.6423024">
        <ele>2040.4</ele>
        <time>2014-01-29T09:25:26Z</time>
      </trkpt>
      <trkpt lat="45.9371867" lon="7.6424088">
        <ele>2041.8</ele>
        <time>2014-01-29T09:25:28Z</time>
      </trkpt>
      <trkpt lat="45.9372267" lon="7.6425044">
        <ele>2043.4</ele>
        <time>2014-01-29T09:25:30Z</time>
      </trkpt>
      <trkpt lat="45.9372421" lon="7.642542">
        <ele>2043.4</ele>
        <time>2014-01-29T09:25:31Z</time>
      </trkpt>
      <trkpt lat="45.9372666" lon="7.6426005">
        <ele>2044.4</ele>
        <time>2014-01-29T09:25:32Z</time>
      </trkpt>
      <trkpt lat="45.9373259" lon="7.6427453">
        <ele>2045.6</ele>
        <time>2014-01-29T09:25:35Z</time>
      </trkpt>
      <trkpt lat="45.9374088" lon="7.6429154">
        <ele>2046.8</ele>
        <time>2014-01-29T09:25:38Z</time>
      </trkpt>
      <trkpt lat="45.9374745" lon="7.6430548">
        <ele>2047.8</ele>
        <time>2014-01-29T09:25:41Z</time>
      </trkpt>
      <trkpt lat="45.9375452" lon="7.6432128">
        <ele>2049</ele>
        <time>2014-01-29T09:25:44Z</time>
      </trkpt>
      <trkpt lat="45.9375626" lon="7.6432582">
        <ele>2049</ele>
        <time>2014-01-29T09:25:45Z</time>
      </trkpt>
      <trkpt lat="45.9375948" lon="7.6433586">
        <ele>2050.2</ele>
        <time>2014-01-29T09:25:47Z</time>
      </trkpt>
      <trkpt lat="45.9376655" lon="7.6435137">
        <ele>2051.4</ele>
        <time>2014-01-29T09:25:50Z</time>
      </trkpt>
      <trkpt lat="45.9376968" lon="7.6435977">
        <ele>2052.6</ele>
        <time>2014-01-29T09:25:52Z</time>
      </trkpt>
      <trkpt lat="45.9377164" lon="7.6436686">
        <ele>2052.6</ele>
        <time>2014-01-29T09:25:54Z</time>
      </trkpt>
      <trkpt lat="45.9377568" lon="7.6437658">
        <ele>2053.8</ele>
        <time>2014-01-29T09:25:56Z</time>
      </trkpt>
      <trkpt lat="45.9377937" lon="7.6438484">
        <ele>2053.8</ele>
        <time>2014-01-29T09:25:58Z</time>
      </trkpt>
      <trkpt lat="45.9378093" lon="7.6438888">
        <ele>2054.8</ele>
        <time>2014-01-29T09:25:59Z</time>
      </trkpt>
      <trkpt lat="45.9378449" lon="7.6439722">
        <ele>2055.8</ele>
        <time>2014-01-29T09:26:01Z</time>
      </trkpt>
      <trkpt lat="45.9378801" lon="7.6440599">
        <ele>2057.2</ele>
        <time>2014-01-29T09:26:03Z</time>
      </trkpt>
      <trkpt lat="45.9379101" lon="7.6441322">
        <ele>2058.6</ele>
        <time>2014-01-29T09:26:05Z</time>
      </trkpt>
      <trkpt lat="45.9379297" lon="7.6441768">
        <ele>2058.6</ele>
        <time>2014-01-29T09:26:06Z</time>
      </trkpt>
      <trkpt lat="45.9379434" lon="7.6442115">
        <ele>2060.2</ele>
        <time>2014-01-29T09:26:07Z</time>
      </trkpt>
      <trkpt lat="45.9379719" lon="7.6442817">
        <ele>2062</ele>
        <time>2014-01-29T09:26:09Z</time>
      </trkpt>
      <trkpt lat="45.9379876" lon="7.6443251">
        <ele>2063</ele>
        <time>2014-01-29T09:26:10Z</time>
      </trkpt>
      <trkpt lat="45.9380085" lon="7.6443394">
        <ele>2064.2</ele>
        <time>2014-01-29T09:26:11Z</time>
      </trkpt>
      <trkpt lat="45.9380337" lon="7.6443852">
        <ele>2065.2</ele>
        <time>2014-01-29T09:26:12Z</time>
      </trkpt>
      <trkpt lat="45.9380534" lon="7.6444326">
        <ele>2065.2</ele>
        <time>2014-01-29T09:26:13Z</time>
      </trkpt>
      <trkpt lat="45.9380797" lon="7.6444802">
        <ele>2066.4</ele>
        <time>2014-01-29T09:26:14Z</time>
      </trkpt>
      <trkpt lat="45.9381192" lon="7.6445716">
        <ele>2068.2</ele>
        <time>2014-01-29T09:26:16Z</time>
      </trkpt>
      <trkpt lat="45.9381511" lon="7.6446655">
        <ele>2070</ele>
        <time>2014-01-29T09:26:18Z</time>
      </trkpt>
      <trkpt lat="45.9381674" lon="7.6446999">
        <ele>2070</ele>
        <time>2014-01-29T09:26:19Z</time>
      </trkpt>
      <trkpt lat="45.938189" lon="7.6447461">
        <ele>2072</ele>
        <time>2014-01-29T09:26:20Z</time>
      </trkpt>
      <trkpt lat="45.9382007" lon="7.6447813">
        <ele>2073.2</ele>
        <time>2014-01-29T09:26:21Z</time>
      </trkpt>
      <trkpt lat="45.9382486" lon="7.64488">
        <ele>2074.8</ele>
        <time>2014-01-29T09:26:23Z</time>
      </trkpt>
      <trkpt lat="45.938263" lon="7.6449235">
        <ele>2076.2</ele>
        <time>2014-01-29T09:26:24Z</time>
      </trkpt>
      <trkpt lat="45.938264" lon="7.6449326">
        <ele>2079</ele>
        <time>2014-01-29T09:26:25Z</time>
      </trkpt>
      <trkpt lat="45.9382739" lon="7.6449552">
        <ele>2081.6</ele>
        <time>2014-01-29T09:26:26Z</time>
      </trkpt>
      <trkpt lat="45.9382733" lon="7.6449705">
        <ele>2083.8</ele>
        <time>2014-01-29T09:26:27Z</time>
      </trkpt>
      <trkpt lat="45.9382749" lon="7.6450091">
        <ele>2086.4</ele>
        <time>2014-01-29T09:26:28Z</time>
      </trkpt>
      <trkpt lat="45.9382833" lon="7.6450361">
        <ele>2089.2</ele>
        <time>2014-01-29T09:26:29Z</time>
      </trkpt>
      <trkpt lat="45.9382941" lon="7.6450694">
        <ele>2092</ele>
        <time>2014-01-29T09:26:30Z</time>
      </trkpt>
      <trkpt lat="45.9382971" lon="7.6450848">
        <ele>2094.6</ele>
        <time>2014-01-29T09:26:31Z</time>
      </trkpt>
      <trkpt lat="45.9383095" lon="7.6451292">
        <ele>2097</ele>
        <time>2014-01-29T09:26:32Z</time>
      </trkpt>
      <trkpt lat="45.9383167" lon="7.6451679">
        <ele>2099.2</ele>
        <time>2014-01-29T09:26:33Z</time>
      </trkpt>
      <trkpt lat="45.9383234" lon="7.6451909">
        <ele>2102</ele>
        <time>2014-01-29T09:26:34Z</time>
      </trkpt>
      <trkpt lat="45.9383291" lon="7.6452225">
        <ele>2104.6</ele>
        <time>2014-01-29T09:26:35Z</time>
      </trkpt>
      <trkpt lat="45.9383365" lon="7.6452699">
        <ele>2106.4</ele>
        <time>2014-01-29T09:26:36Z</time>
      </trkpt>
      <trkpt lat="45.938346" lon="7.6453049">
        <ele>2108</ele>
        <time>2014-01-29T09:26:37Z</time>
      </trkpt>
      <trkpt lat="45.9383705" lon="7.645375">
        <ele>2110.4</ele>
        <time>2014-01-29T09:26:38Z</time>
      </trkpt>
      <trkpt lat="45.938378" lon="7.6454042">
        <ele>2112</ele>
        <time>2014-01-29T09:26:39Z</time>
      </trkpt>
      <trkpt lat="45.9383942" lon="7.6454555">
        <ele>2113.6</ele>
        <time>2014-01-29T09:26:40Z</time>
      </trkpt>
      <trkpt lat="45.9384079" lon="7.6454879">
        <ele>2114.8</ele>
        <time>2014-01-29T09:26:41Z</time>
      </trkpt>
      <trkpt lat="45.9384301" lon="7.6455271">
        <ele>2116</ele>
        <time>2014-01-29T09:26:42Z</time>
      </trkpt>
      <trkpt lat="45.9384407" lon="7.6455724">
        <ele>2117.2</ele>
        <time>2014-01-29T09:26:43Z</time>
      </trkpt>
      <trkpt lat="45.9384573" lon="7.6456078">
        <ele>2118.4</ele>
        <time>2014-01-29T09:26:44Z</time>
      </trkpt>
      <trkpt lat="45.9384586" lon="7.6456438">
        <ele>2120.2</ele>
        <time>2014-01-29T09:26:45Z</time>
      </trkpt>
      <trkpt lat="45.9384731" lon="7.6456954">
        <ele>2121.2</ele>
        <time>2014-01-29T09:26:46Z</time>
      </trkpt>
      <trkpt lat="45.9384847" lon="7.6457444">
        <ele>2122.8</ele>
        <time>2014-01-29T09:26:47Z</time>
      </trkpt>
      <trkpt lat="45.9384974" lon="7.6457997">
        <ele>2124.8</ele>
        <time>2014-01-29T09:26:48Z</time>
      </trkpt>
      <trkpt lat="45.93851" lon="7.6458447">
        <ele>2126.4</ele>
        <time>2014-01-29T09:26:49Z</time>
      </trkpt>
      <trkpt lat="45.9385244" lon="7.6459042">
        <ele>2128.2</ele>
        <time>2014-01-29T09:26:50Z</time>
      </trkpt>
      <trkpt lat="45.9385271" lon="7.6459333">
        <ele>2130.6</ele>
        <time>2014-01-29T09:26:51Z</time>
      </trkpt>
      <trkpt lat="45.9385327" lon="7.6459608">
        <ele>2132.8</ele>
        <time>2014-01-29T09:26:52Z</time>
      </trkpt>
      <trkpt lat="45.9385332" lon="7.6459982">
        <ele>2135.8</ele>
        <time>2014-01-29T09:26:53Z</time>
      </trkpt>
      <trkpt lat="45.9385386" lon="7.6460431">
        <ele>2138.4</ele>
        <time>2014-01-29T09:26:54Z</time>
      </trkpt>
      <trkpt lat="45.9385479" lon="7.6460904">
        <ele>2140.2</ele>
        <time>2014-01-29T09:26:55Z</time>
      </trkpt>
      <trkpt lat="45.9385574" lon="7.6461479">
        <ele>2141.8</ele>
        <time>2014-01-29T09:26:56Z</time>
      </trkpt>
      <trkpt lat="45.9385613" lon="7.6461902">
        <ele>2143.4</ele>
        <time>2014-01-29T09:26:57Z</time>
      </trkpt>
      <trkpt lat="45.9385683" lon="7.6462384">
        <ele>2145.8</ele>
        <time>2014-01-29T09:26:58Z</time>
      </trkpt>
      <trkpt lat="45.9385742" lon="7.6462691">
        <ele>2147.6</ele>
        <time>2014-01-29T09:26:59Z</time>
      </trkpt>
      <trkpt lat="45.9385886" lon="7.6463203">
        <ele>2149.4</ele>
        <time>2014-01-29T09:27:00Z</time>
      </trkpt>
      <trkpt lat="45.9386007" lon="7.646354">
        <ele>2151.2</ele>
        <time>2014-01-29T09:27:01Z</time>
      </trkpt>
      <trkpt lat="45.938614" lon="7.6464055">
        <ele>2153</ele>
        <time>2014-01-29T09:27:02Z</time>
      </trkpt>
      <trkpt lat="45.9386242" lon="7.6464408">
        <ele>2154.6</ele>
        <time>2014-01-29T09:27:03Z</time>
      </trkpt>
      <trkpt lat="45.93863" lon="7.646498">
        <ele>2156.2</ele>
        <time>2014-01-29T09:27:04Z</time>
      </trkpt>
      <trkpt lat="45.9386539" lon="7.6465891">
        <ele>2158.4</ele>
        <time>2014-01-29T09:27:06Z</time>
      </trkpt>
      <trkpt lat="45.9386839" lon="7.6466911">
        <ele>2159.8</ele>
        <time>2014-01-29T09:27:08Z</time>
      </trkpt>
      <trkpt lat="45.9386879" lon="7.6467199">
        <ele>2161</ele>
        <time>2014-01-29T09:27:09Z</time>
      </trkpt>
      <trkpt lat="45.938699" lon="7.6467679">
        <ele>2161</ele>
        <time>2014-01-29T09:27:10Z</time>
      </trkpt>
      <trkpt lat="45.938702" lon="7.6467872">
        <ele>2162.8</ele>
        <time>2014-01-29T09:27:11Z</time>
      </trkpt>
      <trkpt lat="45.9387071" lon="7.6468347">
        <ele>2164.2</ele>
        <time>2014-01-29T09:27:12Z</time>
      </trkpt>
      <trkpt lat="45.9387113" lon="7.6468695">
        <ele>2165.4</ele>
        <time>2014-01-29T09:27:13Z</time>
      </trkpt>
      <trkpt lat="45.9387395" lon="7.6469506">
        <ele>2161.8</ele>
        <time>2014-01-29T09:27:15Z</time>
      </trkpt>
      <trkpt lat="45.9387488" lon="7.6469993">
        <ele>2161.8</ele>
        <time>2014-01-29T09:27:16Z</time>
      </trkpt>
      <trkpt lat="45.9387636" lon="7.6470752">
        <ele>2165.6</ele>
        <time>2014-01-29T09:27:18Z</time>
      </trkpt>
      <trkpt lat="45.9387659" lon="7.6471066">
        <ele>2167.8</ele>
        <time>2014-01-29T09:27:19Z</time>
      </trkpt>
      <trkpt lat="45.9387878" lon="7.6471588">
        <ele>2169.2</ele>
        <time>2014-01-29T09:27:20Z</time>
      </trkpt>
      <trkpt lat="45.9388052" lon="7.6471872">
        <ele>2172</ele>
        <time>2014-01-29T09:27:21Z</time>
      </trkpt>
      <trkpt lat="45.9388317" lon="7.6472301">
        <ele>2173.6</ele>
        <time>2014-01-29T09:27:22Z</time>
      </trkpt>
      <trkpt lat="45.9388441" lon="7.6472761">
        <ele>2176</ele>
        <time>2014-01-29T09:27:23Z</time>
      </trkpt>
      <trkpt lat="45.938861" lon="7.6473159">
        <ele>2177.8</ele>
        <time>2014-01-29T09:27:24Z</time>
      </trkpt>
      <trkpt lat="45.9388802" lon="7.647361">
        <ele>2179</ele>
        <time>2014-01-29T09:27:25Z</time>
      </trkpt>
      <trkpt lat="45.9389022" lon="7.6474144">
        <ele>2181.8</ele>
        <time>2014-01-29T09:27:26Z</time>
      </trkpt>
      <trkpt lat="45.9389099" lon="7.6474594">
        <ele>2183.2</ele>
        <time>2014-01-29T09:27:27Z</time>
      </trkpt>
      <trkpt lat="45.9389306" lon="7.6475171">
        <ele>2186</ele>
        <time>2014-01-29T09:27:28Z</time>
      </trkpt>
      <trkpt lat="45.9389455" lon="7.6475567">
        <ele>2187.6</ele>
        <time>2014-01-29T09:27:29Z</time>
      </trkpt>
      <trkpt lat="45.9389748" lon="7.647606">
        <ele>2189.2</ele>
        <time>2014-01-29T09:27:30Z</time>
      </trkpt>
      <trkpt lat="45.9389949" lon="7.64763">
        <ele>2190.8</ele>
        <time>2014-01-29T09:27:31Z</time>
      </trkpt>
      <trkpt lat="45.9390244" lon="7.6476728">
        <ele>2194</ele>
        <time>2014-01-29T09:27:32Z</time>
      </trkpt>
      <trkpt lat="45.9390431" lon="7.6477201">
        <ele>2195.6</ele>
        <time>2014-01-29T09:27:33Z</time>
      </trkpt>
      <trkpt lat="45.939051" lon="7.6478031">
        <ele>2199</ele>
        <time>2014-01-29T09:27:34Z</time>
      </trkpt>
      <trkpt lat="45.9390648" lon="7.6478505">
        <ele>2200.4</ele>
        <time>2014-01-29T09:27:35Z</time>
      </trkpt>
      <trkpt lat="45.9390882" lon="7.647915">
        <ele>2203.6</ele>
        <time>2014-01-29T09:27:36Z</time>
      </trkpt>
      <trkpt lat="45.9391024" lon="7.6479665">
        <ele>2205</ele>
        <time>2014-01-29T09:27:37Z</time>
      </trkpt>
      <trkpt lat="45.9391255" lon="7.6480286">
        <ele>2207.8</ele>
        <time>2014-01-29T09:27:38Z</time>
      </trkpt>
      <trkpt lat="45.9391445" lon="7.6480846">
        <ele>2209.2</ele>
        <time>2014-01-29T09:27:39Z</time>
      </trkpt>
      <trkpt lat="45.9391622" lon="7.6481462">
        <ele>2212</ele>
        <time>2014-01-29T09:27:40Z</time>
      </trkpt>
      <trkpt lat="45.9391794" lon="7.6481934">
        <ele>2213.6</ele>
        <time>2014-01-29T09:27:41Z</time>
      </trkpt>
      <trkpt lat="45.9392041" lon="7.6482572">
        <ele>2216.6</ele>
        <time>2014-01-29T09:27:42Z</time>
      </trkpt>
      <trkpt lat="45.9392207" lon="7.6482942">
        <ele>2218</ele>
        <time>2014-01-29T09:27:43Z</time>
      </trkpt>
      <trkpt lat="45.9392453" lon="7.6483397">
        <ele>2221</ele>
        <time>2014-01-29T09:27:44Z</time>
      </trkpt>
      <trkpt lat="45.9392669" lon="7.6483792">
        <ele>2222.6</ele>
        <time>2014-01-29T09:27:45Z</time>
      </trkpt>
      <trkpt lat="45.9392617" lon="7.6484024">
        <ele>2225.4</ele>
        <time>2014-01-29T09:27:46Z</time>
      </trkpt>
      <trkpt lat="45.9392606" lon="7.6484219">
        <ele>2226.8</ele>
        <time>2014-01-29T09:27:47Z</time>
      </trkpt>
      <trkpt lat="45.9392649" lon="7.6484452">
        <ele>2230.2</ele>
        <time>2014-01-29T09:27:48Z</time>
      </trkpt>
      <trkpt lat="45.9392643" lon="7.6484588">
        <ele>2232</ele>
        <time>2014-01-29T09:27:49Z</time>
      </trkpt>
      <trkpt lat="45.9392691" lon="7.6484912">
        <ele>2233.8</ele>
        <time>2014-01-29T09:27:50Z</time>
      </trkpt>
      <trkpt lat="45.9392711" lon="7.648511">
        <ele>2236.6</ele>
        <time>2014-01-29T09:27:51Z</time>
      </trkpt>
      <trkpt lat="45.9392766" lon="7.6485416">
        <ele>2239.6</ele>
        <time>2014-01-29T09:27:52Z</time>
      </trkpt>
      <trkpt lat="45.9392769" lon="7.648559">
        <ele>2242.2</ele>
        <time>2014-01-29T09:27:53Z</time>
      </trkpt>
      <trkpt lat="45.9392808" lon="7.6485824">
        <ele>2244.8</ele>
        <time>2014-01-29T09:27:54Z</time>
      </trkpt>
      <trkpt lat="45.9392871" lon="7.6486069">
        <ele>2245.8</ele>
        <time>2014-01-29T09:27:55Z</time>
      </trkpt>
      <trkpt lat="45.9393026" lon="7.6486567">
        <ele>2248.6</ele>
        <time>2014-01-29T09:27:56Z</time>
      </trkpt>
      <trkpt lat="45.9393124" lon="7.6486853">
        <ele>2249.8</ele>
        <time>2014-01-29T09:27:57Z</time>
      </trkpt>
      <trkpt lat="45.9393336" lon="7.6487342">
        <ele>2251.4</ele>
        <time>2014-01-29T09:27:58Z</time>
      </trkpt>
      <trkpt lat="45.9393394" lon="7.6487628">
        <ele>2252.6</ele>
        <time>2014-01-29T09:27:59Z</time>
      </trkpt>
      <trkpt lat="45.939354" lon="7.6488108">
        <ele>2253.6</ele>
        <time>2014-01-29T09:28:00Z</time>
      </trkpt>
      <trkpt lat="45.9393673" lon="7.6488452">
        <ele>2255</ele>
        <time>2014-01-29T09:28:01Z</time>
      </trkpt>
      <trkpt lat="45.9393785" lon="7.6488881">
        <ele>2256.4</ele>
        <time>2014-01-29T09:28:02Z</time>
      </trkpt>
      <trkpt lat="45.9393931" lon="7.6489223">
        <ele>2257.8</ele>
        <time>2014-01-29T09:28:03Z</time>
      </trkpt>
      <trkpt lat="45.9394062" lon="7.6489831">
        <ele>2259</ele>
        <time>2014-01-29T09:28:04Z</time>
      </trkpt>
      <trkpt lat="45.9394333" lon="7.649055">
        <ele>2260</ele>
        <time>2014-01-29T09:28:06Z</time>
      </trkpt>
      <trkpt lat="45.9394524" lon="7.6490955">
        <ele>2260</ele>
        <time>2014-01-29T09:28:07Z</time>
      </trkpt>
      <trkpt lat="45.9394719" lon="7.6491306">
        <ele>2262</ele>
        <time>2014-01-29T09:28:08Z</time>
      </trkpt>
      <trkpt lat="45.9394804" lon="7.649148">
        <ele>2264.8</ele>
        <time>2014-01-29T09:28:09Z</time>
      </trkpt>
      <trkpt lat="45.9395012" lon="7.6491946">
        <ele>2266.4</ele>
        <time>2014-01-29T09:28:10Z</time>
      </trkpt>
      <trkpt lat="45.9395156" lon="7.6492211">
        <ele>2268.4</ele>
        <time>2014-01-29T09:28:11Z</time>
      </trkpt>
      <trkpt lat="45.9395254" lon="7.6492553">
        <ele>2271</ele>
        <time>2014-01-29T09:28:12Z</time>
      </trkpt>
      <trkpt lat="45.9395321" lon="7.6492838">
        <ele>2273.6</ele>
        <time>2014-01-29T09:28:13Z</time>
      </trkpt>
      <trkpt lat="45.9395416" lon="7.6493232">
        <ele>2275.8</ele>
        <time>2014-01-29T09:28:14Z</time>
      </trkpt>
      <trkpt lat="45.9395512" lon="7.6493564">
        <ele>2277.8</ele>
        <time>2014-01-29T09:28:15Z</time>
      </trkpt>
      <trkpt lat="45.9395641" lon="7.6493988">
        <ele>2280.2</ele>
        <time>2014-01-29T09:28:16Z</time>
      </trkpt>
      <trkpt lat="45.9395675" lon="7.6494284">
        <ele>2282</ele>
        <time>2014-01-29T09:28:17Z</time>
      </trkpt>
      <trkpt lat="45.9395788" lon="7.6494686">
        <ele>2283.6</ele>
        <time>2014-01-29T09:28:18Z</time>
      </trkpt>
      <trkpt lat="45.9395861" lon="7.6494978">
        <ele>2285.6</ele>
        <time>2014-01-29T09:28:19Z</time>
      </trkpt>
      <trkpt lat="45.9395982" lon="7.649543">
        <ele>2288</ele>
        <time>2014-01-29T09:28:20Z</time>
      </trkpt>
      <trkpt lat="45.9396035" lon="7.6495798">
        <ele>2290.6</ele>
        <time>2014-01-29T09:28:21Z</time>
      </trkpt>
      <trkpt lat="45.9396153" lon="7.6496319">
        <ele>2293</ele>
        <time>2014-01-29T09:28:22Z</time>
      </trkpt>
      <trkpt lat="45.939622" lon="7.6496674">
        <ele>2295.2</ele>
        <time>2014-01-29T09:28:23Z</time>
      </trkpt>
      <trkpt lat="45.9396313" lon="7.649717">
        <ele>2297.6</ele>
        <time>2014-01-29T09:28:24Z</time>
      </trkpt>
      <trkpt lat="45.9396408" lon="7.6497595">
        <ele>2299.8</ele>
        <time>2014-01-29T09:28:25Z</time>
      </trkpt>
      <trkpt lat="45.9396534" lon="7.6498155">
        <ele>2301.8</ele>
        <time>2014-01-29T09:28:26Z</time>
      </trkpt>
      <trkpt lat="45.9396639" lon="7.6498536">
        <ele>2303.4</ele>
        <time>2014-01-29T09:28:27Z</time>
      </trkpt>
      <trkpt lat="45.9396801" lon="7.6499085">
        <ele>2305.4</ele>
        <time>2014-01-29T09:28:28Z</time>
      </trkpt>
      <trkpt lat="45.9396865" lon="7.6499533">
        <ele>2308</ele>
        <time>2014-01-29T09:28:29Z</time>
      </trkpt>
      <trkpt lat="45.9396992" lon="7.6500129">
        <ele>2310.4</ele>
        <time>2014-01-29T09:28:30Z</time>
      </trkpt>
      <trkpt lat="45.9397149" lon="7.6500354">
        <ele>2312.2</ele>
        <time>2014-01-29T09:28:31Z</time>
      </trkpt>
      <trkpt lat="45.939732" lon="7.6500925">
        <ele>2314.2</ele>
        <time>2014-01-29T09:28:32Z</time>
      </trkpt>
      <trkpt lat="45.9397436" lon="7.6501477">
        <ele>2316.2</ele>
        <time>2014-01-29T09:28:33Z</time>
      </trkpt>
      <trkpt lat="45.9397609" lon="7.6502072">
        <ele>2318</ele>
        <time>2014-01-29T09:28:34Z</time>
      </trkpt>
      <trkpt lat="45.939772" lon="7.650255">
        <ele>2319.2</ele>
        <time>2014-01-29T09:28:35Z</time>
      </trkpt>
      <trkpt lat="45.9397759" lon="7.6502763">
        <ele>2321</ele>
        <time>2014-01-29T09:28:36Z</time>
      </trkpt>
      <trkpt lat="45.9398007" lon="7.6503577">
        <ele>2322.2</ele>
        <time>2014-01-29T09:28:37Z</time>
      </trkpt>
      <trkpt lat="45.9398225" lon="7.6504296">
        <ele>2323.6</ele>
        <time>2014-01-29T09:28:38Z</time>
      </trkpt>
      <trkpt lat="45.9398305" lon="7.6504716">
        <ele>2325.2</ele>
        <time>2014-01-29T09:28:39Z</time>
      </trkpt>
      <trkpt lat="45.9398465" lon="7.6505333">
        <ele>2326.6</ele>
        <time>2014-01-29T09:28:40Z</time>
      </trkpt>
      <trkpt lat="45.9398532" lon="7.650565">
        <ele>2328.4</ele>
        <time>2014-01-29T09:28:41Z</time>
      </trkpt>
      <trkpt lat="45.9398714" lon="7.6506206">
        <ele>2330.8</ele>
        <time>2014-01-29T09:28:42Z</time>
      </trkpt>
      <trkpt lat="45.939887" lon="7.6506695">
        <ele>2333</ele>
        <time>2014-01-29T09:28:43Z</time>
      </trkpt>
      <trkpt lat="45.9399034" lon="7.6507236">
        <ele>2335.2</ele>
        <time>2014-01-29T09:28:44Z</time>
      </trkpt>
      <trkpt lat="45.939917" lon="7.65077">
        <ele>2337.2</ele>
        <time>2014-01-29T09:28:45Z</time>
      </trkpt>
      <trkpt lat="45.9399338" lon="7.650827">
        <ele>2339</ele>
        <time>2014-01-29T09:28:46Z</time>
      </trkpt>
      <trkpt lat="45.9399465" lon="7.6508624">
        <ele>2340.2</ele>
        <time>2014-01-29T09:28:47Z</time>
      </trkpt>
      <trkpt lat="45.9399629" lon="7.6509161">
        <ele>2342</ele>
        <time>2014-01-29T09:28:48Z</time>
      </trkpt>
      <trkpt lat="45.9399727" lon="7.650962">
        <ele>2343.2</ele>
        <time>2014-01-29T09:28:49Z</time>
      </trkpt>
      <trkpt lat="45.9399876" lon="7.6510223">
        <ele>2344.4</ele>
        <time>2014-01-29T09:28:50Z</time>
      </trkpt>
      <trkpt lat="45.9399973" lon="7.6510627">
        <ele>2345.6</ele>
        <time>2014-01-29T09:28:51Z</time>
      </trkpt>
      <trkpt lat="45.9400131" lon="7.6511222">
        <ele>2346.6</ele>
        <time>2014-01-29T09:28:52Z</time>
      </trkpt>
      <trkpt lat="45.9400237" lon="7.6511656">
        <ele>2347.6</ele>
        <time>2014-01-29T09:28:53Z</time>
      </trkpt>
      <trkpt lat="45.940039" lon="7.651215">
        <ele>2349</ele>
        <time>2014-01-29T09:28:54Z</time>
      </trkpt>
      <trkpt lat="45.9400534" lon="7.6512631">
        <ele>2350</ele>
        <time>2014-01-29T09:28:55Z</time>
      </trkpt>
      <trkpt lat="45.9400704" lon="7.651322">
        <ele>2351</ele>
        <time>2014-01-29T09:28:56Z</time>
      </trkpt>
      <trkpt lat="45.9400925" lon="7.6514262">
        <ele>2353.2</ele>
        <time>2014-01-29T09:28:58Z</time>
      </trkpt>
      <trkpt lat="45.9401032" lon="7.6514705">
        <ele>2354.2</ele>
        <time>2014-01-29T09:28:59Z</time>
      </trkpt>
      <trkpt lat="45.9401302" lon="7.6515702">
        <ele>2355.4</ele>
        <time>2014-01-29T09:29:01Z</time>
      </trkpt>
      <trkpt lat="45.9401573" lon="7.6516658">
        <ele>2357.2</ele>
        <time>2014-01-29T09:29:03Z</time>
      </trkpt>
      <trkpt lat="45.940169" lon="7.6517164">
        <ele>2358.2</ele>
        <time>2014-01-29T09:29:04Z</time>
      </trkpt>
      <trkpt lat="45.9401796" lon="7.6517609">
        <ele>2359.4</ele>
        <time>2014-01-29T09:29:05Z</time>
      </trkpt>
      <trkpt lat="45.940199" lon="7.6518158">
        <ele>2360.8</ele>
        <time>2014-01-29T09:29:06Z</time>
      </trkpt>
      <trkpt lat="45.9402129" lon="7.6518588">
        <ele>2361.8</ele>
        <time>2014-01-29T09:29:07Z</time>
      </trkpt>
      <trkpt lat="45.9402378" lon="7.6519334">
        <ele>2363</ele>
        <time>2014-01-29T09:29:08Z</time>
      </trkpt>
      <trkpt lat="45.9402516" lon="7.6519739">
        <ele>2363</ele>
        <time>2014-01-29T09:29:09Z</time>
      </trkpt>
      <trkpt lat="45.9402721" lon="7.6520342">
        <ele>2365.4</ele>
        <time>2014-01-29T09:29:10Z</time>
      </trkpt>
      <trkpt lat="45.9402826" lon="7.6520706">
        <ele>2366.8</ele>
        <time>2014-01-29T09:29:11Z</time>
      </trkpt>
      <trkpt lat="45.9402998" lon="7.6521171">
        <ele>2368</ele>
        <time>2014-01-29T09:29:12Z</time>
      </trkpt>
      <trkpt lat="45.9403169" lon="7.6521603">
        <ele>2371.4</ele>
        <time>2014-01-29T09:29:13Z</time>
      </trkpt>
      <trkpt lat="45.9403357" lon="7.6522054">
        <ele>2372.8</ele>
        <time>2014-01-29T09:29:14Z</time>
      </trkpt>
      <trkpt lat="45.9403541" lon="7.6522524">
        <ele>2375.8</ele>
        <time>2014-01-29T09:29:15Z</time>
      </trkpt>
      <trkpt lat="45.9403749" lon="7.6523029">
        <ele>2377.4</ele>
        <time>2014-01-29T09:29:16Z</time>
      </trkpt>
      <trkpt lat="45.9403914" lon="7.652343">
        <ele>2380.4</ele>
        <time>2014-01-29T09:29:17Z</time>
      </trkpt>
      <trkpt lat="45.9404116" lon="7.6523903">
        <ele>2382</ele>
        <time>2014-01-29T09:29:18Z</time>
      </trkpt>
      <trkpt lat="45.9404274" lon="7.6524296">
        <ele>2383.8</ele>
        <time>2014-01-29T09:29:19Z</time>
      </trkpt>
      <trkpt lat="45.940464" lon="7.6525176">
        <ele>2386</ele>
        <time>2014-01-29T09:29:21Z</time>
      </trkpt>
      <trkpt lat="45.9404869" lon="7.6525702">
        <ele>2387</ele>
        <time>2014-01-29T09:29:22Z</time>
      </trkpt>
      <trkpt lat="45.9405225" lon="7.6526518">
        <ele>2388.8</ele>
        <time>2014-01-29T09:29:24Z</time>
      </trkpt>
      <trkpt lat="45.9405424" lon="7.6526934">
        <ele>2390.4</ele>
        <time>2014-01-29T09:29:25Z</time>
      </trkpt>
      <trkpt lat="45.9405634" lon="7.6527413">
        <ele>2391.6</ele>
        <time>2014-01-29T09:29:26Z</time>
      </trkpt>
      <trkpt lat="45.9405786" lon="7.6527765">
        <ele>2392.8</ele>
        <time>2014-01-29T09:29:27Z</time>
      </trkpt>
      <trkpt lat="45.9405981" lon="7.6528244">
        <ele>2394.4</ele>
        <time>2014-01-29T09:29:28Z</time>
      </trkpt>
      <trkpt lat="45.9406096" lon="7.6528548">
        <ele>2396</ele>
        <time>2014-01-29T09:29:29Z</time>
      </trkpt>
      <trkpt lat="45.9406287" lon="7.6529001">
        <ele>2397.4</ele>
        <time>2014-01-29T09:29:30Z</time>
      </trkpt>
      <trkpt lat="45.9406414" lon="7.6529311">
        <ele>2399.2</ele>
        <time>2014-01-29T09:29:31Z</time>
      </trkpt>
      <trkpt lat="45.9406551" lon="7.6529706">
        <ele>2401.6</ele>
        <time>2014-01-29T09:29:32Z</time>
      </trkpt>
      <trkpt lat="45.9406628" lon="7.6530004">
        <ele>2404.2</ele>
        <time>2014-01-29T09:29:33Z</time>
      </trkpt>
      <trkpt lat="45.9406723" lon="7.6530362">
        <ele>2407</ele>
        <time>2014-01-29T09:29:34Z</time>
      </trkpt>
      <trkpt lat="45.940677" lon="7.6530609">
        <ele>2410</ele>
        <time>2014-01-29T09:29:35Z</time>
      </trkpt>
      <trkpt lat="45.940685" lon="7.6530943">
        <ele>2413.4</ele>
        <time>2014-01-29T09:29:36Z</time>
      </trkpt>
      <trkpt lat="45.9406891" lon="7.6531197">
        <ele>2417</ele>
        <time>2014-01-29T09:29:37Z</time>
      </trkpt>
      <trkpt lat="45.9406956" lon="7.6531548">
        <ele>2422</ele>
        <time>2014-01-29T09:29:38Z</time>
      </trkpt>
      <trkpt lat="45.9406984" lon="7.6531788">
        <ele>2424.8</ele>
        <time>2014-01-29T09:29:39Z</time>
      </trkpt>
      <trkpt lat="45.9407079" lon="7.6532191">
        <ele>2429.8</ele>
        <time>2014-01-29T09:29:40Z</time>
      </trkpt>
      <trkpt lat="45.9407126" lon="7.6532444">
        <ele>2432.4</ele>
        <time>2014-01-29T09:29:41Z</time>
      </trkpt>
      <trkpt lat="45.9407208" lon="7.6532814">
        <ele>2436.4</ele>
        <time>2014-01-29T09:29:42Z</time>
      </trkpt>
      <trkpt lat="45.9407283" lon="7.6533169">
        <ele>2440</ele>
        <time>2014-01-29T09:29:43Z</time>
      </trkpt>
      <trkpt lat="45.940738" lon="7.6533546">
        <ele>2444.8</ele>
        <time>2014-01-29T09:29:44Z</time>
      </trkpt>
      <trkpt lat="45.9407444" lon="7.6533854">
        <ele>2447.6</ele>
        <time>2014-01-29T09:29:45Z</time>
      </trkpt>
      <trkpt lat="45.9407526" lon="7.6534251">
        <ele>2452.6</ele>
        <time>2014-01-29T09:29:46Z</time>
      </trkpt>
      <trkpt lat="45.9407596" lon="7.6534645">
        <ele>2456.4</ele>
        <time>2014-01-29T09:29:47Z</time>
      </trkpt>
      <trkpt lat="45.9407717" lon="7.6535118">
        <ele>2459.8</ele>
        <time>2014-01-29T09:29:48Z</time>
      </trkpt>
      <trkpt lat="45.94078" lon="7.6535425">
        <ele>2462.4</ele>
        <time>2014-01-29T09:29:49Z</time>
      </trkpt>
      <trkpt lat="45.9407904" lon="7.6535849">
        <ele>2466.2</ele>
        <time>2014-01-29T09:29:50Z</time>
      </trkpt>
      <trkpt lat="45.9407974" lon="7.6536174">
        <ele>2468.2</ele>
        <time>2014-01-29T09:29:51Z</time>
      </trkpt>
      <trkpt lat="45.9408106" lon="7.6536645">
        <ele>2472.8</ele>
        <time>2014-01-29T09:29:52Z</time>
      </trkpt>
      <trkpt lat="45.9408191" lon="7.6536945">
        <ele>2474.4</ele>
        <time>2014-01-29T09:29:53Z</time>
      </trkpt>
      <trkpt lat="45.9408287" lon="7.6537328">
        <ele>2478.6</ele>
        <time>2014-01-29T09:29:54Z</time>
      </trkpt>
      <trkpt lat="45.940842" lon="7.6537678">
        <ele>2480.2</ele>
        <time>2014-01-29T09:29:55Z</time>
      </trkpt>
      <trkpt lat="45.9408509" lon="7.6537948">
        <ele>2484.2</ele>
        <time>2014-01-29T09:29:56Z</time>
      </trkpt>
      <trkpt lat="45.9408587" lon="7.653837">
        <ele>2485.4</ele>
        <time>2014-01-29T09:29:57Z</time>
      </trkpt>
      <trkpt lat="45.9408655" lon="7.6538889">
        <ele>2489</ele>
        <time>2014-01-29T09:29:58Z</time>
      </trkpt>
      <trkpt lat="45.9408788" lon="7.6539099">
        <ele>2491</ele>
        <time>2014-01-29T09:29:59Z</time>
      </trkpt>
      <trkpt lat="45.9409012" lon="7.6539547">
        <ele>2493.6</ele>
        <time>2014-01-29T09:30:00Z</time>
      </trkpt>
      <trkpt lat="45.9409108" lon="7.6539849">
        <ele>2496.2</ele>
        <time>2014-01-29T09:30:01Z</time>
      </trkpt>
      <trkpt lat="45.9409221" lon="7.6540355">
        <ele>2500</ele>
        <time>2014-01-29T09:30:02Z</time>
      </trkpt>
      <trkpt lat="45.940929" lon="7.6540712">
        <ele>2501.4</ele>
        <time>2014-01-29T09:30:03Z</time>
      </trkpt>
      <trkpt lat="45.9409633" lon="7.6541132">
        <ele>2495.6</ele>
        <time>2014-01-29T09:30:04Z</time>
      </trkpt>
      <trkpt lat="45.9409846" lon="7.6541659">
        <ele>2495.6</ele>
        <time>2014-01-29T09:30:05Z</time>
      </trkpt>
      <trkpt lat="45.9410295" lon="7.6542651">
        <ele>2495.6</ele>
        <time>2014-01-29T09:30:08Z</time>
      </trkpt>
      <trkpt lat="45.9410509" lon="7.6542675">
        <ele>2495.6</ele>
        <time>2014-01-29T09:30:09Z</time>
      </trkpt>
      <trkpt lat="45.9410556" lon="7.6542954">
        <ele>2495.6</ele>
        <time>2014-01-29T09:30:12Z</time>
      </trkpt>
      <trkpt lat="45.9410449" lon="7.6543387">
        <ele>2495.6</ele>
        <time>2014-01-29T09:30:13Z</time>
      </trkpt>
      <trkpt lat="45.9409735" lon="7.654376">
        <ele>2494.2</ele>
        <time>2014-01-29T09:30:16Z</time>
      </trkpt>
      <trkpt lat="45.9409474" lon="7.654388">
        <ele>2493</ele>
        <time>2014-01-29T09:30:17Z</time>
      </trkpt>
      <trkpt lat="45.9409411" lon="7.6543992">
        <ele>2491.8</ele>
        <time>2014-01-29T09:30:18Z</time>
      </trkpt>
      <trkpt lat="45.9409597" lon="7.6544043">
        <ele>2490.8</ele>
        <time>2014-01-29T09:30:19Z</time>
      </trkpt>
      <trkpt lat="45.9409597" lon="7.6544043">
        <ele>2490.8</ele>
        <time>2014-01-29T09:30:20Z</time>
      </trkpt>
      <trkpt lat="45.9409824" lon="7.6544335">
        <ele>2489</ele>
        <time>2014-01-29T09:30:21Z</time>
      </trkpt>
      <trkpt lat="45.9409938" lon="7.6544436">
        <ele>2487.4</ele>
        <time>2014-01-29T09:30:23Z</time>
      </trkpt>
      <trkpt lat="45.9410085" lon="7.6544582">
        <ele>2487.4</ele>
        <time>2014-01-29T09:30:24Z</time>
      </trkpt>
      <trkpt lat="45.9410129" lon="7.6544386">
        <ele>2487.4</ele>
        <time>2014-01-29T09:30:29Z</time>
      </trkpt>
      <trkpt lat="45.9410157" lon="7.6544235">
        <ele>2487.4</ele>
        <time>2014-01-29T09:30:34Z</time>
      </trkpt>
      <trkpt lat="45.9409163" lon="7.6545628">
        <ele>2487.4</ele>
        <time>2014-01-29T09:30:39Z</time>
      </trkpt>
      <trkpt lat="45.9407986" lon="7.6546577">
        <ele>2487.4</ele>
        <time>2014-01-29T09:30:43Z</time>
      </trkpt>
      <trkpt lat="45.9413953" lon="7.6550954">
        <ele>2485.4</ele>
        <time>2014-01-29T09:31:45Z</time>
      </trkpt>
      <trkpt lat="45.9414026" lon="7.655089">
        <ele>2485.4</ele>
        <time>2014-01-29T09:31:46Z</time>
      </trkpt>
      <trkpt lat="45.9412609" lon="7.6552698">
        <ele>2485.4</ele>
        <time>2014-01-29T09:31:52Z</time>
      </trkpt>
      <trkpt lat="45.9412444" lon="7.6552522">
        <ele>2485.4</ele>
        <time>2014-01-29T09:31:56Z</time>
      </trkpt>
      <trkpt lat="45.9412144" lon="7.6552231">
        <ele>2485.4</ele>
        <time>2014-01-29T09:32:02Z</time>
      </trkpt>
      <trkpt lat="45.9412045" lon="7.6551901">
        <ele>2485.4</ele>
        <time>2014-01-29T09:32:07Z</time>
      </trkpt>
      <trkpt lat="45.9411731" lon="7.6552422">
        <ele>2485.4</ele>
        <time>2014-01-29T09:32:10Z</time>
      </trkpt>
      <trkpt lat="45.9411849" lon="7.6552407">
        <ele>2485.4</ele>
        <time>2014-01-29T09:32:11Z</time>
      </trkpt>
      <trkpt lat="45.9412582" lon="7.6552741">
        <ele>2485.4</ele>
        <time>2014-01-29T09:32:15Z</time>
      </trkpt>
      <trkpt lat="45.9412875" lon="7.6553719">
        <ele>2485.4</ele>
        <time>2014-01-29T09:32:18Z</time>
      </trkpt>
      <trkpt lat="45.9402593" lon="7.6554859">
        <ele>2485.4</ele>
        <time>2014-01-29T09:34:07Z</time>
      </trkpt>
      <trkpt lat="45.9408776" lon="7.6554026">
        <ele>2485.4</ele>
        <time>2014-01-29T09:34:14Z</time>
      </trkpt>
      <trkpt lat="45.9409846" lon="7.6550625">
        <ele>2485.4</ele>
        <time>2014-01-29T09:35:04Z</time>
      </trkpt>
      <trkpt lat="45.941014" lon="7.6551914">
        <ele>2485.4</ele>
        <time>2014-01-29T09:35:05Z</time>
      </trkpt>
      <trkpt lat="45.9411209" lon="7.6551895">
        <ele>2485.4</ele>
        <time>2014-01-29T09:35:08Z</time>
      </trkpt>
      <trkpt lat="45.9411572" lon="7.655185">
        <ele>2485.4</ele>
        <time>2014-01-29T09:35:09Z</time>
      </trkpt>
      <trkpt lat="45.9411225" lon="7.6551922">
        <ele>2485.4</ele>
        <time>2014-01-29T09:35:13Z</time>
      </trkpt>
      <trkpt lat="45.9410916" lon="7.6552208">
        <ele>2485.4</ele>
        <time>2014-01-29T09:35:14Z</time>
      </trkpt>
      <trkpt lat="45.9409175" lon="7.6553734">
        <ele>2485.4</ele>
        <time>2014-01-29T09:35:17Z</time>
      </trkpt>
      <trkpt lat="45.9408371" lon="7.655461">
        <ele>2485.4</ele>
        <time>2014-01-29T09:35:19Z</time>
      </trkpt>
      <trkpt lat="45.9411574" lon="7.6553149">
        <ele>2485.4</ele>
        <time>2014-01-29T09:35:30Z</time>
      </trkpt>
      <trkpt lat="45.9411956" lon="7.6552912">
        <ele>2485.4</ele>
        <time>2014-01-29T09:35:31Z</time>
      </trkpt>
      <trkpt lat="45.941306" lon="7.6550802">
        <ele>2485.4</ele>
        <time>2014-01-29T09:35:33Z</time>
      </trkpt>
      <trkpt lat="45.941395" lon="7.6549684">
        <ele>2485.4</ele>
        <time>2014-01-29T09:35:35Z</time>
      </trkpt>
      <trkpt lat="45.9414069" lon="7.6549683">
        <ele>2485.4</ele>
        <time>2014-01-29T09:35:39Z</time>
      </trkpt>
      <trkpt lat="45.9413917" lon="7.6549851">
        <ele>2485.4</ele>
        <time>2014-01-29T09:35:40Z</time>
      </trkpt>
      <trkpt lat="45.9413265" lon="7.65504">
        <ele>2485.4</ele>
        <time>2014-01-29T09:35:42Z</time>
      </trkpt>
      <trkpt lat="45.941286" lon="7.6550741">
        <ele>2485.4</ele>
        <time>2014-01-29T09:35:43Z</time>
      </trkpt>
      <trkpt lat="45.9409995" lon="7.6552292">
        <ele>2485.4</ele>
        <time>2014-01-29T09:35:49Z</time>
      </trkpt>
      <trkpt lat="45.9409209" lon="7.6552973">
        <ele>2485.4</ele>
        <time>2014-01-29T09:35:54Z</time>
      </trkpt>
      <trkpt lat="45.9408839" lon="7.65526">
        <ele>2485.4</ele>
        <time>2014-01-29T09:35:58Z</time>
      </trkpt>
      <trkpt lat="45.9408979" lon="7.655228">
        <ele>2485.4</ele>
        <time>2014-01-29T09:36:01Z</time>
      </trkpt>
      <trkpt lat="45.9409165" lon="7.6552455">
        <ele>2485.4</ele>
        <time>2014-01-29T09:36:06Z</time>
      </trkpt>
      <trkpt lat="45.940954" lon="7.6552373">
        <ele>2485.4</ele>
        <time>2014-01-29T09:36:08Z</time>
      </trkpt>
      <trkpt lat="45.9410624" lon="7.6551629">
        <ele>2485.4</ele>
        <time>2014-01-29T09:36:11Z</time>
      </trkpt>
      <trkpt lat="45.9413337" lon="7.654954">
        <ele>2485.4</ele>
        <time>2014-01-29T09:36:15Z</time>
      </trkpt>
      <trkpt lat="45.9415823" lon="7.6547659">
        <ele>2485.4</ele>
        <time>2014-01-29T09:36:19Z</time>
      </trkpt>
      <trkpt lat="45.9416342" lon="7.6547455">
        <ele>2485.4</ele>
        <time>2014-01-29T09:36:23Z</time>
      </trkpt>
      <trkpt lat="45.9416081" lon="7.6547728">
        <ele>2485.4</ele>
        <time>2014-01-29T09:36:27Z</time>
      </trkpt>
      <trkpt lat="45.941507" lon="7.6548878">
        <ele>2485.4</ele>
        <time>2014-01-29T09:36:30Z</time>
      </trkpt>
      <trkpt lat="45.9415154" lon="7.6548784">
        <ele>2485.4</ele>
        <time>2014-01-29T09:36:31Z</time>
      </trkpt>
      <trkpt lat="45.9412944" lon="7.6550838">
        <ele>2484.2</ele>
        <time>2014-01-29T09:36:35Z</time>
      </trkpt>
      <trkpt lat="45.9412533" lon="7.6551134">
        <ele>2483.2</ele>
        <time>2014-01-29T09:36:38Z</time>
      </trkpt>
      <trkpt lat="45.9412351" lon="7.655134">
        <ele>2483.2</ele>
        <time>2014-01-29T09:36:41Z</time>
      </trkpt>
      <trkpt lat="45.9412209" lon="7.6551482">
        <ele>2482</ele>
        <time>2014-01-29T09:36:42Z</time>
      </trkpt>
      <trkpt lat="45.9412019" lon="7.6551736">
        <ele>2481</ele>
        <time>2014-01-29T09:36:47Z</time>
      </trkpt>
      <trkpt lat="45.9412156" lon="7.6551726">
        <ele>2481</ele>
        <time>2014-01-29T09:36:51Z</time>
      </trkpt>
      <trkpt lat="45.9412818" lon="7.6551552">
        <ele>2481</ele>
        <time>2014-01-29T09:36:56Z</time>
      </trkpt>
      <trkpt lat="45.9413594" lon="7.6550749">
        <ele>2481</ele>
        <time>2014-01-29T09:37:01Z</time>
      </trkpt>
      <trkpt lat="45.9413488" lon="7.655086">
        <ele>2481</ele>
        <time>2014-01-29T09:37:06Z</time>
      </trkpt>
      <trkpt lat="45.9413203" lon="7.6551336">
        <ele>2481</ele>
        <time>2014-01-29T09:37:12Z</time>
      </trkpt>
      <trkpt lat="45.9413104" lon="7.6551534">
        <ele>2481</ele>
        <time>2014-01-29T09:37:19Z</time>
      </trkpt>
      <trkpt lat="45.9413011" lon="7.6551643">
        <ele>2481</ele>
        <time>2014-01-29T09:37:35Z</time>
      </trkpt>
      <trkpt lat="45.9412953" lon="7.655158">
        <ele>2481</ele>
        <time>2014-01-29T09:37:42Z</time>
      </trkpt>
      <trkpt lat="45.9412704" lon="7.6551505">
        <ele>2481</ele>
        <time>2014-01-29T09:37:48Z</time>
      </trkpt>
      <trkpt lat="45.9412413" lon="7.6551445">
        <ele>2481</ele>
        <time>2014-01-29T09:37:56Z</time>
      </trkpt>
      <trkpt lat="45.9412187" lon="7.6551452">
        <ele>2481</ele>
        <time>2014-01-29T09:38:01Z</time>
      </trkpt>
      <trkpt lat="45.9412216" lon="7.6551671">
        <ele>2481</ele>
        <time>2014-01-29T09:38:06Z</time>
      </trkpt>
      <trkpt lat="45.9412138" lon="7.6551544">
        <ele>2481</ele>
        <time>2014-01-29T09:38:07Z</time>
      </trkpt>
      <trkpt lat="45.941226" lon="7.6551706">
        <ele>2481</ele>
        <time>2014-01-29T09:38:11Z</time>
      </trkpt>
      <trkpt lat="45.9412587" lon="7.6551624">
        <ele>2481</ele>
        <time>2014-01-29T09:38:13Z</time>
      </trkpt>
      <trkpt lat="45.9412555" lon="7.6551933">
        <ele>2481</ele>
        <time>2014-01-29T09:38:15Z</time>
      </trkpt>
      <trkpt lat="45.9412487" lon="7.6552046">
        <ele>2481</ele>
        <time>2014-01-29T09:38:17Z</time>
      </trkpt>
      <trkpt lat="45.9412396" lon="7.6551998">
        <ele>2481</ele>
        <time>2014-01-29T09:38:20Z</time>
      </trkpt>
      <trkpt lat="45.9412457" lon="7.6551699">
        <ele>2481</ele>
        <time>2014-01-29T09:38:22Z</time>
      </trkpt>
      <trkpt lat="45.9412512" lon="7.6551684">
        <ele>2481</ele>
        <time>2014-01-29T09:38:23Z</time>
      </trkpt>
      <trkpt lat="45.9412657" lon="7.6551655">
        <ele>2481</ele>
        <time>2014-01-29T09:38:27Z</time>
      </trkpt>
      <trkpt lat="45.9412312" lon="7.6551729">
        <ele>2481</ele>
        <time>2014-01-29T09:38:31Z</time>
      </trkpt>
      <trkpt lat="45.9412177" lon="7.6551788">
        <ele>2480</ele>
        <time>2014-01-29T09:38:32Z</time>
      </trkpt>
      <trkpt lat="45.9412147" lon="7.6551727">
        <ele>2480</ele>
        <time>2014-01-29T09:38:37Z</time>
      </trkpt>
      <trkpt lat="45.9412012" lon="7.6551771">
        <ele>2480</ele>
        <time>2014-01-29T09:38:44Z</time>
      </trkpt>
      <trkpt lat="45.9412217" lon="7.6551841">
        <ele>2480</ele>
        <time>2014-01-29T09:38:52Z</time>
      </trkpt>
      <trkpt lat="45.9412268" lon="7.655201">
        <ele>2480</ele>
        <time>2014-01-29T09:39:00Z</time>
      </trkpt>
      <trkpt lat="45.9412206" lon="7.6552119">
        <ele>2480</ele>
        <time>2014-01-29T09:39:05Z</time>
      </trkpt>
      <trkpt lat="45.9412269" lon="7.6552228">
        <ele>2480</ele>
        <time>2014-01-29T09:39:12Z</time>
      </trkpt>
      <trkpt lat="45.9412186" lon="7.6552384">
        <ele>2480</ele>
        <time>2014-01-29T09:39:15Z</time>
      </trkpt>
      <trkpt lat="45.9412208" lon="7.6552358">
        <ele>2480</ele>
        <time>2014-01-29T09:39:17Z</time>
      </trkpt>
      <trkpt lat="45.9412289" lon="7.6552332">
        <ele>2480</ele>
        <time>2014-01-29T09:39:23Z</time>
      </trkpt>
      <trkpt lat="45.9412299" lon="7.6552532">
        <ele>2480</ele>
        <time>2014-01-29T09:39:31Z</time>
      </trkpt>
      <trkpt lat="45.9412123" lon="7.6552492">
        <ele>2480</ele>
        <time>2014-01-29T09:39:38Z</time>
      </trkpt>
      <trkpt lat="45.9412089" lon="7.6552425">
        <ele>2480</ele>
        <time>2014-01-29T09:39:45Z</time>
      </trkpt>
      <trkpt lat="45.9412077" lon="7.6552356">
        <ele>2480</ele>
        <time>2014-01-29T09:39:50Z</time>
      </trkpt>
      <trkpt lat="45.9412051" lon="7.6552055">
        <ele>2480</ele>
        <time>2014-01-29T09:39:57Z</time>
      </trkpt>
      <trkpt lat="45.941199" lon="7.655163">
        <ele>2480</ele>
        <time>2014-01-29T09:40:06Z</time>
      </trkpt>
      <trkpt lat="45.9411887" lon="7.655128">
        <ele>2480</ele>
        <time>2014-01-29T09:40:12Z</time>
      </trkpt>
      <trkpt lat="45.9411747" lon="7.6551094">
        <ele>2480</ele>
        <time>2014-01-29T09:40:14Z</time>
      </trkpt>
      <trkpt lat="45.9411804" lon="7.6551202">
        <ele>2480</ele>
        <time>2014-01-29T09:40:16Z</time>
      </trkpt>
      <trkpt lat="45.9412021" lon="7.6551751">
        <ele>2480</ele>
        <time>2014-01-29T09:40:25Z</time>
      </trkpt>
      <trkpt lat="45.9412295" lon="7.6551957">
        <ele>2480</ele>
        <time>2014-01-29T09:40:32Z</time>
      </trkpt>
      <trkpt lat="45.9412199" lon="7.6551969">
        <ele>2480</ele>
        <time>2014-01-29T09:40:38Z</time>
      </trkpt>
      <trkpt lat="45.9412043" lon="7.6551664">
        <ele>2480</ele>
        <time>2014-01-29T09:40:42Z</time>
      </trkpt>
      <trkpt lat="45.9412313" lon="7.6551591">
        <ele>2480</ele>
        <time>2014-01-29T09:40:48Z</time>
      </trkpt>
      <trkpt lat="45.9412235" lon="7.6551594">
        <ele>2480</ele>
        <time>2014-01-29T09:40:49Z</time>
      </trkpt>
      <trkpt lat="45.9412209" lon="7.6551482">
        <ele>2480</ele>
        <time>2014-01-29T09:40:55Z</time>
      </trkpt>
      <trkpt lat="45.9412275" lon="7.6551544">
        <ele>2480</ele>
        <time>2014-01-29T09:41:04Z</time>
      </trkpt>
      <trkpt lat="45.9412233" lon="7.65517">
        <ele>2480</ele>
        <time>2014-01-29T09:41:11Z</time>
      </trkpt>
      <trkpt lat="45.9412146" lon="7.6551752">
        <ele>2480</ele>
        <time>2014-01-29T09:41:17Z</time>
      </trkpt>
      <trkpt lat="45.9412059" lon="7.6551797">
        <ele>2480</ele>
        <time>2014-01-29T09:41:22Z</time>
      </trkpt>
      <trkpt lat="45.9412218" lon="7.6552045">
        <ele>2480</ele>
        <time>2014-01-29T09:41:28Z</time>
      </trkpt>
      <trkpt lat="45.9412527" lon="7.65523">
        <ele>2480</ele>
        <time>2014-01-29T09:41:35Z</time>
      </trkpt>
      <trkpt lat="45.9412772" lon="7.6552601">
        <ele>2480</ele>
        <time>2014-01-29T09:41:42Z</time>
      </trkpt>
      <trkpt lat="45.9412815" lon="7.6552567">
        <ele>2480</ele>
        <time>2014-01-29T09:41:47Z</time>
      </trkpt>
      <trkpt lat="45.9412649" lon="7.6552455">
        <ele>2480</ele>
        <time>2014-01-29T09:41:51Z</time>
      </trkpt>
      <trkpt lat="45.9412678" lon="7.6552518">
        <ele>2480</ele>
        <time>2014-01-29T09:41:52Z</time>
      </trkpt>
      <trkpt lat="45.9412569" lon="7.6552223">
        <ele>2480</ele>
        <time>2014-01-29T09:41:58Z</time>
      </trkpt>
      <trkpt lat="45.9412828" lon="7.6552126">
        <ele>2480</ele>
        <time>2014-01-29T09:42:05Z</time>
      </trkpt>
      <trkpt lat="45.9413157" lon="7.6552694">
        <ele>2480</ele>
        <time>2014-01-29T09:42:13Z</time>
      </trkpt>
      <trkpt lat="45.9413126" lon="7.6552747">
        <ele>2479</ele>
        <time>2014-01-29T09:42:21Z</time>
      </trkpt>
      <trkpt lat="45.9413139" lon="7.6552726">
        <ele>2479</ele>
        <time>2014-01-29T09:42:28Z</time>
      </trkpt>
      <trkpt lat="45.9413113" lon="7.6552689">
        <ele>2479</ele>
        <time>2014-01-29T09:42:35Z</time>
      </trkpt>
      <trkpt lat="45.9413161" lon="7.6552656">
        <ele>2479</ele>
        <time>2014-01-29T09:42:43Z</time>
      </trkpt>
      <trkpt lat="45.9413209" lon="7.6552617">
        <ele>2479</ele>
        <time>2014-01-29T09:42:54Z</time>
      </trkpt>
      <trkpt lat="45.9413264" lon="7.6552592">
        <ele>2479</ele>
        <time>2014-01-29T09:43:03Z</time>
      </trkpt>
      <trkpt lat="45.9413528" lon="7.6552595">
        <ele>2479</ele>
        <time>2014-01-29T09:43:12Z</time>
      </trkpt>
      <trkpt lat="45.9414322" lon="7.6552779">
        <ele>2479</ele>
        <time>2014-01-29T09:43:17Z</time>
      </trkpt>
      <trkpt lat="45.9415233" lon="7.6552736">
        <ele>2478</ele>
        <time>2014-01-29T09:43:20Z</time>
      </trkpt>
      <trkpt lat="45.941585" lon="7.6552656">
        <ele>2476.8</ele>
        <time>2014-01-29T09:43:22Z</time>
      </trkpt>
      <trkpt lat="45.9416074" lon="7.6552569">
        <ele>2476.8</ele>
        <time>2014-01-29T09:43:23Z</time>
      </trkpt>
      <trkpt lat="45.941683" lon="7.655237">
        <ele>2475.8</ele>
        <time>2014-01-29T09:43:25Z</time>
      </trkpt>
      <trkpt lat="45.9418254" lon="7.655192">
        <ele>2475.8</ele>
        <time>2014-01-29T09:43:29Z</time>
      </trkpt>
      <trkpt lat="45.9419966" lon="7.6551532">
        <ele>2474.8</ele>
        <time>2014-01-29T09:43:36Z</time>
      </trkpt>
      <trkpt lat="45.9421415" lon="7.6551487">
        <ele>2473.8</ele>
        <time>2014-01-29T09:43:44Z</time>
      </trkpt>
      <trkpt lat="45.9422153" lon="7.6551595">
        <ele>2472.6</ele>
        <time>2014-01-29T09:43:47Z</time>
      </trkpt>
      <trkpt lat="45.9422951" lon="7.6551752">
        <ele>2471.4</ele>
        <time>2014-01-29T09:43:49Z</time>
      </trkpt>
      <trkpt lat="45.9423575" lon="7.6551949">
        <ele>2470.2</ele>
        <time>2014-01-29T09:43:50Z</time>
      </trkpt>
      <trkpt lat="45.9424066" lon="7.6552151">
        <ele>2468.8</ele>
        <time>2014-01-29T09:43:51Z</time>
      </trkpt>
      <trkpt lat="45.9424957" lon="7.6552507">
        <ele>2465.2</ele>
        <time>2014-01-29T09:43:52Z</time>
      </trkpt>
      <trkpt lat="45.9425651" lon="7.6552772">
        <ele>2461.4</ele>
        <time>2014-01-29T09:43:53Z</time>
      </trkpt>
      <trkpt lat="45.9426577" lon="7.6553136">
        <ele>2459.2</ele>
        <time>2014-01-29T09:43:54Z</time>
      </trkpt>
      <trkpt lat="45.9427358" lon="7.6553491">
        <ele>2457</ele>
        <time>2014-01-29T09:43:55Z</time>
      </trkpt>
      <trkpt lat="45.9428923" lon="7.6554128">
        <ele>2454.8</ele>
        <time>2014-01-29T09:43:56Z</time>
      </trkpt>
      <trkpt lat="45.9429823" lon="7.655447">
        <ele>2453.4</ele>
        <time>2014-01-29T09:43:57Z</time>
      </trkpt>
      <trkpt lat="45.9431866" lon="7.6554987">
        <ele>2457.8</ele>
        <time>2014-01-29T09:43:59Z</time>
      </trkpt>
      <trkpt lat="45.9433021" lon="7.6555101">
        <ele>2457.8</ele>
        <time>2014-01-29T09:44:00Z</time>
      </trkpt>
      <trkpt lat="45.9433695" lon="7.6554863">
        <ele>2457.8</ele>
        <time>2014-01-29T09:44:01Z</time>
      </trkpt>
      <trkpt lat="45.943505" lon="7.6554238">
        <ele>2457.8</ele>
        <time>2014-01-29T09:44:03Z</time>
      </trkpt>
      <trkpt lat="45.9437154" lon="7.6552446">
        <ele>2457.8</ele>
        <time>2014-01-29T09:44:06Z</time>
      </trkpt>
      <trkpt lat="45.9437735" lon="7.6551882">
        <ele>2457.8</ele>
        <time>2014-01-29T09:44:07Z</time>
      </trkpt>
      <trkpt lat="45.9438904" lon="7.6550676">
        <ele>2454.6</ele>
        <time>2014-01-29T09:44:09Z</time>
      </trkpt>
      <trkpt lat="45.9439575" lon="7.6549892">
        <ele>2453.4</ele>
        <time>2014-01-29T09:44:10Z</time>
      </trkpt>
      <trkpt lat="45.9440748" lon="7.6548483">
        <ele>2452.2</ele>
        <time>2014-01-29T09:44:12Z</time>
      </trkpt>
      <trkpt lat="45.9441204" lon="7.6547721">
        <ele>2451</ele>
        <time>2014-01-29T09:44:13Z</time>
      </trkpt>
      <trkpt lat="45.9442282" lon="7.6545516">
        <ele>2451</ele>
        <time>2014-01-29T09:44:15Z</time>
      </trkpt>
      <trkpt lat="45.9442891" lon="7.6543836">
        <ele>2447.4</ele>
        <time>2014-01-29T09:44:16Z</time>
      </trkpt>
      <trkpt lat="45.9443432" lon="7.6542565">
        <ele>2445.4</ele>
        <time>2014-01-29T09:44:17Z</time>
      </trkpt>
      <trkpt lat="45.9444088" lon="7.6541274">
        <ele>2442.6</ele>
        <time>2014-01-29T09:44:18Z</time>
      </trkpt>
      <trkpt lat="45.9444543" lon="7.6539527">
        <ele>2439.6</ele>
        <time>2014-01-29T09:44:19Z</time>
      </trkpt>
      <trkpt lat="45.9445174" lon="7.6537553">
        <ele>2436.4</ele>
        <time>2014-01-29T09:44:20Z</time>
      </trkpt>
      <trkpt lat="45.9445682" lon="7.6536455">
        <ele>2435</ele>
        <time>2014-01-29T09:44:21Z</time>
      </trkpt>
      <trkpt lat="45.9446634" lon="7.6534449">
        <ele>2431.6</ele>
        <time>2014-01-29T09:44:22Z</time>
      </trkpt>
      <trkpt lat="45.9447034" lon="7.653331">
        <ele>2430.6</ele>
        <time>2014-01-29T09:44:23Z</time>
      </trkpt>
      <trkpt lat="45.9448092" lon="7.6531465">
        <ele>2427</ele>
        <time>2014-01-29T09:44:24Z</time>
      </trkpt>
      <trkpt lat="45.9448607" lon="7.65306">
        <ele>2425.4</ele>
        <time>2014-01-29T09:44:25Z</time>
      </trkpt>
      <trkpt lat="45.9449611" lon="7.6528423">
        <ele>2423.2</ele>
        <time>2014-01-29T09:44:26Z</time>
      </trkpt>
      <trkpt lat="45.9450154" lon="7.6526959">
        <ele>2421.4</ele>
        <time>2014-01-29T09:44:27Z</time>
      </trkpt>
      <trkpt lat="45.9450742" lon="7.6525074">
        <ele>2420.4</ele>
        <time>2014-01-29T09:44:28Z</time>
      </trkpt>
      <trkpt lat="45.9450952" lon="7.6524003">
        <ele>2420.4</ele>
        <time>2014-01-29T09:44:29Z</time>
      </trkpt>
      <trkpt lat="45.945133" lon="7.6522168">
        <ele>2420.4</ele>
        <time>2014-01-29T09:44:30Z</time>
      </trkpt>
      <trkpt lat="45.9451445" lon="7.6521044">
        <ele>2420.4</ele>
        <time>2014-01-29T09:44:31Z</time>
      </trkpt>
      <trkpt lat="45.9451534" lon="7.6519332">
        <ele>2419.2</ele>
        <time>2014-01-29T09:44:32Z</time>
      </trkpt>
      <trkpt lat="45.9451535" lon="7.6518311">
        <ele>2419.2</ele>
        <time>2014-01-29T09:44:33Z</time>
      </trkpt>
      <trkpt lat="45.9451603" lon="7.6516669">
        <ele>2417.6</ele>
        <time>2014-01-29T09:44:34Z</time>
      </trkpt>
      <trkpt lat="45.9451934" lon="7.6514179">
        <ele>2416.2</ele>
        <time>2014-01-29T09:44:36Z</time>
      </trkpt>
      <trkpt lat="45.9452561" lon="7.6511756">
        <ele>2415</ele>
        <time>2014-01-29T09:44:38Z</time>
      </trkpt>
      <trkpt lat="45.9453156" lon="7.6509533">
        <ele>2414</ele>
        <time>2014-01-29T09:44:40Z</time>
      </trkpt>
      <trkpt lat="45.9453777" lon="7.6507166">
        <ele>2412.2</ele>
        <time>2014-01-29T09:44:42Z</time>
      </trkpt>
      <trkpt lat="45.9454491" lon="7.6504901">
        <ele>2411.2</ele>
        <time>2014-01-29T09:44:44Z</time>
      </trkpt>
      <trkpt lat="45.9455083" lon="7.6502951">
        <ele>2409.8</ele>
        <time>2014-01-29T09:44:46Z</time>
      </trkpt>
      <trkpt lat="45.9455433" lon="7.6502183">
        <ele>2409.8</ele>
        <time>2014-01-29T09:44:47Z</time>
      </trkpt>
      <trkpt lat="45.9456" lon="7.6501156">
        <ele>2408.2</ele>
        <time>2014-01-29T09:44:48Z</time>
      </trkpt>
      <trkpt lat="45.9456469" lon="7.6500478">
        <ele>2407.2</ele>
        <time>2014-01-29T09:44:49Z</time>
      </trkpt>
      <trkpt lat="45.9457496" lon="7.6498725">
        <ele>2405.8</ele>
        <time>2014-01-29T09:44:51Z</time>
      </trkpt>
      <trkpt lat="45.9458192" lon="7.6497634">
        <ele>2404.8</ele>
        <time>2014-01-29T09:44:52Z</time>
      </trkpt>
      <trkpt lat="45.9459621" lon="7.6496988">
        <ele>2403.2</ele>
        <time>2014-01-29T09:44:54Z</time>
      </trkpt>
      <trkpt lat="45.9460057" lon="7.6496674">
        <ele>2402.2</ele>
        <time>2014-01-29T09:44:55Z</time>
      </trkpt>
      <trkpt lat="45.9460794" lon="7.6495974">
        <ele>2401</ele>
        <time>2014-01-29T09:44:56Z</time>
      </trkpt>
      <trkpt lat="45.9461386" lon="7.6495941">
        <ele>2400</ele>
        <time>2014-01-29T09:44:57Z</time>
      </trkpt>
      <trkpt lat="45.9462158" lon="7.6496097">
        <ele>2400</ele>
        <time>2014-01-29T09:44:58Z</time>
      </trkpt>
      <trkpt lat="45.9462529" lon="7.6495779">
        <ele>2398.6</ele>
        <time>2014-01-29T09:44:59Z</time>
      </trkpt>
      <trkpt lat="45.9462807" lon="7.6495568">
        <ele>2397.6</ele>
        <time>2014-01-29T09:45:00Z</time>
      </trkpt>
      <trkpt lat="45.9463174" lon="7.6495523">
        <ele>2397.6</ele>
        <time>2014-01-29T09:45:01Z</time>
      </trkpt>
      <trkpt lat="45.9464032" lon="7.6495357">
        <ele>2395.8</ele>
        <time>2014-01-29T09:45:02Z</time>
      </trkpt>
      <trkpt lat="45.9464232" lon="7.6495067">
        <ele>2394.4</ele>
        <time>2014-01-29T09:45:03Z</time>
      </trkpt>
      <trkpt lat="45.9464894" lon="7.6494821">
        <ele>2393.2</ele>
        <time>2014-01-29T09:45:04Z</time>
      </trkpt>
      <trkpt lat="45.9465626" lon="7.6495402">
        <ele>2390.8</ele>
        <time>2014-01-29T09:45:06Z</time>
      </trkpt>
      <trkpt lat="45.946612" lon="7.6495239">
        <ele>2389.6</ele>
        <time>2014-01-29T09:45:07Z</time>
      </trkpt>
      <trkpt lat="45.9467124" lon="7.6494759">
        <ele>2387.2</ele>
        <time>2014-01-29T09:45:09Z</time>
      </trkpt>
      <trkpt lat="45.9467899" lon="7.6494827">
        <ele>2385.6</ele>
        <time>2014-01-29T09:45:10Z</time>
      </trkpt>
      <trkpt lat="45.946829" lon="7.6494362">
        <ele>2384.2</ele>
        <time>2014-01-29T09:45:11Z</time>
      </trkpt>
      <trkpt lat="45.9468847" lon="7.6493571">
        <ele>2381.8</ele>
        <time>2014-01-29T09:45:12Z</time>
      </trkpt>
      <trkpt lat="45.9469412" lon="7.649345">
        <ele>2380.6</ele>
        <time>2014-01-29T09:45:13Z</time>
      </trkpt>
      <trkpt lat="45.9470204" lon="7.6492874">
        <ele>2376.2</ele>
        <time>2014-01-29T09:45:14Z</time>
      </trkpt>
      <trkpt lat="45.9470732" lon="7.6491384">
        <ele>2374.6</ele>
        <time>2014-01-29T09:45:16Z</time>
      </trkpt>
      <trkpt lat="45.9471339" lon="7.6490996">
        <ele>2371.2</ele>
        <time>2014-01-29T09:45:17Z</time>
      </trkpt>
      <trkpt lat="45.9472071" lon="7.6490078">
        <ele>2367.4</ele>
        <time>2014-01-29T09:45:18Z</time>
      </trkpt>
      <trkpt lat="45.9472145" lon="7.6489195">
        <ele>2366.2</ele>
        <time>2014-01-29T09:45:19Z</time>
      </trkpt>
      <trkpt lat="45.9472261" lon="7.6487969">
        <ele>2365</ele>
        <time>2014-01-29T09:45:20Z</time>
      </trkpt>
      <trkpt lat="45.9472565" lon="7.6487026">
        <ele>2360.6</ele>
        <time>2014-01-29T09:45:21Z</time>
      </trkpt>
      <trkpt lat="45.9472562" lon="7.6485389">
        <ele>2358</ele>
        <time>2014-01-29T09:45:22Z</time>
      </trkpt>
      <trkpt lat="45.9472334" lon="7.6484462">
        <ele>2357</ele>
        <time>2014-01-29T09:45:23Z</time>
      </trkpt>
      <trkpt lat="45.9471936" lon="7.6482857">
        <ele>2355.8</ele>
        <time>2014-01-29T09:45:24Z</time>
      </trkpt>
      <trkpt lat="45.9471685" lon="7.6481847">
        <ele>2354.6</ele>
        <time>2014-01-29T09:45:25Z</time>
      </trkpt>
      <trkpt lat="45.9471359" lon="7.6480049">
        <ele>2352.4</ele>
        <time>2014-01-29T09:45:26Z</time>
      </trkpt>
      <trkpt lat="45.947117" lon="7.6478744">
        <ele>2348.8</ele>
        <time>2014-01-29T09:45:27Z</time>
      </trkpt>
      <trkpt lat="45.9470727" lon="7.6477355">
        <ele>2348.8</ele>
        <time>2014-01-29T09:45:28Z</time>
      </trkpt>
      <trkpt lat="45.947063" lon="7.6476482">
        <ele>2347.6</ele>
        <time>2014-01-29T09:45:29Z</time>
      </trkpt>
      <trkpt lat="45.947077" lon="7.6475145">
        <ele>2345.6</ele>
        <time>2014-01-29T09:45:30Z</time>
      </trkpt>
      <trkpt lat="45.947056" lon="7.6474611">
        <ele>2344</ele>
        <time>2014-01-29T09:45:31Z</time>
      </trkpt>
      <trkpt lat="45.9470363" lon="7.6473899">
        <ele>2342.6</ele>
        <time>2014-01-29T09:45:32Z</time>
      </trkpt>
      <trkpt lat="45.9470486" lon="7.6473664">
        <ele>2341.4</ele>
        <time>2014-01-29T09:45:33Z</time>
      </trkpt>
      <trkpt lat="45.947064" lon="7.6473563">
        <ele>2341.4</ele>
        <time>2014-01-29T09:45:35Z</time>
      </trkpt>
      <trkpt lat="45.9470618" lon="7.6473593">
        <ele>2341.4</ele>
        <time>2014-01-29T09:45:40Z</time>
      </trkpt>
      <trkpt lat="45.9470557" lon="7.6473646">
        <ele>2341.4</ele>
        <time>2014-01-29T09:45:54Z</time>
      </trkpt>
      <trkpt lat="45.9470551" lon="7.6473671">
        <ele>2340.2</ele>
        <time>2014-01-29T09:45:55Z</time>
      </trkpt>
      <trkpt lat="45.9470531" lon="7.647375">
        <ele>2340.2</ele>
        <time>2014-01-29T09:46:02Z</time>
      </trkpt>
      <trkpt lat="45.9470518" lon="7.6473753">
        <ele>2339.2</ele>
        <time>2014-01-29T09:46:03Z</time>
      </trkpt>
      <trkpt lat="45.9470505" lon="7.6473795">
        <ele>2339.2</ele>
        <time>2014-01-29T09:46:08Z</time>
      </trkpt>
      <trkpt lat="45.9470535" lon="7.6473816">
        <ele>2339.2</ele>
        <time>2014-01-29T09:46:21Z</time>
      </trkpt>
      <trkpt lat="45.9470505" lon="7.64738">
        <ele>2339.2</ele>
        <time>2014-01-29T09:46:28Z</time>
      </trkpt>
      <trkpt lat="45.9470477" lon="7.6473822">
        <ele>2339.2</ele>
        <time>2014-01-29T09:46:36Z</time>
      </trkpt>
      <trkpt lat="45.9470497" lon="7.6473768">
        <ele>2339.2</ele>
        <time>2014-01-29T09:46:47Z</time>
      </trkpt>
      <trkpt lat="45.9470823" lon="7.6473454">
        <ele>2339.2</ele>
        <time>2014-01-29T09:46:54Z</time>
      </trkpt>
      <trkpt lat="45.9471315" lon="7.6473401">
        <ele>2338</ele>
        <time>2014-01-29T09:46:57Z</time>
      </trkpt>
      <trkpt lat="45.9471262" lon="7.6473375">
        <ele>2338</ele>
        <time>2014-01-29T09:46:58Z</time>
      </trkpt>
      <trkpt lat="45.9471368" lon="7.6473325">
        <ele>2338</ele>
        <time>2014-01-29T09:47:07Z</time>
      </trkpt>
      <trkpt lat="45.947149" lon="7.6473038">
        <ele>2337</ele>
        <time>2014-01-29T09:47:08Z</time>
      </trkpt>
      <trkpt lat="45.9471261" lon="7.6471826">
        <ele>2334.8</ele>
        <time>2014-01-29T09:47:10Z</time>
      </trkpt>
      <trkpt lat="45.9471089" lon="7.6471408">
        <ele>2332.4</ele>
        <time>2014-01-29T09:47:11Z</time>
      </trkpt>
      <trkpt lat="45.9471343" lon="7.6470868">
        <ele>2329.4</ele>
        <time>2014-01-29T09:47:12Z</time>
      </trkpt>
      <trkpt lat="45.9471719" lon="7.6470476">
        <ele>2327.2</ele>
        <time>2014-01-29T09:47:13Z</time>
      </trkpt>
      <trkpt lat="45.9471512" lon="7.646958">
        <ele>2325.6</ele>
        <time>2014-01-29T09:47:14Z</time>
      </trkpt>
      <trkpt lat="45.9471244" lon="7.6469238">
        <ele>2323.2</ele>
        <time>2014-01-29T09:47:15Z</time>
      </trkpt>
      <trkpt lat="45.9471178" lon="7.6468143">
        <ele>2319</ele>
        <time>2014-01-29T09:47:16Z</time>
      </trkpt>
      <trkpt lat="45.9471028" lon="7.6467445">
        <ele>2317.6</ele>
        <time>2014-01-29T09:47:17Z</time>
      </trkpt>
      <trkpt lat="45.947071" lon="7.6466281">
        <ele>2313.6</ele>
        <time>2014-01-29T09:47:18Z</time>
      </trkpt>
      <trkpt lat="45.9470286" lon="7.6463949">
        <ele>2311</ele>
        <time>2014-01-29T09:47:20Z</time>
      </trkpt>
      <trkpt lat="45.9470209" lon="7.6463056">
        <ele>2310</ele>
        <time>2014-01-29T09:47:21Z</time>
      </trkpt>
      <trkpt lat="45.9469959" lon="7.6461761">
        <ele>2308.4</ele>
        <time>2014-01-29T09:47:22Z</time>
      </trkpt>
      <trkpt lat="45.9469647" lon="7.6461209">
        <ele>2307.2</ele>
        <time>2014-01-29T09:47:23Z</time>
      </trkpt>
      <trkpt lat="45.9469129" lon="7.6460371">
        <ele>2306.2</ele>
        <time>2014-01-29T09:47:24Z</time>
      </trkpt>
      <trkpt lat="45.9468878" lon="7.6459896">
        <ele>2305</ele>
        <time>2014-01-29T09:47:25Z</time>
      </trkpt>
      <trkpt lat="45.9468521" lon="7.6458999">
        <ele>2303.6</ele>
        <time>2014-01-29T09:47:26Z</time>
      </trkpt>
      <trkpt lat="45.9468164" lon="7.6458468">
        <ele>2302.4</ele>
        <time>2014-01-29T09:47:27Z</time>
      </trkpt>
      <trkpt lat="45.9467732" lon="7.6457737">
        <ele>2301.4</ele>
        <time>2014-01-29T09:47:28Z</time>
      </trkpt>
      <trkpt lat="45.9467422" lon="7.6457236">
        <ele>2300.4</ele>
        <time>2014-01-29T09:47:29Z</time>
      </trkpt>
      <trkpt lat="45.9466993" lon="7.6456643">
        <ele>2299.4</ele>
        <time>2014-01-29T09:47:30Z</time>
      </trkpt>
      <trkpt lat="45.9466979" lon="7.6455655">
        <ele>2297.8</ele>
        <time>2014-01-29T09:47:32Z</time>
      </trkpt>
      <trkpt lat="45.9466869" lon="7.6455236">
        <ele>2296.6</ele>
        <time>2014-01-29T09:47:33Z</time>
      </trkpt>
      <trkpt lat="45.9466472" lon="7.645479">
        <ele>2295.6</ele>
        <time>2014-01-29T09:47:35Z</time>
      </trkpt>
      <trkpt lat="45.9466194" lon="7.6454314">
        <ele>2294.6</ele>
        <time>2014-01-29T09:47:39Z</time>
      </trkpt>
      <trkpt lat="45.9466257" lon="7.6454327">
        <ele>2294.6</ele>
        <time>2014-01-29T09:47:46Z</time>
      </trkpt>
      <trkpt lat="45.9466283" lon="7.6454312">
        <ele>2293.6</ele>
        <time>2014-01-29T09:47:53Z</time>
      </trkpt>
      <trkpt lat="45.946638" lon="7.6454218">
        <ele>2293.6</ele>
        <time>2014-01-29T09:47:59Z</time>
      </trkpt>
      <trkpt lat="45.9466458" lon="7.6453697">
        <ele>2292.4</ele>
        <time>2014-01-29T09:48:00Z</time>
      </trkpt>
      <trkpt lat="45.9466467" lon="7.6452334">
        <ele>2290.8</ele>
        <time>2014-01-29T09:48:02Z</time>
      </trkpt>
      <trkpt lat="45.9466501" lon="7.6451729">
        <ele>2289.6</ele>
        <time>2014-01-29T09:48:03Z</time>
      </trkpt>
      <trkpt lat="45.9466321" lon="7.6451069">
        <ele>2288.4</ele>
        <time>2014-01-29T09:48:04Z</time>
      </trkpt>
      <trkpt lat="45.9466648" lon="7.6450785">
        <ele>2287</ele>
        <time>2014-01-29T09:48:05Z</time>
      </trkpt>
      <trkpt lat="45.9466954" lon="7.6450039">
        <ele>2286</ele>
        <time>2014-01-29T09:48:06Z</time>
      </trkpt>
      <trkpt lat="45.9466651" lon="7.6449284">
        <ele>2284.4</ele>
        <time>2014-01-29T09:48:07Z</time>
      </trkpt>
      <trkpt lat="45.9466481" lon="7.6448585">
        <ele>2283</ele>
        <time>2014-01-29T09:48:08Z</time>
      </trkpt>
      <trkpt lat="45.9466793" lon="7.6448574">
        <ele>2281.4</ele>
        <time>2014-01-29T09:48:09Z</time>
      </trkpt>
      <trkpt lat="45.9466975" lon="7.6448626">
        <ele>2281.4</ele>
        <time>2014-01-29T09:48:10Z</time>
      </trkpt>
      <trkpt lat="45.9466933" lon="7.6448606">
        <ele>2280.2</ele>
        <time>2014-01-29T09:48:14Z</time>
      </trkpt>
      <trkpt lat="45.946697" lon="7.6448611">
        <ele>2279</ele>
        <time>2014-01-29T09:48:20Z</time>
      </trkpt>
      <trkpt lat="45.9466937" lon="7.6448538">
        <ele>2279</ele>
        <time>2014-01-29T09:48:25Z</time>
      </trkpt>
      <trkpt lat="45.9466935" lon="7.6448532">
        <ele>2277.8</ele>
        <time>2014-01-29T09:48:27Z</time>
      </trkpt>
      <trkpt lat="45.9466956" lon="7.6448553">
        <ele>2277.8</ele>
        <time>2014-01-29T09:48:36Z</time>
      </trkpt>
      <trkpt lat="45.9466951" lon="7.6448543">
        <ele>2276.6</ele>
        <time>2014-01-29T09:48:37Z</time>
      </trkpt>
      <trkpt lat="45.9467122" lon="7.6448422">
        <ele>2276.6</ele>
        <time>2014-01-29T09:48:43Z</time>
      </trkpt>
      <trkpt lat="45.9467293" lon="7.6448011">
        <ele>2275.4</ele>
        <time>2014-01-29T09:48:44Z</time>
      </trkpt>
      <trkpt lat="45.9467329" lon="7.6447381">
        <ele>2273</ele>
        <time>2014-01-29T09:48:45Z</time>
      </trkpt>
      <trkpt lat="45.946754" lon="7.6446658">
        <ele>2269.8</ele>
        <time>2014-01-29T09:48:46Z</time>
      </trkpt>
      <trkpt lat="45.9467992" lon="7.6446482">
        <ele>2268.8</ele>
        <time>2014-01-29T09:48:47Z</time>
      </trkpt>
      <trkpt lat="45.9468232" lon="7.6445682">
        <ele>2266.8</ele>
        <time>2014-01-29T09:48:48Z</time>
      </trkpt>
      <trkpt lat="45.9468419" lon="7.6445366">
        <ele>2265.2</ele>
        <time>2014-01-29T09:48:49Z</time>
      </trkpt>
      <trkpt lat="45.9469065" lon="7.6445453">
        <ele>2262.4</ele>
        <time>2014-01-29T09:48:50Z</time>
      </trkpt>
      <trkpt lat="45.9469417" lon="7.6445933">
        <ele>2261</ele>
        <time>2014-01-29T09:48:51Z</time>
      </trkpt>
      <trkpt lat="45.9469916" lon="7.6446486">
        <ele>2259.8</ele>
        <time>2014-01-29T09:48:52Z</time>
      </trkpt>
      <trkpt lat="45.9470223" lon="7.6446781">
        <ele>2259.8</ele>
        <time>2014-01-29T09:48:53Z</time>
      </trkpt>
      <trkpt lat="45.9470733" lon="7.6447316">
        <ele>2258.6</ele>
        <time>2014-01-29T09:48:54Z</time>
      </trkpt>
      <trkpt lat="45.9471405" lon="7.6447976">
        <ele>2258.6</ele>
        <time>2014-01-29T09:48:56Z</time>
      </trkpt>
      <trkpt lat="45.9471924" lon="7.6448456">
        <ele>2257.6</ele>
        <time>2014-01-29T09:48:58Z</time>
      </trkpt>
      <trkpt lat="45.9472128" lon="7.6448589">
        <ele>2257.6</ele>
        <time>2014-01-29T09:49:00Z</time>
      </trkpt>
      <trkpt lat="45.9472432" lon="7.6448689">
        <ele>2256.6</ele>
        <time>2014-01-29T09:49:03Z</time>
      </trkpt>
      <trkpt lat="45.9472883" lon="7.6448885">
        <ele>2255.6</ele>
        <time>2014-01-29T09:49:05Z</time>
      </trkpt>
      <trkpt lat="45.9473666" lon="7.6449443">
        <ele>2255.6</ele>
        <time>2014-01-29T09:49:10Z</time>
      </trkpt>
      <trkpt lat="45.9474014" lon="7.6449388">
        <ele>2254.4</ele>
        <time>2014-01-29T09:49:14Z</time>
      </trkpt>
      <trkpt lat="45.9474312" lon="7.6449232">
        <ele>2252.2</ele>
        <time>2014-01-29T09:49:15Z</time>
      </trkpt>
      <trkpt lat="45.9474554" lon="7.6448559">
        <ele>2249.4</ele>
        <time>2014-01-29T09:49:16Z</time>
      </trkpt>
      <trkpt lat="45.9474955" lon="7.6448455">
        <ele>2247.6</ele>
        <time>2014-01-29T09:49:17Z</time>
      </trkpt>
      <trkpt lat="45.9475477" lon="7.6447998">
        <ele>2245</ele>
        <time>2014-01-29T09:49:18Z</time>
      </trkpt>
      <trkpt lat="45.9475582" lon="7.6447558">
        <ele>2243.6</ele>
        <time>2014-01-29T09:49:19Z</time>
      </trkpt>
      <trkpt lat="45.947609" lon="7.6447608">
        <ele>2242.2</ele>
        <time>2014-01-29T09:49:20Z</time>
      </trkpt>
      <trkpt lat="45.9476412" lon="7.644774">
        <ele>2239.4</ele>
        <time>2014-01-29T09:49:21Z</time>
      </trkpt>
      <trkpt lat="45.9476699" lon="7.6447286">
        <ele>2238.2</ele>
        <time>2014-01-29T09:49:22Z</time>
      </trkpt>
      <trkpt lat="45.9477032" lon="7.6447221">
        <ele>2235.8</ele>
        <time>2014-01-29T09:49:23Z</time>
      </trkpt>
      <trkpt lat="45.9477521" lon="7.644745">
        <ele>2234.4</ele>
        <time>2014-01-29T09:49:24Z</time>
      </trkpt>
      <trkpt lat="45.9477622" lon="7.6447101">
        <ele>2232.6</ele>
        <time>2014-01-29T09:49:25Z</time>
      </trkpt>
      <trkpt lat="45.9477651" lon="7.6446523">
        <ele>2230</ele>
        <time>2014-01-29T09:49:26Z</time>
      </trkpt>
      <trkpt lat="45.9478113" lon="7.6446355">
        <ele>2227.2</ele>
        <time>2014-01-29T09:49:27Z</time>
      </trkpt>
      <trkpt lat="45.947873" lon="7.6446674">
        <ele>2225.4</ele>
        <time>2014-01-29T09:49:28Z</time>
      </trkpt>
      <trkpt lat="45.9479109" lon="7.644648">
        <ele>2223.8</ele>
        <time>2014-01-29T09:49:29Z</time>
      </trkpt>
      <trkpt lat="45.9479054" lon="7.6445808">
        <ele>2221.2</ele>
        <time>2014-01-29T09:49:30Z</time>
      </trkpt>
      <trkpt lat="45.9479275" lon="7.6445641">
        <ele>2219.2</ele>
        <time>2014-01-29T09:49:31Z</time>
      </trkpt>
      <trkpt lat="45.9479975" lon="7.644572">
        <ele>2218</ele>
        <time>2014-01-29T09:49:32Z</time>
      </trkpt>
      <trkpt lat="45.94803" lon="7.6445854">
        <ele>2218</ele>
        <time>2014-01-29T09:49:33Z</time>
      </trkpt>
      <trkpt lat="45.948022" lon="7.644573">
        <ele>2218</ele>
        <time>2014-01-29T09:49:35Z</time>
      </trkpt>
      <trkpt lat="45.9480187" lon="7.6445333">
        <ele>2218</ele>
        <time>2014-01-29T09:49:44Z</time>
      </trkpt>
      <trkpt lat="45.9480549" lon="7.6444747">
        <ele>2217</ele>
        <time>2014-01-29T09:49:48Z</time>
      </trkpt>
      <trkpt lat="45.9480668" lon="7.6444436">
        <ele>2217</ele>
        <time>2014-01-29T09:49:55Z</time>
      </trkpt>
      <trkpt lat="45.9480769" lon="7.6444218">
        <ele>2215.8</ele>
        <time>2014-01-29T09:49:58Z</time>
      </trkpt>
      <trkpt lat="45.9480922" lon="7.6443956">
        <ele>2214.8</ele>
        <time>2014-01-29T09:49:59Z</time>
      </trkpt>
      <trkpt lat="45.9481159" lon="7.6443417">
        <ele>2212.2</ele>
        <time>2014-01-29T09:50:00Z</time>
      </trkpt>
      <trkpt lat="45.9481241" lon="7.6442813">
        <ele>2212.2</ele>
        <time>2014-01-29T09:50:01Z</time>
      </trkpt>
      <trkpt lat="45.9481856" lon="7.6442242">
        <ele>2208.6</ele>
        <time>2014-01-29T09:50:02Z</time>
      </trkpt>
      <trkpt lat="45.9481947" lon="7.6441627">
        <ele>2206</ele>
        <time>2014-01-29T09:50:03Z</time>
      </trkpt>
      <trkpt lat="45.9482189" lon="7.6440623">
        <ele>2202.2</ele>
        <time>2014-01-29T09:50:04Z</time>
      </trkpt>
      <trkpt lat="45.948252" lon="7.6439901">
        <ele>2200.8</ele>
        <time>2014-01-29T09:50:05Z</time>
      </trkpt>
      <trkpt lat="45.9482182" lon="7.6438447">
        <ele>2196.2</ele>
        <time>2014-01-29T09:50:06Z</time>
      </trkpt>
      <trkpt lat="45.9481944" lon="7.6438203">
        <ele>2192.8</ele>
        <time>2014-01-29T09:50:07Z</time>
      </trkpt>
      <trkpt lat="45.948218" lon="7.6437593">
        <ele>2189.2</ele>
        <time>2014-01-29T09:50:08Z</time>
      </trkpt>
      <trkpt lat="45.9482333" lon="7.6436767">
        <ele>2186.8</ele>
        <time>2014-01-29T09:50:09Z</time>
      </trkpt>
      <trkpt lat="45.9482134" lon="7.6436007">
        <ele>2183.4</ele>
        <time>2014-01-29T09:50:10Z</time>
      </trkpt>
      <trkpt lat="45.9482559" lon="7.6435281">
        <ele>2181.8</ele>
        <time>2014-01-29T09:50:11Z</time>
      </trkpt>
      <trkpt lat="45.9482968" lon="7.6434091">
        <ele>2177</ele>
        <time>2014-01-29T09:50:12Z</time>
      </trkpt>
      <trkpt lat="45.9483576" lon="7.6433616">
        <ele>2175.8</ele>
        <time>2014-01-29T09:50:13Z</time>
      </trkpt>
      <trkpt lat="45.9483977" lon="7.6432337">
        <ele>2171.6</ele>
        <time>2014-01-29T09:50:14Z</time>
      </trkpt>
      <trkpt lat="45.9483666" lon="7.6431691">
        <ele>2170.4</ele>
        <time>2014-01-29T09:50:15Z</time>
      </trkpt>
      <trkpt lat="45.9483272" lon="7.6431018">
        <ele>2169</ele>
        <time>2014-01-29T09:50:16Z</time>
      </trkpt>
      <trkpt lat="45.9483329" lon="7.6430607">
        <ele>2168</ele>
        <time>2014-01-29T09:50:17Z</time>
      </trkpt>
      <trkpt lat="45.9483493" lon="7.6430381">
        <ele>2168</ele>
        <time>2014-01-29T09:50:18Z</time>
      </trkpt>
      <trkpt lat="45.9483549" lon="7.6430354">
        <ele>2168</ele>
        <time>2014-01-29T09:50:22Z</time>
      </trkpt>
      <trkpt lat="45.9483613" lon="7.643029">
        <ele>2166.8</ele>
        <time>2014-01-29T09:50:25Z</time>
      </trkpt>
      <trkpt lat="45.9483605" lon="7.6430285">
        <ele>2166.8</ele>
        <time>2014-01-29T09:50:27Z</time>
      </trkpt>
      <trkpt lat="45.9483653" lon="7.6430228">
        <ele>2165.8</ele>
        <time>2014-01-29T09:50:31Z</time>
      </trkpt>
      <trkpt lat="45.9483704" lon="7.64302">
        <ele>2165.8</ele>
        <time>2014-01-29T09:50:35Z</time>
      </trkpt>
      <trkpt lat="45.9483729" lon="7.6430185">
        <ele>2164.6</ele>
        <time>2014-01-29T09:50:40Z</time>
      </trkpt>
      <trkpt lat="45.9483787" lon="7.6430141">
        <ele>2164.6</ele>
        <time>2014-01-29T09:50:45Z</time>
      </trkpt>
      <trkpt lat="45.9483711" lon="7.6428813">
        <ele>2162</ele>
        <time>2014-01-29T09:50:52Z</time>
      </trkpt>
      <trkpt lat="45.9483454" lon="7.642814">
        <ele>2160.4</ele>
        <time>2014-01-29T09:50:53Z</time>
      </trkpt>
      <trkpt lat="45.9482994" lon="7.6426958">
        <ele>2159.2</ele>
        <time>2014-01-29T09:50:54Z</time>
      </trkpt>
      <trkpt lat="45.9482979" lon="7.6425934">
        <ele>2157</ele>
        <time>2014-01-29T09:50:55Z</time>
      </trkpt>
      <trkpt lat="45.948266" lon="7.6424477">
        <ele>2154.4</ele>
        <time>2014-01-29T09:50:56Z</time>
      </trkpt>
      <trkpt lat="45.9482323" lon="7.6423226">
        <ele>2152</ele>
        <time>2014-01-29T09:50:57Z</time>
      </trkpt>
      <trkpt lat="45.9482037" lon="7.6421244">
        <ele>2149.8</ele>
        <time>2014-01-29T09:50:58Z</time>
      </trkpt>
      <trkpt lat="45.9481477" lon="7.6420011">
        <ele>2146</ele>
        <time>2014-01-29T09:50:59Z</time>
      </trkpt>
      <trkpt lat="45.9481186" lon="7.6417872">
        <ele>2143.2</ele>
        <time>2014-01-29T09:51:00Z</time>
      </trkpt>
      <trkpt lat="45.9480934" lon="7.6416283">
        <ele>2142</ele>
        <time>2014-01-29T09:51:01Z</time>
      </trkpt>
      <trkpt lat="45.9480099" lon="7.6414127">
        <ele>2138.2</ele>
        <time>2014-01-29T09:51:02Z</time>
      </trkpt>
      <trkpt lat="45.9479715" lon="7.6412619">
        <ele>2138.2</ele>
        <time>2014-01-29T09:51:03Z</time>
      </trkpt>
      <trkpt lat="45.9479421" lon="7.6410111">
        <ele>2135.6</ele>
        <time>2014-01-29T09:51:04Z</time>
      </trkpt>
      <trkpt lat="45.9479097" lon="7.6408539">
        <ele>2134</ele>
        <time>2014-01-29T09:51:05Z</time>
      </trkpt>
      <trkpt lat="45.9478432" lon="7.6406117">
        <ele>2130.8</ele>
        <time>2014-01-29T09:51:06Z</time>
      </trkpt>
      <trkpt lat="45.9477595" lon="7.6402212">
        <ele>2130.8</ele>
        <time>2014-01-29T09:51:08Z</time>
      </trkpt>
      <trkpt lat="45.9477267" lon="7.6401003">
        <ele>2129.6</ele>
        <time>2014-01-29T09:51:09Z</time>
      </trkpt>
      <trkpt lat="45.9476786" lon="7.639897">
        <ele>2127.6</ele>
        <time>2014-01-29T09:51:10Z</time>
      </trkpt>
      <trkpt lat="45.9476513" lon="7.6397708">
        <ele>2125.6</ele>
        <time>2014-01-29T09:51:11Z</time>
      </trkpt>
      <trkpt lat="45.9476084" lon="7.6395675">
        <ele>2123.8</ele>
        <time>2014-01-29T09:51:12Z</time>
      </trkpt>
      <trkpt lat="45.9475824" lon="7.6394444">
        <ele>2122</ele>
        <time>2014-01-29T09:51:13Z</time>
      </trkpt>
      <trkpt lat="45.9475393" lon="7.6392633">
        <ele>2120.6</ele>
        <time>2014-01-29T09:51:14Z</time>
      </trkpt>
      <trkpt lat="45.9475144" lon="7.6391556">
        <ele>2118.6</ele>
        <time>2014-01-29T09:51:15Z</time>
      </trkpt>
      <trkpt lat="45.9474728" lon="7.6389858">
        <ele>2116.8</ele>
        <time>2014-01-29T09:51:16Z</time>
      </trkpt>
      <trkpt lat="45.9474373" lon="7.6388624">
        <ele>2115.2</ele>
        <time>2014-01-29T09:51:17Z</time>
      </trkpt>
      <trkpt lat="45.9473876" lon="7.6386903">
        <ele>2113.2</ele>
        <time>2014-01-29T09:51:18Z</time>
      </trkpt>
      <trkpt lat="45.9473518" lon="7.638572">
        <ele>2111.2</ele>
        <time>2014-01-29T09:51:19Z</time>
      </trkpt>
      <trkpt lat="45.9472915" lon="7.6384065">
        <ele>2109.2</ele>
        <time>2014-01-29T09:51:20Z</time>
      </trkpt>
      <trkpt lat="45.9472558" lon="7.6382965">
        <ele>2107.2</ele>
        <time>2014-01-29T09:51:21Z</time>
      </trkpt>
      <trkpt lat="45.9471934" lon="7.638113">
        <ele>2105.6</ele>
        <time>2014-01-29T09:51:22Z</time>
      </trkpt>
      <trkpt lat="45.9471608" lon="7.6380136">
        <ele>2104</ele>
        <time>2014-01-29T09:51:23Z</time>
      </trkpt>
      <trkpt lat="45.9471143" lon="7.637856">
        <ele>2102.6</ele>
        <time>2014-01-29T09:51:24Z</time>
      </trkpt>
      <trkpt lat="45.9470772" lon="7.637741">
        <ele>2101.4</ele>
        <time>2014-01-29T09:51:25Z</time>
      </trkpt>
      <trkpt lat="45.9470354" lon="7.6375908">
        <ele>2100</ele>
        <time>2014-01-29T09:51:26Z</time>
      </trkpt>
      <trkpt lat="45.946993" lon="7.637475">
        <ele>2098.6</ele>
        <time>2014-01-29T09:51:27Z</time>
      </trkpt>
      <trkpt lat="45.9469335" lon="7.6373276">
        <ele>2097.4</ele>
        <time>2014-01-29T09:51:28Z</time>
      </trkpt>
      <trkpt lat="45.9468891" lon="7.6372311">
        <ele>2096.2</ele>
        <time>2014-01-29T09:51:29Z</time>
      </trkpt>
      <trkpt lat="45.9468226" lon="7.6370907">
        <ele>2095</ele>
        <time>2014-01-29T09:51:30Z</time>
      </trkpt>
      <trkpt lat="45.9467775" lon="7.6369961">
        <ele>2093.4</ele>
        <time>2014-01-29T09:51:31Z</time>
      </trkpt>
      <trkpt lat="45.9467011" lon="7.6368382">
        <ele>2092</ele>
        <time>2014-01-29T09:51:32Z</time>
      </trkpt>
      <trkpt lat="45.9466557" lon="7.6367409">
        <ele>2090.6</ele>
        <time>2014-01-29T09:51:33Z</time>
      </trkpt>
      <trkpt lat="45.9465839" lon="7.6365824">
        <ele>2089</ele>
        <time>2014-01-29T09:51:34Z</time>
      </trkpt>
      <trkpt lat="45.9465403" lon="7.636479">
        <ele>2087.8</ele>
        <time>2014-01-29T09:51:35Z</time>
      </trkpt>
      <trkpt lat="45.9464734" lon="7.6363209">
        <ele>2086.8</ele>
        <time>2014-01-29T09:51:36Z</time>
      </trkpt>
      <trkpt lat="45.9464238" lon="7.6362041">
        <ele>2085.6</ele>
        <time>2014-01-29T09:51:37Z</time>
      </trkpt>
      <trkpt lat="45.9463594" lon="7.6360615">
        <ele>2084.4</ele>
        <time>2014-01-29T09:51:38Z</time>
      </trkpt>
      <trkpt lat="45.9463107" lon="7.6359757">
        <ele>2083.2</ele>
        <time>2014-01-29T09:51:39Z</time>
      </trkpt>
      <trkpt lat="45.946224" lon="7.6358399">
        <ele>2082.2</ele>
        <time>2014-01-29T09:51:40Z</time>
      </trkpt>
      <trkpt lat="45.9461673" lon="7.6357631">
        <ele>2081</ele>
        <time>2014-01-29T09:51:41Z</time>
      </trkpt>
      <trkpt lat="45.9460649" lon="7.6356354">
        <ele>2080</ele>
        <time>2014-01-29T09:51:42Z</time>
      </trkpt>
      <trkpt lat="45.9460014" lon="7.6355658">
        <ele>2078.8</ele>
        <time>2014-01-29T09:51:43Z</time>
      </trkpt>
      <trkpt lat="45.9459019" lon="7.6354577">
        <ele>2077.8</ele>
        <time>2014-01-29T09:51:44Z</time>
      </trkpt>
      <trkpt lat="45.9458394" lon="7.6353934">
        <ele>2076.6</ele>
        <time>2014-01-29T09:51:45Z</time>
      </trkpt>
      <trkpt lat="45.9457363" lon="7.6353073">
        <ele>2075.6</ele>
        <time>2014-01-29T09:51:46Z</time>
      </trkpt>
      <trkpt lat="45.9456586" lon="7.6352641">
        <ele>2074.4</ele>
        <time>2014-01-29T09:51:47Z</time>
      </trkpt>
      <trkpt lat="45.9455561" lon="7.6351882">
        <ele>2073.4</ele>
        <time>2014-01-29T09:51:48Z</time>
      </trkpt>
      <trkpt lat="45.945506" lon="7.6351043">
        <ele>2072.2</ele>
        <time>2014-01-29T09:51:49Z</time>
      </trkpt>
      <trkpt lat="45.9454197" lon="7.6350123">
        <ele>2070.8</ele>
        <time>2014-01-29T09:51:50Z</time>
      </trkpt>
      <trkpt lat="45.9453509" lon="7.6349843">
        <ele>2069.6</ele>
        <time>2014-01-29T09:51:51Z</time>
      </trkpt>
      <trkpt lat="45.9452457" lon="7.6349112">
        <ele>2068.6</ele>
        <time>2014-01-29T09:51:52Z</time>
      </trkpt>
      <trkpt lat="45.9452019" lon="7.6348451">
        <ele>2067.4</ele>
        <time>2014-01-29T09:51:53Z</time>
      </trkpt>
      <trkpt lat="45.9451205" lon="7.6347474">
        <ele>2067.4</ele>
        <time>2014-01-29T09:51:54Z</time>
      </trkpt>
      <trkpt lat="45.9450494" lon="7.6347023">
        <ele>2065.8</ele>
        <time>2014-01-29T09:51:55Z</time>
      </trkpt>
      <trkpt lat="45.9449478" lon="7.6346464">
        <ele>2064.6</ele>
        <time>2014-01-29T09:51:56Z</time>
      </trkpt>
      <trkpt lat="45.9448772" lon="7.634574">
        <ele>2062.8</ele>
        <time>2014-01-29T09:51:57Z</time>
      </trkpt>
      <trkpt lat="45.9447858" lon="7.6344733">
        <ele>2060.6</ele>
        <time>2014-01-29T09:51:58Z</time>
      </trkpt>
      <trkpt lat="45.9447176" lon="7.6344015">
        <ele>2058.4</ele>
        <time>2014-01-29T09:51:59Z</time>
      </trkpt>
      <trkpt lat="45.9446129" lon="7.6342853">
        <ele>2056</ele>
        <time>2014-01-29T09:52:00Z</time>
      </trkpt>
      <trkpt lat="45.9445394" lon="7.6342003">
        <ele>2053.6</ele>
        <time>2014-01-29T09:52:01Z</time>
      </trkpt>
      <trkpt lat="45.9444216" lon="7.634063">
        <ele>2050.4</ele>
        <time>2014-01-29T09:52:02Z</time>
      </trkpt>
      <trkpt lat="45.9442455" lon="7.6338893">
        <ele>2048.8</ele>
        <time>2014-01-29T09:52:04Z</time>
      </trkpt>
      <trkpt lat="45.9441915" lon="7.6338129">
        <ele>2047.8</ele>
        <time>2014-01-29T09:52:05Z</time>
      </trkpt>
      <trkpt lat="45.9440974" lon="7.6337114">
        <ele>2047.8</ele>
        <time>2014-01-29T09:52:06Z</time>
      </trkpt>
      <trkpt lat="45.9440326" lon="7.6336937">
        <ele>2046.6</ele>
        <time>2014-01-29T09:52:07Z</time>
      </trkpt>
      <trkpt lat="45.9439579" lon="7.6336788">
        <ele>2046.6</ele>
        <time>2014-01-29T09:52:08Z</time>
      </trkpt>
      <trkpt lat="45.9439196" lon="7.6336445">
        <ele>2045.6</ele>
        <time>2014-01-29T09:52:09Z</time>
      </trkpt>
      <trkpt lat="45.9438036" lon="7.6335318">
        <ele>2043.8</ele>
        <time>2014-01-29T09:52:11Z</time>
      </trkpt>
      <trkpt lat="45.9437099" lon="7.6334654">
        <ele>2042.6</ele>
        <time>2014-01-29T09:52:12Z</time>
      </trkpt>
      <trkpt lat="45.9436414" lon="7.6334542">
        <ele>2041.2</ele>
        <time>2014-01-29T09:52:13Z</time>
      </trkpt>
      <trkpt lat="45.9435295" lon="7.6334731">
        <ele>2039.8</ele>
        <time>2014-01-29T09:52:14Z</time>
      </trkpt>
      <trkpt lat="45.9434595" lon="7.6335103">
        <ele>2038.6</ele>
        <time>2014-01-29T09:52:15Z</time>
      </trkpt>
      <trkpt lat="45.9433471" lon="7.6335519">
        <ele>2037.4</ele>
        <time>2014-01-29T09:52:16Z</time>
      </trkpt>
      <trkpt lat="45.9432612" lon="7.6335598">
        <ele>2036.4</ele>
        <time>2014-01-29T09:52:17Z</time>
      </trkpt>
      <trkpt lat="45.9431359" lon="7.6335653">
        <ele>2034.6</ele>
        <time>2014-01-29T09:52:18Z</time>
      </trkpt>
      <trkpt lat="45.9430433" lon="7.6336005">
        <ele>2032.8</ele>
        <time>2014-01-29T09:52:19Z</time>
      </trkpt>
      <trkpt lat="45.94292" lon="7.6336804">
        <ele>2031</ele>
        <time>2014-01-29T09:52:20Z</time>
      </trkpt>
      <trkpt lat="45.9428318" lon="7.6337327">
        <ele>2028.6</ele>
        <time>2014-01-29T09:52:21Z</time>
      </trkpt>
      <trkpt lat="45.9426732" lon="7.6337937">
        <ele>2026.2</ele>
        <time>2014-01-29T09:52:22Z</time>
      </trkpt>
      <trkpt lat="45.942579" lon="7.6338075">
        <ele>2024.8</ele>
        <time>2014-01-29T09:52:23Z</time>
      </trkpt>
      <trkpt lat="45.9424394" lon="7.6338212">
        <ele>2023.6</ele>
        <time>2014-01-29T09:52:24Z</time>
      </trkpt>
      <trkpt lat="45.9423309" lon="7.6338153">
        <ele>2022.2</ele>
        <time>2014-01-29T09:52:25Z</time>
      </trkpt>
      <trkpt lat="45.9421969" lon="7.6337958">
        <ele>2021</ele>
        <time>2014-01-29T09:52:26Z</time>
      </trkpt>
      <trkpt lat="45.9419806" lon="7.6337103">
        <ele>2019.4</ele>
        <time>2014-01-29T09:52:28Z</time>
      </trkpt>
      <trkpt lat="45.941906" lon="7.6336692">
        <ele>2017.2</ele>
        <time>2014-01-29T09:52:29Z</time>
      </trkpt>
      <trkpt lat="45.9417901" lon="7.6336059">
        <ele>2016</ele>
        <time>2014-01-29T09:52:30Z</time>
      </trkpt>
      <trkpt lat="45.9417139" lon="7.6335669">
        <ele>2014.8</ele>
        <time>2014-01-29T09:52:31Z</time>
      </trkpt>
      <trkpt lat="45.9414254" lon="7.6334305">
        <ele>2013.6</ele>
        <time>2014-01-29T09:52:34Z</time>
      </trkpt>
      <trkpt lat="45.9412688" lon="7.6333564">
        <ele>2012.4</ele>
        <time>2014-01-29T09:52:36Z</time>
      </trkpt>
      <trkpt lat="45.9410951" lon="7.6332608">
        <ele>2010.6</ele>
        <time>2014-01-29T09:52:38Z</time>
      </trkpt>
      <trkpt lat="45.9409343" lon="7.6331538">
        <ele>2009.2</ele>
        <time>2014-01-29T09:52:40Z</time>
      </trkpt>
      <trkpt lat="45.9408775" lon="7.6331084">
        <ele>2008</ele>
        <time>2014-01-29T09:52:41Z</time>
      </trkpt>
      <trkpt lat="45.9407817" lon="7.6330282">
        <ele>2007</ele>
        <time>2014-01-29T09:52:42Z</time>
      </trkpt>
      <trkpt lat="45.9406199" lon="7.6329058">
        <ele>2005.6</ele>
        <time>2014-01-29T09:52:44Z</time>
      </trkpt>
      <trkpt lat="45.9405563" lon="7.6328628">
        <ele>2005.6</ele>
        <time>2014-01-29T09:52:45Z</time>
      </trkpt>
      <trkpt lat="45.9404583" lon="7.632802">
        <ele>2003.8</ele>
        <time>2014-01-29T09:52:46Z</time>
      </trkpt>
      <trkpt lat="45.9402771" lon="7.6327191">
        <ele>2002.6</ele>
        <time>2014-01-29T09:52:48Z</time>
      </trkpt>
      <trkpt lat="45.9402054" lon="7.6327068">
        <ele>2002.6</ele>
        <time>2014-01-29T09:52:49Z</time>
      </trkpt>
      <trkpt lat="45.9401148" lon="7.6326941">
        <ele>2001.4</ele>
        <time>2014-01-29T09:52:50Z</time>
      </trkpt>
      <trkpt lat="45.939859" lon="7.6326866">
        <ele>2000.2</ele>
        <time>2014-01-29T09:52:54Z</time>
      </trkpt>
      <trkpt lat="45.9396513" lon="7.6327105">
        <ele>1999</ele>
        <time>2014-01-29T09:52:57Z</time>
      </trkpt>
      <trkpt lat="45.9395004" lon="7.6327189">
        <ele>1997.6</ele>
        <time>2014-01-29T09:52:59Z</time>
      </trkpt>
      <trkpt lat="45.9394032" lon="7.6327184">
        <ele>1996.4</ele>
        <time>2014-01-29T09:53:00Z</time>
      </trkpt>
      <trkpt lat="45.9393328" lon="7.6327075">
        <ele>1995.2</ele>
        <time>2014-01-29T09:53:01Z</time>
      </trkpt>
      <trkpt lat="45.9392156" lon="7.6326715">
        <ele>1994</ele>
        <time>2014-01-29T09:53:02Z</time>
      </trkpt>
      <trkpt lat="45.9391549" lon="7.6326111">
        <ele>1992.6</ele>
        <time>2014-01-29T09:53:03Z</time>
      </trkpt>
      <trkpt lat="45.9390456" lon="7.6325512">
        <ele>1990.8</ele>
        <time>2014-01-29T09:53:04Z</time>
      </trkpt>
      <trkpt lat="45.9389894" lon="7.6325516">
        <ele>1989.4</ele>
        <time>2014-01-29T09:53:05Z</time>
      </trkpt>
      <trkpt lat="45.9388919" lon="7.632488">
        <ele>1988</ele>
        <time>2014-01-29T09:53:06Z</time>
      </trkpt>
      <trkpt lat="45.9388227" lon="7.6324612">
        <ele>1986.2</ele>
        <time>2014-01-29T09:53:07Z</time>
      </trkpt>
      <trkpt lat="45.9387288" lon="7.6324079">
        <ele>1984.2</ele>
        <time>2014-01-29T09:53:08Z</time>
      </trkpt>
      <trkpt lat="45.93867" lon="7.6323845">
        <ele>1982.6</ele>
        <time>2014-01-29T09:53:09Z</time>
      </trkpt>
      <trkpt lat="45.9385691" lon="7.6323352">
        <ele>1981</ele>
        <time>2014-01-29T09:53:10Z</time>
      </trkpt>
      <trkpt lat="45.9385285" lon="7.6322557">
        <ele>1979.4</ele>
        <time>2014-01-29T09:53:11Z</time>
      </trkpt>
      <trkpt lat="45.9384319" lon="7.6321974">
        <ele>1976.2</ele>
        <time>2014-01-29T09:53:12Z</time>
      </trkpt>
      <trkpt lat="45.9383747" lon="7.6321389">
        <ele>1975</ele>
        <time>2014-01-29T09:53:13Z</time>
      </trkpt>
      <trkpt lat="45.9383033" lon="7.632017">
        <ele>1970.8</ele>
        <time>2014-01-29T09:53:14Z</time>
      </trkpt>
      <trkpt lat="45.9382267" lon="7.6319937">
        <ele>1969.4</ele>
        <time>2014-01-29T09:53:15Z</time>
      </trkpt>
      <trkpt lat="45.9381304" lon="7.6319113">
        <ele>1965.4</ele>
        <time>2014-01-29T09:53:16Z</time>
      </trkpt>
      <trkpt lat="45.9380739" lon="7.6318112">
        <ele>1963.6</ele>
        <time>2014-01-29T09:53:17Z</time>
      </trkpt>
      <trkpt lat="45.9379635" lon="7.6317283">
        <ele>1959</ele>
        <time>2014-01-29T09:53:18Z</time>
      </trkpt>
      <trkpt lat="45.9379015" lon="7.6316308">
        <ele>1957.4</ele>
        <time>2014-01-29T09:53:19Z</time>
      </trkpt>
      <trkpt lat="45.9377882" lon="7.6315415">
        <ele>1953.4</ele>
        <time>2014-01-29T09:53:20Z</time>
      </trkpt>
      <trkpt lat="45.9377241" lon="7.6314942">
        <ele>1951.6</ele>
        <time>2014-01-29T09:53:21Z</time>
      </trkpt>
      <trkpt lat="45.9376397" lon="7.6313603">
        <ele>1949.4</ele>
        <time>2014-01-29T09:53:22Z</time>
      </trkpt>
      <trkpt lat="45.9375786" lon="7.6313457">
        <ele>1947.6</ele>
        <time>2014-01-29T09:53:23Z</time>
      </trkpt>
      <trkpt lat="45.9374954" lon="7.6313579">
        <ele>1946</ele>
        <time>2014-01-29T09:53:24Z</time>
      </trkpt>
      <trkpt lat="45.9374439" lon="7.6313436">
        <ele>1946</ele>
        <time>2014-01-29T09:53:25Z</time>
      </trkpt>
      <trkpt lat="45.9374149" lon="7.6313109">
        <ele>1944.8</ele>
        <time>2014-01-29T09:53:26Z</time>
      </trkpt>
      <trkpt lat="45.9373585" lon="7.6312636">
        <ele>1944.8</ele>
        <time>2014-01-29T09:53:27Z</time>
      </trkpt>
      <trkpt lat="45.9372928" lon="7.6312797">
        <ele>1943.4</ele>
        <time>2014-01-29T09:53:29Z</time>
      </trkpt>
      <trkpt lat="45.9372656" lon="7.6312762">
        <ele>1943.4</ele>
        <time>2014-01-29T09:53:30Z</time>
      </trkpt>
      <trkpt lat="45.9372337" lon="7.6312566">
        <ele>1942.2</ele>
        <time>2014-01-29T09:53:32Z</time>
      </trkpt>
      <trkpt lat="45.9372276" lon="7.6312512">
        <ele>1942.2</ele>
        <time>2014-01-29T09:53:33Z</time>
      </trkpt>
      <trkpt lat="45.9372119" lon="7.6312449">
        <ele>1942.2</ele>
        <time>2014-01-29T09:53:35Z</time>
      </trkpt>
      <trkpt lat="45.9371963" lon="7.6312499">
        <ele>1941</ele>
        <time>2014-01-29T09:53:39Z</time>
      </trkpt>
      <trkpt lat="45.9371845" lon="7.6312623">
        <ele>1941</ele>
        <time>2014-01-29T09:53:41Z</time>
      </trkpt>
      <trkpt lat="45.9371742" lon="7.6312793">
        <ele>1940</ele>
        <time>2014-01-29T09:53:47Z</time>
      </trkpt>
      <trkpt lat="45.9371674" lon="7.6312918">
        <ele>1940</ele>
        <time>2014-01-29T09:53:55Z</time>
      </trkpt>
      <trkpt lat="45.93715" lon="7.6313052">
        <ele>1940</ele>
        <time>2014-01-29T09:54:04Z</time>
      </trkpt>
      <trkpt lat="45.9371343" lon="7.6313115">
        <ele>1940</ele>
        <time>2014-01-29T09:54:13Z</time>
      </trkpt>
      <trkpt lat="45.9371126" lon="7.6313387">
        <ele>1940</ele>
        <time>2014-01-29T09:54:19Z</time>
      </trkpt>
      <trkpt lat="45.9370886" lon="7.6313696">
        <ele>1940</ele>
        <time>2014-01-29T09:54:26Z</time>
      </trkpt>
      <trkpt lat="45.9370751" lon="7.631376">
        <ele>1940</ele>
        <time>2014-01-29T09:54:33Z</time>
      </trkpt>
      <trkpt lat="45.937095" lon="7.631432">
        <ele>1940</ele>
        <time>2014-01-29T09:54:39Z</time>
      </trkpt>
      <trkpt lat="45.937094" lon="7.6314508">
        <ele>1940</ele>
        <time>2014-01-29T09:54:40Z</time>
      </trkpt>
      <trkpt lat="45.9371342" lon="7.6314347">
        <ele>1940</ele>
        <time>2014-01-29T09:54:42Z</time>
      </trkpt>
      <trkpt lat="45.9371622" lon="7.6314286">
        <ele>1940</ele>
        <time>2014-01-29T09:54:43Z</time>
      </trkpt>
      <trkpt lat="45.9371727" lon="7.6314791">
        <ele>1940</ele>
        <time>2014-01-29T09:54:44Z</time>
      </trkpt>
      <trkpt lat="45.937215" lon="7.6315918">
        <ele>1940</ele>
        <time>2014-01-29T09:54:46Z</time>
      </trkpt>
      <trkpt lat="45.9372316" lon="7.6316389">
        <ele>1942.6</ele>
        <time>2014-01-29T09:54:47Z</time>
      </trkpt>
      <trkpt lat="45.9372538" lon="7.6316888">
        <ele>1944.2</ele>
        <time>2014-01-29T09:54:48Z</time>
      </trkpt>
      <trkpt lat="45.9372718" lon="7.631727">
        <ele>1945.6</ele>
        <time>2014-01-29T09:54:49Z</time>
      </trkpt>
      <trkpt lat="45.9372937" lon="7.6317761">
        <ele>1948.4</ele>
        <time>2014-01-29T09:54:50Z</time>
      </trkpt>
      <trkpt lat="45.9373077" lon="7.6318122">
        <ele>1950</ele>
        <time>2014-01-29T09:54:51Z</time>
      </trkpt>
      <trkpt lat="45.9373319" lon="7.6318687">
        <ele>1953.2</ele>
        <time>2014-01-29T09:54:52Z</time>
      </trkpt>
      <trkpt lat="45.9373462" lon="7.6319032">
        <ele>1954.4</ele>
        <time>2014-01-29T09:54:53Z</time>
      </trkpt>
      <trkpt lat="45.9373678" lon="7.6319531">
        <ele>1954.4</ele>
        <time>2014-01-29T09:54:54Z</time>
      </trkpt>
      <trkpt lat="45.9373836" lon="7.6319859">
        <ele>1956.6</ele>
        <time>2014-01-29T09:54:55Z</time>
      </trkpt>
      <trkpt lat="45.9374049" lon="7.6320315">
        <ele>1958.2</ele>
        <time>2014-01-29T09:54:56Z</time>
      </trkpt>
      <trkpt lat="45.9374213" lon="7.6320665">
        <ele>1960.2</ele>
        <time>2014-01-29T09:54:57Z</time>
      </trkpt>
      <trkpt lat="45.9374418" lon="7.6321103">
        <ele>1963</ele>
        <time>2014-01-29T09:54:58Z</time>
      </trkpt>
      <trkpt lat="45.9374557" lon="7.6321403">
        <ele>1964</ele>
        <time>2014-01-29T09:54:59Z</time>
      </trkpt>
      <trkpt lat="45.9374765" lon="7.6321839">
        <ele>1965.6</ele>
        <time>2014-01-29T09:55:00Z</time>
      </trkpt>
      <trkpt lat="45.9374953" lon="7.6322167">
        <ele>1966.8</ele>
        <time>2014-01-29T09:55:01Z</time>
      </trkpt>
      <trkpt lat="45.9375257" lon="7.6322786">
        <ele>1968.2</ele>
        <time>2014-01-29T09:55:02Z</time>
      </trkpt>
      <trkpt lat="45.9375424" lon="7.6323142">
        <ele>1968.2</ele>
        <time>2014-01-29T09:55:03Z</time>
      </trkpt>
      <trkpt lat="45.9375662" lon="7.6323599">
        <ele>1969.6</ele>
        <time>2014-01-29T09:55:04Z</time>
      </trkpt>
      <trkpt lat="45.9375838" lon="7.6323935">
        <ele>1970.8</ele>
        <time>2014-01-29T09:55:05Z</time>
      </trkpt>
      <trkpt lat="45.93761" lon="7.6324429">
        <ele>1971.8</ele>
        <time>2014-01-29T09:55:06Z</time>
      </trkpt>
      <trkpt lat="45.9376523" lon="7.6325286">
        <ele>1973.4</ele>
        <time>2014-01-29T09:55:08Z</time>
      </trkpt>
      <trkpt lat="45.9376693" lon="7.6325649">
        <ele>1974.4</ele>
        <time>2014-01-29T09:55:09Z</time>
      </trkpt>
      <trkpt lat="45.9376931" lon="7.6326135">
        <ele>1974.4</ele>
        <time>2014-01-29T09:55:10Z</time>
      </trkpt>
      <trkpt lat="45.937708" lon="7.6326466">
        <ele>1976</ele>
        <time>2014-01-29T09:55:11Z</time>
      </trkpt>
      <trkpt lat="45.9377331" lon="7.6327006">
        <ele>1977</ele>
        <time>2014-01-29T09:55:12Z</time>
      </trkpt>
      <trkpt lat="45.9377694" lon="7.6327818">
        <ele>1978.4</ele>
        <time>2014-01-29T09:55:14Z</time>
      </trkpt>
      <trkpt lat="45.9377841" lon="7.632814">
        <ele>1979.4</ele>
        <time>2014-01-29T09:55:15Z</time>
      </trkpt>
      <trkpt lat="45.9378262" lon="7.632897">
        <ele>1981.4</ele>
        <time>2014-01-29T09:55:17Z</time>
      </trkpt>
      <trkpt lat="45.9378482" lon="7.6329459">
        <ele>1982.4</ele>
        <time>2014-01-29T09:55:18Z</time>
      </trkpt>
      <trkpt lat="45.9378653" lon="7.6329795">
        <ele>1983.4</ele>
        <time>2014-01-29T09:55:19Z</time>
      </trkpt>
      <trkpt lat="45.9378882" lon="7.633028">
        <ele>1984.6</ele>
        <time>2014-01-29T09:55:20Z</time>
      </trkpt>
      <trkpt lat="45.9379041" lon="7.6330593">
        <ele>1985.8</ele>
        <time>2014-01-29T09:55:21Z</time>
      </trkpt>
      <trkpt lat="45.9379283" lon="7.6331104">
        <ele>1987</ele>
        <time>2014-01-29T09:55:22Z</time>
      </trkpt>
      <trkpt lat="45.9379407" lon="7.6331344">
        <ele>1988.2</ele>
        <time>2014-01-29T09:55:23Z</time>
      </trkpt>
      <trkpt lat="45.9379659" lon="7.6331864">
        <ele>1989.2</ele>
        <time>2014-01-29T09:55:24Z</time>
      </trkpt>
      <trkpt lat="45.9379808" lon="7.6332173">
        <ele>1990.4</ele>
        <time>2014-01-29T09:55:25Z</time>
      </trkpt>
      <trkpt lat="45.938002" lon="7.6332634">
        <ele>1991.8</ele>
        <time>2014-01-29T09:55:26Z</time>
      </trkpt>
      <trkpt lat="45.9380209" lon="7.6332998">
        <ele>1993.2</ele>
        <time>2014-01-29T09:55:27Z</time>
      </trkpt>
      <trkpt lat="45.9380449" lon="7.6333483">
        <ele>1994.4</ele>
        <time>2014-01-29T09:55:28Z</time>
      </trkpt>
      <trkpt lat="45.9380905" lon="7.6334339">
        <ele>1996.2</ele>
        <time>2014-01-29T09:55:30Z</time>
      </trkpt>
      <trkpt lat="45.9381062" lon="7.6334611">
        <ele>1997.2</ele>
        <time>2014-01-29T09:55:31Z</time>
      </trkpt>
      <trkpt lat="45.9381356" lon="7.6335162">
        <ele>1998.4</ele>
        <time>2014-01-29T09:55:32Z</time>
      </trkpt>
      <trkpt lat="45.938176" lon="7.6335962">
        <ele>2000</ele>
        <time>2014-01-29T09:55:34Z</time>
      </trkpt>
      <trkpt lat="45.9381913" lon="7.6336244">
        <ele>2001</ele>
        <time>2014-01-29T09:55:35Z</time>
      </trkpt>
      <trkpt lat="45.9382169" lon="7.6336754">
        <ele>2002.2</ele>
        <time>2014-01-29T09:55:36Z</time>
      </trkpt>
      <trkpt lat="45.9382534" lon="7.6337527">
        <ele>2003.8</ele>
        <time>2014-01-29T09:55:38Z</time>
      </trkpt>
      <trkpt lat="45.9382766" lon="7.6337978">
        <ele>2005</ele>
        <time>2014-01-29T09:55:39Z</time>
      </trkpt>
      <trkpt lat="45.9383003" lon="7.6338451">
        <ele>2006</ele>
        <time>2014-01-29T09:55:40Z</time>
      </trkpt>
      <trkpt lat="45.9383417" lon="7.6339291">
        <ele>2008.4</ele>
        <time>2014-01-29T09:55:42Z</time>
      </trkpt>
      <trkpt lat="45.938359" lon="7.6339594">
        <ele>2009.6</ele>
        <time>2014-01-29T09:55:43Z</time>
      </trkpt>
      <trkpt lat="45.938383" lon="7.6340077">
        <ele>2011</ele>
        <time>2014-01-29T09:55:44Z</time>
      </trkpt>
      <trkpt lat="45.938422" lon="7.634086">
        <ele>2012</ele>
        <time>2014-01-29T09:55:46Z</time>
      </trkpt>
      <trkpt lat="45.9384399" lon="7.634121">
        <ele>2014.4</ele>
        <time>2014-01-29T09:55:47Z</time>
      </trkpt>
      <trkpt lat="45.938464" lon="7.6341693">
        <ele>2015.8</ele>
        <time>2014-01-29T09:55:48Z</time>
      </trkpt>
      <trkpt lat="45.9384814" lon="7.6342033">
        <ele>2017</ele>
        <time>2014-01-29T09:55:49Z</time>
      </trkpt>
      <trkpt lat="45.938503" lon="7.6342492">
        <ele>2018.2</ele>
        <time>2014-01-29T09:55:50Z</time>
      </trkpt>
      <trkpt lat="45.9385173" lon="7.6342794">
        <ele>2019.2</ele>
        <time>2014-01-29T09:55:51Z</time>
      </trkpt>
      <trkpt lat="45.9385414" lon="7.6343306">
        <ele>2020.6</ele>
        <time>2014-01-29T09:55:52Z</time>
      </trkpt>
      <trkpt lat="45.9385542" lon="7.634355">
        <ele>2022.2</ele>
        <time>2014-01-29T09:55:53Z</time>
      </trkpt>
      <trkpt lat="45.9385779" lon="7.6344072">
        <ele>2023.4</ele>
        <time>2014-01-29T09:55:54Z</time>
      </trkpt>
      <trkpt lat="45.9385919" lon="7.634439">
        <ele>2024.6</ele>
        <time>2014-01-29T09:55:55Z</time>
      </trkpt>
      <trkpt lat="45.9386138" lon="7.6344814">
        <ele>2026.8</ele>
        <time>2014-01-29T09:55:56Z</time>
      </trkpt>
      <trkpt lat="45.9386571" lon="7.6345701">
        <ele>2028</ele>
        <time>2014-01-29T09:55:58Z</time>
      </trkpt>
      <trkpt lat="45.938698" lon="7.6346495">
        <ele>2029.2</ele>
        <time>2014-01-29T09:56:00Z</time>
      </trkpt>
      <trkpt lat="45.9387431" lon="7.6347396">
        <ele>2030.2</ele>
        <time>2014-01-29T09:56:02Z</time>
      </trkpt>
      <trkpt lat="45.9387568" lon="7.6347689">
        <ele>2031.4</ele>
        <time>2014-01-29T09:56:03Z</time>
      </trkpt>
      <trkpt lat="45.9387939" lon="7.6348496">
        <ele>2032.4</ele>
        <time>2014-01-29T09:56:05Z</time>
      </trkpt>
      <trkpt lat="45.9388162" lon="7.6349016">
        <ele>2033.8</ele>
        <time>2014-01-29T09:56:06Z</time>
      </trkpt>
      <trkpt lat="45.9388562" lon="7.6349852">
        <ele>2034.8</ele>
        <time>2014-01-29T09:56:08Z</time>
      </trkpt>
      <trkpt lat="45.938873" lon="7.6350201">
        <ele>2036</ele>
        <time>2014-01-29T09:56:09Z</time>
      </trkpt>
      <trkpt lat="45.9389115" lon="7.635101">
        <ele>2037.4</ele>
        <time>2014-01-29T09:56:11Z</time>
      </trkpt>
      <trkpt lat="45.9389361" lon="7.6351523">
        <ele>2038.4</ele>
        <time>2014-01-29T09:56:12Z</time>
      </trkpt>
      <trkpt lat="45.9389756" lon="7.635234">
        <ele>2039.6</ele>
        <time>2014-01-29T09:56:14Z</time>
      </trkpt>
      <trkpt lat="45.9389913" lon="7.6352654">
        <ele>2040.8</ele>
        <time>2014-01-29T09:56:15Z</time>
      </trkpt>
      <trkpt lat="45.9390148" lon="7.6353126">
        <ele>2042</ele>
        <time>2014-01-29T09:56:16Z</time>
      </trkpt>
      <trkpt lat="45.9390331" lon="7.6353481">
        <ele>2043.2</ele>
        <time>2014-01-29T09:56:17Z</time>
      </trkpt>
      <trkpt lat="45.9390564" lon="7.6353974">
        <ele>2044.4</ele>
        <time>2014-01-29T09:56:18Z</time>
      </trkpt>
      <trkpt lat="45.9390966" lon="7.6354789">
        <ele>2045.8</ele>
        <time>2014-01-29T09:56:20Z</time>
      </trkpt>
      <trkpt lat="45.9391114" lon="7.6355107">
        <ele>2047</ele>
        <time>2014-01-29T09:56:21Z</time>
      </trkpt>
      <trkpt lat="45.9391343" lon="7.6355629">
        <ele>2048.4</ele>
        <time>2014-01-29T09:56:22Z</time>
      </trkpt>
      <trkpt lat="45.9391479" lon="7.6355882">
        <ele>2050</ele>
        <time>2014-01-29T09:56:23Z</time>
      </trkpt>
      <trkpt lat="45.9391756" lon="7.6356406">
        <ele>2051.4</ele>
        <time>2014-01-29T09:56:24Z</time>
      </trkpt>
      <trkpt lat="45.9391923" lon="7.6356669">
        <ele>2053</ele>
        <time>2014-01-29T09:56:25Z</time>
      </trkpt>
      <trkpt lat="45.9392152" lon="7.6357057">
        <ele>2054.2</ele>
        <time>2014-01-29T09:56:26Z</time>
      </trkpt>
      <trkpt lat="45.9392334" lon="7.635743">
        <ele>2055.6</ele>
        <time>2014-01-29T09:56:27Z</time>
      </trkpt>
      <trkpt lat="45.9392573" lon="7.6357904">
        <ele>2057</ele>
        <time>2014-01-29T09:56:28Z</time>
      </trkpt>
      <trkpt lat="45.9392726" lon="7.6358215">
        <ele>2058.4</ele>
        <time>2014-01-29T09:56:29Z</time>
      </trkpt>
      <trkpt lat="45.939296" lon="7.635867">
        <ele>2059.4</ele>
        <time>2014-01-29T09:56:30Z</time>
      </trkpt>
      <trkpt lat="45.939313" lon="7.6358982">
        <ele>2061</ele>
        <time>2014-01-29T09:56:31Z</time>
      </trkpt>
      <trkpt lat="45.9393371" lon="7.6359485">
        <ele>2063.6</ele>
        <time>2014-01-29T09:56:32Z</time>
      </trkpt>
      <trkpt lat="45.9393536" lon="7.6359782">
        <ele>2064.8</ele>
        <time>2014-01-29T09:56:33Z</time>
      </trkpt>
      <trkpt lat="45.9393776" lon="7.6360242">
        <ele>2066</ele>
        <time>2014-01-29T09:56:34Z</time>
      </trkpt>
      <trkpt lat="45.9393923" lon="7.6360512">
        <ele>2067.6</ele>
        <time>2014-01-29T09:56:35Z</time>
      </trkpt>
      <trkpt lat="45.9394155" lon="7.6360992">
        <ele>2068.8</ele>
        <time>2014-01-29T09:56:36Z</time>
      </trkpt>
      <trkpt lat="45.9394342" lon="7.6361334">
        <ele>2070</ele>
        <time>2014-01-29T09:56:37Z</time>
      </trkpt>
      <trkpt lat="45.9394571" lon="7.6361765">
        <ele>2073</ele>
        <time>2014-01-29T09:56:38Z</time>
      </trkpt>
      <trkpt lat="45.9394735" lon="7.6362087">
        <ele>2074.4</ele>
        <time>2014-01-29T09:56:39Z</time>
      </trkpt>
      <trkpt lat="45.9394961" lon="7.6362543">
        <ele>2076</ele>
        <time>2014-01-29T09:56:40Z</time>
      </trkpt>
      <trkpt lat="45.9395119" lon="7.6362848">
        <ele>2077.4</ele>
        <time>2014-01-29T09:56:41Z</time>
      </trkpt>
      <trkpt lat="45.9395375" lon="7.636332">
        <ele>2080</ele>
        <time>2014-01-29T09:56:42Z</time>
      </trkpt>
      <trkpt lat="45.9395512" lon="7.6363624">
        <ele>2082.4</ele>
        <time>2014-01-29T09:56:43Z</time>
      </trkpt>
      <trkpt lat="45.9395719" lon="7.6364091">
        <ele>2083.4</ele>
        <time>2014-01-29T09:56:44Z</time>
      </trkpt>
      <trkpt lat="45.9395859" lon="7.6364373">
        <ele>2085.8</ele>
        <time>2014-01-29T09:56:45Z</time>
      </trkpt>
      <trkpt lat="45.9396072" lon="7.6364814">
        <ele>2087.2</ele>
        <time>2014-01-29T09:56:46Z</time>
      </trkpt>
      <trkpt lat="45.9396226" lon="7.6365143">
        <ele>2089.8</ele>
        <time>2014-01-29T09:56:47Z</time>
      </trkpt>
      <trkpt lat="45.9396435" lon="7.6365589">
        <ele>2091.2</ele>
        <time>2014-01-29T09:56:48Z</time>
      </trkpt>
      <trkpt lat="45.9396893" lon="7.6366453">
        <ele>2092.6</ele>
        <time>2014-01-29T09:56:50Z</time>
      </trkpt>
      <trkpt lat="45.939704" lon="7.6366764">
        <ele>2094</ele>
        <time>2014-01-29T09:56:51Z</time>
      </trkpt>
      <trkpt lat="45.9397268" lon="7.6367271">
        <ele>2095</ele>
        <time>2014-01-29T09:56:52Z</time>
      </trkpt>
      <trkpt lat="45.9397406" lon="7.636754">
        <ele>2096.6</ele>
        <time>2014-01-29T09:56:53Z</time>
      </trkpt>
      <trkpt lat="45.9397665" lon="7.6368087">
        <ele>2098</ele>
        <time>2014-01-29T09:56:54Z</time>
      </trkpt>
      <trkpt lat="45.9397809" lon="7.6368401">
        <ele>2099.4</ele>
        <time>2014-01-29T09:56:55Z</time>
      </trkpt>
      <trkpt lat="45.9398014" lon="7.6368868">
        <ele>2100.4</ele>
        <time>2014-01-29T09:56:56Z</time>
      </trkpt>
      <trkpt lat="45.9398185" lon="7.636921">
        <ele>2101.6</ele>
        <time>2014-01-29T09:56:57Z</time>
      </trkpt>
      <trkpt lat="45.9398412" lon="7.6369688">
        <ele>2103</ele>
        <time>2014-01-29T09:56:58Z</time>
      </trkpt>
      <trkpt lat="45.939857" lon="7.6370006">
        <ele>2104</ele>
        <time>2014-01-29T09:56:59Z</time>
      </trkpt>
      <trkpt lat="45.9398811" lon="7.637049">
        <ele>2106.2</ele>
        <time>2014-01-29T09:57:00Z</time>
      </trkpt>
      <trkpt lat="45.9398973" lon="7.6370795">
        <ele>2107.4</ele>
        <time>2014-01-29T09:57:01Z</time>
      </trkpt>
      <trkpt lat="45.9399216" lon="7.6371311">
        <ele>2108.6</ele>
        <time>2014-01-29T09:57:02Z</time>
      </trkpt>
      <trkpt lat="45.9399346" lon="7.6371616">
        <ele>2110</ele>
        <time>2014-01-29T09:57:03Z</time>
      </trkpt>
      <trkpt lat="45.9399585" lon="7.6372079">
        <ele>2112.6</ele>
        <time>2014-01-29T09:57:04Z</time>
      </trkpt>
      <trkpt lat="45.9399746" lon="7.6372362">
        <ele>2113.6</ele>
        <time>2014-01-29T09:57:05Z</time>
      </trkpt>
      <trkpt lat="45.9399965" lon="7.6372828">
        <ele>2114.8</ele>
        <time>2014-01-29T09:57:06Z</time>
      </trkpt>
      <trkpt lat="45.9400143" lon="7.6373166">
        <ele>2117</ele>
        <time>2014-01-29T09:57:07Z</time>
      </trkpt>
      <trkpt lat="45.9400375" lon="7.6373616">
        <ele>2118.4</ele>
        <time>2014-01-29T09:57:08Z</time>
      </trkpt>
      <trkpt lat="45.9400553" lon="7.6373955">
        <ele>2120</ele>
        <time>2014-01-29T09:57:09Z</time>
      </trkpt>
      <trkpt lat="45.9400796" lon="7.6374418">
        <ele>2121</ele>
        <time>2014-01-29T09:57:10Z</time>
      </trkpt>
      <trkpt lat="45.9400948" lon="7.6374717">
        <ele>2122.2</ele>
        <time>2014-01-29T09:57:11Z</time>
      </trkpt>
      <trkpt lat="45.94012" lon="7.6375201">
        <ele>2124.8</ele>
        <time>2014-01-29T09:57:12Z</time>
      </trkpt>
      <trkpt lat="45.940135" lon="7.63755">
        <ele>2126</ele>
        <time>2014-01-29T09:57:13Z</time>
      </trkpt>
      <trkpt lat="45.940157" lon="7.6375965">
        <ele>2127.2</ele>
        <time>2014-01-29T09:57:14Z</time>
      </trkpt>
      <trkpt lat="45.9401701" lon="7.6376246">
        <ele>2128.6</ele>
        <time>2014-01-29T09:57:15Z</time>
      </trkpt>
      <trkpt lat="45.940192" lon="7.6376703">
        <ele>2131.2</ele>
        <time>2014-01-29T09:57:16Z</time>
      </trkpt>
      <trkpt lat="45.9402085" lon="7.6377034">
        <ele>2132.6</ele>
        <time>2014-01-29T09:57:17Z</time>
      </trkpt>
      <trkpt lat="45.9402318" lon="7.6377493">
        <ele>2133.8</ele>
        <time>2014-01-29T09:57:18Z</time>
      </trkpt>
      <trkpt lat="45.9402781" lon="7.6378384">
        <ele>2135</ele>
        <time>2014-01-29T09:57:20Z</time>
      </trkpt>
      <trkpt lat="45.9403197" lon="7.6379227">
        <ele>2136</ele>
        <time>2014-01-29T09:57:22Z</time>
      </trkpt>
      <trkpt lat="45.9403601" lon="7.6380023">
        <ele>2137.2</ele>
        <time>2014-01-29T09:57:24Z</time>
      </trkpt>
      <trkpt lat="45.9404023" lon="7.6380828">
        <ele>2138.2</ele>
        <time>2014-01-29T09:57:26Z</time>
      </trkpt>
      <trkpt lat="45.9404215" lon="7.6381204">
        <ele>2139.4</ele>
        <time>2014-01-29T09:57:27Z</time>
      </trkpt>
      <trkpt lat="45.9404627" lon="7.6382015">
        <ele>2140.4</ele>
        <time>2014-01-29T09:57:29Z</time>
      </trkpt>
      <trkpt lat="45.9404895" lon="7.6382513">
        <ele>2141.4</ele>
        <time>2014-01-29T09:57:30Z</time>
      </trkpt>
      <trkpt lat="45.94053" lon="7.6383367">
        <ele>2142.6</ele>
        <time>2014-01-29T09:57:32Z</time>
      </trkpt>
      <trkpt lat="45.9405453" lon="7.6383672">
        <ele>2143.6</ele>
        <time>2014-01-29T09:57:33Z</time>
      </trkpt>
      <trkpt lat="45.9405841" lon="7.638445">
        <ele>2145</ele>
        <time>2014-01-29T09:57:35Z</time>
      </trkpt>
      <trkpt lat="45.9406093" lon="7.6384961">
        <ele>2146</ele>
        <time>2014-01-29T09:57:36Z</time>
      </trkpt>
      <trkpt lat="45.9406274" lon="7.6385341">
        <ele>2147.2</ele>
        <time>2014-01-29T09:57:37Z</time>
      </trkpt>
      <trkpt lat="45.9406681" lon="7.6386142">
        <ele>2148.4</ele>
        <time>2014-01-29T09:57:39Z</time>
      </trkpt>
      <trkpt lat="45.9406918" lon="7.638663">
        <ele>2149.4</ele>
        <time>2014-01-29T09:57:40Z</time>
      </trkpt>
      <trkpt lat="45.9407064" lon="7.6386936">
        <ele>2150.4</ele>
        <time>2014-01-29T09:57:41Z</time>
      </trkpt>
      <trkpt lat="45.94073" lon="7.6387465">
        <ele>2151.4</ele>
        <time>2014-01-29T09:57:42Z</time>
      </trkpt>
      <trkpt lat="45.9407693" lon="7.638819">
        <ele>2152.6</ele>
        <time>2014-01-29T09:57:44Z</time>
      </trkpt>
      <trkpt lat="45.9407831" lon="7.6388455">
        <ele>2154</ele>
        <time>2014-01-29T09:57:45Z</time>
      </trkpt>
      <trkpt lat="45.9408126" lon="7.638901">
        <ele>2155</ele>
        <time>2014-01-29T09:57:46Z</time>
      </trkpt>
      <trkpt lat="45.9408567" lon="7.638986">
        <ele>2156</ele>
        <time>2014-01-29T09:57:48Z</time>
      </trkpt>
      <trkpt lat="45.9408754" lon="7.6390206">
        <ele>2157</ele>
        <time>2014-01-29T09:57:49Z</time>
      </trkpt>
      <trkpt lat="45.9409019" lon="7.6390675">
        <ele>2158.4</ele>
        <time>2014-01-29T09:57:50Z</time>
      </trkpt>
      <trkpt lat="45.9409441" lon="7.6391505">
        <ele>2159.4</ele>
        <time>2014-01-29T09:57:52Z</time>
      </trkpt>
      <trkpt lat="45.9409587" lon="7.6391769">
        <ele>2160.8</ele>
        <time>2014-01-29T09:57:53Z</time>
      </trkpt>
      <trkpt lat="45.9409876" lon="7.6392309">
        <ele>2160.8</ele>
        <time>2014-01-29T09:57:54Z</time>
      </trkpt>
      <trkpt lat="45.9410038" lon="7.6392629">
        <ele>2162.2</ele>
        <time>2014-01-29T09:57:55Z</time>
      </trkpt>
      <trkpt lat="45.9410304" lon="7.639311">
        <ele>2163.4</ele>
        <time>2014-01-29T09:57:56Z</time>
      </trkpt>
      <trkpt lat="45.94105" lon="7.6393482">
        <ele>2164.4</ele>
        <time>2014-01-29T09:57:57Z</time>
      </trkpt>
      <trkpt lat="45.9410772" lon="7.6393977">
        <ele>2165.6</ele>
        <time>2014-01-29T09:57:58Z</time>
      </trkpt>
      <trkpt lat="45.9411213" lon="7.6394798">
        <ele>2166.8</ele>
        <time>2014-01-29T09:58:00Z</time>
      </trkpt>
      <trkpt lat="45.9411396" lon="7.6395134">
        <ele>2168.2</ele>
        <time>2014-01-29T09:58:01Z</time>
      </trkpt>
      <trkpt lat="45.9411703" lon="7.6395683">
        <ele>2169.4</ele>
        <time>2014-01-29T09:58:02Z</time>
      </trkpt>
      <trkpt lat="45.941189" lon="7.6396005">
        <ele>2170.6</ele>
        <time>2014-01-29T09:58:03Z</time>
      </trkpt>
      <trkpt lat="45.9412182" lon="7.6396519">
        <ele>2172</ele>
        <time>2014-01-29T09:58:04Z</time>
      </trkpt>
      <trkpt lat="45.9412656" lon="7.6397353">
        <ele>2174.8</ele>
        <time>2014-01-29T09:58:06Z</time>
      </trkpt>
      <trkpt lat="45.9412872" lon="7.6397736">
        <ele>2176.2</ele>
        <time>2014-01-29T09:58:07Z</time>
      </trkpt>
      <trkpt lat="45.9413404" lon="7.6398563">
        <ele>2179.4</ele>
        <time>2014-01-29T09:58:09Z</time>
      </trkpt>
      <trkpt lat="45.9413674" lon="7.6399017">
        <ele>2181</ele>
        <time>2014-01-29T09:58:10Z</time>
      </trkpt>
      <trkpt lat="45.9413874" lon="7.6399338">
        <ele>2183.6</ele>
        <time>2014-01-29T09:58:11Z</time>
      </trkpt>
      <trkpt lat="45.9414188" lon="7.6399866">
        <ele>2185</ele>
        <time>2014-01-29T09:58:12Z</time>
      </trkpt>
      <trkpt lat="45.9414375" lon="7.6400161">
        <ele>2188</ele>
        <time>2014-01-29T09:58:13Z</time>
      </trkpt>
      <trkpt lat="45.9414668" lon="7.6400646">
        <ele>2189.4</ele>
        <time>2014-01-29T09:58:14Z</time>
      </trkpt>
      <trkpt lat="45.9414835" lon="7.6400907">
        <ele>2191</ele>
        <time>2014-01-29T09:58:15Z</time>
      </trkpt>
      <trkpt lat="45.9415143" lon="7.6401428">
        <ele>2194.4</ele>
        <time>2014-01-29T09:58:16Z</time>
      </trkpt>
      <trkpt lat="45.941536" lon="7.6401774">
        <ele>2195.8</ele>
        <time>2014-01-29T09:58:17Z</time>
      </trkpt>
      <trkpt lat="45.9415672" lon="7.6402233">
        <ele>2198.8</ele>
        <time>2014-01-29T09:58:18Z</time>
      </trkpt>
      <trkpt lat="45.9415906" lon="7.6402563">
        <ele>2200.2</ele>
        <time>2014-01-29T09:58:19Z</time>
      </trkpt>
      <trkpt lat="45.9416227" lon="7.6403041">
        <ele>2203</ele>
        <time>2014-01-29T09:58:20Z</time>
      </trkpt>
      <trkpt lat="45.9416435" lon="7.6403339">
        <ele>2204.8</ele>
        <time>2014-01-29T09:58:21Z</time>
      </trkpt>
      <trkpt lat="45.9416777" lon="7.6403842">
        <ele>2206.6</ele>
        <time>2014-01-29T09:58:22Z</time>
      </trkpt>
      <trkpt lat="45.9416942" lon="7.640408">
        <ele>2208.4</ele>
        <time>2014-01-29T09:58:23Z</time>
      </trkpt>
      <trkpt lat="45.9417254" lon="7.6404594">
        <ele>2212</ele>
        <time>2014-01-29T09:58:24Z</time>
      </trkpt>
      <trkpt lat="45.9417474" lon="7.6404877">
        <ele>2213.8</ele>
        <time>2014-01-29T09:58:25Z</time>
      </trkpt>
      <trkpt lat="45.9418314" lon="7.6406122">
        <ele>2216</ele>
        <time>2014-01-29T09:58:28Z</time>
      </trkpt>
      <trkpt lat="45.9418817" lon="7.6406877">
        <ele>2217.4</ele>
        <time>2014-01-29T09:58:30Z</time>
      </trkpt>
      <trkpt lat="45.9418943" lon="7.6407128">
        <ele>2218.6</ele>
        <time>2014-01-29T09:58:31Z</time>
      </trkpt>
      <trkpt lat="45.9419201" lon="7.6407597">
        <ele>2220.4</ele>
        <time>2014-01-29T09:58:32Z</time>
      </trkpt>
      <trkpt lat="45.9419348" lon="7.6407933">
        <ele>2221.8</ele>
        <time>2014-01-29T09:58:33Z</time>
      </trkpt>
      <trkpt lat="45.9419587" lon="7.6408423">
        <ele>2223.2</ele>
        <time>2014-01-29T09:58:34Z</time>
      </trkpt>
      <trkpt lat="45.9419685" lon="7.6408655">
        <ele>2225</ele>
        <time>2014-01-29T09:58:35Z</time>
      </trkpt>
      <trkpt lat="45.9419897" lon="7.6409133">
        <ele>2226.2</ele>
        <time>2014-01-29T09:58:36Z</time>
      </trkpt>
      <trkpt lat="45.9420065" lon="7.6409498">
        <ele>2227.2</ele>
        <time>2014-01-29T09:58:37Z</time>
      </trkpt>
      <trkpt lat="45.9420296" lon="7.6409871">
        <ele>2228.4</ele>
        <time>2014-01-29T09:58:38Z</time>
      </trkpt>
      <trkpt lat="45.9420522" lon="7.6410259">
        <ele>2229.8</ele>
        <time>2014-01-29T09:58:39Z</time>
      </trkpt>
      <trkpt lat="45.9420719" lon="7.6410679">
        <ele>2231.6</ele>
        <time>2014-01-29T09:58:40Z</time>
      </trkpt>
      <trkpt lat="45.9420767" lon="7.6410888">
        <ele>2234.4</ele>
        <time>2014-01-29T09:58:41Z</time>
      </trkpt>
      <trkpt lat="45.9420791" lon="7.6411236">
        <ele>2239</ele>
        <time>2014-01-29T09:58:42Z</time>
      </trkpt>
      <trkpt lat="45.9420734" lon="7.6411456">
        <ele>2243.6</ele>
        <time>2014-01-29T09:58:43Z</time>
      </trkpt>
      <trkpt lat="45.9420816" lon="7.6411805">
        <ele>2247.4</ele>
        <time>2014-01-29T09:58:44Z</time>
      </trkpt>
      <trkpt lat="45.9420822" lon="7.6411985">
        <ele>2250</ele>
        <time>2014-01-29T09:58:45Z</time>
      </trkpt>
      <trkpt lat="45.9421016" lon="7.6412517">
        <ele>2252.6</ele>
        <time>2014-01-29T09:58:46Z</time>
      </trkpt>
      <trkpt lat="45.9421102" lon="7.6412827">
        <ele>2256.2</ele>
        <time>2014-01-29T09:58:47Z</time>
      </trkpt>
      <trkpt lat="45.9421185" lon="7.6413173">
        <ele>2260.4</ele>
        <time>2014-01-29T09:58:48Z</time>
      </trkpt>
      <trkpt lat="45.9421269" lon="7.641347">
        <ele>2263.8</ele>
        <time>2014-01-29T09:58:49Z</time>
      </trkpt>
      <trkpt lat="45.9421407" lon="7.6413878">
        <ele>2267.4</ele>
        <time>2014-01-29T09:58:50Z</time>
      </trkpt>
      <trkpt lat="45.9421429" lon="7.6414074">
        <ele>2271.2</ele>
        <time>2014-01-29T09:58:51Z</time>
      </trkpt>
      <trkpt lat="45.9421579" lon="7.6414477">
        <ele>2276</ele>
        <time>2014-01-29T09:58:52Z</time>
      </trkpt>
      <trkpt lat="45.9421621" lon="7.641464">
        <ele>2277.8</ele>
        <time>2014-01-29T09:58:53Z</time>
      </trkpt>
      <trkpt lat="45.9421812" lon="7.6415111">
        <ele>2281</ele>
        <time>2014-01-29T09:58:54Z</time>
      </trkpt>
      <trkpt lat="45.9421873" lon="7.6415313">
        <ele>2284.4</ele>
        <time>2014-01-29T09:58:55Z</time>
      </trkpt>
      <trkpt lat="45.9422065" lon="7.6415741">
        <ele>2287</ele>
        <time>2014-01-29T09:58:56Z</time>
      </trkpt>
      <trkpt lat="45.9422183" lon="7.6416045">
        <ele>2289.8</ele>
        <time>2014-01-29T09:58:57Z</time>
      </trkpt>
      <trkpt lat="45.9422376" lon="7.6416469">
        <ele>2292.2</ele>
        <time>2014-01-29T09:58:58Z</time>
      </trkpt>
      <trkpt lat="45.9422514" lon="7.6416745">
        <ele>2294.6</ele>
        <time>2014-01-29T09:58:59Z</time>
      </trkpt>
      <trkpt lat="45.9422666" lon="7.6417152">
        <ele>2297.6</ele>
        <time>2014-01-29T09:59:00Z</time>
      </trkpt>
      <trkpt lat="45.9422783" lon="7.641743">
        <ele>2300.2</ele>
        <time>2014-01-29T09:59:01Z</time>
      </trkpt>
      <trkpt lat="45.9422952" lon="7.6417875">
        <ele>2303.4</ele>
        <time>2014-01-29T09:59:02Z</time>
      </trkpt>
      <trkpt lat="45.9423052" lon="7.6418118">
        <ele>2306</ele>
        <time>2014-01-29T09:59:03Z</time>
      </trkpt>
      <trkpt lat="45.9423244" lon="7.6418573">
        <ele>2308.2</ele>
        <time>2014-01-29T09:59:04Z</time>
      </trkpt>
      <trkpt lat="45.9423357" lon="7.6418873">
        <ele>2310.2</ele>
        <time>2014-01-29T09:59:05Z</time>
      </trkpt>
      <trkpt lat="45.9423586" lon="7.6419387">
        <ele>2312</ele>
        <time>2014-01-29T09:59:06Z</time>
      </trkpt>
      <trkpt lat="45.9423733" lon="7.6419741">
        <ele>2313.6</ele>
        <time>2014-01-29T09:59:07Z</time>
      </trkpt>
      <trkpt lat="45.9423939" lon="7.6420169">
        <ele>2315.2</ele>
        <time>2014-01-29T09:59:08Z</time>
      </trkpt>
      <trkpt lat="45.9424107" lon="7.642051">
        <ele>2316.8</ele>
        <time>2014-01-29T09:59:09Z</time>
      </trkpt>
      <trkpt lat="45.9424339" lon="7.6420974">
        <ele>2318.2</ele>
        <time>2014-01-29T09:59:10Z</time>
      </trkpt>
      <trkpt lat="45.9424461" lon="7.6421238">
        <ele>2319.6</ele>
        <time>2014-01-29T09:59:11Z</time>
      </trkpt>
      <trkpt lat="45.9424693" lon="7.6421709">
        <ele>2321</ele>
        <time>2014-01-29T09:59:12Z</time>
      </trkpt>
      <trkpt lat="45.9424862" lon="7.6422034">
        <ele>2322.4</ele>
        <time>2014-01-29T09:59:13Z</time>
      </trkpt>
      <trkpt lat="45.9425098" lon="7.6422523">
        <ele>2323.4</ele>
        <time>2014-01-29T09:59:14Z</time>
      </trkpt>
      <trkpt lat="45.942519" lon="7.6422727">
        <ele>2324.6</ele>
        <time>2014-01-29T09:59:15Z</time>
      </trkpt>
      <trkpt lat="45.9425495" lon="7.6423353">
        <ele>2325.8</ele>
        <time>2014-01-29T09:59:16Z</time>
      </trkpt>
      <trkpt lat="45.9425676" lon="7.6423682">
        <ele>2326.8</ele>
        <time>2014-01-29T09:59:17Z</time>
      </trkpt>
      <trkpt lat="45.9425877" lon="7.6424118">
        <ele>2328</ele>
        <time>2014-01-29T09:59:18Z</time>
      </trkpt>
      <trkpt lat="45.9426243" lon="7.6424859">
        <ele>2329.4</ele>
        <time>2014-01-29T09:59:20Z</time>
      </trkpt>
      <trkpt lat="45.9426391" lon="7.6425171">
        <ele>2329.4</ele>
        <time>2014-01-29T09:59:21Z</time>
      </trkpt>
      <trkpt lat="45.9426634" lon="7.6425704">
        <ele>2330.8</ele>
        <time>2014-01-29T09:59:22Z</time>
      </trkpt>
      <trkpt lat="45.9427002" lon="7.6426485">
        <ele>2332.2</ele>
        <time>2014-01-29T09:59:24Z</time>
      </trkpt>
      <trkpt lat="45.9427371" lon="7.6427283">
        <ele>2333.6</ele>
        <time>2014-01-29T09:59:26Z</time>
      </trkpt>
      <trkpt lat="45.9427758" lon="7.6428144">
        <ele>2335</ele>
        <time>2014-01-29T09:59:28Z</time>
      </trkpt>
      <trkpt lat="45.9428106" lon="7.6428903">
        <ele>2336.6</ele>
        <time>2014-01-29T09:59:30Z</time>
      </trkpt>
      <trkpt lat="45.9428273" lon="7.6429268">
        <ele>2336.6</ele>
        <time>2014-01-29T09:59:31Z</time>
      </trkpt>
      <trkpt lat="45.942854" lon="7.6429823">
        <ele>2337.8</ele>
        <time>2014-01-29T09:59:32Z</time>
      </trkpt>
      <trkpt lat="45.942891" lon="7.6430622">
        <ele>2338.8</ele>
        <time>2014-01-29T09:59:34Z</time>
      </trkpt>
      <trkpt lat="45.9429882" lon="7.6432419">
        <ele>2340.8</ele>
        <time>2014-01-29T09:59:39Z</time>
      </trkpt>
      <trkpt lat="45.9430253" lon="7.6433183">
        <ele>2340.8</ele>
        <time>2014-01-29T09:59:41Z</time>
      </trkpt>
      <trkpt lat="45.9430504" lon="7.6433671">
        <ele>2342</ele>
        <time>2014-01-29T09:59:42Z</time>
      </trkpt>
      <trkpt lat="45.9430908" lon="7.6434489">
        <ele>2343</ele>
        <time>2014-01-29T09:59:44Z</time>
      </trkpt>
      <trkpt lat="45.9431288" lon="7.6435291">
        <ele>2344.2</ele>
        <time>2014-01-29T09:59:46Z</time>
      </trkpt>
      <trkpt lat="45.9431686" lon="7.6436098">
        <ele>2345.2</ele>
        <time>2014-01-29T09:59:48Z</time>
      </trkpt>
      <trkpt lat="45.9432289" lon="7.6437277">
        <ele>2346.4</ele>
        <time>2014-01-29T09:59:51Z</time>
      </trkpt>
      <trkpt lat="45.943298" lon="7.6438594">
        <ele>2347.4</ele>
        <time>2014-01-29T09:59:54Z</time>
      </trkpt>
      <trkpt lat="45.94334" lon="7.6439395">
        <ele>2348.4</ele>
        <time>2014-01-29T09:59:56Z</time>
      </trkpt>
      <trkpt lat="45.9433819" lon="7.6440195">
        <ele>2349.6</ele>
        <time>2014-01-29T09:59:58Z</time>
      </trkpt>
      <trkpt lat="45.943421" lon="7.6440923">
        <ele>2350.6</ele>
        <time>2014-01-29T10:00:00Z</time>
      </trkpt>
      <trkpt lat="45.9434665" lon="7.6441776">
        <ele>2351.6</ele>
        <time>2014-01-29T10:00:02Z</time>
      </trkpt>
      <trkpt lat="45.9434825" lon="7.6442068">
        <ele>2352.8</ele>
        <time>2014-01-29T10:00:03Z</time>
      </trkpt>
      <trkpt lat="45.9435218" lon="7.6442795">
        <ele>2353.8</ele>
        <time>2014-01-29T10:00:05Z</time>
      </trkpt>
      <trkpt lat="45.9435456" lon="7.6443291">
        <ele>2355</ele>
        <time>2014-01-29T10:00:06Z</time>
      </trkpt>
      <trkpt lat="45.9435889" lon="7.6444108">
        <ele>2356</ele>
        <time>2014-01-29T10:00:08Z</time>
      </trkpt>
      <trkpt lat="45.9436283" lon="7.6444935">
        <ele>2357.2</ele>
        <time>2014-01-29T10:00:10Z</time>
      </trkpt>
      <trkpt lat="45.9436668" lon="7.6445761">
        <ele>2358.4</ele>
        <time>2014-01-29T10:00:12Z</time>
      </trkpt>
      <trkpt lat="45.9436843" lon="7.6446117">
        <ele>2359.6</ele>
        <time>2014-01-29T10:00:13Z</time>
      </trkpt>
      <trkpt lat="45.9437183" lon="7.6446835">
        <ele>2360.8</ele>
        <time>2014-01-29T10:00:15Z</time>
      </trkpt>
      <trkpt lat="45.9437871" lon="7.6448291">
        <ele>2361.8</ele>
        <time>2014-01-29T10:00:18Z</time>
      </trkpt>
      <trkpt lat="45.9438713" lon="7.6450005">
        <ele>2362.8</ele>
        <time>2014-01-29T10:00:22Z</time>
      </trkpt>
      <trkpt lat="45.9439107" lon="7.6450812">
        <ele>2363.8</ele>
        <time>2014-01-29T10:00:24Z</time>
      </trkpt>
      <trkpt lat="45.9439511" lon="7.6451657">
        <ele>2365</ele>
        <time>2014-01-29T10:00:26Z</time>
      </trkpt>
      <trkpt lat="45.9440075" lon="7.6452876">
        <ele>2366.2</ele>
        <time>2014-01-29T10:00:29Z</time>
      </trkpt>
      <trkpt lat="45.9440461" lon="7.6453698">
        <ele>2367.2</ele>
        <time>2014-01-29T10:00:31Z</time>
      </trkpt>
      <trkpt lat="45.9440877" lon="7.6454534">
        <ele>2368.2</ele>
        <time>2014-01-29T10:00:33Z</time>
      </trkpt>
      <trkpt lat="45.9441105" lon="7.6455054">
        <ele>2369.2</ele>
        <time>2014-01-29T10:00:34Z</time>
      </trkpt>
      <trkpt lat="45.944151" lon="7.6455833">
        <ele>2370.4</ele>
        <time>2014-01-29T10:00:36Z</time>
      </trkpt>
      <trkpt lat="45.9441688" lon="7.645622">
        <ele>2371.4</ele>
        <time>2014-01-29T10:00:37Z</time>
      </trkpt>
      <trkpt lat="45.9442108" lon="7.6457048">
        <ele>2372.4</ele>
        <time>2014-01-29T10:00:39Z</time>
      </trkpt>
      <trkpt lat="45.9442353" lon="7.6457541">
        <ele>2373.4</ele>
        <time>2014-01-29T10:00:40Z</time>
      </trkpt>
      <trkpt lat="45.9442767" lon="7.6458329">
        <ele>2374.6</ele>
        <time>2014-01-29T10:00:42Z</time>
      </trkpt>
      <trkpt lat="45.9443206" lon="7.6459215">
        <ele>2375.8</ele>
        <time>2014-01-29T10:00:44Z</time>
      </trkpt>
      <trkpt lat="45.9443335" lon="7.6459491">
        <ele>2377</ele>
        <time>2014-01-29T10:00:45Z</time>
      </trkpt>
      <trkpt lat="45.9443547" lon="7.6460042">
        <ele>2377</ele>
        <time>2014-01-29T10:00:46Z</time>
      </trkpt>
      <trkpt lat="45.9443726" lon="7.6460363">
        <ele>2378.4</ele>
        <time>2014-01-29T10:00:47Z</time>
      </trkpt>
      <trkpt lat="45.9443954" lon="7.6460837">
        <ele>2379.6</ele>
        <time>2014-01-29T10:00:48Z</time>
      </trkpt>
      <trkpt lat="45.9444385" lon="7.6461706">
        <ele>2380.6</ele>
        <time>2014-01-29T10:00:50Z</time>
      </trkpt>
      <trkpt lat="45.9444813" lon="7.6462554">
        <ele>2381.8</ele>
        <time>2014-01-29T10:00:52Z</time>
      </trkpt>
      <trkpt lat="45.9444956" lon="7.6462865">
        <ele>2383</ele>
        <time>2014-01-29T10:00:53Z</time>
      </trkpt>
      <trkpt lat="45.9445349" lon="7.6463665">
        <ele>2384.2</ele>
        <time>2014-01-29T10:00:55Z</time>
      </trkpt>
      <trkpt lat="45.944561" lon="7.6464173">
        <ele>2385.6</ele>
        <time>2014-01-29T10:00:56Z</time>
      </trkpt>
      <trkpt lat="45.9446054" lon="7.6465033">
        <ele>2386.8</ele>
        <time>2014-01-29T10:00:58Z</time>
      </trkpt>
      <trkpt lat="45.944621" lon="7.6465359">
        <ele>2387.8</ele>
        <time>2014-01-29T10:00:59Z</time>
      </trkpt>
      <trkpt lat="45.9446438" lon="7.6465798">
        <ele>2389</ele>
        <time>2014-01-29T10:01:00Z</time>
      </trkpt>
      <trkpt lat="45.9446616" lon="7.6466159">
        <ele>2390</ele>
        <time>2014-01-29T10:01:01Z</time>
      </trkpt>
      <trkpt lat="45.9447027" lon="7.6466988">
        <ele>2391.4</ele>
        <time>2014-01-29T10:01:03Z</time>
      </trkpt>
      <trkpt lat="45.9447288" lon="7.6467488">
        <ele>2392.4</ele>
        <time>2014-01-29T10:01:04Z</time>
      </trkpt>
      <trkpt lat="45.9447428" lon="7.6467762">
        <ele>2393.6</ele>
        <time>2014-01-29T10:01:05Z</time>
      </trkpt>
      <trkpt lat="45.9447686" lon="7.646825">
        <ele>2394.6</ele>
        <time>2014-01-29T10:01:06Z</time>
      </trkpt>
      <trkpt lat="45.9448115" lon="7.6469104">
        <ele>2396</ele>
        <time>2014-01-29T10:01:08Z</time>
      </trkpt>
      <trkpt lat="45.9448277" lon="7.6469427">
        <ele>2397.4</ele>
        <time>2014-01-29T10:01:09Z</time>
      </trkpt>
      <trkpt lat="45.944852" lon="7.6469911">
        <ele>2398.8</ele>
        <time>2014-01-29T10:01:10Z</time>
      </trkpt>
      <trkpt lat="45.9448913" lon="7.6470695">
        <ele>2400</ele>
        <time>2014-01-29T10:01:12Z</time>
      </trkpt>
      <trkpt lat="45.9449083" lon="7.6471045">
        <ele>2401.2</ele>
        <time>2014-01-29T10:01:13Z</time>
      </trkpt>
      <trkpt lat="45.9449328" lon="7.647152">
        <ele>2402.6</ele>
        <time>2014-01-29T10:01:14Z</time>
      </trkpt>
      <trkpt lat="45.9449472" lon="7.6471781">
        <ele>2403.8</ele>
        <time>2014-01-29T10:01:15Z</time>
      </trkpt>
      <trkpt lat="45.9449731" lon="7.6472314">
        <ele>2405</ele>
        <time>2014-01-29T10:01:16Z</time>
      </trkpt>
      <trkpt lat="45.9449907" lon="7.6472666">
        <ele>2406.2</ele>
        <time>2014-01-29T10:01:17Z</time>
      </trkpt>
      <trkpt lat="45.9450145" lon="7.6473127">
        <ele>2407.6</ele>
        <time>2014-01-29T10:01:18Z</time>
      </trkpt>
      <trkpt lat="45.9450319" lon="7.6473446">
        <ele>2408.8</ele>
        <time>2014-01-29T10:01:19Z</time>
      </trkpt>
      <trkpt lat="45.9450556" lon="7.6473935">
        <ele>2409.8</ele>
        <time>2014-01-29T10:01:20Z</time>
      </trkpt>
      <trkpt lat="45.945072" lon="7.6474227">
        <ele>2411</ele>
        <time>2014-01-29T10:01:21Z</time>
      </trkpt>
      <trkpt lat="45.9450992" lon="7.6474748">
        <ele>2412.2</ele>
        <time>2014-01-29T10:01:22Z</time>
      </trkpt>
      <trkpt lat="45.9451157" lon="7.6475062">
        <ele>2413.6</ele>
        <time>2014-01-29T10:01:23Z</time>
      </trkpt>
      <trkpt lat="45.9451398" lon="7.6475554">
        <ele>2414.8</ele>
        <time>2014-01-29T10:01:24Z</time>
      </trkpt>
      <trkpt lat="45.9451546" lon="7.6475864">
        <ele>2416</ele>
        <time>2014-01-29T10:01:25Z</time>
      </trkpt>
      <trkpt lat="45.9451791" lon="7.6476376">
        <ele>2418.2</ele>
        <time>2014-01-29T10:01:26Z</time>
      </trkpt>
      <trkpt lat="45.9452328" lon="7.6477453">
        <ele>2421.2</ele>
        <time>2014-01-29T10:01:29Z</time>
      </trkpt>
      <trkpt lat="45.9452571" lon="7.6477973">
        <ele>2422.4</ele>
        <time>2014-01-29T10:01:30Z</time>
      </trkpt>
      <trkpt lat="45.9453023" lon="7.647893">
        <ele>2423.8</ele>
        <time>2014-01-29T10:01:32Z</time>
      </trkpt>
      <trkpt lat="45.9453181" lon="7.647919">
        <ele>2425</ele>
        <time>2014-01-29T10:01:33Z</time>
      </trkpt>
      <trkpt lat="45.9453557" lon="7.6479929">
        <ele>2426.2</ele>
        <time>2014-01-29T10:01:35Z</time>
      </trkpt>
      <trkpt lat="45.9453809" lon="7.6480407">
        <ele>2427.4</ele>
        <time>2014-01-29T10:01:36Z</time>
      </trkpt>
      <trkpt lat="45.9454001" lon="7.6480737">
        <ele>2427.4</ele>
        <time>2014-01-29T10:01:37Z</time>
      </trkpt>
      <trkpt lat="45.9454237" lon="7.6481183">
        <ele>2428.6</ele>
        <time>2014-01-29T10:01:38Z</time>
      </trkpt>
      <trkpt lat="45.9454597" lon="7.6481986">
        <ele>2429.8</ele>
        <time>2014-01-29T10:01:40Z</time>
      </trkpt>
      <trkpt lat="45.9454763" lon="7.6482302">
        <ele>2431</ele>
        <time>2014-01-29T10:01:41Z</time>
      </trkpt>
      <trkpt lat="45.9455006" lon="7.648288">
        <ele>2432.4</ele>
        <time>2014-01-29T10:01:42Z</time>
      </trkpt>
      <trkpt lat="45.9455124" lon="7.6483298">
        <ele>2433.6</ele>
        <time>2014-01-29T10:01:43Z</time>
      </trkpt>
      <trkpt lat="45.9455369" lon="7.6483849">
        <ele>2434.6</ele>
        <time>2014-01-29T10:01:44Z</time>
      </trkpt>
      <trkpt lat="45.945552" lon="7.6484167">
        <ele>2434.6</ele>
        <time>2014-01-29T10:01:45Z</time>
      </trkpt>
      <trkpt lat="45.9455985" lon="7.6485118">
        <ele>2435.8</ele>
        <time>2014-01-29T10:01:47Z</time>
      </trkpt>
      <trkpt lat="45.9456286" lon="7.6486507">
        <ele>2435.8</ele>
        <time>2014-01-29T10:01:51Z</time>
      </trkpt>
      <trkpt lat="45.9456397" lon="7.6486593">
        <ele>2437</ele>
        <time>2014-01-29T10:01:52Z</time>
      </trkpt>
      <trkpt lat="45.945654" lon="7.6486841">
        <ele>2437</ele>
        <time>2014-01-29T10:01:55Z</time>
      </trkpt>
      <trkpt lat="45.9456739" lon="7.6487488">
        <ele>2438</ele>
        <time>2014-01-29T10:01:58Z</time>
      </trkpt>
      <trkpt lat="45.9456755" lon="7.6487735">
        <ele>2438</ele>
        <time>2014-01-29T10:01:59Z</time>
      </trkpt>
      <trkpt lat="45.9456281" lon="7.6489582">
        <ele>2438</ele>
        <time>2014-01-29T10:02:03Z</time>
      </trkpt>
      <trkpt lat="45.9456131" lon="7.6490619">
        <ele>2438</ele>
        <time>2014-01-29T10:02:06Z</time>
      </trkpt>
      <trkpt lat="45.9456152" lon="7.649058">
        <ele>2438</ele>
        <time>2014-01-29T10:02:10Z</time>
      </trkpt>
      <trkpt lat="45.9456167" lon="7.6490543">
        <ele>2438</ele>
        <time>2014-01-29T10:02:16Z</time>
      </trkpt>
      <trkpt lat="45.9456174" lon="7.6490502">
        <ele>2439</ele>
        <time>2014-01-29T10:02:19Z</time>
      </trkpt>
      <trkpt lat="45.9456176" lon="7.649048">
        <ele>2439</ele>
        <time>2014-01-29T10:02:25Z</time>
      </trkpt>
      <trkpt lat="45.9456185" lon="7.6490476">
        <ele>2440</ele>
        <time>2014-01-29T10:02:33Z</time>
      </trkpt>
      <trkpt lat="45.9456186" lon="7.6490488">
        <ele>2440</ele>
        <time>2014-01-29T10:02:35Z</time>
      </trkpt>
      <trkpt lat="45.9456185" lon="7.6490495">
        <ele>2440</ele>
        <time>2014-01-29T10:02:46Z</time>
      </trkpt>
      <trkpt lat="45.9456206" lon="7.6490529">
        <ele>2440</ele>
        <time>2014-01-29T10:02:55Z</time>
      </trkpt>
      <trkpt lat="45.9456259" lon="7.6490596">
        <ele>2440</ele>
        <time>2014-01-29T10:03:14Z</time>
      </trkpt>
      <trkpt lat="45.9456299" lon="7.6490626">
        <ele>2440</ele>
        <time>2014-01-29T10:03:36Z</time>
      </trkpt>
      <trkpt lat="45.945632" lon="7.6490673">
        <ele>2440</ele>
        <time>2014-01-29T10:03:56Z</time>
      </trkpt>
      <trkpt lat="45.9456296" lon="7.6490674">
        <ele>2440</ele>
        <time>2014-01-29T10:04:13Z</time>
      </trkpt>
      <trkpt lat="45.9456898" lon="7.6491107">
        <ele>2440</ele>
        <time>2014-01-29T10:04:20Z</time>
      </trkpt>
      <trkpt lat="45.9457654" lon="7.6491733">
        <ele>2437.8</ele>
        <time>2014-01-29T10:04:24Z</time>
      </trkpt>
      <trkpt lat="45.9458203" lon="7.6492133">
        <ele>2436.8</ele>
        <time>2014-01-29T10:04:26Z</time>
      </trkpt>
      <trkpt lat="45.9458492" lon="7.649237">
        <ele>2436.8</ele>
        <time>2014-01-29T10:04:27Z</time>
      </trkpt>
      <trkpt lat="45.9459727" lon="7.6493542">
        <ele>2435.8</ele>
        <time>2014-01-29T10:04:31Z</time>
      </trkpt>
      <trkpt lat="45.9460165" lon="7.649374">
        <ele>2434.6</ele>
        <time>2014-01-29T10:04:32Z</time>
      </trkpt>
      <trkpt lat="45.9460619" lon="7.6493906">
        <ele>2434.6</ele>
        <time>2014-01-29T10:04:33Z</time>
      </trkpt>
      <trkpt lat="45.9461159" lon="7.6493931">
        <ele>2433.4</ele>
        <time>2014-01-29T10:04:34Z</time>
      </trkpt>
      <trkpt lat="45.9462181" lon="7.6494043">
        <ele>2432.2</ele>
        <time>2014-01-29T10:04:36Z</time>
      </trkpt>
      <trkpt lat="45.9462655" lon="7.6493889">
        <ele>2432.2</ele>
        <time>2014-01-29T10:04:37Z</time>
      </trkpt>
      <trkpt lat="45.9463107" lon="7.6493706">
        <ele>2431.2</ele>
        <time>2014-01-29T10:04:38Z</time>
      </trkpt>
      <trkpt lat="45.946361" lon="7.6493625">
        <ele>2430</ele>
        <time>2014-01-29T10:04:39Z</time>
      </trkpt>
      <trkpt lat="45.9463876" lon="7.6493188">
        <ele>2428.8</ele>
        <time>2014-01-29T10:04:40Z</time>
      </trkpt>
      <trkpt lat="45.9464456" lon="7.6492755">
        <ele>2427.8</ele>
        <time>2014-01-29T10:04:41Z</time>
      </trkpt>
      <trkpt lat="45.9465116" lon="7.6492988">
        <ele>2424.8</ele>
        <time>2014-01-29T10:04:42Z</time>
      </trkpt>
      <trkpt lat="45.9465804" lon="7.6492601">
        <ele>2423.6</ele>
        <time>2014-01-29T10:04:43Z</time>
      </trkpt>
      <trkpt lat="45.9466503" lon="7.6492492">
        <ele>2420.8</ele>
        <time>2014-01-29T10:04:44Z</time>
      </trkpt>
      <trkpt lat="45.946717" lon="7.649259">
        <ele>2418.8</ele>
        <time>2014-01-29T10:04:45Z</time>
      </trkpt>
      <trkpt lat="45.9467832" lon="7.6492101">
        <ele>2416.4</ele>
        <time>2014-01-29T10:04:46Z</time>
      </trkpt>
      <trkpt lat="45.9468554" lon="7.6491933">
        <ele>2414.6</ele>
        <time>2014-01-29T10:04:47Z</time>
      </trkpt>
      <trkpt lat="45.9469292" lon="7.6491328">
        <ele>2410</ele>
        <time>2014-01-29T10:04:48Z</time>
      </trkpt>
      <trkpt lat="45.9469971" lon="7.6490854">
        <ele>2408.8</ele>
        <time>2014-01-29T10:04:49Z</time>
      </trkpt>
      <trkpt lat="45.9470551" lon="7.6490133">
        <ele>2404.2</ele>
        <time>2014-01-29T10:04:50Z</time>
      </trkpt>
      <trkpt lat="45.9470951" lon="7.6489283">
        <ele>2403</ele>
        <time>2014-01-29T10:04:51Z</time>
      </trkpt>
      <trkpt lat="45.9471459" lon="7.6488518">
        <ele>2401.2</ele>
        <time>2014-01-29T10:04:52Z</time>
      </trkpt>
      <trkpt lat="45.9471828" lon="7.6487168">
        <ele>2398.2</ele>
        <time>2014-01-29T10:04:53Z</time>
      </trkpt>
      <trkpt lat="45.9471645" lon="7.6485706">
        <ele>2393.4</ele>
        <time>2014-01-29T10:04:54Z</time>
      </trkpt>
      <trkpt lat="45.9471608" lon="7.648303">
        <ele>2389.6</ele>
        <time>2014-01-29T10:04:56Z</time>
      </trkpt>
      <trkpt lat="45.9471423" lon="7.6481635">
        <ele>2388</ele>
        <time>2014-01-29T10:04:57Z</time>
      </trkpt>
      <trkpt lat="45.9471175" lon="7.6480257">
        <ele>2385.6</ele>
        <time>2014-01-29T10:04:58Z</time>
      </trkpt>
      <trkpt lat="45.9471124" lon="7.6478797">
        <ele>2384.6</ele>
        <time>2014-01-29T10:04:59Z</time>
      </trkpt>
      <trkpt lat="45.9470873" lon="7.6477512">
        <ele>2383.2</ele>
        <time>2014-01-29T10:05:00Z</time>
      </trkpt>
      <trkpt lat="45.9470533" lon="7.647641">
        <ele>2382.2</ele>
        <time>2014-01-29T10:05:01Z</time>
      </trkpt>
      <trkpt lat="45.9470256" lon="7.6475713">
        <ele>2381</ele>
        <time>2014-01-29T10:05:02Z</time>
      </trkpt>
      <trkpt lat="45.9470116" lon="7.6474473">
        <ele>2379.8</ele>
        <time>2014-01-29T10:05:03Z</time>
      </trkpt>
      <trkpt lat="45.9469812" lon="7.6473493">
        <ele>2375.8</ele>
        <time>2014-01-29T10:05:04Z</time>
      </trkpt>
      <trkpt lat="45.9469715" lon="7.6472386">
        <ele>2374.6</ele>
        <time>2014-01-29T10:05:05Z</time>
      </trkpt>
      <trkpt lat="45.9469256" lon="7.6471139">
        <ele>2370.2</ele>
        <time>2014-01-29T10:05:06Z</time>
      </trkpt>
      <trkpt lat="45.9468854" lon="7.6470056">
        <ele>2368.8</ele>
        <time>2014-01-29T10:05:07Z</time>
      </trkpt>
      <trkpt lat="45.9468575" lon="7.6468385">
        <ele>2363.6</ele>
        <time>2014-01-29T10:05:08Z</time>
      </trkpt>
      <trkpt lat="45.9468144" lon="7.646695">
        <ele>2362.4</ele>
        <time>2014-01-29T10:05:09Z</time>
      </trkpt>
      <trkpt lat="45.9467434" lon="7.6465827">
        <ele>2360.8</ele>
        <time>2014-01-29T10:05:10Z</time>
      </trkpt>
      <trkpt lat="45.9466928" lon="7.6464575">
        <ele>2358.2</ele>
        <time>2014-01-29T10:05:11Z</time>
      </trkpt>
      <trkpt lat="45.9466768" lon="7.6462968">
        <ele>2355.2</ele>
        <time>2014-01-29T10:05:12Z</time>
      </trkpt>
      <trkpt lat="45.9466127" lon="7.6461589">
        <ele>2352.4</ele>
        <time>2014-01-29T10:05:13Z</time>
      </trkpt>
      <trkpt lat="45.9465718" lon="7.6459839">
        <ele>2346.4</ele>
        <time>2014-01-29T10:05:14Z</time>
      </trkpt>
      <trkpt lat="45.9465396" lon="7.6458189">
        <ele>2345</ele>
        <time>2014-01-29T10:05:15Z</time>
      </trkpt>
      <trkpt lat="45.9464697" lon="7.6456672">
        <ele>2339.6</ele>
        <time>2014-01-29T10:05:16Z</time>
      </trkpt>
      <trkpt lat="45.9464232" lon="7.645497">
        <ele>2338.6</ele>
        <time>2014-01-29T10:05:17Z</time>
      </trkpt>
      <trkpt lat="45.9463874" lon="7.6452812">
        <ele>2332.4</ele>
        <time>2014-01-29T10:05:18Z</time>
      </trkpt>
      <trkpt lat="45.946328" lon="7.6451237">
        <ele>2330.2</ele>
        <time>2014-01-29T10:05:19Z</time>
      </trkpt>
      <trkpt lat="45.9462719" lon="7.644945">
        <ele>2326.2</ele>
        <time>2014-01-29T10:05:20Z</time>
      </trkpt>
      <trkpt lat="45.9462347" lon="7.6447648">
        <ele>2324.4</ele>
        <time>2014-01-29T10:05:21Z</time>
      </trkpt>
      <trkpt lat="45.9461996" lon="7.6446172">
        <ele>2322.4</ele>
        <time>2014-01-29T10:05:22Z</time>
      </trkpt>
      <trkpt lat="45.9461224" lon="7.6444875">
        <ele>2321.2</ele>
        <time>2014-01-29T10:05:23Z</time>
      </trkpt>
      <trkpt lat="45.9460917" lon="7.644357">
        <ele>2318.6</ele>
        <time>2014-01-29T10:05:24Z</time>
      </trkpt>
      <trkpt lat="45.9460834" lon="7.6442334">
        <ele>2317.6</ele>
        <time>2014-01-29T10:05:25Z</time>
      </trkpt>
      <trkpt lat="45.9460548" lon="7.6441342">
        <ele>2316.4</ele>
        <time>2014-01-29T10:05:26Z</time>
      </trkpt>
      <trkpt lat="45.9460304" lon="7.6440384">
        <ele>2315</ele>
        <time>2014-01-29T10:05:27Z</time>
      </trkpt>
      <trkpt lat="45.9460505" lon="7.6439302">
        <ele>2313.6</ele>
        <time>2014-01-29T10:05:28Z</time>
      </trkpt>
      <trkpt lat="45.946007" lon="7.6437472">
        <ele>2312.4</ele>
        <time>2014-01-29T10:05:30Z</time>
      </trkpt>
      <trkpt lat="45.9459761" lon="7.6436677">
        <ele>2311.4</ele>
        <time>2014-01-29T10:05:31Z</time>
      </trkpt>
      <trkpt lat="45.9459705" lon="7.6435769">
        <ele>2311.4</ele>
        <time>2014-01-29T10:05:32Z</time>
      </trkpt>
      <trkpt lat="45.9459517" lon="7.6434937">
        <ele>2310.4</ele>
        <time>2014-01-29T10:05:33Z</time>
      </trkpt>
      <trkpt lat="45.9459138" lon="7.6434357">
        <ele>2310.4</ele>
        <time>2014-01-29T10:05:34Z</time>
      </trkpt>
      <trkpt lat="45.9458913" lon="7.6433724">
        <ele>2310.4</ele>
        <time>2014-01-29T10:05:35Z</time>
      </trkpt>
      <trkpt lat="45.9458247" lon="7.6431835">
        <ele>2310.4</ele>
        <time>2014-01-29T10:05:39Z</time>
      </trkpt>
      <trkpt lat="45.945782" lon="7.6430787">
        <ele>2308.2</ele>
        <time>2014-01-29T10:05:42Z</time>
      </trkpt>
      <trkpt lat="45.9457853" lon="7.6430558">
        <ele>2308.2</ele>
        <time>2014-01-29T10:05:45Z</time>
      </trkpt>
      <trkpt lat="45.9457643" lon="7.6429615">
        <ele>2307.2</ele>
        <time>2014-01-29T10:05:50Z</time>
      </trkpt>
      <trkpt lat="45.945756" lon="7.6429392">
        <ele>2307.2</ele>
        <time>2014-01-29T10:05:51Z</time>
      </trkpt>
      <trkpt lat="45.9456845" lon="7.6427785">
        <ele>2307.2</ele>
        <time>2014-01-29T10:05:58Z</time>
      </trkpt>
      <trkpt lat="45.9456875" lon="7.6427715">
        <ele>2306.2</ele>
        <time>2014-01-29T10:05:59Z</time>
      </trkpt>
      <trkpt lat="45.9457077" lon="7.6427403">
        <ele>2306.2</ele>
        <time>2014-01-29T10:06:09Z</time>
      </trkpt>
      <trkpt lat="45.9457446" lon="7.6427383">
        <ele>2306.2</ele>
        <time>2014-01-29T10:06:13Z</time>
      </trkpt>
      <trkpt lat="45.9457389" lon="7.6427384">
        <ele>2306.2</ele>
        <time>2014-01-29T10:06:14Z</time>
      </trkpt>
      <trkpt lat="45.9457404" lon="7.642744">
        <ele>2306.2</ele>
        <time>2014-01-29T10:06:25Z</time>
      </trkpt>
      <trkpt lat="45.9457372" lon="7.6427491">
        <ele>2305.2</ele>
        <time>2014-01-29T10:06:26Z</time>
      </trkpt>
      <trkpt lat="45.9457421" lon="7.6427516">
        <ele>2305.2</ele>
        <time>2014-01-29T10:06:37Z</time>
      </trkpt>
      <trkpt lat="45.9457431" lon="7.6427523">
        <ele>2305.2</ele>
        <time>2014-01-29T10:06:49Z</time>
      </trkpt>
      <trkpt lat="45.9457584" lon="7.642761">
        <ele>2305.2</ele>
        <time>2014-01-29T10:07:00Z</time>
      </trkpt>
      <trkpt lat="45.9457744" lon="7.642771">
        <ele>2305.2</ele>
        <time>2014-01-29T10:07:11Z</time>
      </trkpt>
      <trkpt lat="45.9457711" lon="7.6427733">
        <ele>2305.2</ele>
        <time>2014-01-29T10:07:26Z</time>
      </trkpt>
      <trkpt lat="45.945771" lon="7.6427766">
        <ele>2305.2</ele>
        <time>2014-01-29T10:07:50Z</time>
      </trkpt>
      <trkpt lat="45.9458118" lon="7.6427925">
        <ele>2305.2</ele>
        <time>2014-01-29T10:07:56Z</time>
      </trkpt>
      <trkpt lat="45.9458279" lon="7.6428083">
        <ele>2305.2</ele>
        <time>2014-01-29T10:07:57Z</time>
      </trkpt>
      <trkpt lat="45.9458555" lon="7.6428331">
        <ele>2304</ele>
        <time>2014-01-29T10:07:58Z</time>
      </trkpt>
      <trkpt lat="45.9459211" lon="7.642893">
        <ele>2302.6</ele>
        <time>2014-01-29T10:08:00Z</time>
      </trkpt>
      <trkpt lat="45.9459502" lon="7.6429345">
        <ele>2302.6</ele>
        <time>2014-01-29T10:08:01Z</time>
      </trkpt>
      <trkpt lat="45.945972" lon="7.642981">
        <ele>2302.6</ele>
        <time>2014-01-29T10:08:04Z</time>
      </trkpt>
      <trkpt lat="45.9459776" lon="7.6429877">
        <ele>2302.6</ele>
        <time>2014-01-29T10:08:18Z</time>
      </trkpt>
      <trkpt lat="45.9459818" lon="7.6429864">
        <ele>2301.4</ele>
        <time>2014-01-29T10:08:22Z</time>
      </trkpt>
      <trkpt lat="45.9459925" lon="7.6429853">
        <ele>2301.4</ele>
        <time>2014-01-29T10:08:24Z</time>
      </trkpt>
      <trkpt lat="45.9459985" lon="7.6429842">
        <ele>2301.4</ele>
        <time>2014-01-29T10:08:27Z</time>
      </trkpt>
      <trkpt lat="45.9460369" lon="7.642982">
        <ele>2300.4</ele>
        <time>2014-01-29T10:08:32Z</time>
      </trkpt>
      <trkpt lat="45.9460694" lon="7.6429835">
        <ele>2299.2</ele>
        <time>2014-01-29T10:08:33Z</time>
      </trkpt>
      <trkpt lat="45.9461091" lon="7.6430167">
        <ele>2297</ele>
        <time>2014-01-29T10:08:34Z</time>
      </trkpt>
      <trkpt lat="45.9461889" lon="7.6430948">
        <ele>2295.6</ele>
        <time>2014-01-29T10:08:36Z</time>
      </trkpt>
      <trkpt lat="45.9462225" lon="7.6431336">
        <ele>2294.6</ele>
        <time>2014-01-29T10:08:37Z</time>
      </trkpt>
      <trkpt lat="45.9462734" lon="7.6431639">
        <ele>2293.4</ele>
        <time>2014-01-29T10:08:38Z</time>
      </trkpt>
      <trkpt lat="45.9463239" lon="7.6431921">
        <ele>2292.2</ele>
        <time>2014-01-29T10:08:39Z</time>
      </trkpt>
      <trkpt lat="45.9463565" lon="7.6431811">
        <ele>2292.2</ele>
        <time>2014-01-29T10:08:40Z</time>
      </trkpt>
      <trkpt lat="45.9463761" lon="7.6431215">
        <ele>2292.2</ele>
        <time>2014-01-29T10:08:42Z</time>
      </trkpt>
      <trkpt lat="45.9463667" lon="7.6430988">
        <ele>2290.8</ele>
        <time>2014-01-29T10:08:43Z</time>
      </trkpt>
      <trkpt lat="45.9463703" lon="7.64311">
        <ele>2290.8</ele>
        <time>2014-01-29T10:08:46Z</time>
      </trkpt>
      <trkpt lat="45.9463648" lon="7.6430664">
        <ele>2290.8</ele>
        <time>2014-01-29T10:08:56Z</time>
      </trkpt>
      <trkpt lat="45.9463664" lon="7.6430414">
        <ele>2289.8</ele>
        <time>2014-01-29T10:08:57Z</time>
      </trkpt>
      <trkpt lat="45.9463669" lon="7.643003">
        <ele>2288.8</ele>
        <time>2014-01-29T10:08:58Z</time>
      </trkpt>
      <trkpt lat="45.9463802" lon="7.642974">
        <ele>2287.6</ele>
        <time>2014-01-29T10:08:59Z</time>
      </trkpt>
      <trkpt lat="45.9464164" lon="7.6429612">
        <ele>2286.4</ele>
        <time>2014-01-29T10:09:00Z</time>
      </trkpt>
      <trkpt lat="45.9464538" lon="7.6429541">
        <ele>2285.4</ele>
        <time>2014-01-29T10:09:01Z</time>
      </trkpt>
      <trkpt lat="45.9464552" lon="7.6428874">
        <ele>2282.8</ele>
        <time>2014-01-29T10:09:02Z</time>
      </trkpt>
      <trkpt lat="45.946448" lon="7.6428454">
        <ele>2281.4</ele>
        <time>2014-01-29T10:09:03Z</time>
      </trkpt>
      <trkpt lat="45.9464785" lon="7.6427973">
        <ele>2278.6</ele>
        <time>2014-01-29T10:09:04Z</time>
      </trkpt>
      <trkpt lat="45.9465098" lon="7.6427731">
        <ele>2277.2</ele>
        <time>2014-01-29T10:09:05Z</time>
      </trkpt>
      <trkpt lat="45.9464888" lon="7.642691">
        <ele>2276</ele>
        <time>2014-01-29T10:09:06Z</time>
      </trkpt>
      <trkpt lat="45.9464706" lon="7.6426258">
        <ele>2274.8</ele>
        <time>2014-01-29T10:09:07Z</time>
      </trkpt>
      <trkpt lat="45.9464448" lon="7.6426008">
        <ele>2273.6</ele>
        <time>2014-01-29T10:09:09Z</time>
      </trkpt>
      <trkpt lat="45.9464329" lon="7.6425781">
        <ele>2272.6</ele>
        <time>2014-01-29T10:09:10Z</time>
      </trkpt>
      <trkpt lat="45.9464233" lon="7.64255">
        <ele>2272.6</ele>
        <time>2014-01-29T10:09:12Z</time>
      </trkpt>
      <trkpt lat="45.9464188" lon="7.642529">
        <ele>2271.6</ele>
        <time>2014-01-29T10:09:14Z</time>
      </trkpt>
      <trkpt lat="45.9464151" lon="7.6425147">
        <ele>2271.6</ele>
        <time>2014-01-29T10:09:15Z</time>
      </trkpt>
      <trkpt lat="45.9464093" lon="7.6425001">
        <ele>2270.6</ele>
        <time>2014-01-29T10:09:16Z</time>
      </trkpt>
      <trkpt lat="45.9464045" lon="7.642487">
        <ele>2269.4</ele>
        <time>2014-01-29T10:09:17Z</time>
      </trkpt>
      <trkpt lat="45.9463947" lon="7.642448">
        <ele>2268.4</ele>
        <time>2014-01-29T10:09:19Z</time>
      </trkpt>
      <trkpt lat="45.9463883" lon="7.6424205">
        <ele>2267.2</ele>
        <time>2014-01-29T10:09:20Z</time>
      </trkpt>
      <trkpt lat="45.9463773" lon="7.6423615">
        <ele>2265.8</ele>
        <time>2014-01-29T10:09:22Z</time>
      </trkpt>
      <trkpt lat="45.94637" lon="7.6423259">
        <ele>2264.8</ele>
        <time>2014-01-29T10:09:23Z</time>
      </trkpt>
      <trkpt lat="45.946386" lon="7.6422908">
        <ele>2262</ele>
        <time>2014-01-29T10:09:24Z</time>
      </trkpt>
      <trkpt lat="45.9464133" lon="7.6422542">
        <ele>2259.8</ele>
        <time>2014-01-29T10:09:25Z</time>
      </trkpt>
      <trkpt lat="45.9464736" lon="7.6422378">
        <ele>2256.2</ele>
        <time>2014-01-29T10:09:26Z</time>
      </trkpt>
      <trkpt lat="45.9464822" lon="7.6421658">
        <ele>2253</ele>
        <time>2014-01-29T10:09:27Z</time>
      </trkpt>
      <trkpt lat="45.9464707" lon="7.6420956">
        <ele>2250.8</ele>
        <time>2014-01-29T10:09:28Z</time>
      </trkpt>
      <trkpt lat="45.946489" lon="7.6420534">
        <ele>2247.6</ele>
        <time>2014-01-29T10:09:29Z</time>
      </trkpt>
      <trkpt lat="45.9465222" lon="7.6419923">
        <ele>2244</ele>
        <time>2014-01-29T10:09:30Z</time>
      </trkpt>
      <trkpt lat="45.9465476" lon="7.6419227">
        <ele>2242.4</ele>
        <time>2014-01-29T10:09:31Z</time>
      </trkpt>
      <trkpt lat="45.946504" lon="7.6418276">
        <ele>2241</ele>
        <time>2014-01-29T10:09:32Z</time>
      </trkpt>
      <trkpt lat="45.9464912" lon="7.6417655">
        <ele>2239.8</ele>
        <time>2014-01-29T10:09:33Z</time>
      </trkpt>
      <trkpt lat="45.9465086" lon="7.6417101">
        <ele>2236.6</ele>
        <time>2014-01-29T10:09:34Z</time>
      </trkpt>
      <trkpt lat="45.9465419" lon="7.6416699">
        <ele>2233.6</ele>
        <time>2014-01-29T10:09:35Z</time>
      </trkpt>
      <trkpt lat="45.9466223" lon="7.6416695">
        <ele>2229.2</ele>
        <time>2014-01-29T10:09:36Z</time>
      </trkpt>
      <trkpt lat="45.9466562" lon="7.6416391">
        <ele>2227.8</ele>
        <time>2014-01-29T10:09:37Z</time>
      </trkpt>
      <trkpt lat="45.9466548" lon="7.6416406">
        <ele>2227.8</ele>
        <time>2014-01-29T10:09:38Z</time>
      </trkpt>
      <trkpt lat="45.9466605" lon="7.6416251">
        <ele>2226.8</ele>
        <time>2014-01-29T10:09:40Z</time>
      </trkpt>
      <trkpt lat="45.9466604" lon="7.641629">
        <ele>2225.6</ele>
        <time>2014-01-29T10:09:42Z</time>
      </trkpt>
      <trkpt lat="45.9466609" lon="7.6416324">
        <ele>2225.6</ele>
        <time>2014-01-29T10:09:44Z</time>
      </trkpt>
      <trkpt lat="45.9466506" lon="7.6416432">
        <ele>2225.6</ele>
        <time>2014-01-29T10:09:54Z</time>
      </trkpt>
      <trkpt lat="45.9466457" lon="7.6416473">
        <ele>2225.6</ele>
        <time>2014-01-29T10:10:05Z</time>
      </trkpt>
      <trkpt lat="45.9466419" lon="7.6416456">
        <ele>2225.6</ele>
        <time>2014-01-29T10:10:14Z</time>
      </trkpt>
      <trkpt lat="45.9466406" lon="7.641638">
        <ele>2225.6</ele>
        <time>2014-01-29T10:10:20Z</time>
      </trkpt>
      <trkpt lat="45.9466429" lon="7.6416254">
        <ele>2225.6</ele>
        <time>2014-01-29T10:10:27Z</time>
      </trkpt>
      <trkpt lat="45.946641" lon="7.6416292">
        <ele>2225.6</ele>
        <time>2014-01-29T10:10:37Z</time>
      </trkpt>
      <trkpt lat="45.9466415" lon="7.6416348">
        <ele>2225.6</ele>
        <time>2014-01-29T10:10:45Z</time>
      </trkpt>
      <trkpt lat="45.9466443" lon="7.6416274">
        <ele>2225.6</ele>
        <time>2014-01-29T10:11:00Z</time>
      </trkpt>
      <trkpt lat="45.9466443" lon="7.6416307">
        <ele>2225.6</ele>
        <time>2014-01-29T10:11:16Z</time>
      </trkpt>
      <trkpt lat="45.9466511" lon="7.6416318">
        <ele>2225.6</ele>
        <time>2014-01-29T10:11:24Z</time>
      </trkpt>
      <trkpt lat="45.9467502" lon="7.6415948">
        <ele>2222.4</ele>
        <time>2014-01-29T10:11:32Z</time>
      </trkpt>
      <trkpt lat="45.9467786" lon="7.6415577">
        <ele>2220.6</ele>
        <time>2014-01-29T10:11:33Z</time>
      </trkpt>
      <trkpt lat="45.9467593" lon="7.6414883">
        <ele>2218</ele>
        <time>2014-01-29T10:11:34Z</time>
      </trkpt>
      <trkpt lat="45.9467654" lon="7.6414294">
        <ele>2216.4</ele>
        <time>2014-01-29T10:11:35Z</time>
      </trkpt>
      <trkpt lat="45.9468448" lon="7.6414285">
        <ele>2213.2</ele>
        <time>2014-01-29T10:11:36Z</time>
      </trkpt>
      <trkpt lat="45.9469008" lon="7.6414208">
        <ele>2210.4</ele>
        <time>2014-01-29T10:11:37Z</time>
      </trkpt>
      <trkpt lat="45.9469695" lon="7.6413952">
        <ele>2208.6</ele>
        <time>2014-01-29T10:11:38Z</time>
      </trkpt>
      <trkpt lat="45.9469862" lon="7.6413423">
        <ele>2205.8</ele>
        <time>2014-01-29T10:11:39Z</time>
      </trkpt>
      <trkpt lat="45.9469867" lon="7.6412726">
        <ele>2204.6</ele>
        <time>2014-01-29T10:11:40Z</time>
      </trkpt>
      <trkpt lat="45.9469892" lon="7.6412121">
        <ele>2202.6</ele>
        <time>2014-01-29T10:11:41Z</time>
      </trkpt>
      <trkpt lat="45.9470453" lon="7.6411656">
        <ele>2199.4</ele>
        <time>2014-01-29T10:11:42Z</time>
      </trkpt>
      <trkpt lat="45.9470724" lon="7.6411019">
        <ele>2197.2</ele>
        <time>2014-01-29T10:11:43Z</time>
      </trkpt>
      <trkpt lat="45.9470066" lon="7.6410212">
        <ele>2194.4</ele>
        <time>2014-01-29T10:11:44Z</time>
      </trkpt>
      <trkpt lat="45.9469702" lon="7.6409628">
        <ele>2193.2</ele>
        <time>2014-01-29T10:11:45Z</time>
      </trkpt>
      <trkpt lat="45.9469466" lon="7.6409604">
        <ele>2192</ele>
        <time>2014-01-29T10:11:46Z</time>
      </trkpt>
      <trkpt lat="45.9469339" lon="7.6409468">
        <ele>2192</ele>
        <time>2014-01-29T10:11:47Z</time>
      </trkpt>
      <trkpt lat="45.9469243" lon="7.6409246">
        <ele>2190.4</ele>
        <time>2014-01-29T10:11:48Z</time>
      </trkpt>
      <trkpt lat="45.9469158" lon="7.64089">
        <ele>2189.2</ele>
        <time>2014-01-29T10:11:49Z</time>
      </trkpt>
      <trkpt lat="45.9469178" lon="7.6408349">
        <ele>2188</ele>
        <time>2014-01-29T10:11:50Z</time>
      </trkpt>
      <trkpt lat="45.9469275" lon="7.6407783">
        <ele>2184.8</ele>
        <time>2014-01-29T10:11:51Z</time>
      </trkpt>
      <trkpt lat="45.9469448" lon="7.6407034">
        <ele>2179</ele>
        <time>2014-01-29T10:11:52Z</time>
      </trkpt>
      <trkpt lat="45.9469853" lon="7.6406339">
        <ele>2174.6</ele>
        <time>2014-01-29T10:11:53Z</time>
      </trkpt>
      <trkpt lat="45.9470287" lon="7.6405643">
        <ele>2172.8</ele>
        <time>2014-01-29T10:11:54Z</time>
      </trkpt>
      <trkpt lat="45.9470839" lon="7.6405006">
        <ele>2169.6</ele>
        <time>2014-01-29T10:11:55Z</time>
      </trkpt>
      <trkpt lat="45.9471512" lon="7.6404121">
        <ele>2168.2</ele>
        <time>2014-01-29T10:11:56Z</time>
      </trkpt>
      <trkpt lat="45.9471932" lon="7.6403315">
        <ele>2168.2</ele>
        <time>2014-01-29T10:11:57Z</time>
      </trkpt>
      <trkpt lat="45.9471773" lon="7.6401464">
        <ele>2166</ele>
        <time>2014-01-29T10:11:59Z</time>
      </trkpt>
      <trkpt lat="45.9471971" lon="7.6400964">
        <ele>2166</ele>
        <time>2014-01-29T10:12:01Z</time>
      </trkpt>
      <trkpt lat="45.9472294" lon="7.6401295">
        <ele>2165</ele>
        <time>2014-01-29T10:12:02Z</time>
      </trkpt>
      <trkpt lat="45.9472729" lon="7.6402246">
        <ele>2164</ele>
        <time>2014-01-29T10:12:05Z</time>
      </trkpt>
      <trkpt lat="45.9473166" lon="7.640286">
        <ele>2162.6</ele>
        <time>2014-01-29T10:12:09Z</time>
      </trkpt>
      <trkpt lat="45.947337" lon="7.640298">
        <ele>2162.6</ele>
        <time>2014-01-29T10:12:10Z</time>
      </trkpt>
      <trkpt lat="45.9474081" lon="7.6402961">
        <ele>2162.6</ele>
        <time>2014-01-29T10:12:12Z</time>
      </trkpt>
      <trkpt lat="45.9474474" lon="7.6402756">
        <ele>2162.6</ele>
        <time>2014-01-29T10:12:13Z</time>
      </trkpt>
      <trkpt lat="45.9475571" lon="7.6401561">
        <ele>2161.6</ele>
        <time>2014-01-29T10:12:16Z</time>
      </trkpt>
      <trkpt lat="45.9475798" lon="7.6401042">
        <ele>2161.6</ele>
        <time>2014-01-29T10:12:20Z</time>
      </trkpt>
      <trkpt lat="45.947587" lon="7.6400721">
        <ele>2160.4</ele>
        <time>2014-01-29T10:12:26Z</time>
      </trkpt>
      <trkpt lat="45.947589" lon="7.640071">
        <ele>2160.4</ele>
        <time>2014-01-29T10:12:27Z</time>
      </trkpt>
      <trkpt lat="45.94759" lon="7.6400563">
        <ele>2160.4</ele>
        <time>2014-01-29T10:12:32Z</time>
      </trkpt>
      <trkpt lat="45.9475944" lon="7.6400544">
        <ele>2159.2</ele>
        <time>2014-01-29T10:12:33Z</time>
      </trkpt>
      <trkpt lat="45.9475995" lon="7.6400466">
        <ele>2159.2</ele>
        <time>2014-01-29T10:12:36Z</time>
      </trkpt>
      <trkpt lat="45.947619" lon="7.6400011">
        <ele>2159.2</ele>
        <time>2014-01-29T10:12:43Z</time>
      </trkpt>
      <trkpt lat="45.9476212" lon="7.6400099">
        <ele>2159.2</ele>
        <time>2014-01-29T10:13:01Z</time>
      </trkpt>
      <trkpt lat="45.9476252" lon="7.6400166">
        <ele>2159.2</ele>
        <time>2014-01-29T10:13:11Z</time>
      </trkpt>
      <trkpt lat="45.9476348" lon="7.6400178">
        <ele>2159.2</ele>
        <time>2014-01-29T10:13:22Z</time>
      </trkpt>
      <trkpt lat="45.9476395" lon="7.6400126">
        <ele>2159.2</ele>
        <time>2014-01-29T10:13:29Z</time>
      </trkpt>
      <trkpt lat="45.9476457" lon="7.6400197">
        <ele>2159.2</ele>
        <time>2014-01-29T10:13:36Z</time>
      </trkpt>
      <trkpt lat="45.947654" lon="7.640014">
        <ele>2159.2</ele>
        <time>2014-01-29T10:13:41Z</time>
      </trkpt>
      <trkpt lat="45.9476619" lon="7.6399786">
        <ele>2159.2</ele>
        <time>2014-01-29T10:13:47Z</time>
      </trkpt>
      <trkpt lat="45.9476733" lon="7.6399281">
        <ele>2159.2</ele>
        <time>2014-01-29T10:13:55Z</time>
      </trkpt>
      <trkpt lat="45.9476487" lon="7.6398095">
        <ele>2159.2</ele>
        <time>2014-01-29T10:14:01Z</time>
      </trkpt>
      <trkpt lat="45.9475985" lon="7.6395589">
        <ele>2157.2</ele>
        <time>2014-01-29T10:14:06Z</time>
      </trkpt>
      <trkpt lat="45.9475379" lon="7.6393106">
        <ele>2156.2</ele>
        <time>2014-01-29T10:14:10Z</time>
      </trkpt>
      <trkpt lat="45.9474834" lon="7.6391117">
        <ele>2155.2</ele>
        <time>2014-01-29T10:14:13Z</time>
      </trkpt>
      <trkpt lat="45.947455" lon="7.6390242">
        <ele>2154</ele>
        <time>2014-01-29T10:14:14Z</time>
      </trkpt>
      <trkpt lat="45.9474398" lon="7.638955">
        <ele>2154</ele>
        <time>2014-01-29T10:14:15Z</time>
      </trkpt>
      <trkpt lat="45.9474214" lon="7.6388517">
        <ele>2151.6</ele>
        <time>2014-01-29T10:14:16Z</time>
      </trkpt>
      <trkpt lat="45.947398" lon="7.6387646">
        <ele>2151.6</ele>
        <time>2014-01-29T10:14:17Z</time>
      </trkpt>
      <trkpt lat="45.9473586" lon="7.6386647">
        <ele>2150.6</ele>
        <time>2014-01-29T10:14:18Z</time>
      </trkpt>
      <trkpt lat="45.947283" lon="7.6384564">
        <ele>2149.4</ele>
        <time>2014-01-29T10:14:20Z</time>
      </trkpt>
      <trkpt lat="45.9472483" lon="7.6383425">
        <ele>2148</ele>
        <time>2014-01-29T10:14:21Z</time>
      </trkpt>
      <trkpt lat="45.947213" lon="7.6382275">
        <ele>2146.6</ele>
        <time>2014-01-29T10:14:22Z</time>
      </trkpt>
      <trkpt lat="45.9471272" lon="7.6379791">
        <ele>2145.2</ele>
        <time>2014-01-29T10:14:24Z</time>
      </trkpt>
      <trkpt lat="45.947046" lon="7.6377527">
        <ele>2143.8</ele>
        <time>2014-01-29T10:14:26Z</time>
      </trkpt>
      <trkpt lat="45.9470157" lon="7.6376544">
        <ele>2142.8</ele>
        <time>2014-01-29T10:14:27Z</time>
      </trkpt>
      <trkpt lat="45.9469764" lon="7.6375359">
        <ele>2141.6</ele>
        <time>2014-01-29T10:14:28Z</time>
      </trkpt>
      <trkpt lat="45.94688" lon="7.6373138">
        <ele>2140.4</ele>
        <time>2014-01-29T10:14:30Z</time>
      </trkpt>
      <trkpt lat="45.9468246" lon="7.6372087">
        <ele>2139</ele>
        <time>2014-01-29T10:14:31Z</time>
      </trkpt>
      <trkpt lat="45.946767" lon="7.6370962">
        <ele>2139</ele>
        <time>2014-01-29T10:14:32Z</time>
      </trkpt>
      <trkpt lat="45.9467153" lon="7.6369972">
        <ele>2136.8</ele>
        <time>2014-01-29T10:14:33Z</time>
      </trkpt>
      <trkpt lat="45.9466529" lon="7.6368746">
        <ele>2135.8</ele>
        <time>2014-01-29T10:14:34Z</time>
      </trkpt>
      <trkpt lat="45.946592" lon="7.6367592">
        <ele>2134.8</ele>
        <time>2014-01-29T10:14:35Z</time>
      </trkpt>
      <trkpt lat="45.9465337" lon="7.6366242">
        <ele>2132</ele>
        <time>2014-01-29T10:14:36Z</time>
      </trkpt>
      <trkpt lat="45.9464857" lon="7.636507">
        <ele>2130.8</ele>
        <time>2014-01-29T10:14:37Z</time>
      </trkpt>
      <trkpt lat="45.9464363" lon="7.6363522">
        <ele>2129.6</ele>
        <time>2014-01-29T10:14:38Z</time>
      </trkpt>
      <trkpt lat="45.9463413" lon="7.63609">
        <ele>2127</ele>
        <time>2014-01-29T10:14:40Z</time>
      </trkpt>
      <trkpt lat="45.946209" lon="7.6358631">
        <ele>2125.6</ele>
        <time>2014-01-29T10:14:42Z</time>
      </trkpt>
      <trkpt lat="45.9460734" lon="7.6356364">
        <ele>2123.2</ele>
        <time>2014-01-29T10:14:44Z</time>
      </trkpt>
      <trkpt lat="45.9459963" lon="7.6355528">
        <ele>2121.8</ele>
        <time>2014-01-29T10:14:45Z</time>
      </trkpt>
      <trkpt lat="45.9459069" lon="7.6354804">
        <ele>2121.8</ele>
        <time>2014-01-29T10:14:46Z</time>
      </trkpt>
      <trkpt lat="45.94583" lon="7.6353937">
        <ele>2120.6</ele>
        <time>2014-01-29T10:14:47Z</time>
      </trkpt>
      <trkpt lat="45.9457624" lon="7.6352936">
        <ele>2119.4</ele>
        <time>2014-01-29T10:14:48Z</time>
      </trkpt>
      <trkpt lat="45.9456927" lon="7.635215">
        <ele>2116.4</ele>
        <time>2014-01-29T10:14:49Z</time>
      </trkpt>
      <trkpt lat="45.9454756" lon="7.6350223">
        <ele>2115.2</ele>
        <time>2014-01-29T10:14:52Z</time>
      </trkpt>
      <trkpt lat="45.9453956" lon="7.6349494">
        <ele>2114</ele>
        <time>2014-01-29T10:14:53Z</time>
      </trkpt>
      <trkpt lat="45.9453146" lon="7.6348819">
        <ele>2113</ele>
        <time>2014-01-29T10:14:54Z</time>
      </trkpt>
      <trkpt lat="45.9452317" lon="7.634814">
        <ele>2111.8</ele>
        <time>2014-01-29T10:14:55Z</time>
      </trkpt>
      <trkpt lat="45.9451806" lon="7.6347153">
        <ele>2108.6</ele>
        <time>2014-01-29T10:14:56Z</time>
      </trkpt>
      <trkpt lat="45.94511" lon="7.6346568">
        <ele>2107.2</ele>
        <time>2014-01-29T10:14:57Z</time>
      </trkpt>
      <trkpt lat="45.9450229" lon="7.6346022">
        <ele>2106.2</ele>
        <time>2014-01-29T10:14:58Z</time>
      </trkpt>
      <trkpt lat="45.9449365" lon="7.6345471">
        <ele>2106.2</ele>
        <time>2014-01-29T10:14:59Z</time>
      </trkpt>
      <trkpt lat="45.9448715" lon="7.6344282">
        <ele>2102.6</ele>
        <time>2014-01-29T10:15:00Z</time>
      </trkpt>
      <trkpt lat="45.944796" lon="7.6343371">
        <ele>2101.4</ele>
        <time>2014-01-29T10:15:01Z</time>
      </trkpt>
      <trkpt lat="45.9446979" lon="7.6342747">
        <ele>2100.4</ele>
        <time>2014-01-29T10:15:02Z</time>
      </trkpt>
      <trkpt lat="45.9446172" lon="7.6342046">
        <ele>2099.2</ele>
        <time>2014-01-29T10:15:03Z</time>
      </trkpt>
      <trkpt lat="45.9445179" lon="7.6341148">
        <ele>2096.6</ele>
        <time>2014-01-29T10:15:04Z</time>
      </trkpt>
      <trkpt lat="45.9444233" lon="7.6340287">
        <ele>2095.6</ele>
        <time>2014-01-29T10:15:05Z</time>
      </trkpt>
      <trkpt lat="45.9443316" lon="7.633942">
        <ele>2094.4</ele>
        <time>2014-01-29T10:15:06Z</time>
      </trkpt>
      <trkpt lat="45.9442556" lon="7.6338745">
        <ele>2093.4</ele>
        <time>2014-01-29T10:15:07Z</time>
      </trkpt>
      <trkpt lat="45.944102" lon="7.6337347">
        <ele>2092.4</ele>
        <time>2014-01-29T10:15:09Z</time>
      </trkpt>
      <trkpt lat="45.944028" lon="7.6336589">
        <ele>2090.8</ele>
        <time>2014-01-29T10:15:10Z</time>
      </trkpt>
      <trkpt lat="45.9439601" lon="7.633586">
        <ele>2089.4</ele>
        <time>2014-01-29T10:15:11Z</time>
      </trkpt>
      <trkpt lat="45.9438796" lon="7.633542">
        <ele>2088.4</ele>
        <time>2014-01-29T10:15:12Z</time>
      </trkpt>
      <trkpt lat="45.9437172" lon="7.6334814">
        <ele>2086.2</ele>
        <time>2014-01-29T10:15:14Z</time>
      </trkpt>
      <trkpt lat="45.9436339" lon="7.6334524">
        <ele>2085</ele>
        <time>2014-01-29T10:15:15Z</time>
      </trkpt>
      <trkpt lat="45.9435521" lon="7.6334797">
        <ele>2083.8</ele>
        <time>2014-01-29T10:15:16Z</time>
      </trkpt>
      <trkpt lat="45.943473" lon="7.6334896">
        <ele>2081.2</ele>
        <time>2014-01-29T10:15:17Z</time>
      </trkpt>
      <trkpt lat="45.9433752" lon="7.633519">
        <ele>2080</ele>
        <time>2014-01-29T10:15:18Z</time>
      </trkpt>
      <trkpt lat="45.94321" lon="7.6335864">
        <ele>2078.8</ele>
        <time>2014-01-29T10:15:20Z</time>
      </trkpt>
      <trkpt lat="45.9431171" lon="7.6336199">
        <ele>2077.6</ele>
        <time>2014-01-29T10:15:21Z</time>
      </trkpt>
      <trkpt lat="45.9430036" lon="7.6336614">
        <ele>2075</ele>
        <time>2014-01-29T10:15:22Z</time>
      </trkpt>
      <trkpt lat="45.9428961" lon="7.6337007">
        <ele>2073.2</ele>
        <time>2014-01-29T10:15:23Z</time>
      </trkpt>
      <trkpt lat="45.9427774" lon="7.6337421">
        <ele>2070</ele>
        <time>2014-01-29T10:15:24Z</time>
      </trkpt>
      <trkpt lat="45.9426556" lon="7.6337807">
        <ele>2069</ele>
        <time>2014-01-29T10:15:25Z</time>
      </trkpt>
      <trkpt lat="45.942537" lon="7.6337921">
        <ele>2066.6</ele>
        <time>2014-01-29T10:15:26Z</time>
      </trkpt>
      <trkpt lat="45.942303" lon="7.6337834">
        <ele>2065.2</ele>
        <time>2014-01-29T10:15:28Z</time>
      </trkpt>
      <trkpt lat="45.9421869" lon="7.6337665">
        <ele>2064.2</ele>
        <time>2014-01-29T10:15:29Z</time>
      </trkpt>
      <trkpt lat="45.9420925" lon="7.6337174">
        <ele>2063</ele>
        <time>2014-01-29T10:15:30Z</time>
      </trkpt>
      <trkpt lat="45.9419899" lon="7.633674">
        <ele>2062</ele>
        <time>2014-01-29T10:15:31Z</time>
      </trkpt>
      <trkpt lat="45.9418844" lon="7.6336194">
        <ele>2060.6</ele>
        <time>2014-01-29T10:15:32Z</time>
      </trkpt>
      <trkpt lat="45.9417948" lon="7.6335772">
        <ele>2059.4</ele>
        <time>2014-01-29T10:15:33Z</time>
      </trkpt>
      <trkpt lat="45.9414891" lon="7.6334367">
        <ele>2058.2</ele>
        <time>2014-01-29T10:15:37Z</time>
      </trkpt>
      <trkpt lat="45.9414321" lon="7.6334073">
        <ele>2057</ele>
        <time>2014-01-29T10:15:38Z</time>
      </trkpt>
      <trkpt lat="45.9412615" lon="7.633315">
        <ele>2056</ele>
        <time>2014-01-29T10:15:40Z</time>
      </trkpt>
      <trkpt lat="45.9411708" lon="7.6332618">
        <ele>2055</ele>
        <time>2014-01-29T10:15:41Z</time>
      </trkpt>
      <trkpt lat="45.9410871" lon="7.6332125">
        <ele>2054</ele>
        <time>2014-01-29T10:15:42Z</time>
      </trkpt>
      <trkpt lat="45.9409238" lon="7.6331028">
        <ele>2052.8</ele>
        <time>2014-01-29T10:15:44Z</time>
      </trkpt>
      <trkpt lat="45.9408413" lon="7.6330397">
        <ele>2051.4</ele>
        <time>2014-01-29T10:15:45Z</time>
      </trkpt>
      <trkpt lat="45.9407597" lon="7.6329803">
        <ele>2051.4</ele>
        <time>2014-01-29T10:15:46Z</time>
      </trkpt>
      <trkpt lat="45.940681" lon="7.6329182">
        <ele>2049.2</ele>
        <time>2014-01-29T10:15:47Z</time>
      </trkpt>
      <trkpt lat="45.9405064" lon="7.632794">
        <ele>2048</ele>
        <time>2014-01-29T10:15:49Z</time>
      </trkpt>
      <trkpt lat="45.9404343" lon="7.632754">
        <ele>2046.8</ele>
        <time>2014-01-29T10:15:50Z</time>
      </trkpt>
      <trkpt lat="45.9403298" lon="7.6327095">
        <ele>2045.4</ele>
        <time>2014-01-29T10:15:51Z</time>
      </trkpt>
      <trkpt lat="45.9401607" lon="7.6326599">
        <ele>2044.4</ele>
        <time>2014-01-29T10:15:53Z</time>
      </trkpt>
      <trkpt lat="45.9399986" lon="7.632643">
        <ele>2044.4</ele>
        <time>2014-01-29T10:15:55Z</time>
      </trkpt>
      <trkpt lat="45.9399226" lon="7.6326386">
        <ele>2043.2</ele>
        <time>2014-01-29T10:15:56Z</time>
      </trkpt>
      <trkpt lat="45.939846" lon="7.6326481">
        <ele>2042.2</ele>
        <time>2014-01-29T10:15:57Z</time>
      </trkpt>
      <trkpt lat="45.9397922" lon="7.6326535">
        <ele>2041.2</ele>
        <time>2014-01-29T10:15:58Z</time>
      </trkpt>
      <trkpt lat="45.9396875" lon="7.6326683">
        <ele>2039.8</ele>
        <time>2014-01-29T10:15:59Z</time>
      </trkpt>
      <trkpt lat="45.9395211" lon="7.6327165">
        <ele>2037.4</ele>
        <time>2014-01-29T10:16:01Z</time>
      </trkpt>
      <trkpt lat="45.9393679" lon="7.6327147">
        <ele>2037.4</ele>
        <time>2014-01-29T10:16:03Z</time>
      </trkpt>
      <trkpt lat="45.9393052" lon="7.6326582">
        <ele>2037.4</ele>
        <time>2014-01-29T10:16:04Z</time>
      </trkpt>
      <trkpt lat="45.9392215" lon="7.6325788">
        <ele>2034.8</ele>
        <time>2014-01-29T10:16:05Z</time>
      </trkpt>
      <trkpt lat="45.9390368" lon="7.6325071">
        <ele>2032</ele>
        <time>2014-01-29T10:16:07Z</time>
      </trkpt>
      <trkpt lat="45.9389855" lon="7.6324687">
        <ele>2031</ele>
        <time>2014-01-29T10:16:08Z</time>
      </trkpt>
      <trkpt lat="45.9388726" lon="7.6324039">
        <ele>2029</ele>
        <time>2014-01-29T10:16:09Z</time>
      </trkpt>
      <trkpt lat="45.9388179" lon="7.6323733">
        <ele>2028</ele>
        <time>2014-01-29T10:16:10Z</time>
      </trkpt>
      <trkpt lat="45.9387177" lon="7.6323005">
        <ele>2026</ele>
        <time>2014-01-29T10:16:11Z</time>
      </trkpt>
      <trkpt lat="45.9386344" lon="7.6322335">
        <ele>2026</ele>
        <time>2014-01-29T10:16:12Z</time>
      </trkpt>
      <trkpt lat="45.9385423" lon="7.6322128">
        <ele>2022.4</ele>
        <time>2014-01-29T10:16:13Z</time>
      </trkpt>
      <trkpt lat="45.9384793" lon="7.6321589">
        <ele>2020.2</ele>
        <time>2014-01-29T10:16:14Z</time>
      </trkpt>
      <trkpt lat="45.9383614" lon="7.6321031">
        <ele>2017.2</ele>
        <time>2014-01-29T10:16:15Z</time>
      </trkpt>
      <trkpt lat="45.9382671" lon="7.632075">
        <ele>2015.6</ele>
        <time>2014-01-29T10:16:16Z</time>
      </trkpt>
      <trkpt lat="45.9381935" lon="7.6319559">
        <ele>2011.4</ele>
        <time>2014-01-29T10:16:17Z</time>
      </trkpt>
      <trkpt lat="45.9381215" lon="7.6319139">
        <ele>2008.8</ele>
        <time>2014-01-29T10:16:18Z</time>
      </trkpt>
      <trkpt lat="45.9380122" lon="7.6318128">
        <ele>2005.6</ele>
        <time>2014-01-29T10:16:19Z</time>
      </trkpt>
      <trkpt lat="45.9379358" lon="7.6317484">
        <ele>2003.2</ele>
        <time>2014-01-29T10:16:20Z</time>
      </trkpt>
      <trkpt lat="45.9378326" lon="7.6316758">
        <ele>2000</ele>
        <time>2014-01-29T10:16:21Z</time>
      </trkpt>
      <trkpt lat="45.937767" lon="7.6315793">
        <ele>1997</ele>
        <time>2014-01-29T10:16:22Z</time>
      </trkpt>
      <trkpt lat="45.9376847" lon="7.6314587">
        <ele>1994.2</ele>
        <time>2014-01-29T10:16:23Z</time>
      </trkpt>
      <trkpt lat="45.9376109" lon="7.6314127">
        <ele>1992.4</ele>
        <time>2014-01-29T10:16:24Z</time>
      </trkpt>
      <trkpt lat="45.9375236" lon="7.6313772">
        <ele>1990.4</ele>
        <time>2014-01-29T10:16:25Z</time>
      </trkpt>
      <trkpt lat="45.9374537" lon="7.6313501">
        <ele>1989</ele>
        <time>2014-01-29T10:16:26Z</time>
      </trkpt>
      <trkpt lat="45.9374263" lon="7.6312839">
        <ele>1989</ele>
        <time>2014-01-29T10:16:27Z</time>
      </trkpt>
      <trkpt lat="45.9373548" lon="7.6312564">
        <ele>1989</ele>
        <time>2014-01-29T10:16:29Z</time>
      </trkpt>
      <trkpt lat="45.9373" lon="7.6312577">
        <ele>1989</ele>
        <time>2014-01-29T10:16:32Z</time>
      </trkpt>
      <trkpt lat="45.937295" lon="7.6312407">
        <ele>1987.8</ele>
        <time>2014-01-29T10:16:33Z</time>
      </trkpt>
      <trkpt lat="45.9372693" lon="7.6312193">
        <ele>1987.8</ele>
        <time>2014-01-29T10:16:37Z</time>
      </trkpt>
      <trkpt lat="45.9372202" lon="7.6312403">
        <ele>1987.8</ele>
        <time>2014-01-29T10:16:44Z</time>
      </trkpt>
      <trkpt lat="45.9372011" lon="7.6312785">
        <ele>1987.8</ele>
        <time>2014-01-29T10:16:48Z</time>
      </trkpt>
      <trkpt lat="45.9371943" lon="7.6312877">
        <ele>1987.8</ele>
        <time>2014-01-29T10:16:51Z</time>
      </trkpt>
      <trkpt lat="45.9371538" lon="7.6313071">
        <ele>1987.8</ele>
        <time>2014-01-29T10:17:00Z</time>
      </trkpt>
      <trkpt lat="45.9371301" lon="7.6313348">
        <ele>1987.8</ele>
        <time>2014-01-29T10:17:06Z</time>
      </trkpt>
      <trkpt lat="45.9370886" lon="7.6313435">
        <ele>1987.8</ele>
        <time>2014-01-29T10:17:13Z</time>
      </trkpt>
      <trkpt lat="45.9370618" lon="7.6313457">
        <ele>1987.8</ele>
        <time>2014-01-29T10:17:20Z</time>
      </trkpt>
      <trkpt lat="45.9370457" lon="7.6313514">
        <ele>1987.8</ele>
        <time>2014-01-29T10:17:26Z</time>
      </trkpt>
      <trkpt lat="45.9370476" lon="7.6313683">
        <ele>1987.8</ele>
        <time>2014-01-29T10:17:28Z</time>
      </trkpt>
      <trkpt lat="45.9370637" lon="7.6314028">
        <ele>1987.8</ele>
        <time>2014-01-29T10:17:32Z</time>
      </trkpt>
      <trkpt lat="45.9371265" lon="7.631519">
        <ele>1987.8</ele>
        <time>2014-01-29T10:17:36Z</time>
      </trkpt>
      <trkpt lat="45.9371876" lon="7.631586">
        <ele>1987.8</ele>
        <time>2014-01-29T10:17:38Z</time>
      </trkpt>
      <trkpt lat="45.9372425" lon="7.6316589">
        <ele>1990.2</ele>
        <time>2014-01-29T10:17:40Z</time>
      </trkpt>
      <trkpt lat="45.9372697" lon="7.6317057">
        <ele>1991.4</ele>
        <time>2014-01-29T10:17:41Z</time>
      </trkpt>
      <trkpt lat="45.9372921" lon="7.6317393">
        <ele>1993.8</ele>
        <time>2014-01-29T10:17:42Z</time>
      </trkpt>
      <trkpt lat="45.937317" lon="7.6317821">
        <ele>1995.2</ele>
        <time>2014-01-29T10:17:43Z</time>
      </trkpt>
      <trkpt lat="45.9373379" lon="7.6318158">
        <ele>1997.8</ele>
        <time>2014-01-29T10:17:44Z</time>
      </trkpt>
      <trkpt lat="45.9373678" lon="7.6318619">
        <ele>1999.2</ele>
        <time>2014-01-29T10:17:45Z</time>
      </trkpt>
      <trkpt lat="45.9373936" lon="7.6319017">
        <ele>2000.6</ele>
        <time>2014-01-29T10:17:46Z</time>
      </trkpt>
      <trkpt lat="45.9374212" lon="7.6319426">
        <ele>2001.8</ele>
        <time>2014-01-29T10:17:47Z</time>
      </trkpt>
      <trkpt lat="45.9374888" lon="7.6320476">
        <ele>2004</ele>
        <time>2014-01-29T10:17:50Z</time>
      </trkpt>
      <trkpt lat="45.9375129" lon="7.63209">
        <ele>2005.4</ele>
        <time>2014-01-29T10:17:51Z</time>
      </trkpt>
      <trkpt lat="45.9375317" lon="7.6321219">
        <ele>2006.6</ele>
        <time>2014-01-29T10:17:52Z</time>
      </trkpt>
      <trkpt lat="45.9375532" lon="7.632162">
        <ele>2008</ele>
        <time>2014-01-29T10:17:53Z</time>
      </trkpt>
      <trkpt lat="45.937573" lon="7.6321936">
        <ele>2008</ele>
        <time>2014-01-29T10:17:54Z</time>
      </trkpt>
      <trkpt lat="45.9375992" lon="7.6322439">
        <ele>2009.2</ele>
        <time>2014-01-29T10:17:55Z</time>
      </trkpt>
      <trkpt lat="45.9376209" lon="7.632289">
        <ele>2010.2</ele>
        <time>2014-01-29T10:17:56Z</time>
      </trkpt>
      <trkpt lat="45.9376372" lon="7.6323166">
        <ele>2011.4</ele>
        <time>2014-01-29T10:17:57Z</time>
      </trkpt>
      <trkpt lat="45.9376805" lon="7.632405">
        <ele>2012.4</ele>
        <time>2014-01-29T10:17:59Z</time>
      </trkpt>
      <trkpt lat="45.9376973" lon="7.632439">
        <ele>2013.6</ele>
        <time>2014-01-29T10:18:00Z</time>
      </trkpt>
      <trkpt lat="45.9377205" lon="7.6324863">
        <ele>2015.4</ele>
        <time>2014-01-29T10:18:01Z</time>
      </trkpt>
      <trkpt lat="45.9377382" lon="7.6325215">
        <ele>2016.4</ele>
        <time>2014-01-29T10:18:02Z</time>
      </trkpt>
      <trkpt lat="45.9377611" lon="7.6325672">
        <ele>2017.6</ele>
        <time>2014-01-29T10:18:03Z</time>
      </trkpt>
      <trkpt lat="45.9377781" lon="7.6326033">
        <ele>2018.6</ele>
        <time>2014-01-29T10:18:04Z</time>
      </trkpt>
      <trkpt lat="45.9378235" lon="7.6326936">
        <ele>2019.8</ele>
        <time>2014-01-29T10:18:06Z</time>
      </trkpt>
      <trkpt lat="45.937844" lon="7.6327331">
        <ele>2021.4</ele>
        <time>2014-01-29T10:18:07Z</time>
      </trkpt>
      <trkpt lat="45.9378581" lon="7.6327631">
        <ele>2022.4</ele>
        <time>2014-01-29T10:18:08Z</time>
      </trkpt>
      <trkpt lat="45.9379076" lon="7.632859">
        <ele>2023.6</ele>
        <time>2014-01-29T10:18:10Z</time>
      </trkpt>
      <trkpt lat="45.9379249" lon="7.6328967">
        <ele>2025.8</ele>
        <time>2014-01-29T10:18:11Z</time>
      </trkpt>
      <trkpt lat="45.937947" lon="7.6329366">
        <ele>2025.8</ele>
        <time>2014-01-29T10:18:12Z</time>
      </trkpt>
      <trkpt lat="45.9379653" lon="7.6329845">
        <ele>2027.8</ele>
        <time>2014-01-29T10:18:13Z</time>
      </trkpt>
      <trkpt lat="45.9379817" lon="7.6330192">
        <ele>2029</ele>
        <time>2014-01-29T10:18:14Z</time>
      </trkpt>
      <trkpt lat="45.9380065" lon="7.6330748">
        <ele>2030.4</ele>
        <time>2014-01-29T10:18:15Z</time>
      </trkpt>
      <trkpt lat="45.9380465" lon="7.6331556">
        <ele>2032.6</ele>
        <time>2014-01-29T10:18:17Z</time>
      </trkpt>
      <trkpt lat="45.9380611" lon="7.6331867">
        <ele>2033.6</ele>
        <time>2014-01-29T10:18:18Z</time>
      </trkpt>
      <trkpt lat="45.9380868" lon="7.6332434">
        <ele>2035</ele>
        <time>2014-01-29T10:18:19Z</time>
      </trkpt>
      <trkpt lat="45.9381231" lon="7.6333238">
        <ele>2037.4</ele>
        <time>2014-01-29T10:18:21Z</time>
      </trkpt>
      <trkpt lat="45.9381609" lon="7.6334142">
        <ele>2039.8</ele>
        <time>2014-01-29T10:18:23Z</time>
      </trkpt>
      <trkpt lat="45.9382029" lon="7.6335017">
        <ele>2040.8</ele>
        <time>2014-01-29T10:18:25Z</time>
      </trkpt>
      <trkpt lat="45.9382447" lon="7.6335814">
        <ele>2042.4</ele>
        <time>2014-01-29T10:18:27Z</time>
      </trkpt>
      <trkpt lat="45.9382665" lon="7.6336241">
        <ele>2043.6</ele>
        <time>2014-01-29T10:18:28Z</time>
      </trkpt>
      <trkpt lat="45.9382853" lon="7.6336622">
        <ele>2044.6</ele>
        <time>2014-01-29T10:18:29Z</time>
      </trkpt>
      <trkpt lat="45.9383087" lon="7.6337031">
        <ele>2045.8</ele>
        <time>2014-01-29T10:18:30Z</time>
      </trkpt>
      <trkpt lat="45.9383225" lon="7.6337524">
        <ele>2048</ele>
        <time>2014-01-29T10:18:31Z</time>
      </trkpt>
      <trkpt lat="45.9383443" lon="7.6337952">
        <ele>2048</ele>
        <time>2014-01-29T10:18:32Z</time>
      </trkpt>
      <trkpt lat="45.9383632" lon="7.6338379">
        <ele>2050.2</ele>
        <time>2014-01-29T10:18:33Z</time>
      </trkpt>
      <trkpt lat="45.9383787" lon="7.6338678">
        <ele>2051.2</ele>
        <time>2014-01-29T10:18:34Z</time>
      </trkpt>
      <trkpt lat="45.9384028" lon="7.6339185">
        <ele>2052.6</ele>
        <time>2014-01-29T10:18:35Z</time>
      </trkpt>
      <trkpt lat="45.9384448" lon="7.6340025">
        <ele>2054.8</ele>
        <time>2014-01-29T10:18:37Z</time>
      </trkpt>
      <trkpt lat="45.9384595" lon="7.6340308">
        <ele>2055.8</ele>
        <time>2014-01-29T10:18:38Z</time>
      </trkpt>
      <trkpt lat="45.9384852" lon="7.6340863">
        <ele>2057.2</ele>
        <time>2014-01-29T10:18:39Z</time>
      </trkpt>
      <trkpt lat="45.9385238" lon="7.6341638">
        <ele>2059.6</ele>
        <time>2014-01-29T10:18:41Z</time>
      </trkpt>
      <trkpt lat="45.9385639" lon="7.6342444">
        <ele>2060.8</ele>
        <time>2014-01-29T10:18:43Z</time>
      </trkpt>
      <trkpt lat="45.9385794" lon="7.6342758">
        <ele>2063</ele>
        <time>2014-01-29T10:18:44Z</time>
      </trkpt>
      <trkpt lat="45.9386074" lon="7.6343284">
        <ele>2064.4</ele>
        <time>2014-01-29T10:18:45Z</time>
      </trkpt>
      <trkpt lat="45.9386484" lon="7.6344058">
        <ele>2067</ele>
        <time>2014-01-29T10:18:47Z</time>
      </trkpt>
      <trkpt lat="45.9386924" lon="7.634489">
        <ele>2069.8</ele>
        <time>2014-01-29T10:18:49Z</time>
      </trkpt>
      <trkpt lat="45.9387322" lon="7.6345718">
        <ele>2071</ele>
        <time>2014-01-29T10:18:51Z</time>
      </trkpt>
      <trkpt lat="45.938769" lon="7.6346536">
        <ele>2072.2</ele>
        <time>2014-01-29T10:18:53Z</time>
      </trkpt>
      <trkpt lat="45.938812" lon="7.6347451">
        <ele>2073.2</ele>
        <time>2014-01-29T10:18:55Z</time>
      </trkpt>
      <trkpt lat="45.9388541" lon="7.6348293">
        <ele>2074.4</ele>
        <time>2014-01-29T10:18:57Z</time>
      </trkpt>
      <trkpt lat="45.938877" lon="7.6348713">
        <ele>2075.4</ele>
        <time>2014-01-29T10:18:58Z</time>
      </trkpt>
      <trkpt lat="45.9389136" lon="7.6349484">
        <ele>2076.8</ele>
        <time>2014-01-29T10:19:00Z</time>
      </trkpt>
      <trkpt lat="45.938937" lon="7.6349969">
        <ele>2077.8</ele>
        <time>2014-01-29T10:19:01Z</time>
      </trkpt>
      <trkpt lat="45.93898" lon="7.63508">
        <ele>2079.2</ele>
        <time>2014-01-29T10:19:03Z</time>
      </trkpt>
      <trkpt lat="45.9389959" lon="7.6351131">
        <ele>2080.2</ele>
        <time>2014-01-29T10:19:04Z</time>
      </trkpt>
      <trkpt lat="45.9390205" lon="7.6351662">
        <ele>2081.4</ele>
        <time>2014-01-29T10:19:05Z</time>
      </trkpt>
      <trkpt lat="45.9390415" lon="7.6352098">
        <ele>2082.6</ele>
        <time>2014-01-29T10:19:06Z</time>
      </trkpt>
      <trkpt lat="45.9390641" lon="7.6352519">
        <ele>2083.8</ele>
        <time>2014-01-29T10:19:07Z</time>
      </trkpt>
      <trkpt lat="45.9391073" lon="7.6353349">
        <ele>2085</ele>
        <time>2014-01-29T10:19:09Z</time>
      </trkpt>
      <trkpt lat="45.9391227" lon="7.6353682">
        <ele>2086.2</ele>
        <time>2014-01-29T10:19:10Z</time>
      </trkpt>
      <trkpt lat="45.9391451" lon="7.6354134">
        <ele>2087.2</ele>
        <time>2014-01-29T10:19:11Z</time>
      </trkpt>
      <trkpt lat="45.9391632" lon="7.6354522">
        <ele>2088.4</ele>
        <time>2014-01-29T10:19:12Z</time>
      </trkpt>
      <trkpt lat="45.9391849" lon="7.6354996">
        <ele>2089.4</ele>
        <time>2014-01-29T10:19:13Z</time>
      </trkpt>
      <trkpt lat="45.9392023" lon="7.635536">
        <ele>2090.6</ele>
        <time>2014-01-29T10:19:14Z</time>
      </trkpt>
      <trkpt lat="45.9392263" lon="7.6355856">
        <ele>2091.8</ele>
        <time>2014-01-29T10:19:15Z</time>
      </trkpt>
      <trkpt lat="45.9392474" lon="7.6356278">
        <ele>2093</ele>
        <time>2014-01-29T10:19:16Z</time>
      </trkpt>
      <trkpt lat="45.9392663" lon="7.6356645">
        <ele>2094.4</ele>
        <time>2014-01-29T10:19:17Z</time>
      </trkpt>
      <trkpt lat="45.9392817" lon="7.6356939">
        <ele>2095.8</ele>
        <time>2014-01-29T10:19:18Z</time>
      </trkpt>
      <trkpt lat="45.9393073" lon="7.6357464">
        <ele>2097.4</ele>
        <time>2014-01-29T10:19:19Z</time>
      </trkpt>
      <trkpt lat="45.9393218" lon="7.6357763">
        <ele>2098.6</ele>
        <time>2014-01-29T10:19:20Z</time>
      </trkpt>
      <trkpt lat="45.9393462" lon="7.6358222">
        <ele>2100</ele>
        <time>2014-01-29T10:19:21Z</time>
      </trkpt>
      <trkpt lat="45.9393651" lon="7.6358571">
        <ele>2101.2</ele>
        <time>2014-01-29T10:19:22Z</time>
      </trkpt>
      <trkpt lat="45.9393858" lon="7.6359005">
        <ele>2103.4</ele>
        <time>2014-01-29T10:19:23Z</time>
      </trkpt>
      <trkpt lat="45.939401" lon="7.6359326">
        <ele>2104.6</ele>
        <time>2014-01-29T10:19:24Z</time>
      </trkpt>
      <trkpt lat="45.939427" lon="7.6359857">
        <ele>2106</ele>
        <time>2014-01-29T10:19:25Z</time>
      </trkpt>
      <trkpt lat="45.9394483" lon="7.6360272">
        <ele>2107</ele>
        <time>2014-01-29T10:19:26Z</time>
      </trkpt>
      <trkpt lat="45.9394642" lon="7.6360643">
        <ele>2109.8</ele>
        <time>2014-01-29T10:19:27Z</time>
      </trkpt>
      <trkpt lat="45.9394849" lon="7.6361043">
        <ele>2110.8</ele>
        <time>2014-01-29T10:19:28Z</time>
      </trkpt>
      <trkpt lat="45.9394994" lon="7.6361394">
        <ele>2113</ele>
        <time>2014-01-29T10:19:29Z</time>
      </trkpt>
      <trkpt lat="45.9395156" lon="7.6361708">
        <ele>2114.4</ele>
        <time>2014-01-29T10:19:30Z</time>
      </trkpt>
      <trkpt lat="45.9395372" lon="7.6362154">
        <ele>2115.8</ele>
        <time>2014-01-29T10:19:31Z</time>
      </trkpt>
      <trkpt lat="45.9395533" lon="7.6362502">
        <ele>2117</ele>
        <time>2014-01-29T10:19:32Z</time>
      </trkpt>
      <trkpt lat="45.9395746" lon="7.6362942">
        <ele>2119.6</ele>
        <time>2014-01-29T10:19:33Z</time>
      </trkpt>
      <trkpt lat="45.9395908" lon="7.6363271">
        <ele>2121</ele>
        <time>2014-01-29T10:19:34Z</time>
      </trkpt>
      <trkpt lat="45.9396117" lon="7.6363711">
        <ele>2123</ele>
        <time>2014-01-29T10:19:35Z</time>
      </trkpt>
      <trkpt lat="45.9396309" lon="7.6364113">
        <ele>2124.2</ele>
        <time>2014-01-29T10:19:36Z</time>
      </trkpt>
      <trkpt lat="45.9396499" lon="7.6364489">
        <ele>2127.2</ele>
        <time>2014-01-29T10:19:37Z</time>
      </trkpt>
      <trkpt lat="45.939665" lon="7.6364788">
        <ele>2128.4</ele>
        <time>2014-01-29T10:19:38Z</time>
      </trkpt>
      <trkpt lat="45.9396885" lon="7.6365235">
        <ele>2130.6</ele>
        <time>2014-01-29T10:19:39Z</time>
      </trkpt>
      <trkpt lat="45.9397044" lon="7.636554">
        <ele>2131.8</ele>
        <time>2014-01-29T10:19:40Z</time>
      </trkpt>
      <trkpt lat="45.9397284" lon="7.6365902">
        <ele>2134.2</ele>
        <time>2014-01-29T10:19:41Z</time>
      </trkpt>
      <trkpt lat="45.9397688" lon="7.636674">
        <ele>2135.6</ele>
        <time>2014-01-29T10:19:43Z</time>
      </trkpt>
      <trkpt lat="45.9397876" lon="7.6367121">
        <ele>2136.8</ele>
        <time>2014-01-29T10:19:44Z</time>
      </trkpt>
      <trkpt lat="45.9398108" lon="7.6367588">
        <ele>2138.2</ele>
        <time>2014-01-29T10:19:45Z</time>
      </trkpt>
      <trkpt lat="45.9398311" lon="7.6367988">
        <ele>2139.4</ele>
        <time>2014-01-29T10:19:46Z</time>
      </trkpt>
      <trkpt lat="45.9398472" lon="7.6368364">
        <ele>2140.8</ele>
        <time>2014-01-29T10:19:47Z</time>
      </trkpt>
      <trkpt lat="45.9398617" lon="7.6368671">
        <ele>2142</ele>
        <time>2014-01-29T10:19:48Z</time>
      </trkpt>
      <trkpt lat="45.9398881" lon="7.6369217">
        <ele>2143</ele>
        <time>2014-01-29T10:19:49Z</time>
      </trkpt>
      <trkpt lat="45.9399036" lon="7.6369543">
        <ele>2144.4</ele>
        <time>2014-01-29T10:19:50Z</time>
      </trkpt>
      <trkpt lat="45.9399275" lon="7.6370014">
        <ele>2145.6</ele>
        <time>2014-01-29T10:19:51Z</time>
      </trkpt>
      <trkpt lat="45.9399456" lon="7.6370386">
        <ele>2147</ele>
        <time>2014-01-29T10:19:52Z</time>
      </trkpt>
      <trkpt lat="45.9399693" lon="7.6370843">
        <ele>2148.2</ele>
        <time>2014-01-29T10:19:53Z</time>
      </trkpt>
      <trkpt lat="45.9399861" lon="7.6371176">
        <ele>2150.6</ele>
        <time>2014-01-29T10:19:54Z</time>
      </trkpt>
      <trkpt lat="45.9400119" lon="7.6371749">
        <ele>2151.6</ele>
        <time>2014-01-29T10:19:55Z</time>
      </trkpt>
      <trkpt lat="45.9400328" lon="7.6372187">
        <ele>2153</ele>
        <time>2014-01-29T10:19:56Z</time>
      </trkpt>
      <trkpt lat="45.9400511" lon="7.6372603">
        <ele>2155.2</ele>
        <time>2014-01-29T10:19:57Z</time>
      </trkpt>
      <trkpt lat="45.9400905" lon="7.637342">
        <ele>2157.4</ele>
        <time>2014-01-29T10:19:59Z</time>
      </trkpt>
      <trkpt lat="45.9401083" lon="7.6373765">
        <ele>2159.2</ele>
        <time>2014-01-29T10:20:00Z</time>
      </trkpt>
      <trkpt lat="45.940132" lon="7.6374208">
        <ele>2160.4</ele>
        <time>2014-01-29T10:20:01Z</time>
      </trkpt>
      <trkpt lat="45.9401496" lon="7.637455">
        <ele>2161.8</ele>
        <time>2014-01-29T10:20:02Z</time>
      </trkpt>
      <trkpt lat="45.9401731" lon="7.6374982">
        <ele>2163.2</ele>
        <time>2014-01-29T10:20:03Z</time>
      </trkpt>
      <trkpt lat="45.9401876" lon="7.6375294">
        <ele>2164.8</ele>
        <time>2014-01-29T10:20:04Z</time>
      </trkpt>
      <trkpt lat="45.9402075" lon="7.6375697">
        <ele>2166</ele>
        <time>2014-01-29T10:20:05Z</time>
      </trkpt>
      <trkpt lat="45.9402309" lon="7.637614">
        <ele>2169.6</ele>
        <time>2014-01-29T10:20:07Z</time>
      </trkpt>
      <trkpt lat="45.9402506" lon="7.6376526">
        <ele>2171.2</ele>
        <time>2014-01-29T10:20:08Z</time>
      </trkpt>
      <trkpt lat="45.940263" lon="7.6376789">
        <ele>2173.8</ele>
        <time>2014-01-29T10:20:09Z</time>
      </trkpt>
      <trkpt lat="45.9402832" lon="7.6377182">
        <ele>2174.8</ele>
        <time>2014-01-29T10:20:10Z</time>
      </trkpt>
      <trkpt lat="45.9402961" lon="7.6377427">
        <ele>2176</ele>
        <time>2014-01-29T10:20:11Z</time>
      </trkpt>
      <trkpt lat="45.9403171" lon="7.6377791">
        <ele>2177.2</ele>
        <time>2014-01-29T10:20:12Z</time>
      </trkpt>
      <trkpt lat="45.9403526" lon="7.6378746">
        <ele>2178.6</ele>
        <time>2014-01-29T10:20:14Z</time>
      </trkpt>
      <trkpt lat="45.9403924" lon="7.637951">
        <ele>2178.6</ele>
        <time>2014-01-29T10:20:16Z</time>
      </trkpt>
      <trkpt lat="45.9404102" lon="7.6379894">
        <ele>2179.8</ele>
        <time>2014-01-29T10:20:17Z</time>
      </trkpt>
      <trkpt lat="45.940425" lon="7.6380198">
        <ele>2181</ele>
        <time>2014-01-29T10:20:18Z</time>
      </trkpt>
      <trkpt lat="45.940452" lon="7.6380725">
        <ele>2182</ele>
        <time>2014-01-29T10:20:19Z</time>
      </trkpt>
      <trkpt lat="45.9404896" lon="7.6381482">
        <ele>2183</ele>
        <time>2014-01-29T10:20:21Z</time>
      </trkpt>
      <trkpt lat="45.9405292" lon="7.6382275">
        <ele>2184</ele>
        <time>2014-01-29T10:20:23Z</time>
      </trkpt>
      <trkpt lat="45.9405717" lon="7.6383107">
        <ele>2185.4</ele>
        <time>2014-01-29T10:20:25Z</time>
      </trkpt>
      <trkpt lat="45.9406256" lon="7.6384194">
        <ele>2187.8</ele>
        <time>2014-01-29T10:20:28Z</time>
      </trkpt>
      <trkpt lat="45.9406517" lon="7.6384717">
        <ele>2189</ele>
        <time>2014-01-29T10:20:29Z</time>
      </trkpt>
      <trkpt lat="45.9406668" lon="7.6385012">
        <ele>2190</ele>
        <time>2014-01-29T10:20:30Z</time>
      </trkpt>
      <trkpt lat="45.9407116" lon="7.638592">
        <ele>2191.2</ele>
        <time>2014-01-29T10:20:32Z</time>
      </trkpt>
      <trkpt lat="45.9407311" lon="7.6386319">
        <ele>2192.2</ele>
        <time>2014-01-29T10:20:33Z</time>
      </trkpt>
      <trkpt lat="45.9407468" lon="7.6386641">
        <ele>2193.4</ele>
        <time>2014-01-29T10:20:34Z</time>
      </trkpt>
      <trkpt lat="45.9407717" lon="7.6387159">
        <ele>2194.4</ele>
        <time>2014-01-29T10:20:35Z</time>
      </trkpt>
      <trkpt lat="45.9408156" lon="7.6387989">
        <ele>2195.4</ele>
        <time>2014-01-29T10:20:37Z</time>
      </trkpt>
      <trkpt lat="45.9408312" lon="7.6388249">
        <ele>2196.8</ele>
        <time>2014-01-29T10:20:38Z</time>
      </trkpt>
      <trkpt lat="45.940859" lon="7.6388777">
        <ele>2197.8</ele>
        <time>2014-01-29T10:20:39Z</time>
      </trkpt>
      <trkpt lat="45.9408733" lon="7.6389063">
        <ele>2198.8</ele>
        <time>2014-01-29T10:20:40Z</time>
      </trkpt>
      <trkpt lat="45.9409385" lon="7.6390387">
        <ele>2200</ele>
        <time>2014-01-29T10:20:43Z</time>
      </trkpt>
      <trkpt lat="45.9409556" lon="7.6390721">
        <ele>2201.4</ele>
        <time>2014-01-29T10:20:44Z</time>
      </trkpt>
      <trkpt lat="45.9409825" lon="7.6391262">
        <ele>2202.4</ele>
        <time>2014-01-29T10:20:45Z</time>
      </trkpt>
      <trkpt lat="45.9410211" lon="7.6392085">
        <ele>2203.6</ele>
        <time>2014-01-29T10:20:47Z</time>
      </trkpt>
      <trkpt lat="45.9410368" lon="7.6392409">
        <ele>2205</ele>
        <time>2014-01-29T10:20:48Z</time>
      </trkpt>
      <trkpt lat="45.9410624" lon="7.6392945">
        <ele>2206</ele>
        <time>2014-01-29T10:20:49Z</time>
      </trkpt>
      <trkpt lat="45.9410996" lon="7.6393716">
        <ele>2208.4</ele>
        <time>2014-01-29T10:20:51Z</time>
      </trkpt>
      <trkpt lat="45.9411203" lon="7.6394122">
        <ele>2208.4</ele>
        <time>2014-01-29T10:20:52Z</time>
      </trkpt>
      <trkpt lat="45.9411414" lon="7.6394526">
        <ele>2209.6</ele>
        <time>2014-01-29T10:20:53Z</time>
      </trkpt>
      <trkpt lat="45.941157" lon="7.6394838">
        <ele>2210.8</ele>
        <time>2014-01-29T10:20:54Z</time>
      </trkpt>
      <trkpt lat="45.9411827" lon="7.639536">
        <ele>2212.2</ele>
        <time>2014-01-29T10:20:55Z</time>
      </trkpt>
      <trkpt lat="45.9412037" lon="7.6395766">
        <ele>2213.2</ele>
        <time>2014-01-29T10:20:56Z</time>
      </trkpt>
      <trkpt lat="45.941223" lon="7.6396165">
        <ele>2214.6</ele>
        <time>2014-01-29T10:20:57Z</time>
      </trkpt>
      <trkpt lat="45.9412617" lon="7.6396944">
        <ele>2216</ele>
        <time>2014-01-29T10:20:59Z</time>
      </trkpt>
      <trkpt lat="45.9412828" lon="7.639734">
        <ele>2217.2</ele>
        <time>2014-01-29T10:21:00Z</time>
      </trkpt>
      <trkpt lat="45.9413037" lon="7.6397777">
        <ele>2218.4</ele>
        <time>2014-01-29T10:21:01Z</time>
      </trkpt>
      <trkpt lat="45.9413275" lon="7.6398201">
        <ele>2219.6</ele>
        <time>2014-01-29T10:21:02Z</time>
      </trkpt>
      <trkpt lat="45.9413456" lon="7.6398569">
        <ele>2223.2</ele>
        <time>2014-01-29T10:21:03Z</time>
      </trkpt>
      <trkpt lat="45.9413594" lon="7.6398849">
        <ele>2224.8</ele>
        <time>2014-01-29T10:21:04Z</time>
      </trkpt>
      <trkpt lat="45.9413842" lon="7.6399322">
        <ele>2226.6</ele>
        <time>2014-01-29T10:21:05Z</time>
      </trkpt>
      <trkpt lat="45.9414061" lon="7.6399708">
        <ele>2228.4</ele>
        <time>2014-01-29T10:21:06Z</time>
      </trkpt>
      <trkpt lat="45.941422" lon="7.6400051">
        <ele>2231.8</ele>
        <time>2014-01-29T10:21:07Z</time>
      </trkpt>
      <trkpt lat="45.9414345" lon="7.6400304">
        <ele>2233.6</ele>
        <time>2014-01-29T10:21:08Z</time>
      </trkpt>
      <trkpt lat="45.941456" lon="7.6400741">
        <ele>2235.4</ele>
        <time>2014-01-29T10:21:09Z</time>
      </trkpt>
      <trkpt lat="45.9414669" lon="7.6400977">
        <ele>2237.2</ele>
        <time>2014-01-29T10:21:10Z</time>
      </trkpt>
      <trkpt lat="45.9414882" lon="7.640139">
        <ele>2240.6</ele>
        <time>2014-01-29T10:21:11Z</time>
      </trkpt>
      <trkpt lat="45.9415069" lon="7.6401736">
        <ele>2242</ele>
        <time>2014-01-29T10:21:12Z</time>
      </trkpt>
      <trkpt lat="45.9415221" lon="7.6402093">
        <ele>2243.4</ele>
        <time>2014-01-29T10:21:13Z</time>
      </trkpt>
      <trkpt lat="45.9415357" lon="7.6402378">
        <ele>2245.6</ele>
        <time>2014-01-29T10:21:14Z</time>
      </trkpt>
      <trkpt lat="45.9415573" lon="7.6402827">
        <ele>2248</ele>
        <time>2014-01-29T10:21:15Z</time>
      </trkpt>
      <trkpt lat="45.9415747" lon="7.6403178">
        <ele>2249.8</ele>
        <time>2014-01-29T10:21:16Z</time>
      </trkpt>
      <trkpt lat="45.9415895" lon="7.6403464">
        <ele>2252.8</ele>
        <time>2014-01-29T10:21:17Z</time>
      </trkpt>
      <trkpt lat="45.9416014" lon="7.6403704">
        <ele>2254.4</ele>
        <time>2014-01-29T10:21:18Z</time>
      </trkpt>
      <trkpt lat="45.9416228" lon="7.640416">
        <ele>2257.6</ele>
        <time>2014-01-29T10:21:19Z</time>
      </trkpt>
      <trkpt lat="45.9416398" lon="7.6404522">
        <ele>2259.4</ele>
        <time>2014-01-29T10:21:20Z</time>
      </trkpt>
      <trkpt lat="45.9416548" lon="7.6404817">
        <ele>2262.4</ele>
        <time>2014-01-29T10:21:21Z</time>
      </trkpt>
      <trkpt lat="45.9416726" lon="7.6405162">
        <ele>2264</ele>
        <time>2014-01-29T10:21:22Z</time>
      </trkpt>
      <trkpt lat="45.9416867" lon="7.6405497">
        <ele>2267.4</ele>
        <time>2014-01-29T10:21:23Z</time>
      </trkpt>
      <trkpt lat="45.9416996" lon="7.6405766">
        <ele>2269</ele>
        <time>2014-01-29T10:21:24Z</time>
      </trkpt>
      <trkpt lat="45.9417217" lon="7.640619">
        <ele>2272.2</ele>
        <time>2014-01-29T10:21:25Z</time>
      </trkpt>
      <trkpt lat="45.9417393" lon="7.6406516">
        <ele>2273.6</ele>
        <time>2014-01-29T10:21:26Z</time>
      </trkpt>
      <trkpt lat="45.9417541" lon="7.6406833">
        <ele>2277</ele>
        <time>2014-01-29T10:21:27Z</time>
      </trkpt>
      <trkpt lat="45.9417706" lon="7.640717">
        <ele>2278.2</ele>
        <time>2014-01-29T10:21:28Z</time>
      </trkpt>
      <trkpt lat="45.941786" lon="7.6407477">
        <ele>2282</ele>
        <time>2014-01-29T10:21:29Z</time>
      </trkpt>
      <trkpt lat="45.9417981" lon="7.6407723">
        <ele>2284.4</ele>
        <time>2014-01-29T10:21:30Z</time>
      </trkpt>
      <trkpt lat="45.9418185" lon="7.6408149">
        <ele>2287</ele>
        <time>2014-01-29T10:21:31Z</time>
      </trkpt>
      <trkpt lat="45.9418297" lon="7.6408405">
        <ele>2288.6</ele>
        <time>2014-01-29T10:21:32Z</time>
      </trkpt>
      <trkpt lat="45.9418507" lon="7.6408838">
        <ele>2292</ele>
        <time>2014-01-29T10:21:33Z</time>
      </trkpt>
      <trkpt lat="45.9418625" lon="7.6409084">
        <ele>2294.6</ele>
        <time>2014-01-29T10:21:34Z</time>
      </trkpt>
      <trkpt lat="45.9418818" lon="7.6409481">
        <ele>2297</ele>
        <time>2014-01-29T10:21:35Z</time>
      </trkpt>
      <trkpt lat="45.9418976" lon="7.6409812">
        <ele>2299</ele>
        <time>2014-01-29T10:21:36Z</time>
      </trkpt>
      <trkpt lat="45.9419147" lon="7.6410159">
        <ele>2302</ele>
        <time>2014-01-29T10:21:37Z</time>
      </trkpt>
      <trkpt lat="45.9419293" lon="7.6410423">
        <ele>2304</ele>
        <time>2014-01-29T10:21:38Z</time>
      </trkpt>
      <trkpt lat="45.9419505" lon="7.641092">
        <ele>2306.2</ele>
        <time>2014-01-29T10:21:39Z</time>
      </trkpt>
      <trkpt lat="45.9419637" lon="7.6411215">
        <ele>2307.8</ele>
        <time>2014-01-29T10:21:40Z</time>
      </trkpt>
      <trkpt lat="45.9419855" lon="7.6411668">
        <ele>2309.8</ele>
        <time>2014-01-29T10:21:41Z</time>
      </trkpt>
      <trkpt lat="45.9420036" lon="7.6412039">
        <ele>2311.2</ele>
        <time>2014-01-29T10:21:42Z</time>
      </trkpt>
      <trkpt lat="45.9420246" lon="7.6412439">
        <ele>2313</ele>
        <time>2014-01-29T10:21:43Z</time>
      </trkpt>
      <trkpt lat="45.9420396" lon="7.6412717">
        <ele>2314.4</ele>
        <time>2014-01-29T10:21:44Z</time>
      </trkpt>
      <trkpt lat="45.9420637" lon="7.6413176">
        <ele>2316.2</ele>
        <time>2014-01-29T10:21:45Z</time>
      </trkpt>
      <trkpt lat="45.9421002" lon="7.6413896">
        <ele>2319.8</ele>
        <time>2014-01-29T10:21:47Z</time>
      </trkpt>
      <trkpt lat="45.9421148" lon="7.6414177">
        <ele>2321.4</ele>
        <time>2014-01-29T10:21:48Z</time>
      </trkpt>
      <trkpt lat="45.9421394" lon="7.6414663">
        <ele>2323.2</ele>
        <time>2014-01-29T10:21:49Z</time>
      </trkpt>
      <trkpt lat="45.9421749" lon="7.6415374">
        <ele>2326.8</ele>
        <time>2014-01-29T10:21:51Z</time>
      </trkpt>
      <trkpt lat="45.9422104" lon="7.6416094">
        <ele>2330.4</ele>
        <time>2014-01-29T10:21:53Z</time>
      </trkpt>
      <trkpt lat="45.9422283" lon="7.6416475">
        <ele>2331.6</ele>
        <time>2014-01-29T10:21:54Z</time>
      </trkpt>
      <trkpt lat="45.9422486" lon="7.6416862">
        <ele>2334.2</ele>
        <time>2014-01-29T10:21:55Z</time>
      </trkpt>
      <trkpt lat="45.9422678" lon="7.6417225">
        <ele>2335.6</ele>
        <time>2014-01-29T10:21:56Z</time>
      </trkpt>
      <trkpt lat="45.9422871" lon="7.64176">
        <ele>2337.8</ele>
        <time>2014-01-29T10:21:57Z</time>
      </trkpt>
      <trkpt lat="45.9423062" lon="7.6417965">
        <ele>2339.2</ele>
        <time>2014-01-29T10:21:58Z</time>
      </trkpt>
      <trkpt lat="45.9423236" lon="7.641844">
        <ele>2340.8</ele>
        <time>2014-01-29T10:21:59Z</time>
      </trkpt>
      <trkpt lat="45.9423437" lon="7.6418896">
        <ele>2341.8</ele>
        <time>2014-01-29T10:22:00Z</time>
      </trkpt>
      <trkpt lat="45.9423821" lon="7.6419647">
        <ele>2343</ele>
        <time>2014-01-29T10:22:02Z</time>
      </trkpt>
      <trkpt lat="45.9424022" lon="7.6420064">
        <ele>2344.8</ele>
        <time>2014-01-29T10:22:03Z</time>
      </trkpt>
      <trkpt lat="45.9424413" lon="7.6420889">
        <ele>2346</ele>
        <time>2014-01-29T10:22:05Z</time>
      </trkpt>
      <trkpt lat="45.9424619" lon="7.6421316">
        <ele>2347.2</ele>
        <time>2014-01-29T10:22:06Z</time>
      </trkpt>
      <trkpt lat="45.9424843" lon="7.6421697">
        <ele>2348.4</ele>
        <time>2014-01-29T10:22:07Z</time>
      </trkpt>
      <trkpt lat="45.9425245" lon="7.642251">
        <ele>2349.6</ele>
        <time>2014-01-29T10:22:09Z</time>
      </trkpt>
      <trkpt lat="45.9425447" lon="7.6422914">
        <ele>2350.8</ele>
        <time>2014-01-29T10:22:10Z</time>
      </trkpt>
      <trkpt lat="45.9425624" lon="7.6423256">
        <ele>2352.4</ele>
        <time>2014-01-29T10:22:11Z</time>
      </trkpt>
      <trkpt lat="45.9426025" lon="7.6424099">
        <ele>2354</ele>
        <time>2014-01-29T10:22:13Z</time>
      </trkpt>
      <trkpt lat="45.9426449" lon="7.6424963">
        <ele>2354</ele>
        <time>2014-01-29T10:22:15Z</time>
      </trkpt>
      <trkpt lat="45.9427065" lon="7.6426217">
        <ele>2355</ele>
        <time>2014-01-29T10:22:18Z</time>
      </trkpt>
      <trkpt lat="45.9428092" lon="7.6428243">
        <ele>2356</ele>
        <time>2014-01-29T10:22:23Z</time>
      </trkpt>
      <trkpt lat="45.9429152" lon="7.6430382">
        <ele>2356</ele>
        <time>2014-01-29T10:22:28Z</time>
      </trkpt>
      <trkpt lat="45.9429349" lon="7.6430755">
        <ele>2356</ele>
        <time>2014-01-29T10:22:29Z</time>
      </trkpt>
      <trkpt lat="45.9429758" lon="7.6431592">
        <ele>2358</ele>
        <time>2014-01-29T10:22:31Z</time>
      </trkpt>
      <trkpt lat="45.9430396" lon="7.6432838">
        <ele>2359.2</ele>
        <time>2014-01-29T10:22:34Z</time>
      </trkpt>
      <trkpt lat="45.9430804" lon="7.6433696">
        <ele>2360.2</ele>
        <time>2014-01-29T10:22:36Z</time>
      </trkpt>
      <trkpt lat="45.9431218" lon="7.6434557">
        <ele>2361.4</ele>
        <time>2014-01-29T10:22:38Z</time>
      </trkpt>
      <trkpt lat="45.9431636" lon="7.6435356">
        <ele>2362.4</ele>
        <time>2014-01-29T10:22:40Z</time>
      </trkpt>
      <trkpt lat="45.9432266" lon="7.6436561">
        <ele>2363.6</ele>
        <time>2014-01-29T10:22:43Z</time>
      </trkpt>
      <trkpt lat="45.9432695" lon="7.6437441">
        <ele>2364.6</ele>
        <time>2014-01-29T10:22:45Z</time>
      </trkpt>
      <trkpt lat="45.9433097" lon="7.6438214">
        <ele>2365.6</ele>
        <time>2014-01-29T10:22:47Z</time>
      </trkpt>
      <trkpt lat="45.9433732" lon="7.6439494">
        <ele>2366.8</ele>
        <time>2014-01-29T10:22:50Z</time>
      </trkpt>
      <trkpt lat="45.9433928" lon="7.6439891">
        <ele>2368</ele>
        <time>2014-01-29T10:22:51Z</time>
      </trkpt>
      <trkpt lat="45.9434335" lon="7.644072">
        <ele>2369.2</ele>
        <time>2014-01-29T10:22:53Z</time>
      </trkpt>
      <trkpt lat="45.9434969" lon="7.6442011">
        <ele>2370.4</ele>
        <time>2014-01-29T10:22:56Z</time>
      </trkpt>
      <trkpt lat="45.9435379" lon="7.6442849">
        <ele>2371.6</ele>
        <time>2014-01-29T10:22:58Z</time>
      </trkpt>
      <trkpt lat="45.9435783" lon="7.6443626">
        <ele>2372.8</ele>
        <time>2014-01-29T10:23:00Z</time>
      </trkpt>
      <trkpt lat="45.943622" lon="7.6444468">
        <ele>2373.8</ele>
        <time>2014-01-29T10:23:02Z</time>
      </trkpt>
      <trkpt lat="45.9436409" lon="7.6444908">
        <ele>2375.2</ele>
        <time>2014-01-29T10:23:03Z</time>
      </trkpt>
      <trkpt lat="45.9436764" lon="7.6445641">
        <ele>2376.2</ele>
        <time>2014-01-29T10:23:05Z</time>
      </trkpt>
      <trkpt lat="45.9437225" lon="7.64466">
        <ele>2378.4</ele>
        <time>2014-01-29T10:23:07Z</time>
      </trkpt>
      <trkpt lat="45.9437799" lon="7.6447787">
        <ele>2379.4</ele>
        <time>2014-01-29T10:23:10Z</time>
      </trkpt>
      <trkpt lat="45.943845" lon="7.6449085">
        <ele>2380.6</ele>
        <time>2014-01-29T10:23:13Z</time>
      </trkpt>
      <trkpt lat="45.9439084" lon="7.6450365">
        <ele>2381.6</ele>
        <time>2014-01-29T10:23:16Z</time>
      </trkpt>
      <trkpt lat="45.9439697" lon="7.6451608">
        <ele>2382.8</ele>
        <time>2014-01-29T10:23:19Z</time>
      </trkpt>
      <trkpt lat="45.94401" lon="7.6452416">
        <ele>2384.2</ele>
        <time>2014-01-29T10:23:21Z</time>
      </trkpt>
      <trkpt lat="45.944045" lon="7.6453136">
        <ele>2385.2</ele>
        <time>2014-01-29T10:23:23Z</time>
      </trkpt>
      <trkpt lat="45.9440836" lon="7.6453887">
        <ele>2386.4</ele>
        <time>2014-01-29T10:23:25Z</time>
      </trkpt>
      <trkpt lat="45.9441257" lon="7.6454754">
        <ele>2387.6</ele>
        <time>2014-01-29T10:23:27Z</time>
      </trkpt>
      <trkpt lat="45.9441734" lon="7.6455711">
        <ele>2388.6</ele>
        <time>2014-01-29T10:23:29Z</time>
      </trkpt>
      <trkpt lat="45.9442156" lon="7.645656">
        <ele>2390</ele>
        <time>2014-01-29T10:23:31Z</time>
      </trkpt>
      <trkpt lat="45.944257" lon="7.6457406">
        <ele>2391</ele>
        <time>2014-01-29T10:23:33Z</time>
      </trkpt>
      <trkpt lat="45.9442727" lon="7.6457728">
        <ele>2392.2</ele>
        <time>2014-01-29T10:23:34Z</time>
      </trkpt>
      <trkpt lat="45.9442967" lon="7.6458208">
        <ele>2393.4</ele>
        <time>2014-01-29T10:23:35Z</time>
      </trkpt>
      <trkpt lat="45.9443399" lon="7.6459102">
        <ele>2394.6</ele>
        <time>2014-01-29T10:23:37Z</time>
      </trkpt>
      <trkpt lat="45.9443545" lon="7.6459388">
        <ele>2395.6</ele>
        <time>2014-01-29T10:23:38Z</time>
      </trkpt>
      <trkpt lat="45.944397" lon="7.6460196">
        <ele>2396.6</ele>
        <time>2014-01-29T10:23:40Z</time>
      </trkpt>
      <trkpt lat="45.9444614" lon="7.6460932">
        <ele>2397.8</ele>
        <time>2014-01-29T10:23:42Z</time>
      </trkpt>
      <trkpt lat="45.9444909" lon="7.6461781">
        <ele>2399</ele>
        <time>2014-01-29T10:23:44Z</time>
      </trkpt>
      <trkpt lat="45.9445174" lon="7.646232">
        <ele>2400.2</ele>
        <time>2014-01-29T10:23:45Z</time>
      </trkpt>
      <trkpt lat="45.9445547" lon="7.6463089">
        <ele>2402.4</ele>
        <time>2014-01-29T10:23:47Z</time>
      </trkpt>
      <trkpt lat="45.9445967" lon="7.6463945">
        <ele>2403.4</ele>
        <time>2014-01-29T10:23:49Z</time>
      </trkpt>
      <trkpt lat="45.9446345" lon="7.6464747">
        <ele>2404.8</ele>
        <time>2014-01-29T10:23:51Z</time>
      </trkpt>
      <trkpt lat="45.9446547" lon="7.6465158">
        <ele>2405.8</ele>
        <time>2014-01-29T10:23:52Z</time>
      </trkpt>
      <trkpt lat="45.9446741" lon="7.6465552">
        <ele>2407</ele>
        <time>2014-01-29T10:23:53Z</time>
      </trkpt>
      <trkpt lat="45.9446896" lon="7.6465882">
        <ele>2408</ele>
        <time>2014-01-29T10:23:54Z</time>
      </trkpt>
      <trkpt lat="45.9447152" lon="7.6466419">
        <ele>2409.2</ele>
        <time>2014-01-29T10:23:55Z</time>
      </trkpt>
      <trkpt lat="45.9447557" lon="7.6467234">
        <ele>2410.4</ele>
        <time>2014-01-29T10:23:57Z</time>
      </trkpt>
      <trkpt lat="45.9447698" lon="7.6467531">
        <ele>2411.4</ele>
        <time>2014-01-29T10:23:58Z</time>
      </trkpt>
      <trkpt lat="45.9447938" lon="7.6468036">
        <ele>2412.6</ele>
        <time>2014-01-29T10:23:59Z</time>
      </trkpt>
      <trkpt lat="45.9448337" lon="7.6468849">
        <ele>2413.8</ele>
        <time>2014-01-29T10:24:01Z</time>
      </trkpt>
      <trkpt lat="45.9448479" lon="7.6469145">
        <ele>2415</ele>
        <time>2014-01-29T10:24:02Z</time>
      </trkpt>
      <trkpt lat="45.9448733" lon="7.6469668">
        <ele>2416.4</ele>
        <time>2014-01-29T10:24:03Z</time>
      </trkpt>
      <trkpt lat="45.9448883" lon="7.646998">
        <ele>2417.4</ele>
        <time>2014-01-29T10:24:04Z</time>
      </trkpt>
      <trkpt lat="45.9449118" lon="7.6470455">
        <ele>2418.8</ele>
        <time>2014-01-29T10:24:05Z</time>
      </trkpt>
      <trkpt lat="45.9449541" lon="7.6471306">
        <ele>2420</ele>
        <time>2014-01-29T10:24:07Z</time>
      </trkpt>
      <trkpt lat="45.9449682" lon="7.64716">
        <ele>2422.6</ele>
        <time>2014-01-29T10:24:08Z</time>
      </trkpt>
      <trkpt lat="45.9450074" lon="7.6472392">
        <ele>2423.8</ele>
        <time>2014-01-29T10:24:10Z</time>
      </trkpt>
      <trkpt lat="45.9450305" lon="7.6472905">
        <ele>2425.4</ele>
        <time>2014-01-29T10:24:11Z</time>
      </trkpt>
      <trkpt lat="45.9450504" lon="7.6473335">
        <ele>2425.4</ele>
        <time>2014-01-29T10:24:12Z</time>
      </trkpt>
      <trkpt lat="45.9450727" lon="7.6473718">
        <ele>2427.8</ele>
        <time>2014-01-29T10:24:13Z</time>
      </trkpt>
      <trkpt lat="45.9451142" lon="7.6474527">
        <ele>2429.2</ele>
        <time>2014-01-29T10:24:15Z</time>
      </trkpt>
      <trkpt lat="45.9451349" lon="7.6474928">
        <ele>2430.8</ele>
        <time>2014-01-29T10:24:16Z</time>
      </trkpt>
      <trkpt lat="45.9451526" lon="7.6475303">
        <ele>2432.2</ele>
        <time>2014-01-29T10:24:17Z</time>
      </trkpt>
      <trkpt lat="45.9451678" lon="7.6475615">
        <ele>2433.6</ele>
        <time>2014-01-29T10:24:18Z</time>
      </trkpt>
      <trkpt lat="45.9451924" lon="7.6476127">
        <ele>2434.8</ele>
        <time>2014-01-29T10:24:19Z</time>
      </trkpt>
      <trkpt lat="45.9452125" lon="7.6476516">
        <ele>2436</ele>
        <time>2014-01-29T10:24:20Z</time>
      </trkpt>
      <trkpt lat="45.9452302" lon="7.6476908">
        <ele>2437.4</ele>
        <time>2014-01-29T10:24:21Z</time>
      </trkpt>
      <trkpt lat="45.94525" lon="7.647732">
        <ele>2438.4</ele>
        <time>2014-01-29T10:24:22Z</time>
      </trkpt>
      <trkpt lat="45.9452706" lon="7.6477672">
        <ele>2439.6</ele>
        <time>2014-01-29T10:24:23Z</time>
      </trkpt>
      <trkpt lat="45.9452882" lon="7.6477997">
        <ele>2440.6</ele>
        <time>2014-01-29T10:24:24Z</time>
      </trkpt>
      <trkpt lat="45.9453146" lon="7.647854">
        <ele>2441.6</ele>
        <time>2014-01-29T10:24:25Z</time>
      </trkpt>
      <trkpt lat="45.9453545" lon="7.6479356">
        <ele>2442.6</ele>
        <time>2014-01-29T10:24:27Z</time>
      </trkpt>
      <trkpt lat="45.94537" lon="7.6479655">
        <ele>2443.8</ele>
        <time>2014-01-29T10:24:28Z</time>
      </trkpt>
      <trkpt lat="45.9453963" lon="7.6480168">
        <ele>2444.8</ele>
        <time>2014-01-29T10:24:29Z</time>
      </trkpt>
      <trkpt lat="45.9454391" lon="7.6481029">
        <ele>2446</ele>
        <time>2014-01-29T10:24:31Z</time>
      </trkpt>
      <trkpt lat="45.9454607" lon="7.6481454">
        <ele>2447</ele>
        <time>2014-01-29T10:24:32Z</time>
      </trkpt>
      <trkpt lat="45.9454831" lon="7.648193">
        <ele>2448.2</ele>
        <time>2014-01-29T10:24:33Z</time>
      </trkpt>
      <trkpt lat="45.9455008" lon="7.6482257">
        <ele>2449.4</ele>
        <time>2014-01-29T10:24:34Z</time>
      </trkpt>
      <trkpt lat="45.9455261" lon="7.6482762">
        <ele>2450.6</ele>
        <time>2014-01-29T10:24:35Z</time>
      </trkpt>
      <trkpt lat="45.9455741" lon="7.6483559">
        <ele>2451.6</ele>
        <time>2014-01-29T10:24:37Z</time>
      </trkpt>
      <trkpt lat="45.9456981" lon="7.648604">
        <ele>2452.8</ele>
        <time>2014-01-29T10:24:43Z</time>
      </trkpt>
      <trkpt lat="45.9457252" lon="7.6486616">
        <ele>2452.8</ele>
        <time>2014-01-29T10:24:47Z</time>
      </trkpt>
      <trkpt lat="45.9457518" lon="7.648772">
        <ele>2452.8</ele>
        <time>2014-01-29T10:24:53Z</time>
      </trkpt>
      <trkpt lat="45.9457656" lon="7.6489743">
        <ele>2449.6</ele>
        <time>2014-01-29T10:24:57Z</time>
      </trkpt>
      <trkpt lat="45.9457855" lon="7.6490519">
        <ele>2449.6</ele>
        <time>2014-01-29T10:24:59Z</time>
      </trkpt>
      <trkpt lat="45.9457668" lon="7.6491078">
        <ele>2449.6</ele>
        <time>2014-01-29T10:25:01Z</time>
      </trkpt>
      <trkpt lat="45.9457503" lon="7.6491383">
        <ele>2449.6</ele>
        <time>2014-01-29T10:25:06Z</time>
      </trkpt>
      <trkpt lat="45.9457415" lon="7.6491368">
        <ele>2449.6</ele>
        <time>2014-01-29T10:25:15Z</time>
      </trkpt>
      <trkpt lat="45.9457405" lon="7.649135">
        <ele>2449.6</ele>
        <time>2014-01-29T10:25:25Z</time>
      </trkpt>
      <trkpt lat="45.9457389" lon="7.6491344">
        <ele>2448.6</ele>
        <time>2014-01-29T10:25:29Z</time>
      </trkpt>
      <trkpt lat="45.9457397" lon="7.649135">
        <ele>2448.6</ele>
        <time>2014-01-29T10:25:34Z</time>
      </trkpt>
      <trkpt lat="45.9457366" lon="7.6491497">
        <ele>2448.6</ele>
        <time>2014-01-29T10:25:44Z</time>
      </trkpt>
      <trkpt lat="45.9457366" lon="7.6491547">
        <ele>2448.6</ele>
        <time>2014-01-29T10:25:53Z</time>
      </trkpt>
      <trkpt lat="45.9457385" lon="7.6491593">
        <ele>2448.6</ele>
        <time>2014-01-29T10:26:08Z</time>
      </trkpt>
      <trkpt lat="45.9457378" lon="7.6491574">
        <ele>2448.6</ele>
        <time>2014-01-29T10:26:22Z</time>
      </trkpt>
      <trkpt lat="45.9457378" lon="7.6491567">
        <ele>2448.6</ele>
        <time>2014-01-29T10:26:32Z</time>
      </trkpt>
      <trkpt lat="45.9457363" lon="7.6491599">
        <ele>2448.6</ele>
        <time>2014-01-29T10:26:41Z</time>
      </trkpt>
      <trkpt lat="45.9457487" lon="7.6491766">
        <ele>2448.6</ele>
        <time>2014-01-29T10:26:43Z</time>
      </trkpt>
      <trkpt lat="45.9457844" lon="7.6492272">
        <ele>2448.6</ele>
        <time>2014-01-29T10:26:46Z</time>
      </trkpt>
      <trkpt lat="45.9458008" lon="7.6492465">
        <ele>2447.6</ele>
        <time>2014-01-29T10:26:47Z</time>
      </trkpt>
      <trkpt lat="45.9458886" lon="7.6493178">
        <ele>2446.6</ele>
        <time>2014-01-29T10:26:51Z</time>
      </trkpt>
      <trkpt lat="45.9459426" lon="7.6493522">
        <ele>2446.6</ele>
        <time>2014-01-29T10:26:53Z</time>
      </trkpt>
      <trkpt lat="45.9459707" lon="7.6493675">
        <ele>2445.4</ele>
        <time>2014-01-29T10:26:54Z</time>
      </trkpt>
      <trkpt lat="45.9460211" lon="7.6493929">
        <ele>2444.4</ele>
        <time>2014-01-29T10:26:55Z</time>
      </trkpt>
      <trkpt lat="45.9461149" lon="7.649434">
        <ele>2443.2</ele>
        <time>2014-01-29T10:26:57Z</time>
      </trkpt>
      <trkpt lat="45.9461525" lon="7.6494483">
        <ele>2443.2</ele>
        <time>2014-01-29T10:26:58Z</time>
      </trkpt>
      <trkpt lat="45.9462606" lon="7.6494975">
        <ele>2442</ele>
        <time>2014-01-29T10:27:00Z</time>
      </trkpt>
      <trkpt lat="45.9463245" lon="7.6495055">
        <ele>2440.6</ele>
        <time>2014-01-29T10:27:01Z</time>
      </trkpt>
      <trkpt lat="45.9464456" lon="7.6494757">
        <ele>2438</ele>
        <time>2014-01-29T10:27:03Z</time>
      </trkpt>
      <trkpt lat="45.946498" lon="7.6494906">
        <ele>2436.8</ele>
        <time>2014-01-29T10:27:04Z</time>
      </trkpt>
      <trkpt lat="45.9465739" lon="7.6494936">
        <ele>2433.8</ele>
        <time>2014-01-29T10:27:05Z</time>
      </trkpt>
      <trkpt lat="45.9466379" lon="7.6494829">
        <ele>2433.8</ele>
        <time>2014-01-29T10:27:06Z</time>
      </trkpt>
      <trkpt lat="45.9467338" lon="7.6494571">
        <ele>2430.8</ele>
        <time>2014-01-29T10:27:07Z</time>
      </trkpt>
      <trkpt lat="45.9467957" lon="7.6494746">
        <ele>2426.8</ele>
        <time>2014-01-29T10:27:08Z</time>
      </trkpt>
      <trkpt lat="45.9469075" lon="7.6494671">
        <ele>2423.8</ele>
        <time>2014-01-29T10:27:09Z</time>
      </trkpt>
      <trkpt lat="45.9470775" lon="7.6493632">
        <ele>2422</ele>
        <time>2014-01-29T10:27:11Z</time>
      </trkpt>
      <trkpt lat="45.9471761" lon="7.6493201">
        <ele>2420.2</ele>
        <time>2014-01-29T10:27:12Z</time>
      </trkpt>
      <trkpt lat="45.9472849" lon="7.6493589">
        <ele>2417.2</ele>
        <time>2014-01-29T10:27:13Z</time>
      </trkpt>
      <trkpt lat="45.9473518" lon="7.6493346">
        <ele>2413.8</ele>
        <time>2014-01-29T10:27:14Z</time>
      </trkpt>
      <trkpt lat="45.9474407" lon="7.6492595">
        <ele>2413.8</ele>
        <time>2014-01-29T10:27:15Z</time>
      </trkpt>
      <trkpt lat="45.947568" lon="7.6492311">
        <ele>2413.8</ele>
        <time>2014-01-29T10:27:17Z</time>
      </trkpt>
      <trkpt lat="45.9476242" lon="7.6492452">
        <ele>2413.8</ele>
        <time>2014-01-29T10:27:18Z</time>
      </trkpt>
      <trkpt lat="45.9477167" lon="7.6492461">
        <ele>2413.8</ele>
        <time>2014-01-29T10:27:21Z</time>
      </trkpt>
      <trkpt lat="45.9477427" lon="7.6492573">
        <ele>2413.8</ele>
        <time>2014-01-29T10:27:23Z</time>
      </trkpt>
      <trkpt lat="45.9477472" lon="7.6492611">
        <ele>2413.8</ele>
        <time>2014-01-29T10:27:25Z</time>
      </trkpt>
      <trkpt lat="45.9477748" lon="7.6492921">
        <ele>2413.8</ele>
        <time>2014-01-29T10:27:34Z</time>
      </trkpt>
      <trkpt lat="45.9477843" lon="7.6493185">
        <ele>2413.8</ele>
        <time>2014-01-29T10:27:39Z</time>
      </trkpt>
      <trkpt lat="45.9478038" lon="7.6493647">
        <ele>2413.8</ele>
        <time>2014-01-29T10:27:49Z</time>
      </trkpt>
      <trkpt lat="45.9478192" lon="7.6493936">
        <ele>2413.8</ele>
        <time>2014-01-29T10:27:58Z</time>
      </trkpt>
      <trkpt lat="45.9478299" lon="7.6494272">
        <ele>2413.8</ele>
        <time>2014-01-29T10:28:05Z</time>
      </trkpt>
      <trkpt lat="45.947843" lon="7.6494564">
        <ele>2412.6</ele>
        <time>2014-01-29T10:28:12Z</time>
      </trkpt>
      <trkpt lat="45.9478492" lon="7.6494641">
        <ele>2412.6</ele>
        <time>2014-01-29T10:28:14Z</time>
      </trkpt>
      <trkpt lat="45.9478668" lon="7.6494941">
        <ele>2412.6</ele>
        <time>2014-01-29T10:28:17Z</time>
      </trkpt>
      <trkpt lat="45.9478731" lon="7.6495142">
        <ele>2412.6</ele>
        <time>2014-01-29T10:28:19Z</time>
      </trkpt>
      <trkpt lat="45.9478767" lon="7.6495221">
        <ele>2412.6</ele>
        <time>2014-01-29T10:28:20Z</time>
      </trkpt>
      <trkpt lat="45.9478876" lon="7.6495333">
        <ele>2412.6</ele>
        <time>2014-01-29T10:28:21Z</time>
      </trkpt>
      <trkpt lat="45.947916" lon="7.6495834">
        <ele>2412.6</ele>
        <time>2014-01-29T10:28:23Z</time>
      </trkpt>
      <trkpt lat="45.9479353" lon="7.6496132">
        <ele>2411.6</ele>
        <time>2014-01-29T10:28:24Z</time>
      </trkpt>
      <trkpt lat="45.9480487" lon="7.649821">
        <ele>2416.2</ele>
        <time>2014-01-29T10:28:29Z</time>
      </trkpt>
      <trkpt lat="45.9480717" lon="7.6498595">
        <ele>2416.2</ele>
        <time>2014-01-29T10:28:30Z</time>
      </trkpt>
      <trkpt lat="45.9480874" lon="7.6499085">
        <ele>2418.6</ele>
        <time>2014-01-29T10:28:31Z</time>
      </trkpt>
      <trkpt lat="45.9481082" lon="7.6499502">
        <ele>2420</ele>
        <time>2014-01-29T10:28:32Z</time>
      </trkpt>
      <trkpt lat="45.9481248" lon="7.6499995">
        <ele>2422.8</ele>
        <time>2014-01-29T10:28:33Z</time>
      </trkpt>
      <trkpt lat="45.9481394" lon="7.6500343">
        <ele>2424</ele>
        <time>2014-01-29T10:28:34Z</time>
      </trkpt>
      <trkpt lat="45.9481634" lon="7.6500871">
        <ele>2425.6</ele>
        <time>2014-01-29T10:28:35Z</time>
      </trkpt>
      <trkpt lat="45.9481839" lon="7.650129">
        <ele>2427</ele>
        <time>2014-01-29T10:28:36Z</time>
      </trkpt>
      <trkpt lat="45.9482045" lon="7.6501738">
        <ele>2429.4</ele>
        <time>2014-01-29T10:28:37Z</time>
      </trkpt>
      <trkpt lat="45.9482167" lon="7.6502101">
        <ele>2429.4</ele>
        <time>2014-01-29T10:28:38Z</time>
      </trkpt>
      <trkpt lat="45.9482426" lon="7.6502758">
        <ele>2430.6</ele>
        <time>2014-01-29T10:28:39Z</time>
      </trkpt>
      <trkpt lat="45.948259" lon="7.6503055">
        <ele>2431.6</ele>
        <time>2014-01-29T10:28:40Z</time>
      </trkpt>
      <trkpt lat="45.9483045" lon="7.6504025">
        <ele>2432.6</ele>
        <time>2014-01-29T10:28:42Z</time>
      </trkpt>
      <trkpt lat="45.9483312" lon="7.6504541">
        <ele>2433.8</ele>
        <time>2014-01-29T10:28:43Z</time>
      </trkpt>
      <trkpt lat="45.9483483" lon="7.6504881">
        <ele>2434.8</ele>
        <time>2014-01-29T10:28:44Z</time>
      </trkpt>
      <trkpt lat="45.9483756" lon="7.6505457">
        <ele>2436</ele>
        <time>2014-01-29T10:28:45Z</time>
      </trkpt>
      <trkpt lat="45.9484177" lon="7.6506329">
        <ele>2437</ele>
        <time>2014-01-29T10:28:47Z</time>
      </trkpt>
      <trkpt lat="45.9484342" lon="7.6506665">
        <ele>2438.2</ele>
        <time>2014-01-29T10:28:48Z</time>
      </trkpt>
      <trkpt lat="45.9484618" lon="7.6507243">
        <ele>2439.4</ele>
        <time>2014-01-29T10:28:49Z</time>
      </trkpt>
      <trkpt lat="45.9485052" lon="7.6508104">
        <ele>2440.6</ele>
        <time>2014-01-29T10:28:51Z</time>
      </trkpt>
      <trkpt lat="45.9485283" lon="7.6508535">
        <ele>2441.8</ele>
        <time>2014-01-29T10:28:52Z</time>
      </trkpt>
      <trkpt lat="45.9485502" lon="7.6508945">
        <ele>2443.2</ele>
        <time>2014-01-29T10:28:53Z</time>
      </trkpt>
      <trkpt lat="45.9485726" lon="7.6509373">
        <ele>2444.4</ele>
        <time>2014-01-29T10:28:54Z</time>
      </trkpt>
      <trkpt lat="45.9485972" lon="7.6509822">
        <ele>2445.6</ele>
        <time>2014-01-29T10:28:55Z</time>
      </trkpt>
      <trkpt lat="45.9486195" lon="7.6510231">
        <ele>2446.6</ele>
        <time>2014-01-29T10:28:56Z</time>
      </trkpt>
      <trkpt lat="45.9486388" lon="7.6510696">
        <ele>2448</ele>
        <time>2014-01-29T10:28:57Z</time>
      </trkpt>
      <trkpt lat="45.9486782" lon="7.6511666">
        <ele>2449.2</ele>
        <time>2014-01-29T10:28:59Z</time>
      </trkpt>
      <trkpt lat="45.9487209" lon="7.6512581">
        <ele>2450.2</ele>
        <time>2014-01-29T10:29:01Z</time>
      </trkpt>
      <trkpt lat="45.9487426" lon="7.6513038">
        <ele>2451.4</ele>
        <time>2014-01-29T10:29:02Z</time>
      </trkpt>
      <trkpt lat="45.9487659" lon="7.6513454">
        <ele>2452.6</ele>
        <time>2014-01-29T10:29:03Z</time>
      </trkpt>
      <trkpt lat="45.9488096" lon="7.6514353">
        <ele>2453.6</ele>
        <time>2014-01-29T10:29:05Z</time>
      </trkpt>
      <trkpt lat="45.9488502" lon="7.6515185">
        <ele>2456</ele>
        <time>2014-01-29T10:29:07Z</time>
      </trkpt>
      <trkpt lat="45.9488959" lon="7.6516197">
        <ele>2457</ele>
        <time>2014-01-29T10:29:09Z</time>
      </trkpt>
      <trkpt lat="45.9489183" lon="7.6516641">
        <ele>2458</ele>
        <time>2014-01-29T10:29:10Z</time>
      </trkpt>
      <trkpt lat="45.9489375" lon="7.6517021">
        <ele>2459.6</ele>
        <time>2014-01-29T10:29:11Z</time>
      </trkpt>
      <trkpt lat="45.9489791" lon="7.651799">
        <ele>2460.6</ele>
        <time>2014-01-29T10:29:13Z</time>
      </trkpt>
      <trkpt lat="45.9489961" lon="7.6518366">
        <ele>2460.6</ele>
        <time>2014-01-29T10:29:14Z</time>
      </trkpt>
      <trkpt lat="45.9491473" lon="7.6521787">
        <ele>2461.8</ele>
        <time>2014-01-29T10:29:21Z</time>
      </trkpt>
      <trkpt lat="45.949212" lon="7.6523199">
        <ele>2462.8</ele>
        <time>2014-01-29T10:29:24Z</time>
      </trkpt>
      <trkpt lat="45.9492607" lon="7.6524142">
        <ele>2463.8</ele>
        <time>2014-01-29T10:29:26Z</time>
      </trkpt>
      <trkpt lat="45.9492844" lon="7.6524534">
        <ele>2464.8</ele>
        <time>2014-01-29T10:29:27Z</time>
      </trkpt>
      <trkpt lat="45.9493313" lon="7.6525361">
        <ele>2465.8</ele>
        <time>2014-01-29T10:29:29Z</time>
      </trkpt>
      <trkpt lat="45.9493737" lon="7.6526284">
        <ele>2467</ele>
        <time>2014-01-29T10:29:31Z</time>
      </trkpt>
      <trkpt lat="45.9494208" lon="7.6527164">
        <ele>2468</ele>
        <time>2014-01-29T10:29:33Z</time>
      </trkpt>
      <trkpt lat="45.9494686" lon="7.6528017">
        <ele>2469</ele>
        <time>2014-01-29T10:29:35Z</time>
      </trkpt>
      <trkpt lat="45.949495" lon="7.6528397">
        <ele>2470.4</ele>
        <time>2014-01-29T10:29:36Z</time>
      </trkpt>
      <trkpt lat="45.9495158" lon="7.6528959">
        <ele>2471.4</ele>
        <time>2014-01-29T10:29:37Z</time>
      </trkpt>
      <trkpt lat="45.9495329" lon="7.6529288">
        <ele>2472.6</ele>
        <time>2014-01-29T10:29:38Z</time>
      </trkpt>
      <trkpt lat="45.9495768" lon="7.6530202">
        <ele>2473.8</ele>
        <time>2014-01-29T10:29:40Z</time>
      </trkpt>
      <trkpt lat="45.9496053" lon="7.6530698">
        <ele>2475</ele>
        <time>2014-01-29T10:29:41Z</time>
      </trkpt>
      <trkpt lat="45.9496524" lon="7.653165">
        <ele>2476.6</ele>
        <time>2014-01-29T10:29:43Z</time>
      </trkpt>
      <trkpt lat="45.9496722" lon="7.6531958">
        <ele>2478</ele>
        <time>2014-01-29T10:29:44Z</time>
      </trkpt>
      <trkpt lat="45.9497283" lon="7.653289">
        <ele>2479.2</ele>
        <time>2014-01-29T10:29:46Z</time>
      </trkpt>
      <trkpt lat="45.9497394" lon="7.6533573">
        <ele>2480.4</ele>
        <time>2014-01-29T10:29:47Z</time>
      </trkpt>
      <trkpt lat="45.949784" lon="7.6534572">
        <ele>2481.6</ele>
        <time>2014-01-29T10:29:49Z</time>
      </trkpt>
      <trkpt lat="45.9498244" lon="7.6535538">
        <ele>2482.6</ele>
        <time>2014-01-29T10:29:51Z</time>
      </trkpt>
      <trkpt lat="45.9498435" lon="7.6536004">
        <ele>2484</ele>
        <time>2014-01-29T10:29:52Z</time>
      </trkpt>
      <trkpt lat="45.9498662" lon="7.6536523">
        <ele>2485.2</ele>
        <time>2014-01-29T10:29:53Z</time>
      </trkpt>
      <trkpt lat="45.9498825" lon="7.6536927">
        <ele>2486.4</ele>
        <time>2014-01-29T10:29:54Z</time>
      </trkpt>
      <trkpt lat="45.9499339" lon="7.6537993">
        <ele>2487.4</ele>
        <time>2014-01-29T10:29:56Z</time>
      </trkpt>
      <trkpt lat="45.9499541" lon="7.653847">
        <ele>2488.6</ele>
        <time>2014-01-29T10:29:57Z</time>
      </trkpt>
      <trkpt lat="45.9499989" lon="7.6539372">
        <ele>2489.8</ele>
        <time>2014-01-29T10:29:59Z</time>
      </trkpt>
      <trkpt lat="45.9500254" lon="7.6539762">
        <ele>2491</ele>
        <time>2014-01-29T10:30:00Z</time>
      </trkpt>
      <trkpt lat="45.9500466" lon="7.6540225">
        <ele>2492.2</ele>
        <time>2014-01-29T10:30:01Z</time>
      </trkpt>
      <trkpt lat="45.9500727" lon="7.6540628">
        <ele>2493.4</ele>
        <time>2014-01-29T10:30:02Z</time>
      </trkpt>
      <trkpt lat="45.9500986" lon="7.6540993">
        <ele>2494.6</ele>
        <time>2014-01-29T10:30:03Z</time>
      </trkpt>
      <trkpt lat="45.9501174" lon="7.6541305">
        <ele>2495.6</ele>
        <time>2014-01-29T10:30:04Z</time>
      </trkpt>
      <trkpt lat="45.9501451" lon="7.6541818">
        <ele>2496.8</ele>
        <time>2014-01-29T10:30:05Z</time>
      </trkpt>
      <trkpt lat="45.9501706" lon="7.6542222">
        <ele>2497.8</ele>
        <time>2014-01-29T10:30:06Z</time>
      </trkpt>
      <trkpt lat="45.9501857" lon="7.6542598">
        <ele>2499</ele>
        <time>2014-01-29T10:30:07Z</time>
      </trkpt>
      <trkpt lat="45.9502072" lon="7.6543077">
        <ele>2500.2</ele>
        <time>2014-01-29T10:30:08Z</time>
      </trkpt>
      <trkpt lat="45.9502354" lon="7.6543681">
        <ele>2502.6</ele>
        <time>2014-01-29T10:30:09Z</time>
      </trkpt>
      <trkpt lat="45.9502599" lon="7.654412">
        <ele>2503.8</ele>
        <time>2014-01-29T10:30:10Z</time>
      </trkpt>
      <trkpt lat="45.9502808" lon="7.6544428">
        <ele>2506</ele>
        <time>2014-01-29T10:30:11Z</time>
      </trkpt>
      <trkpt lat="45.9503282" lon="7.6545311">
        <ele>2507.4</ele>
        <time>2014-01-29T10:30:13Z</time>
      </trkpt>
      <trkpt lat="45.9503445" lon="7.6545705">
        <ele>2508.8</ele>
        <time>2014-01-29T10:30:14Z</time>
      </trkpt>
      <trkpt lat="45.9503737" lon="7.6546233">
        <ele>2511</ele>
        <time>2014-01-29T10:30:15Z</time>
      </trkpt>
      <trkpt lat="45.9504149" lon="7.6547198">
        <ele>2513</ele>
        <time>2014-01-29T10:30:17Z</time>
      </trkpt>
      <trkpt lat="45.9504416" lon="7.6547593">
        <ele>2514.2</ele>
        <time>2014-01-29T10:30:18Z</time>
      </trkpt>
      <trkpt lat="45.9504606" lon="7.6548094">
        <ele>2516.6</ele>
        <time>2014-01-29T10:30:19Z</time>
      </trkpt>
      <trkpt lat="45.9504862" lon="7.654848">
        <ele>2516.6</ele>
        <time>2014-01-29T10:30:20Z</time>
      </trkpt>
      <trkpt lat="45.9505029" lon="7.6548908">
        <ele>2519.6</ele>
        <time>2014-01-29T10:30:21Z</time>
      </trkpt>
      <trkpt lat="45.9505293" lon="7.6549285">
        <ele>2520.6</ele>
        <time>2014-01-29T10:30:22Z</time>
      </trkpt>
      <trkpt lat="45.9505467" lon="7.6549721">
        <ele>2522.2</ele>
        <time>2014-01-29T10:30:23Z</time>
      </trkpt>
      <trkpt lat="45.9505726" lon="7.6550076">
        <ele>2523.2</ele>
        <time>2014-01-29T10:30:24Z</time>
      </trkpt>
      <trkpt lat="45.9505931" lon="7.6550619">
        <ele>2525.4</ele>
        <time>2014-01-29T10:30:25Z</time>
      </trkpt>
      <trkpt lat="45.9506188" lon="7.6551019">
        <ele>2526.6</ele>
        <time>2014-01-29T10:30:26Z</time>
      </trkpt>
      <trkpt lat="45.9506418" lon="7.6551305">
        <ele>2527.8</ele>
        <time>2014-01-29T10:30:27Z</time>
      </trkpt>
      <trkpt lat="45.950658" lon="7.6551575">
        <ele>2528.8</ele>
        <time>2014-01-29T10:30:28Z</time>
      </trkpt>
      <trkpt lat="45.9506841" lon="7.6552168">
        <ele>2529.8</ele>
        <time>2014-01-29T10:30:29Z</time>
      </trkpt>
      <trkpt lat="45.9507241" lon="7.6553143">
        <ele>2531</ele>
        <time>2014-01-29T10:30:31Z</time>
      </trkpt>
      <trkpt lat="45.9507418" lon="7.655357">
        <ele>2532</ele>
        <time>2014-01-29T10:30:32Z</time>
      </trkpt>
      <trkpt lat="45.9507846" lon="7.6554523">
        <ele>2533.4</ele>
        <time>2014-01-29T10:30:34Z</time>
      </trkpt>
      <trkpt lat="45.9508071" lon="7.6555074">
        <ele>2534.4</ele>
        <time>2014-01-29T10:30:35Z</time>
      </trkpt>
      <trkpt lat="45.9508308" lon="7.655552">
        <ele>2534.4</ele>
        <time>2014-01-29T10:30:36Z</time>
      </trkpt>
      <trkpt lat="45.9508523" lon="7.6556001">
        <ele>2536.6</ele>
        <time>2014-01-29T10:30:37Z</time>
      </trkpt>
      <trkpt lat="45.9508968" lon="7.6556841">
        <ele>2537.8</ele>
        <time>2014-01-29T10:30:39Z</time>
      </trkpt>
      <trkpt lat="45.9509128" lon="7.6557241">
        <ele>2538.8</ele>
        <time>2014-01-29T10:30:40Z</time>
      </trkpt>
      <trkpt lat="45.9509649" lon="7.6558112">
        <ele>2540.2</ele>
        <time>2014-01-29T10:30:42Z</time>
      </trkpt>
      <trkpt lat="45.9509813" lon="7.6558708">
        <ele>2541.6</ele>
        <time>2014-01-29T10:30:43Z</time>
      </trkpt>
      <trkpt lat="45.9509989" lon="7.6559147">
        <ele>2542.6</ele>
        <time>2014-01-29T10:30:44Z</time>
      </trkpt>
      <trkpt lat="45.9510244" lon="7.6559685">
        <ele>2543.6</ele>
        <time>2014-01-29T10:30:45Z</time>
      </trkpt>
      <trkpt lat="45.9510492" lon="7.6560095">
        <ele>2544.8</ele>
        <time>2014-01-29T10:30:46Z</time>
      </trkpt>
      <trkpt lat="45.9510665" lon="7.6560526">
        <ele>2546.2</ele>
        <time>2014-01-29T10:30:47Z</time>
      </trkpt>
      <trkpt lat="45.9510855" lon="7.6560904">
        <ele>2547.4</ele>
        <time>2014-01-29T10:30:48Z</time>
      </trkpt>
      <trkpt lat="45.9511119" lon="7.6561429">
        <ele>2548.4</ele>
        <time>2014-01-29T10:30:49Z</time>
      </trkpt>
      <trkpt lat="45.9511282" lon="7.6561816">
        <ele>2549.4</ele>
        <time>2014-01-29T10:30:50Z</time>
      </trkpt>
      <trkpt lat="45.9511522" lon="7.6562312">
        <ele>2550.4</ele>
        <time>2014-01-29T10:30:51Z</time>
      </trkpt>
      <trkpt lat="45.9511695" lon="7.656277">
        <ele>2551.8</ele>
        <time>2014-01-29T10:30:52Z</time>
      </trkpt>
      <trkpt lat="45.9511918" lon="7.6563259">
        <ele>2554.2</ele>
        <time>2014-01-29T10:30:53Z</time>
      </trkpt>
      <trkpt lat="45.9512066" lon="7.6563672">
        <ele>2555.8</ele>
        <time>2014-01-29T10:30:54Z</time>
      </trkpt>
      <trkpt lat="45.9512344" lon="7.6564271">
        <ele>2556.8</ele>
        <time>2014-01-29T10:30:55Z</time>
      </trkpt>
      <trkpt lat="45.9512724" lon="7.6565304">
        <ele>2556.8</ele>
        <time>2014-01-29T10:30:57Z</time>
      </trkpt>
      <trkpt lat="45.9512865" lon="7.6565737">
        <ele>2558</ele>
        <time>2014-01-29T10:30:58Z</time>
      </trkpt>
      <trkpt lat="45.9513083" lon="7.6566364">
        <ele>2558</ele>
        <time>2014-01-29T10:30:59Z</time>
      </trkpt>
      <trkpt lat="45.9513233" lon="7.6566824">
        <ele>2559.4</ele>
        <time>2014-01-29T10:31:00Z</time>
      </trkpt>
      <trkpt lat="45.9513447" lon="7.656744">
        <ele>2560.6</ele>
        <time>2014-01-29T10:31:01Z</time>
      </trkpt>
      <trkpt lat="45.9513815" lon="7.6568445">
        <ele>2561.8</ele>
        <time>2014-01-29T10:31:03Z</time>
      </trkpt>
      <trkpt lat="45.9514" lon="7.6568846">
        <ele>2562.8</ele>
        <time>2014-01-29T10:31:04Z</time>
      </trkpt>
      <trkpt lat="45.9514474" lon="7.6569799">
        <ele>2564</ele>
        <time>2014-01-29T10:31:06Z</time>
      </trkpt>
      <trkpt lat="45.9514672" lon="7.6570327">
        <ele>2565</ele>
        <time>2014-01-29T10:31:07Z</time>
      </trkpt>
      <trkpt lat="45.9515075" lon="7.6571299">
        <ele>2566.2</ele>
        <time>2014-01-29T10:31:09Z</time>
      </trkpt>
      <trkpt lat="45.9515258" lon="7.6571648">
        <ele>2567.6</ele>
        <time>2014-01-29T10:31:10Z</time>
      </trkpt>
      <trkpt lat="45.9515761" lon="7.6572459">
        <ele>2568.6</ele>
        <time>2014-01-29T10:31:12Z</time>
      </trkpt>
      <trkpt lat="45.9515984" lon="7.6572882">
        <ele>2569.8</ele>
        <time>2014-01-29T10:31:13Z</time>
      </trkpt>
      <trkpt lat="45.9516169" lon="7.6573274">
        <ele>2571.2</ele>
        <time>2014-01-29T10:31:14Z</time>
      </trkpt>
      <trkpt lat="45.9516442" lon="7.6573761">
        <ele>2572.2</ele>
        <time>2014-01-29T10:31:15Z</time>
      </trkpt>
      <trkpt lat="45.9516702" lon="7.6574154">
        <ele>2573.4</ele>
        <time>2014-01-29T10:31:16Z</time>
      </trkpt>
      <trkpt lat="45.9516877" lon="7.6574544">
        <ele>2574.4</ele>
        <time>2014-01-29T10:31:17Z</time>
      </trkpt>
      <trkpt lat="45.9517071" lon="7.6574925">
        <ele>2575.6</ele>
        <time>2014-01-29T10:31:18Z</time>
      </trkpt>
      <trkpt lat="45.9517357" lon="7.6575403">
        <ele>2576.8</ele>
        <time>2014-01-29T10:31:19Z</time>
      </trkpt>
      <trkpt lat="45.951756" lon="7.6575716">
        <ele>2577.8</ele>
        <time>2014-01-29T10:31:20Z</time>
      </trkpt>
      <trkpt lat="45.9517847" lon="7.6576164">
        <ele>2579</ele>
        <time>2014-01-29T10:31:21Z</time>
      </trkpt>
      <trkpt lat="45.9518143" lon="7.6576518">
        <ele>2580.2</ele>
        <time>2014-01-29T10:31:22Z</time>
      </trkpt>
      <trkpt lat="45.9518319" lon="7.6577113">
        <ele>2580.2</ele>
        <time>2014-01-29T10:31:23Z</time>
      </trkpt>
      <trkpt lat="45.951869" lon="7.6578095">
        <ele>2581.2</ele>
        <time>2014-01-29T10:31:25Z</time>
      </trkpt>
      <trkpt lat="45.951894" lon="7.6578475">
        <ele>2581.2</ele>
        <time>2014-01-29T10:31:26Z</time>
      </trkpt>
      <trkpt lat="45.9519052" lon="7.6579032">
        <ele>2582.4</ele>
        <time>2014-01-29T10:31:27Z</time>
      </trkpt>
      <trkpt lat="45.9519385" lon="7.6580022">
        <ele>2583.4</ele>
        <time>2014-01-29T10:31:29Z</time>
      </trkpt>
      <trkpt lat="45.9519739" lon="7.6580949">
        <ele>2584.4</ele>
        <time>2014-01-29T10:31:31Z</time>
      </trkpt>
      <trkpt lat="45.9519895" lon="7.6581354">
        <ele>2585.6</ele>
        <time>2014-01-29T10:31:32Z</time>
      </trkpt>
      <trkpt lat="45.9520104" lon="7.6581837">
        <ele>2585.6</ele>
        <time>2014-01-29T10:31:33Z</time>
      </trkpt>
      <trkpt lat="45.9520242" lon="7.6582192">
        <ele>2586.8</ele>
        <time>2014-01-29T10:31:34Z</time>
      </trkpt>
      <trkpt lat="45.9520492" lon="7.6582723">
        <ele>2587.8</ele>
        <time>2014-01-29T10:31:35Z</time>
      </trkpt>
      <trkpt lat="45.9520877" lon="7.6583552">
        <ele>2589</ele>
        <time>2014-01-29T10:31:37Z</time>
      </trkpt>
      <trkpt lat="45.9521026" lon="7.6583861">
        <ele>2590.2</ele>
        <time>2014-01-29T10:31:38Z</time>
      </trkpt>
      <trkpt lat="45.9521272" lon="7.6584327">
        <ele>2591.2</ele>
        <time>2014-01-29T10:31:39Z</time>
      </trkpt>
      <trkpt lat="45.9521668" lon="7.6585058">
        <ele>2592.6</ele>
        <time>2014-01-29T10:31:41Z</time>
      </trkpt>
      <trkpt lat="45.9521933" lon="7.6585407">
        <ele>2593.8</ele>
        <time>2014-01-29T10:31:42Z</time>
      </trkpt>
      <trkpt lat="45.9522134" lon="7.6585806">
        <ele>2595</ele>
        <time>2014-01-29T10:31:43Z</time>
      </trkpt>
      <trkpt lat="45.9522311" lon="7.6586186">
        <ele>2596.2</ele>
        <time>2014-01-29T10:31:44Z</time>
      </trkpt>
      <trkpt lat="45.9522554" lon="7.6586614">
        <ele>2597.2</ele>
        <time>2014-01-29T10:31:45Z</time>
      </trkpt>
      <trkpt lat="45.9522816" lon="7.658696">
        <ele>2598.6</ele>
        <time>2014-01-29T10:31:46Z</time>
      </trkpt>
      <trkpt lat="45.952292" lon="7.6587453">
        <ele>2599.8</ele>
        <time>2014-01-29T10:31:47Z</time>
      </trkpt>
      <trkpt lat="45.9523069" lon="7.6587869">
        <ele>2600.8</ele>
        <time>2014-01-29T10:31:48Z</time>
      </trkpt>
      <trkpt lat="45.952329" lon="7.658842">
        <ele>2602</ele>
        <time>2014-01-29T10:31:49Z</time>
      </trkpt>
      <trkpt lat="45.952343" lon="7.6588787">
        <ele>2603.2</ele>
        <time>2014-01-29T10:31:50Z</time>
      </trkpt>
      <trkpt lat="45.9523676" lon="7.6589249">
        <ele>2604.6</ele>
        <time>2014-01-29T10:31:51Z</time>
      </trkpt>
      <trkpt lat="45.9523871" lon="7.6589598">
        <ele>2606</ele>
        <time>2014-01-29T10:31:52Z</time>
      </trkpt>
      <trkpt lat="45.9524106" lon="7.6589998">
        <ele>2607.2</ele>
        <time>2014-01-29T10:31:53Z</time>
      </trkpt>
      <trkpt lat="45.952448" lon="7.6591017">
        <ele>2607.2</ele>
        <time>2014-01-29T10:31:55Z</time>
      </trkpt>
      <trkpt lat="45.9524694" lon="7.6591514">
        <ele>2608.2</ele>
        <time>2014-01-29T10:31:56Z</time>
      </trkpt>
      <trkpt lat="45.9525193" lon="7.6592936">
        <ele>2609.2</ele>
        <time>2014-01-29T10:31:59Z</time>
      </trkpt>
      <trkpt lat="45.9525538" lon="7.6593964">
        <ele>2610.4</ele>
        <time>2014-01-29T10:32:01Z</time>
      </trkpt>
      <trkpt lat="45.9525671" lon="7.6594485">
        <ele>2610.4</ele>
        <time>2014-01-29T10:32:02Z</time>
      </trkpt>
      <trkpt lat="45.952611" lon="7.6595509">
        <ele>2611.6</ele>
        <time>2014-01-29T10:32:04Z</time>
      </trkpt>
      <trkpt lat="45.9526227" lon="7.6596087">
        <ele>2612.6</ele>
        <time>2014-01-29T10:32:05Z</time>
      </trkpt>
      <trkpt lat="45.9526724" lon="7.6597522">
        <ele>2613.6</ele>
        <time>2014-01-29T10:32:08Z</time>
      </trkpt>
      <trkpt lat="45.9526966" lon="7.6598188">
        <ele>2614.8</ele>
        <time>2014-01-29T10:32:09Z</time>
      </trkpt>
      <trkpt lat="45.9527108" lon="7.6598615">
        <ele>2614.8</ele>
        <time>2014-01-29T10:32:10Z</time>
      </trkpt>
      <trkpt lat="45.9527307" lon="7.6599204">
        <ele>2616</ele>
        <time>2014-01-29T10:32:11Z</time>
      </trkpt>
      <trkpt lat="45.9527729" lon="7.6600233">
        <ele>2617.2</ele>
        <time>2014-01-29T10:32:13Z</time>
      </trkpt>
      <trkpt lat="45.9527924" lon="7.6600582">
        <ele>2618.2</ele>
        <time>2014-01-29T10:32:14Z</time>
      </trkpt>
      <trkpt lat="45.9528195" lon="7.6601086">
        <ele>2619.2</ele>
        <time>2014-01-29T10:32:15Z</time>
      </trkpt>
      <trkpt lat="45.9528454" lon="7.6601463">
        <ele>2619.2</ele>
        <time>2014-01-29T10:32:16Z</time>
      </trkpt>
      <trkpt lat="45.9528634" lon="7.6601993">
        <ele>2620.6</ele>
        <time>2014-01-29T10:32:17Z</time>
      </trkpt>
      <trkpt lat="45.9528807" lon="7.6602402">
        <ele>2621.8</ele>
        <time>2014-01-29T10:32:18Z</time>
      </trkpt>
      <trkpt lat="45.952907" lon="7.6602922">
        <ele>2622.8</ele>
        <time>2014-01-29T10:32:19Z</time>
      </trkpt>
      <trkpt lat="45.9529314" lon="7.6603327">
        <ele>2623.8</ele>
        <time>2014-01-29T10:32:20Z</time>
      </trkpt>
      <trkpt lat="45.952974" lon="7.6604258">
        <ele>2623.8</ele>
        <time>2014-01-29T10:32:22Z</time>
      </trkpt>
      <trkpt lat="45.9530075" lon="7.6605238">
        <ele>2623.8</ele>
        <time>2014-01-29T10:32:24Z</time>
      </trkpt>
      <trkpt lat="45.9530631" lon="7.6606904">
        <ele>2623.8</ele>
        <time>2014-01-29T10:32:27Z</time>
      </trkpt>
      <trkpt lat="45.9530959" lon="7.6607966">
        <ele>2620.8</ele>
        <time>2014-01-29T10:32:29Z</time>
      </trkpt>
      <trkpt lat="45.9531303" lon="7.6609006">
        <ele>2619.8</ele>
        <time>2014-01-29T10:32:31Z</time>
      </trkpt>
      <trkpt lat="45.9531784" lon="7.6610407">
        <ele>2619.8</ele>
        <time>2014-01-29T10:32:34Z</time>
      </trkpt>
      <trkpt lat="45.9532051" lon="7.6611022">
        <ele>2618.8</ele>
        <time>2014-01-29T10:32:35Z</time>
      </trkpt>
      <trkpt lat="45.9532533" lon="7.6612593">
        <ele>2618.8</ele>
        <time>2014-01-29T10:32:38Z</time>
      </trkpt>
      <trkpt lat="45.953293" lon="7.6613506">
        <ele>2618.8</ele>
        <time>2014-01-29T10:32:40Z</time>
      </trkpt>
      <trkpt lat="45.9534253" lon="7.6616176">
        <ele>2618.8</ele>
        <time>2014-01-29T10:32:46Z</time>
      </trkpt>
      <trkpt lat="45.9534541" lon="7.6616835">
        <ele>2622</ele>
        <time>2014-01-29T10:32:47Z</time>
      </trkpt>
      <trkpt lat="45.9534736" lon="7.6617196">
        <ele>2623</ele>
        <time>2014-01-29T10:32:48Z</time>
      </trkpt>
      <trkpt lat="45.9535028" lon="7.6617684">
        <ele>2624.2</ele>
        <time>2014-01-29T10:32:49Z</time>
      </trkpt>
      <trkpt lat="45.9535244" lon="7.6617958">
        <ele>2625.4</ele>
        <time>2014-01-29T10:32:50Z</time>
      </trkpt>
      <trkpt lat="45.9535541" lon="7.6618358">
        <ele>2626.6</ele>
        <time>2014-01-29T10:32:51Z</time>
      </trkpt>
      <trkpt lat="45.9535763" lon="7.6618775">
        <ele>2627.8</ele>
        <time>2014-01-29T10:32:52Z</time>
      </trkpt>
      <trkpt lat="45.9536004" lon="7.661922">
        <ele>2628.8</ele>
        <time>2014-01-29T10:32:53Z</time>
      </trkpt>
      <trkpt lat="45.9536261" lon="7.6619486">
        <ele>2630</ele>
        <time>2014-01-29T10:32:54Z</time>
      </trkpt>
      <trkpt lat="45.9536592" lon="7.6619827">
        <ele>2631</ele>
        <time>2014-01-29T10:32:55Z</time>
      </trkpt>
      <trkpt lat="45.9537203" lon="7.6620228">
        <ele>2633.4</ele>
        <time>2014-01-29T10:32:57Z</time>
      </trkpt>
      <trkpt lat="45.9537397" lon="7.6620549">
        <ele>2634.8</ele>
        <time>2014-01-29T10:32:58Z</time>
      </trkpt>
      <trkpt lat="45.953765" lon="7.6621067">
        <ele>2636</ele>
        <time>2014-01-29T10:32:59Z</time>
      </trkpt>
      <trkpt lat="45.9537801" lon="7.6621569">
        <ele>2637.2</ele>
        <time>2014-01-29T10:33:00Z</time>
      </trkpt>
      <trkpt lat="45.9538014" lon="7.6622206">
        <ele>2638.4</ele>
        <time>2014-01-29T10:33:01Z</time>
      </trkpt>
      <trkpt lat="45.9538163" lon="7.6622703">
        <ele>2639.8</ele>
        <time>2014-01-29T10:33:02Z</time>
      </trkpt>
      <trkpt lat="45.953837" lon="7.6623196">
        <ele>2640.8</ele>
        <time>2014-01-29T10:33:03Z</time>
      </trkpt>
      <trkpt lat="45.9538597" lon="7.6623555">
        <ele>2641.8</ele>
        <time>2014-01-29T10:33:04Z</time>
      </trkpt>
      <trkpt lat="45.9538605" lon="7.6624181">
        <ele>2643.2</ele>
        <time>2014-01-29T10:33:05Z</time>
      </trkpt>
      <trkpt lat="45.9538752" lon="7.662457">
        <ele>2644.4</ele>
        <time>2014-01-29T10:33:06Z</time>
      </trkpt>
      <trkpt lat="45.9538841" lon="7.6624835">
        <ele>2645.6</ele>
        <time>2014-01-29T10:33:07Z</time>
      </trkpt>
      <trkpt lat="45.9538947" lon="7.6625081">
        <ele>2646.8</ele>
        <time>2014-01-29T10:33:08Z</time>
      </trkpt>
      <trkpt lat="45.95391" lon="7.6625866">
        <ele>2648</ele>
        <time>2014-01-29T10:33:10Z</time>
      </trkpt>
      <trkpt lat="45.9539185" lon="7.6626318">
        <ele>2649.2</ele>
        <time>2014-01-29T10:33:11Z</time>
      </trkpt>
      <trkpt lat="45.9539312" lon="7.6626641">
        <ele>2650.4</ele>
        <time>2014-01-29T10:33:12Z</time>
      </trkpt>
      <trkpt lat="45.9539618" lon="7.6627429">
        <ele>2651.8</ele>
        <time>2014-01-29T10:33:14Z</time>
      </trkpt>
      <trkpt lat="45.9539733" lon="7.6628072">
        <ele>2653.2</ele>
        <time>2014-01-29T10:33:15Z</time>
      </trkpt>
      <trkpt lat="45.9539792" lon="7.6628459">
        <ele>2654.6</ele>
        <time>2014-01-29T10:33:16Z</time>
      </trkpt>
      <trkpt lat="45.954" lon="7.6629094">
        <ele>2655.8</ele>
        <time>2014-01-29T10:33:17Z</time>
      </trkpt>
      <trkpt lat="45.9540103" lon="7.6629429">
        <ele>2656.8</ele>
        <time>2014-01-29T10:33:18Z</time>
      </trkpt>
      <trkpt lat="45.9540333" lon="7.6629944">
        <ele>2659</ele>
        <time>2014-01-29T10:33:19Z</time>
      </trkpt>
      <trkpt lat="45.9540503" lon="7.6630319">
        <ele>2660.2</ele>
        <time>2014-01-29T10:33:20Z</time>
      </trkpt>
      <trkpt lat="45.9540732" lon="7.6630831">
        <ele>2661.2</ele>
        <time>2014-01-29T10:33:21Z</time>
      </trkpt>
      <trkpt lat="45.9540938" lon="7.6631184">
        <ele>2664</ele>
        <time>2014-01-29T10:33:22Z</time>
      </trkpt>
      <trkpt lat="45.9541187" lon="7.6631626">
        <ele>2665.2</ele>
        <time>2014-01-29T10:33:23Z</time>
      </trkpt>
      <trkpt lat="45.9541345" lon="7.6632013">
        <ele>2666.6</ele>
        <time>2014-01-29T10:33:24Z</time>
      </trkpt>
      <trkpt lat="45.9541594" lon="7.66326">
        <ele>2668</ele>
        <time>2014-01-29T10:33:25Z</time>
      </trkpt>
      <trkpt lat="45.9541812" lon="7.6633089">
        <ele>2669.6</ele>
        <time>2014-01-29T10:33:26Z</time>
      </trkpt>
      <trkpt lat="45.9542066" lon="7.6633384">
        <ele>2671.8</ele>
        <time>2014-01-29T10:33:27Z</time>
      </trkpt>
      <trkpt lat="45.9542267" lon="7.6633685">
        <ele>2672.8</ele>
        <time>2014-01-29T10:33:28Z</time>
      </trkpt>
      <trkpt lat="45.9542535" lon="7.6634128">
        <ele>2674</ele>
        <time>2014-01-29T10:33:29Z</time>
      </trkpt>
      <trkpt lat="45.9542708" lon="7.6634389">
        <ele>2675.6</ele>
        <time>2014-01-29T10:33:30Z</time>
      </trkpt>
      <trkpt lat="45.9543" lon="7.6634851">
        <ele>2678.2</ele>
        <time>2014-01-29T10:33:31Z</time>
      </trkpt>
      <trkpt lat="45.9543215" lon="7.6635183">
        <ele>2679.6</ele>
        <time>2014-01-29T10:33:32Z</time>
      </trkpt>
      <trkpt lat="45.9543473" lon="7.6635609">
        <ele>2681</ele>
        <time>2014-01-29T10:33:33Z</time>
      </trkpt>
      <trkpt lat="45.954371" lon="7.6636027">
        <ele>2682.2</ele>
        <time>2014-01-29T10:33:34Z</time>
      </trkpt>
      <trkpt lat="45.9543938" lon="7.6636383">
        <ele>2683.6</ele>
        <time>2014-01-29T10:33:35Z</time>
      </trkpt>
      <trkpt lat="45.9544184" lon="7.6636794">
        <ele>2685.2</ele>
        <time>2014-01-29T10:33:36Z</time>
      </trkpt>
      <trkpt lat="45.9544404" lon="7.6637148">
        <ele>2687.4</ele>
        <time>2014-01-29T10:33:37Z</time>
      </trkpt>
      <trkpt lat="45.9544594" lon="7.6637432">
        <ele>2690</ele>
        <time>2014-01-29T10:33:38Z</time>
      </trkpt>
      <trkpt lat="45.9544865" lon="7.6637891">
        <ele>2691</ele>
        <time>2014-01-29T10:33:39Z</time>
      </trkpt>
      <trkpt lat="45.9545045" lon="7.6638211">
        <ele>2693.2</ele>
        <time>2014-01-29T10:33:40Z</time>
      </trkpt>
      <trkpt lat="45.9545282" lon="7.6638641">
        <ele>2694.6</ele>
        <time>2014-01-29T10:33:41Z</time>
      </trkpt>
      <trkpt lat="45.9545481" lon="7.6639005">
        <ele>2696.8</ele>
        <time>2014-01-29T10:33:42Z</time>
      </trkpt>
      <trkpt lat="45.9545727" lon="7.6639432">
        <ele>2699.2</ele>
        <time>2014-01-29T10:33:43Z</time>
      </trkpt>
      <trkpt lat="45.9545917" lon="7.6639757">
        <ele>2700.4</ele>
        <time>2014-01-29T10:33:44Z</time>
      </trkpt>
      <trkpt lat="45.954618" lon="7.6640231">
        <ele>2703.2</ele>
        <time>2014-01-29T10:33:45Z</time>
      </trkpt>
      <trkpt lat="45.9546679" lon="7.6640936">
        <ele>2705.4</ele>
        <time>2014-01-29T10:33:47Z</time>
      </trkpt>
      <trkpt lat="45.9546868" lon="7.6641313">
        <ele>2705.4</ele>
        <time>2014-01-29T10:33:48Z</time>
      </trkpt>
      <trkpt lat="45.9547101" lon="7.6641812">
        <ele>2706.4</ele>
        <time>2014-01-29T10:33:49Z</time>
      </trkpt>
      <trkpt lat="45.9547687" lon="7.664311">
        <ele>2707.6</ele>
        <time>2014-01-29T10:33:52Z</time>
      </trkpt>
      <trkpt lat="45.954786" lon="7.6643652">
        <ele>2708.8</ele>
        <time>2014-01-29T10:33:53Z</time>
      </trkpt>
      <trkpt lat="45.9548199" lon="7.6644726">
        <ele>2710</ele>
        <time>2014-01-29T10:33:55Z</time>
      </trkpt>
      <trkpt lat="45.9548419" lon="7.6645204">
        <ele>2710</ele>
        <time>2014-01-29T10:33:56Z</time>
      </trkpt>
      <trkpt lat="45.9548526" lon="7.6645728">
        <ele>2711.2</ele>
        <time>2014-01-29T10:33:57Z</time>
      </trkpt>
      <trkpt lat="45.9548661" lon="7.6646133">
        <ele>2712.4</ele>
        <time>2014-01-29T10:33:58Z</time>
      </trkpt>
      <trkpt lat="45.9549055" lon="7.6647029">
        <ele>2713.4</ele>
        <time>2014-01-29T10:34:00Z</time>
      </trkpt>
      <trkpt lat="45.9549328" lon="7.66476">
        <ele>2714.6</ele>
        <time>2014-01-29T10:34:01Z</time>
      </trkpt>
      <trkpt lat="45.9549508" lon="7.664799">
        <ele>2715.8</ele>
        <time>2014-01-29T10:34:02Z</time>
      </trkpt>
      <trkpt lat="45.9549734" lon="7.6648469">
        <ele>2717</ele>
        <time>2014-01-29T10:34:03Z</time>
      </trkpt>
      <trkpt lat="45.9550138" lon="7.6649361">
        <ele>2718</ele>
        <time>2014-01-29T10:34:05Z</time>
      </trkpt>
      <trkpt lat="45.9550343" lon="7.6649774">
        <ele>2719.2</ele>
        <time>2014-01-29T10:34:06Z</time>
      </trkpt>
      <trkpt lat="45.9550501" lon="7.6650317">
        <ele>2720.6</ele>
        <time>2014-01-29T10:34:07Z</time>
      </trkpt>
      <trkpt lat="45.9550884" lon="7.6651159">
        <ele>2721.8</ele>
        <time>2014-01-29T10:34:09Z</time>
      </trkpt>
      <trkpt lat="45.9551012" lon="7.6651535">
        <ele>2723.2</ele>
        <time>2014-01-29T10:34:10Z</time>
      </trkpt>
      <trkpt lat="45.9551231" lon="7.6651985">
        <ele>2724.4</ele>
        <time>2014-01-29T10:34:11Z</time>
      </trkpt>
      <trkpt lat="45.955138" lon="7.6652301">
        <ele>2724.4</ele>
        <time>2014-01-29T10:34:12Z</time>
      </trkpt>
      <trkpt lat="45.9551631" lon="7.6652904">
        <ele>2726.4</ele>
        <time>2014-01-29T10:34:13Z</time>
      </trkpt>
      <trkpt lat="45.9551786" lon="7.6653286">
        <ele>2727.8</ele>
        <time>2014-01-29T10:34:14Z</time>
      </trkpt>
      <trkpt lat="45.955207" lon="7.665386">
        <ele>2729.2</ele>
        <time>2014-01-29T10:34:15Z</time>
      </trkpt>
      <trkpt lat="45.9552314" lon="7.665425">
        <ele>2730.4</ele>
        <time>2014-01-29T10:34:16Z</time>
      </trkpt>
      <trkpt lat="45.9552432" lon="7.6654713">
        <ele>2732.8</ele>
        <time>2014-01-29T10:34:17Z</time>
      </trkpt>
      <trkpt lat="45.9552583" lon="7.6655065">
        <ele>2734.2</ele>
        <time>2014-01-29T10:34:18Z</time>
      </trkpt>
      <trkpt lat="45.9552842" lon="7.6655616">
        <ele>2735.4</ele>
        <time>2014-01-29T10:34:19Z</time>
      </trkpt>
      <trkpt lat="45.9553263" lon="7.6656478">
        <ele>2738.2</ele>
        <time>2014-01-29T10:34:21Z</time>
      </trkpt>
      <trkpt lat="45.9553454" lon="7.6656866">
        <ele>2739.6</ele>
        <time>2014-01-29T10:34:22Z</time>
      </trkpt>
      <trkpt lat="45.9553681" lon="7.6657313">
        <ele>2741</ele>
        <time>2014-01-29T10:34:23Z</time>
      </trkpt>
      <trkpt lat="45.9553832" lon="7.6657651">
        <ele>2743</ele>
        <time>2014-01-29T10:34:24Z</time>
      </trkpt>
      <trkpt lat="45.9554102" lon="7.6658173">
        <ele>2744.6</ele>
        <time>2014-01-29T10:34:25Z</time>
      </trkpt>
      <trkpt lat="45.9554545" lon="7.6658891">
        <ele>2747.8</ele>
        <time>2014-01-29T10:34:27Z</time>
      </trkpt>
      <trkpt lat="45.9554714" lon="7.6659193">
        <ele>2749.6</ele>
        <time>2014-01-29T10:34:28Z</time>
      </trkpt>
      <trkpt lat="45.9554944" lon="7.6659655">
        <ele>2751.4</ele>
        <time>2014-01-29T10:34:29Z</time>
      </trkpt>
      <trkpt lat="45.9555085" lon="7.6659958">
        <ele>2753.6</ele>
        <time>2014-01-29T10:34:30Z</time>
      </trkpt>
      <trkpt lat="45.9555337" lon="7.6660437">
        <ele>2755.6</ele>
        <time>2014-01-29T10:34:31Z</time>
      </trkpt>
      <trkpt lat="45.955552" lon="7.666074">
        <ele>2758</ele>
        <time>2014-01-29T10:34:32Z</time>
      </trkpt>
      <trkpt lat="45.9555717" lon="7.6661165">
        <ele>2760.4</ele>
        <time>2014-01-29T10:34:33Z</time>
      </trkpt>
      <trkpt lat="45.955608" lon="7.666201">
        <ele>2765</ele>
        <time>2014-01-29T10:34:35Z</time>
      </trkpt>
      <trkpt lat="45.9556289" lon="7.6662411">
        <ele>2766.2</ele>
        <time>2014-01-29T10:34:36Z</time>
      </trkpt>
      <trkpt lat="45.9556483" lon="7.6662762">
        <ele>2769.4</ele>
        <time>2014-01-29T10:34:37Z</time>
      </trkpt>
      <trkpt lat="45.95566" lon="7.6663055">
        <ele>2771.8</ele>
        <time>2014-01-29T10:34:38Z</time>
      </trkpt>
      <trkpt lat="45.9556777" lon="7.6663684">
        <ele>2774.6</ele>
        <time>2014-01-29T10:34:39Z</time>
      </trkpt>
      <trkpt lat="45.9556868" lon="7.6664108">
        <ele>2777.4</ele>
        <time>2014-01-29T10:34:40Z</time>
      </trkpt>
      <trkpt lat="45.9557026" lon="7.6664691">
        <ele>2779.8</ele>
        <time>2014-01-29T10:34:41Z</time>
      </trkpt>
      <trkpt lat="45.9557135" lon="7.6665066">
        <ele>2782.4</ele>
        <time>2014-01-29T10:34:42Z</time>
      </trkpt>
      <trkpt lat="45.955738" lon="7.6665553">
        <ele>2785</ele>
        <time>2014-01-29T10:34:43Z</time>
      </trkpt>
      <trkpt lat="45.955752" lon="7.666594">
        <ele>2787.8</ele>
        <time>2014-01-29T10:34:44Z</time>
      </trkpt>
      <trkpt lat="45.955771" lon="7.6666443">
        <ele>2790.2</ele>
        <time>2014-01-29T10:34:45Z</time>
      </trkpt>
      <trkpt lat="45.95579" lon="7.6666851">
        <ele>2791.6</ele>
        <time>2014-01-29T10:34:46Z</time>
      </trkpt>
      <trkpt lat="45.9558023" lon="7.6667316">
        <ele>2795</ele>
        <time>2014-01-29T10:34:47Z</time>
      </trkpt>
      <trkpt lat="45.9558138" lon="7.666773">
        <ele>2797.8</ele>
        <time>2014-01-29T10:34:48Z</time>
      </trkpt>
      <trkpt lat="45.9558313" lon="7.6668257">
        <ele>2800.2</ele>
        <time>2014-01-29T10:34:49Z</time>
      </trkpt>
      <trkpt lat="45.9558436" lon="7.6668654">
        <ele>2802.8</ele>
        <time>2014-01-29T10:34:50Z</time>
      </trkpt>
      <trkpt lat="45.9558605" lon="7.6669172">
        <ele>2805.4</ele>
        <time>2014-01-29T10:34:51Z</time>
      </trkpt>
      <trkpt lat="45.9558746" lon="7.6669557">
        <ele>2808.4</ele>
        <time>2014-01-29T10:34:52Z</time>
      </trkpt>
      <trkpt lat="45.9558917" lon="7.6669977">
        <ele>2811</ele>
        <time>2014-01-29T10:34:53Z</time>
      </trkpt>
      <trkpt lat="45.9559043" lon="7.6670303">
        <ele>2814</ele>
        <time>2014-01-29T10:34:54Z</time>
      </trkpt>
      <trkpt lat="45.9559265" lon="7.667081">
        <ele>2816.6</ele>
        <time>2014-01-29T10:34:55Z</time>
      </trkpt>
      <trkpt lat="45.9559452" lon="7.667122">
        <ele>2817.8</ele>
        <time>2014-01-29T10:34:56Z</time>
      </trkpt>
      <trkpt lat="45.9559586" lon="7.6671624">
        <ele>2822</ele>
        <time>2014-01-29T10:34:57Z</time>
      </trkpt>
      <trkpt lat="45.9559704" lon="7.6671902">
        <ele>2824.6</ele>
        <time>2014-01-29T10:34:58Z</time>
      </trkpt>
      <trkpt lat="45.9559916" lon="7.6672357">
        <ele>2827.6</ele>
        <time>2014-01-29T10:34:59Z</time>
      </trkpt>
      <trkpt lat="45.9560027" lon="7.667259">
        <ele>2831.2</ele>
        <time>2014-01-29T10:35:00Z</time>
      </trkpt>
      <trkpt lat="45.9560229" lon="7.667303">
        <ele>2834.6</ele>
        <time>2014-01-29T10:35:01Z</time>
      </trkpt>
      <trkpt lat="45.9560368" lon="7.6673339">
        <ele>2838</ele>
        <time>2014-01-29T10:35:02Z</time>
      </trkpt>
      <trkpt lat="45.9560551" lon="7.6673742">
        <ele>2840.6</ele>
        <time>2014-01-29T10:35:03Z</time>
      </trkpt>
      <trkpt lat="45.9560736" lon="7.6674142">
        <ele>2842.4</ele>
        <time>2014-01-29T10:35:04Z</time>
      </trkpt>
      <trkpt lat="45.9560863" lon="7.6674438">
        <ele>2847.4</ele>
        <time>2014-01-29T10:35:05Z</time>
      </trkpt>
      <trkpt lat="45.9561041" lon="7.6674828">
        <ele>2849.2</ele>
        <time>2014-01-29T10:35:06Z</time>
      </trkpt>
      <trkpt lat="45.9561188" lon="7.6675122">
        <ele>2854.2</ele>
        <time>2014-01-29T10:35:07Z</time>
      </trkpt>
      <trkpt lat="45.9561315" lon="7.6675401">
        <ele>2857.8</ele>
        <time>2014-01-29T10:35:08Z</time>
      </trkpt>
      <trkpt lat="45.9561506" lon="7.6675828">
        <ele>2860.6</ele>
        <time>2014-01-29T10:35:09Z</time>
      </trkpt>
      <trkpt lat="45.9561627" lon="7.6676084">
        <ele>2864.4</ele>
        <time>2014-01-29T10:35:10Z</time>
      </trkpt>
      <trkpt lat="45.9561797" lon="7.6676457">
        <ele>2867.4</ele>
        <time>2014-01-29T10:35:11Z</time>
      </trkpt>
      <trkpt lat="45.9561973" lon="7.6676843">
        <ele>2869.2</ele>
        <time>2014-01-29T10:35:12Z</time>
      </trkpt>
      <trkpt lat="45.9562123" lon="7.6677168">
        <ele>2874</ele>
        <time>2014-01-29T10:35:13Z</time>
      </trkpt>
      <trkpt lat="45.9562268" lon="7.6677446">
        <ele>2877.6</ele>
        <time>2014-01-29T10:35:14Z</time>
      </trkpt>
      <trkpt lat="45.9562474" lon="7.6677866">
        <ele>2880</ele>
        <time>2014-01-29T10:35:15Z</time>
      </trkpt>
      <trkpt lat="45.9562655" lon="7.6678231">
        <ele>2881.2</ele>
        <time>2014-01-29T10:35:16Z</time>
      </trkpt>
      <trkpt lat="45.9562815" lon="7.6678607">
        <ele>2885.6</ele>
        <time>2014-01-29T10:35:17Z</time>
      </trkpt>
      <trkpt lat="45.9562946" lon="7.6678889">
        <ele>2888.2</ele>
        <time>2014-01-29T10:35:18Z</time>
      </trkpt>
      <trkpt lat="45.956316" lon="7.6679337">
        <ele>2891.2</ele>
        <time>2014-01-29T10:35:19Z</time>
      </trkpt>
      <trkpt lat="45.9563316" lon="7.6679662">
        <ele>2894</ele>
        <time>2014-01-29T10:35:20Z</time>
      </trkpt>
      <trkpt lat="45.9563509" lon="7.6680086">
        <ele>2896.6</ele>
        <time>2014-01-29T10:35:21Z</time>
      </trkpt>
      <trkpt lat="45.9563662" lon="7.6680405">
        <ele>2899.8</ele>
        <time>2014-01-29T10:35:22Z</time>
      </trkpt>
      <trkpt lat="45.956386" lon="7.6680789">
        <ele>2902</ele>
        <time>2014-01-29T10:35:23Z</time>
      </trkpt>
      <trkpt lat="45.9564011" lon="7.6681065">
        <ele>2904.6</ele>
        <time>2014-01-29T10:35:24Z</time>
      </trkpt>
      <trkpt lat="45.9564247" lon="7.6681549">
        <ele>2907</ele>
        <time>2014-01-29T10:35:25Z</time>
      </trkpt>
      <trkpt lat="45.9564435" lon="7.668195">
        <ele>2908.6</ele>
        <time>2014-01-29T10:35:26Z</time>
      </trkpt>
      <trkpt lat="45.9564601" lon="7.668228">
        <ele>2911.8</ele>
        <time>2014-01-29T10:35:27Z</time>
      </trkpt>
      <trkpt lat="45.9564749" lon="7.6682595">
        <ele>2913.4</ele>
        <time>2014-01-29T10:35:28Z</time>
      </trkpt>
      <trkpt lat="45.9564945" lon="7.6683053">
        <ele>2916.6</ele>
        <time>2014-01-29T10:35:29Z</time>
      </trkpt>
      <trkpt lat="45.9565068" lon="7.6683349">
        <ele>2918</ele>
        <time>2014-01-29T10:35:30Z</time>
      </trkpt>
      <trkpt lat="45.9565284" lon="7.6683834">
        <ele>2921.2</ele>
        <time>2014-01-29T10:35:31Z</time>
      </trkpt>
      <trkpt lat="45.956545" lon="7.6684167">
        <ele>2923.8</ele>
        <time>2014-01-29T10:35:32Z</time>
      </trkpt>
      <trkpt lat="45.9565612" lon="7.6684637">
        <ele>2925.4</ele>
        <time>2014-01-29T10:35:33Z</time>
      </trkpt>
      <trkpt lat="45.9565948" lon="7.6685275">
        <ele>2928.8</ele>
        <time>2014-01-29T10:35:35Z</time>
      </trkpt>
      <trkpt lat="45.9566114" lon="7.668558">
        <ele>2928.8</ele>
        <time>2014-01-29T10:35:36Z</time>
      </trkpt>
      <trkpt lat="45.9566311" lon="7.6685989">
        <ele>2932.4</ele>
        <time>2014-01-29T10:35:37Z</time>
      </trkpt>
      <trkpt lat="45.9566436" lon="7.6686245">
        <ele>2934.2</ele>
        <time>2014-01-29T10:35:38Z</time>
      </trkpt>
      <trkpt lat="45.9566673" lon="7.6686636">
        <ele>2935.8</ele>
        <time>2014-01-29T10:35:39Z</time>
      </trkpt>
      <trkpt lat="45.9566791" lon="7.6686802">
        <ele>2937.4</ele>
        <time>2014-01-29T10:35:40Z</time>
      </trkpt>
      <trkpt lat="45.9566974" lon="7.6687077">
        <ele>2938.8</ele>
        <time>2014-01-29T10:35:41Z</time>
      </trkpt>
      <trkpt lat="45.95671" lon="7.6687251">
        <ele>2940</ele>
        <time>2014-01-29T10:35:42Z</time>
      </trkpt>
      <trkpt lat="45.9567277" lon="7.6687555">
        <ele>2941</ele>
        <time>2014-01-29T10:35:43Z</time>
      </trkpt>
      <trkpt lat="45.9567606" lon="7.6688028">
        <ele>2943</ele>
        <time>2014-01-29T10:35:45Z</time>
      </trkpt>
      <trkpt lat="45.9567994" lon="7.668853">
        <ele>2944.8</ele>
        <time>2014-01-29T10:35:47Z</time>
      </trkpt>
      <trkpt lat="45.9568165" lon="7.6688736">
        <ele>2944.8</ele>
        <time>2014-01-29T10:35:48Z</time>
      </trkpt>
      <trkpt lat="45.9568309" lon="7.6688848">
        <ele>2946</ele>
        <time>2014-01-29T10:35:49Z</time>
      </trkpt>
      <trkpt lat="45.9568377" lon="7.668884">
        <ele>2946</ele>
        <time>2014-01-29T10:35:50Z</time>
      </trkpt>
      <trkpt lat="45.9568427" lon="7.668901">
        <ele>2946</ele>
        <time>2014-01-29T10:35:52Z</time>
      </trkpt>
      <trkpt lat="45.9568556" lon="7.6689162">
        <ele>2946</ele>
        <time>2014-01-29T10:35:53Z</time>
      </trkpt>
      <trkpt lat="45.9568924" lon="7.6690128">
        <ele>2946</ele>
        <time>2014-01-29T10:35:56Z</time>
      </trkpt>
      <trkpt lat="45.9569076" lon="7.6691602">
        <ele>2946</ele>
        <time>2014-01-29T10:36:02Z</time>
      </trkpt>
      <trkpt lat="45.9568969" lon="7.6691598">
        <ele>2946</ele>
        <time>2014-01-29T10:36:09Z</time>
      </trkpt>
      <trkpt lat="45.9568948" lon="7.6691681">
        <ele>2946</ele>
        <time>2014-01-29T10:36:18Z</time>
      </trkpt>
      <trkpt lat="45.9568902" lon="7.6691702">
        <ele>2946</ele>
        <time>2014-01-29T10:36:28Z</time>
      </trkpt>
      <trkpt lat="45.9568883" lon="7.6691856">
        <ele>2946</ele>
        <time>2014-01-29T10:36:42Z</time>
      </trkpt>
      <trkpt lat="45.956887" lon="7.6691965">
        <ele>2946</ele>
        <time>2014-01-29T10:36:58Z</time>
      </trkpt>
      <trkpt lat="45.956887" lon="7.6691986">
        <ele>2944</ele>
        <time>2014-01-29T10:37:01Z</time>
      </trkpt>
      <trkpt lat="45.9568864" lon="7.6692063">
        <ele>2944</ele>
        <time>2014-01-29T10:37:13Z</time>
      </trkpt>
      <trkpt lat="45.9568867" lon="7.6692141">
        <ele>2944</ele>
        <time>2014-01-29T10:37:26Z</time>
      </trkpt>
      <trkpt lat="45.9568864" lon="7.669221">
        <ele>2944</ele>
        <time>2014-01-29T10:37:28Z</time>
      </trkpt>
      <trkpt lat="45.9568862" lon="7.6692272">
        <ele>2944</ele>
        <time>2014-01-29T10:37:35Z</time>
      </trkpt>
      <trkpt lat="45.9568794" lon="7.6692557">
        <ele>2943</ele>
        <time>2014-01-29T10:37:41Z</time>
      </trkpt>
      <trkpt lat="45.9568593" lon="7.669283">
        <ele>2943</ele>
        <time>2014-01-29T10:37:45Z</time>
      </trkpt>
      <trkpt lat="45.956794" lon="7.6693553">
        <ele>2943</ele>
        <time>2014-01-29T10:37:54Z</time>
      </trkpt>
      <trkpt lat="45.9567813" lon="7.6693669">
        <ele>2941.8</ele>
        <time>2014-01-29T10:37:55Z</time>
      </trkpt>
      <trkpt lat="45.9567449" lon="7.6693772">
        <ele>2941.8</ele>
        <time>2014-01-29T10:37:57Z</time>
      </trkpt>
      <trkpt lat="45.9566958" lon="7.6693631">
        <ele>2940.8</ele>
        <time>2014-01-29T10:37:59Z</time>
      </trkpt>
      <trkpt lat="45.9566141" lon="7.6693376">
        <ele>2940.8</ele>
        <time>2014-01-29T10:38:02Z</time>
      </trkpt>
      <trkpt lat="45.9566147" lon="7.6693643">
        <ele>2940.8</ele>
        <time>2014-01-29T10:38:03Z</time>
      </trkpt>
      <trkpt lat="45.956585" lon="7.6693831">
        <ele>2939.8</ele>
        <time>2014-01-29T10:38:05Z</time>
      </trkpt>
      <trkpt lat="45.9565129" lon="7.6693866">
        <ele>2938.6</ele>
        <time>2014-01-29T10:38:07Z</time>
      </trkpt>
      <trkpt lat="45.9564746" lon="7.6693882">
        <ele>2937.2</ele>
        <time>2014-01-29T10:38:08Z</time>
      </trkpt>
      <trkpt lat="45.9563945" lon="7.6693959">
        <ele>2935.4</ele>
        <time>2014-01-29T10:38:09Z</time>
      </trkpt>
      <trkpt lat="45.9563263" lon="7.6694046">
        <ele>2933.8</ele>
        <time>2014-01-29T10:38:10Z</time>
      </trkpt>
      <trkpt lat="45.9562479" lon="7.6694349">
        <ele>2931.4</ele>
        <time>2014-01-29T10:38:11Z</time>
      </trkpt>
      <trkpt lat="45.9561645" lon="7.6694655">
        <ele>2930</ele>
        <time>2014-01-29T10:38:12Z</time>
      </trkpt>
      <trkpt lat="45.9560738" lon="7.6695333">
        <ele>2928.6</ele>
        <time>2014-01-29T10:38:13Z</time>
      </trkpt>
      <trkpt lat="45.9559048" lon="7.6696282">
        <ele>2925.6</ele>
        <time>2014-01-29T10:38:15Z</time>
      </trkpt>
      <trkpt lat="45.955819" lon="7.669671">
        <ele>2924.4</ele>
        <time>2014-01-29T10:38:16Z</time>
      </trkpt>
      <trkpt lat="45.9557658" lon="7.669752">
        <ele>2923.4</ele>
        <time>2014-01-29T10:38:17Z</time>
      </trkpt>
      <trkpt lat="45.9557106" lon="7.6697964">
        <ele>2922.2</ele>
        <time>2014-01-29T10:38:18Z</time>
      </trkpt>
      <trkpt lat="45.9555017" lon="7.6699986">
        <ele>2919.8</ele>
        <time>2014-01-29T10:38:21Z</time>
      </trkpt>
      <trkpt lat="45.9553654" lon="7.6701304">
        <ele>2917.2</ele>
        <time>2014-01-29T10:38:23Z</time>
      </trkpt>
      <trkpt lat="45.9553042" lon="7.6701945">
        <ele>2915.8</ele>
        <time>2014-01-29T10:38:24Z</time>
      </trkpt>
      <trkpt lat="45.9551401" lon="7.6703597">
        <ele>2914.6</ele>
        <time>2014-01-29T10:38:26Z</time>
      </trkpt>
      <trkpt lat="45.9550367" lon="7.6704101">
        <ele>2909.8</ele>
        <time>2014-01-29T10:38:27Z</time>
      </trkpt>
      <trkpt lat="45.9549768" lon="7.6704768">
        <ele>2908</ele>
        <time>2014-01-29T10:38:28Z</time>
      </trkpt>
      <trkpt lat="45.9548979" lon="7.6706077">
        <ele>2908</ele>
        <time>2014-01-29T10:38:29Z</time>
      </trkpt>
      <trkpt lat="45.9548444" lon="7.6706872">
        <ele>2907</ele>
        <time>2014-01-29T10:38:30Z</time>
      </trkpt>
      <trkpt lat="45.9547559" lon="7.6708014">
        <ele>2903.6</ele>
        <time>2014-01-29T10:38:31Z</time>
      </trkpt>
      <trkpt lat="45.9546844" lon="7.6708947">
        <ele>2902.6</ele>
        <time>2014-01-29T10:38:32Z</time>
      </trkpt>
      <trkpt lat="45.9546652" lon="7.671015">
        <ele>2902.6</ele>
        <time>2014-01-29T10:38:33Z</time>
      </trkpt>
      <trkpt lat="45.9546367" lon="7.6710889">
        <ele>2901.4</ele>
        <time>2014-01-29T10:38:34Z</time>
      </trkpt>
      <trkpt lat="45.9545819" lon="7.6711884">
        <ele>2900</ele>
        <time>2014-01-29T10:38:35Z</time>
      </trkpt>
      <trkpt lat="45.954531" lon="7.6712697">
        <ele>2898.6</ele>
        <time>2014-01-29T10:38:36Z</time>
      </trkpt>
      <trkpt lat="45.9545151" lon="7.6713387">
        <ele>2898.6</ele>
        <time>2014-01-29T10:38:37Z</time>
      </trkpt>
      <trkpt lat="45.9544789" lon="7.6713526">
        <ele>2897.2</ele>
        <time>2014-01-29T10:38:38Z</time>
      </trkpt>
      <trkpt lat="45.9544101" lon="7.6713333">
        <ele>2895.2</ele>
        <time>2014-01-29T10:38:39Z</time>
      </trkpt>
      <trkpt lat="45.9543576" lon="7.6713236">
        <ele>2892</ele>
        <time>2014-01-29T10:38:40Z</time>
      </trkpt>
      <trkpt lat="45.954287" lon="7.6713114">
        <ele>2890.8</ele>
        <time>2014-01-29T10:38:41Z</time>
      </trkpt>
      <trkpt lat="45.9542263" lon="7.6712943">
        <ele>2889</ele>
        <time>2014-01-29T10:38:42Z</time>
      </trkpt>
      <trkpt lat="45.9541665" lon="7.6711821">
        <ele>2885</ele>
        <time>2014-01-29T10:38:43Z</time>
      </trkpt>
      <trkpt lat="45.954113" lon="7.6711444">
        <ele>2883.4</ele>
        <time>2014-01-29T10:38:44Z</time>
      </trkpt>
      <trkpt lat="45.9540462" lon="7.6710475">
        <ele>2879.4</ele>
        <time>2014-01-29T10:38:45Z</time>
      </trkpt>
      <trkpt lat="45.9539989" lon="7.6709501">
        <ele>2878.2</ele>
        <time>2014-01-29T10:38:46Z</time>
      </trkpt>
      <trkpt lat="45.9539022" lon="7.6709258">
        <ele>2875</ele>
        <time>2014-01-29T10:38:47Z</time>
      </trkpt>
      <trkpt lat="45.9538213" lon="7.6708992">
        <ele>2873.6</ele>
        <time>2014-01-29T10:38:48Z</time>
      </trkpt>
      <trkpt lat="45.9537877" lon="7.6707671">
        <ele>2868.6</ele>
        <time>2014-01-29T10:38:49Z</time>
      </trkpt>
      <trkpt lat="45.9537471" lon="7.6707168">
        <ele>2867.4</ele>
        <time>2014-01-29T10:38:50Z</time>
      </trkpt>
      <trkpt lat="45.9536693" lon="7.6706755">
        <ele>2864</ele>
        <time>2014-01-29T10:38:51Z</time>
      </trkpt>
      <trkpt lat="45.9535468" lon="7.6705791">
        <ele>2859.6</ele>
        <time>2014-01-29T10:38:53Z</time>
      </trkpt>
      <trkpt lat="45.9534924" lon="7.6705429">
        <ele>2857.8</ele>
        <time>2014-01-29T10:38:54Z</time>
      </trkpt>
      <trkpt lat="45.9534142" lon="7.6704712">
        <ele>2853.2</ele>
        <time>2014-01-29T10:38:55Z</time>
      </trkpt>
      <trkpt lat="45.9533505" lon="7.6704087">
        <ele>2851.8</ele>
        <time>2014-01-29T10:38:56Z</time>
      </trkpt>
      <trkpt lat="45.9532661" lon="7.6703907">
        <ele>2850.8</ele>
        <time>2014-01-29T10:38:57Z</time>
      </trkpt>
      <trkpt lat="45.953188" lon="7.6703505">
        <ele>2849</ele>
        <time>2014-01-29T10:38:58Z</time>
      </trkpt>
      <trkpt lat="45.9531267" lon="7.6704087">
        <ele>2847.8</ele>
        <time>2014-01-29T10:38:59Z</time>
      </trkpt>
      <trkpt lat="45.9530581" lon="7.6704286">
        <ele>2846.2</ele>
        <time>2014-01-29T10:39:00Z</time>
      </trkpt>
      <trkpt lat="45.9529784" lon="7.6704592">
        <ele>2843.2</ele>
        <time>2014-01-29T10:39:01Z</time>
      </trkpt>
      <trkpt lat="45.9528412" lon="7.6705877">
        <ele>2840.8</ele>
        <time>2014-01-29T10:39:03Z</time>
      </trkpt>
      <trkpt lat="45.9527765" lon="7.6706424">
        <ele>2838.8</ele>
        <time>2014-01-29T10:39:04Z</time>
      </trkpt>
      <trkpt lat="45.9526759" lon="7.6707409">
        <ele>2834.2</ele>
        <time>2014-01-29T10:39:05Z</time>
      </trkpt>
      <trkpt lat="45.9525925" lon="7.67083">
        <ele>2833</ele>
        <time>2014-01-29T10:39:06Z</time>
      </trkpt>
      <trkpt lat="45.9525314" lon="7.6709713">
        <ele>2833</ele>
        <time>2014-01-29T10:39:07Z</time>
      </trkpt>
      <trkpt lat="45.9523619" lon="7.6711291">
        <ele>2829.8</ele>
        <time>2014-01-29T10:39:09Z</time>
      </trkpt>
      <trkpt lat="45.9522326" lon="7.6712867">
        <ele>2828.4</ele>
        <time>2014-01-29T10:39:11Z</time>
      </trkpt>
      <trkpt lat="45.9521761" lon="7.6713821">
        <ele>2828.4</ele>
        <time>2014-01-29T10:39:12Z</time>
      </trkpt>
      <trkpt lat="45.9521149" lon="7.6714767">
        <ele>2828.4</ele>
        <time>2014-01-29T10:39:13Z</time>
      </trkpt>
      <trkpt lat="45.9519911" lon="7.6716378">
        <ele>2826.2</ele>
        <time>2014-01-29T10:39:15Z</time>
      </trkpt>
      <trkpt lat="45.9518856" lon="7.6718137">
        <ele>2824</ele>
        <time>2014-01-29T10:39:17Z</time>
      </trkpt>
      <trkpt lat="45.9518378" lon="7.671911">
        <ele>2822.8</ele>
        <time>2014-01-29T10:39:18Z</time>
      </trkpt>
      <trkpt lat="45.9518238" lon="7.6720239">
        <ele>2822.8</ele>
        <time>2014-01-29T10:39:19Z</time>
      </trkpt>
      <trkpt lat="45.9517265" lon="7.6721046">
        <ele>2819</ele>
        <time>2014-01-29T10:39:21Z</time>
      </trkpt>
      <trkpt lat="45.9516613" lon="7.6721082">
        <ele>2817.8</ele>
        <time>2014-01-29T10:39:22Z</time>
      </trkpt>
      <trkpt lat="45.9516" lon="7.6721616">
        <ele>2815.2</ele>
        <time>2014-01-29T10:39:23Z</time>
      </trkpt>
      <trkpt lat="45.9515344" lon="7.6721869">
        <ele>2813.8</ele>
        <time>2014-01-29T10:39:24Z</time>
      </trkpt>
      <trkpt lat="45.9514412" lon="7.6721603">
        <ele>2810.8</ele>
        <time>2014-01-29T10:39:25Z</time>
      </trkpt>
      <trkpt lat="45.9513637" lon="7.6721825">
        <ele>2809</ele>
        <time>2014-01-29T10:39:26Z</time>
      </trkpt>
      <trkpt lat="45.9512816" lon="7.6721442">
        <ele>2805.8</ele>
        <time>2014-01-29T10:39:27Z</time>
      </trkpt>
      <trkpt lat="45.9512" lon="7.6721029">
        <ele>2804</ele>
        <time>2014-01-29T10:39:28Z</time>
      </trkpt>
      <trkpt lat="45.9511162" lon="7.6721227">
        <ele>2801</ele>
        <time>2014-01-29T10:39:29Z</time>
      </trkpt>
      <trkpt lat="45.9510312" lon="7.6721069">
        <ele>2799.4</ele>
        <time>2014-01-29T10:39:30Z</time>
      </trkpt>
      <trkpt lat="45.9509345" lon="7.6720716">
        <ele>2796.4</ele>
        <time>2014-01-29T10:39:31Z</time>
      </trkpt>
      <trkpt lat="45.9507418" lon="7.6720304">
        <ele>2791.8</ele>
        <time>2014-01-29T10:39:33Z</time>
      </trkpt>
      <trkpt lat="45.9506455" lon="7.6719861">
        <ele>2791.8</ele>
        <time>2014-01-29T10:39:34Z</time>
      </trkpt>
      <trkpt lat="45.9505538" lon="7.6719975">
        <ele>2787.8</ele>
        <time>2014-01-29T10:39:35Z</time>
      </trkpt>
      <trkpt lat="45.9503701" lon="7.6719464">
        <ele>2784.2</ele>
        <time>2014-01-29T10:39:37Z</time>
      </trkpt>
      <trkpt lat="45.9502854" lon="7.6719414">
        <ele>2782.8</ele>
        <time>2014-01-29T10:39:38Z</time>
      </trkpt>
      <trkpt lat="45.9502107" lon="7.67188">
        <ele>2781</ele>
        <time>2014-01-29T10:39:39Z</time>
      </trkpt>
      <trkpt lat="45.9501563" lon="7.6718643">
        <ele>2780</ele>
        <time>2014-01-29T10:39:40Z</time>
      </trkpt>
      <trkpt lat="45.9500719" lon="7.6718359">
        <ele>2778.6</ele>
        <time>2014-01-29T10:39:41Z</time>
      </trkpt>
      <trkpt lat="45.9498956" lon="7.6717764">
        <ele>2775.8</ele>
        <time>2014-01-29T10:39:43Z</time>
      </trkpt>
      <trkpt lat="45.9498306" lon="7.6717745">
        <ele>2774.2</ele>
        <time>2014-01-29T10:39:44Z</time>
      </trkpt>
      <trkpt lat="45.9497343" lon="7.6717484">
        <ele>2772.8</ele>
        <time>2014-01-29T10:39:45Z</time>
      </trkpt>
      <trkpt lat="45.9495926" lon="7.6717179">
        <ele>2770.2</ele>
        <time>2014-01-29T10:39:47Z</time>
      </trkpt>
      <trkpt lat="45.9495271" lon="7.6717356">
        <ele>2770.2</ele>
        <time>2014-01-29T10:39:48Z</time>
      </trkpt>
      <trkpt lat="45.9494662" lon="7.671683">
        <ele>2767.4</ele>
        <time>2014-01-29T10:39:49Z</time>
      </trkpt>
      <trkpt lat="45.9494193" lon="7.6716698">
        <ele>2767.4</ele>
        <time>2014-01-29T10:39:50Z</time>
      </trkpt>
      <trkpt lat="45.9493421" lon="7.6716892">
        <ele>2764.8</ele>
        <time>2014-01-29T10:39:51Z</time>
      </trkpt>
      <trkpt lat="45.9492812" lon="7.6717209">
        <ele>2763.6</ele>
        <time>2014-01-29T10:39:52Z</time>
      </trkpt>
      <trkpt lat="45.9492202" lon="7.6716986">
        <ele>2761.2</ele>
        <time>2014-01-29T10:39:53Z</time>
      </trkpt>
      <trkpt lat="45.9491563" lon="7.6716764">
        <ele>2758.8</ele>
        <time>2014-01-29T10:39:54Z</time>
      </trkpt>
      <trkpt lat="45.9490663" lon="7.6716878">
        <ele>2756.6</ele>
        <time>2014-01-29T10:39:55Z</time>
      </trkpt>
      <trkpt lat="45.9489982" lon="7.6717142">
        <ele>2755.6</ele>
        <time>2014-01-29T10:39:56Z</time>
      </trkpt>
      <trkpt lat="45.9489137" lon="7.6716493">
        <ele>2751.6</ele>
        <time>2014-01-29T10:39:57Z</time>
      </trkpt>
      <trkpt lat="45.9488553" lon="7.6716462">
        <ele>2749</ele>
        <time>2014-01-29T10:39:58Z</time>
      </trkpt>
      <trkpt lat="45.9487683" lon="7.6716499">
        <ele>2746.8</ele>
        <time>2014-01-29T10:39:59Z</time>
      </trkpt>
      <trkpt lat="45.9486983" lon="7.6716492">
        <ele>2745</ele>
        <time>2014-01-29T10:40:00Z</time>
      </trkpt>
      <trkpt lat="45.9486192" lon="7.6715804">
        <ele>2742.8</ele>
        <time>2014-01-29T10:40:01Z</time>
      </trkpt>
      <trkpt lat="45.9485441" lon="7.671564">
        <ele>2741.6</ele>
        <time>2014-01-29T10:40:02Z</time>
      </trkpt>
      <trkpt lat="45.9485006" lon="7.6715375">
        <ele>2740.2</ele>
        <time>2014-01-29T10:40:03Z</time>
      </trkpt>
      <trkpt lat="45.9484678" lon="7.6714928">
        <ele>2740.2</ele>
        <time>2014-01-29T10:40:04Z</time>
      </trkpt>
      <trkpt lat="45.9484186" lon="7.6714528">
        <ele>2738.6</ele>
        <time>2014-01-29T10:40:05Z</time>
      </trkpt>
      <trkpt lat="45.9483444" lon="7.6714074">
        <ele>2737.2</ele>
        <time>2014-01-29T10:40:07Z</time>
      </trkpt>
      <trkpt lat="45.9483066" lon="7.671314">
        <ele>2735.2</ele>
        <time>2014-01-29T10:40:10Z</time>
      </trkpt>
      <trkpt lat="45.9483113" lon="7.6713288">
        <ele>2735.2</ele>
        <time>2014-01-29T10:40:11Z</time>
      </trkpt>
      <trkpt lat="45.9482963" lon="7.6713179">
        <ele>2735.2</ele>
        <time>2014-01-29T10:40:19Z</time>
      </trkpt>
      <trkpt lat="45.9482766" lon="7.6713099">
        <ele>2733.8</ele>
        <time>2014-01-29T10:40:20Z</time>
      </trkpt>
      <trkpt lat="45.948236" lon="7.6713106">
        <ele>2732.4</ele>
        <time>2014-01-29T10:40:21Z</time>
      </trkpt>
      <trkpt lat="45.9482006" lon="7.6713183">
        <ele>2731.2</ele>
        <time>2014-01-29T10:40:22Z</time>
      </trkpt>
      <trkpt lat="45.948158" lon="7.6712349">
        <ele>2729.8</ele>
        <time>2014-01-29T10:40:23Z</time>
      </trkpt>
      <trkpt lat="45.9481103" lon="7.671194">
        <ele>2725.4</ele>
        <time>2014-01-29T10:40:24Z</time>
      </trkpt>
      <trkpt lat="45.9480232" lon="7.6711409">
        <ele>2722.4</ele>
        <time>2014-01-29T10:40:25Z</time>
      </trkpt>
      <trkpt lat="45.9479513" lon="7.6710953">
        <ele>2719.8</ele>
        <time>2014-01-29T10:40:26Z</time>
      </trkpt>
      <trkpt lat="45.9478767" lon="7.6709662">
        <ele>2716</ele>
        <time>2014-01-29T10:40:27Z</time>
      </trkpt>
      <trkpt lat="45.9478138" lon="7.6708978">
        <ele>2712.8</ele>
        <time>2014-01-29T10:40:28Z</time>
      </trkpt>
      <trkpt lat="45.9477293" lon="7.6707444">
        <ele>2708.2</ele>
        <time>2014-01-29T10:40:29Z</time>
      </trkpt>
      <trkpt lat="45.9476663" lon="7.6705971">
        <ele>2706.2</ele>
        <time>2014-01-29T10:40:30Z</time>
      </trkpt>
      <trkpt lat="45.9475602" lon="7.6704981">
        <ele>2703.6</ele>
        <time>2014-01-29T10:40:31Z</time>
      </trkpt>
      <trkpt lat="45.9474709" lon="7.6703806">
        <ele>2702</ele>
        <time>2014-01-29T10:40:32Z</time>
      </trkpt>
      <trkpt lat="45.9474405" lon="7.6702">
        <ele>2699.2</ele>
        <time>2014-01-29T10:40:33Z</time>
      </trkpt>
      <trkpt lat="45.9473836" lon="7.6700386">
        <ele>2697.8</ele>
        <time>2014-01-29T10:40:34Z</time>
      </trkpt>
      <trkpt lat="45.9472957" lon="7.669901">
        <ele>2694.2</ele>
        <time>2014-01-29T10:40:35Z</time>
      </trkpt>
      <trkpt lat="45.9472402" lon="7.6697433">
        <ele>2693</ele>
        <time>2014-01-29T10:40:36Z</time>
      </trkpt>
      <trkpt lat="45.9471664" lon="7.6695654">
        <ele>2689</ele>
        <time>2014-01-29T10:40:37Z</time>
      </trkpt>
      <trkpt lat="45.9470863" lon="7.6694231">
        <ele>2687.8</ele>
        <time>2014-01-29T10:40:38Z</time>
      </trkpt>
      <trkpt lat="45.9470904" lon="7.6692196">
        <ele>2684.6</ele>
        <time>2014-01-29T10:40:39Z</time>
      </trkpt>
      <trkpt lat="45.9470711" lon="7.6690356">
        <ele>2684.6</ele>
        <time>2014-01-29T10:40:40Z</time>
      </trkpt>
      <trkpt lat="45.9469939" lon="7.6688964">
        <ele>2680.2</ele>
        <time>2014-01-29T10:40:41Z</time>
      </trkpt>
      <trkpt lat="45.9468982" lon="7.6685695">
        <ele>2676</ele>
        <time>2014-01-29T10:40:43Z</time>
      </trkpt>
      <trkpt lat="45.9468281" lon="7.6684314">
        <ele>2674.4</ele>
        <time>2014-01-29T10:40:44Z</time>
      </trkpt>
      <trkpt lat="45.9468063" lon="7.6682326">
        <ele>2671.4</ele>
        <time>2014-01-29T10:40:45Z</time>
      </trkpt>
      <trkpt lat="45.9467694" lon="7.6680611">
        <ele>2669.4</ele>
        <time>2014-01-29T10:40:46Z</time>
      </trkpt>
      <trkpt lat="45.9466739" lon="7.6679627">
        <ele>2667</ele>
        <time>2014-01-29T10:40:47Z</time>
      </trkpt>
      <trkpt lat="45.9466113" lon="7.6678225">
        <ele>2665.6</ele>
        <time>2014-01-29T10:40:48Z</time>
      </trkpt>
      <trkpt lat="45.9465621" lon="7.6676486">
        <ele>2662.4</ele>
        <time>2014-01-29T10:40:49Z</time>
      </trkpt>
      <trkpt lat="45.9464884" lon="7.667516">
        <ele>2660.4</ele>
        <time>2014-01-29T10:40:50Z</time>
      </trkpt>
      <trkpt lat="45.9464157" lon="7.6674663">
        <ele>2658.6</ele>
        <time>2014-01-29T10:40:51Z</time>
      </trkpt>
      <trkpt lat="45.9463562" lon="7.6673645">
        <ele>2657.4</ele>
        <time>2014-01-29T10:40:52Z</time>
      </trkpt>
      <trkpt lat="45.9463292" lon="7.6672385">
        <ele>2654.8</ele>
        <time>2014-01-29T10:40:53Z</time>
      </trkpt>
      <trkpt lat="45.9462464" lon="7.6670177">
        <ele>2651</ele>
        <time>2014-01-29T10:40:55Z</time>
      </trkpt>
      <trkpt lat="45.946217" lon="7.6669048">
        <ele>2649.4</ele>
        <time>2014-01-29T10:40:56Z</time>
      </trkpt>
      <trkpt lat="45.9461797" lon="7.6668441">
        <ele>2647.8</ele>
        <time>2014-01-29T10:40:57Z</time>
      </trkpt>
      <trkpt lat="45.9461631" lon="7.6667693">
        <ele>2646.2</ele>
        <time>2014-01-29T10:40:58Z</time>
      </trkpt>
      <trkpt lat="45.9461247" lon="7.6666711">
        <ele>2644.8</ele>
        <time>2014-01-29T10:40:59Z</time>
      </trkpt>
      <trkpt lat="45.9460456" lon="7.666518">
        <ele>2642.2</ele>
        <time>2014-01-29T10:41:01Z</time>
      </trkpt>
      <trkpt lat="45.9459674" lon="7.6663628">
        <ele>2639.8</ele>
        <time>2014-01-29T10:41:03Z</time>
      </trkpt>
      <trkpt lat="45.9458951" lon="7.6662168">
        <ele>2637.4</ele>
        <time>2014-01-29T10:41:05Z</time>
      </trkpt>
      <trkpt lat="45.9458287" lon="7.6661285">
        <ele>2636.2</ele>
        <time>2014-01-29T10:41:07Z</time>
      </trkpt>
      <trkpt lat="45.9457783" lon="7.666043">
        <ele>2635.2</ele>
        <time>2014-01-29T10:41:09Z</time>
      </trkpt>
      <trkpt lat="45.9456772" lon="7.6659803">
        <ele>2634.2</ele>
        <time>2014-01-29T10:41:13Z</time>
      </trkpt>
      <trkpt lat="45.9456477" lon="7.6659918">
        <ele>2634.2</ele>
        <time>2014-01-29T10:41:18Z</time>
      </trkpt>
      <trkpt lat="45.9456477" lon="7.6660006">
        <ele>2633.2</ele>
        <time>2014-01-29T10:41:27Z</time>
      </trkpt>
      <trkpt lat="45.9456496" lon="7.6660022">
        <ele>2633.2</ele>
        <time>2014-01-29T10:41:28Z</time>
      </trkpt>
      <trkpt lat="45.9456394" lon="7.6660056">
        <ele>2633.2</ele>
        <time>2014-01-29T10:41:38Z</time>
      </trkpt>
      <trkpt lat="45.9456377" lon="7.666014">
        <ele>2633.2</ele>
        <time>2014-01-29T10:41:45Z</time>
      </trkpt>
      <trkpt lat="45.945642" lon="7.6660109">
        <ele>2633.2</ele>
        <time>2014-01-29T10:41:57Z</time>
      </trkpt>
      <trkpt lat="45.9456379" lon="7.66602">
        <ele>2633.2</ele>
        <time>2014-01-29T10:42:06Z</time>
      </trkpt>
      <trkpt lat="45.9456363" lon="7.666012">
        <ele>2633.2</ele>
        <time>2014-01-29T10:42:14Z</time>
      </trkpt>
      <trkpt lat="45.945632" lon="7.6660394">
        <ele>2633.2</ele>
        <time>2014-01-29T10:42:21Z</time>
      </trkpt>
      <trkpt lat="45.9456363" lon="7.6660433">
        <ele>2633.2</ele>
        <time>2014-01-29T10:42:30Z</time>
      </trkpt>
      <trkpt lat="45.9456322" lon="7.6660384">
        <ele>2633.2</ele>
        <time>2014-01-29T10:42:36Z</time>
      </trkpt>
      <trkpt lat="45.9456341" lon="7.6660483">
        <ele>2633.2</ele>
        <time>2014-01-29T10:42:48Z</time>
      </trkpt>
      <trkpt lat="45.9456347" lon="7.6660702">
        <ele>2633.2</ele>
        <time>2014-01-29T10:42:52Z</time>
      </trkpt>
      <trkpt lat="45.9456337" lon="7.6660659">
        <ele>2633.2</ele>
        <time>2014-01-29T10:42:54Z</time>
      </trkpt>
      <trkpt lat="45.9456179" lon="7.6660289">
        <ele>2633.2</ele>
        <time>2014-01-29T10:43:01Z</time>
      </trkpt>
      <trkpt lat="45.9455908" lon="7.6660377">
        <ele>2633.2</ele>
        <time>2014-01-29T10:43:07Z</time>
      </trkpt>
      <trkpt lat="45.9455734" lon="7.6660534">
        <ele>2633.2</ele>
        <time>2014-01-29T10:43:13Z</time>
      </trkpt>
      <trkpt lat="45.9455746" lon="7.6660533">
        <ele>2635.2</ele>
        <time>2014-01-29T10:43:14Z</time>
      </trkpt>
      <trkpt lat="45.9455689" lon="7.6661046">
        <ele>2635.2</ele>
        <time>2014-01-29T10:43:19Z</time>
      </trkpt>
      <trkpt lat="45.9455556" lon="7.6661658">
        <ele>2635.2</ele>
        <time>2014-01-29T10:43:25Z</time>
      </trkpt>
      <trkpt lat="45.9455553" lon="7.6661874">
        <ele>2635.2</ele>
        <time>2014-01-29T10:43:27Z</time>
      </trkpt>
      <trkpt lat="45.9455625" lon="7.6662467">
        <ele>2635.2</ele>
        <time>2014-01-29T10:43:34Z</time>
      </trkpt>
      <trkpt lat="45.9455737" lon="7.6662277">
        <ele>2635.2</ele>
        <time>2014-01-29T10:43:39Z</time>
      </trkpt>
      <trkpt lat="45.9455502" lon="7.6662765">
        <ele>2635.2</ele>
        <time>2014-01-29T10:43:44Z</time>
      </trkpt>
      <trkpt lat="45.9455307" lon="7.6662428">
        <ele>2635.2</ele>
        <time>2014-01-29T10:43:48Z</time>
      </trkpt>
      <trkpt lat="45.9455462" lon="7.6661679">
        <ele>2628</ele>
        <time>2014-01-29T11:11:22Z</time>
      </trkpt>
      <trkpt lat="45.9455577" lon="7.6661139">
        <ele>2628</ele>
        <time>2014-01-29T11:11:28Z</time>
      </trkpt>
      <trkpt lat="45.9455561" lon="7.666105">
        <ele>2628</ele>
        <time>2014-01-29T11:11:29Z</time>
      </trkpt>
      <trkpt lat="45.9455712" lon="7.6660715">
        <ele>2628</ele>
        <time>2014-01-29T11:11:33Z</time>
      </trkpt>
      <trkpt lat="45.9455767" lon="7.666056">
        <ele>2628</ele>
        <time>2014-01-29T11:11:34Z</time>
      </trkpt>
      <trkpt lat="45.9455797" lon="7.666018">
        <ele>2628</ele>
        <time>2014-01-29T11:11:39Z</time>
      </trkpt>
      <trkpt lat="45.9455901" lon="7.6660087">
        <ele>2628</ele>
        <time>2014-01-29T11:11:46Z</time>
      </trkpt>
      <trkpt lat="45.9456015" lon="7.6660036">
        <ele>2628</ele>
        <time>2014-01-29T11:11:50Z</time>
      </trkpt>
      <trkpt lat="45.9456094" lon="7.6659994">
        <ele>2627</ele>
        <time>2014-01-29T11:11:51Z</time>
      </trkpt>
      <trkpt lat="45.945613" lon="7.665992">
        <ele>2625.4</ele>
        <time>2014-01-29T11:11:53Z</time>
      </trkpt>
      <trkpt lat="45.9456512" lon="7.6659981">
        <ele>2625.4</ele>
        <time>2014-01-29T11:11:58Z</time>
      </trkpt>
      <trkpt lat="45.9456513" lon="7.6659966">
        <ele>2625.4</ele>
        <time>2014-01-29T11:12:04Z</time>
      </trkpt>
      <trkpt lat="45.9456527" lon="7.6659869">
        <ele>2625.4</ele>
        <time>2014-01-29T11:12:11Z</time>
      </trkpt>
      <trkpt lat="45.9456465" lon="7.6660047">
        <ele>2625.4</ele>
        <time>2014-01-29T11:12:12Z</time>
      </trkpt>
      <trkpt lat="45.9456534" lon="7.6660187">
        <ele>2625.4</ele>
        <time>2014-01-29T11:12:15Z</time>
      </trkpt>
      <trkpt lat="45.9456619" lon="7.6660015">
        <ele>2625.4</ele>
        <time>2014-01-29T11:12:22Z</time>
      </trkpt>
      <trkpt lat="45.9456626" lon="7.6660024">
        <ele>2625.4</ele>
        <time>2014-01-29T11:12:29Z</time>
      </trkpt>
      <trkpt lat="45.9456589" lon="7.6660019">
        <ele>2625.4</ele>
        <time>2014-01-29T11:12:41Z</time>
      </trkpt>
      <trkpt lat="45.9456586" lon="7.6660062">
        <ele>2625.4</ele>
        <time>2014-01-29T11:12:51Z</time>
      </trkpt>
      <trkpt lat="45.9456585" lon="7.6660073">
        <ele>2625.4</ele>
        <time>2014-01-29T11:13:02Z</time>
      </trkpt>
      <trkpt lat="45.945661" lon="7.6660109">
        <ele>2625.4</ele>
        <time>2014-01-29T11:13:15Z</time>
      </trkpt>
      <trkpt lat="45.9456606" lon="7.6660135">
        <ele>2625.4</ele>
        <time>2014-01-29T11:13:29Z</time>
      </trkpt>
      <trkpt lat="45.9456579" lon="7.6660114">
        <ele>2625.4</ele>
        <time>2014-01-29T11:13:38Z</time>
      </trkpt>
      <trkpt lat="45.9456607" lon="7.6660131">
        <ele>2625.4</ele>
        <time>2014-01-29T11:13:47Z</time>
      </trkpt>
      <trkpt lat="45.9456627" lon="7.6660135">
        <ele>2625.4</ele>
        <time>2014-01-29T11:14:01Z</time>
      </trkpt>
      <trkpt lat="45.9456628" lon="7.6660145">
        <ele>2625.4</ele>
        <time>2014-01-29T11:14:15Z</time>
      </trkpt>
      <trkpt lat="45.9456663" lon="7.6660134">
        <ele>2625.4</ele>
        <time>2014-01-29T11:14:24Z</time>
      </trkpt>
      <trkpt lat="45.9456667" lon="7.666014">
        <ele>2625.4</ele>
        <time>2014-01-29T11:14:33Z</time>
      </trkpt>
      <trkpt lat="45.9456658" lon="7.6660119">
        <ele>2625.4</ele>
        <time>2014-01-29T11:14:49Z</time>
      </trkpt>
      <trkpt lat="45.9456643" lon="7.6660073">
        <ele>2625.4</ele>
        <time>2014-01-29T11:14:58Z</time>
      </trkpt>
      <trkpt lat="45.9456653" lon="7.6660065">
        <ele>2625.4</ele>
        <time>2014-01-29T11:15:08Z</time>
      </trkpt>
      <trkpt lat="45.9456649" lon="7.6660108">
        <ele>2625.4</ele>
        <time>2014-01-29T11:15:17Z</time>
      </trkpt>
      <trkpt lat="45.9456664" lon="7.6660078">
        <ele>2625.4</ele>
        <time>2014-01-29T11:15:26Z</time>
      </trkpt>
      <trkpt lat="45.9456693" lon="7.6660073">
        <ele>2625.4</ele>
        <time>2014-01-29T11:15:46Z</time>
      </trkpt>
      <trkpt lat="45.94567" lon="7.6660047">
        <ele>2625.4</ele>
        <time>2014-01-29T11:16:00Z</time>
      </trkpt>
      <trkpt lat="45.9456679" lon="7.6660043">
        <ele>2625.4</ele>
        <time>2014-01-29T11:16:11Z</time>
      </trkpt>
      <trkpt lat="45.9456682" lon="7.6660041">
        <ele>2625.4</ele>
        <time>2014-01-29T11:16:25Z</time>
      </trkpt>
      <trkpt lat="45.9456682" lon="7.6660048">
        <ele>2625.4</ele>
        <time>2014-01-29T11:16:40Z</time>
      </trkpt>
      <trkpt lat="45.9456727" lon="7.6660075">
        <ele>2625.4</ele>
        <time>2014-01-29T11:16:55Z</time>
      </trkpt>
      <trkpt lat="45.9456827" lon="7.6659832">
        <ele>2625.4</ele>
        <time>2014-01-29T11:16:58Z</time>
      </trkpt>
      <trkpt lat="45.9456877" lon="7.6659705">
        <ele>2625.4</ele>
        <time>2014-01-29T11:16:59Z</time>
      </trkpt>
      <trkpt lat="45.9456989" lon="7.6658862">
        <ele>2625.4</ele>
        <time>2014-01-29T11:17:01Z</time>
      </trkpt>
      <trkpt lat="45.9456727" lon="7.6658112">
        <ele>2623.2</ele>
        <time>2014-01-29T11:17:02Z</time>
      </trkpt>
      <trkpt lat="45.945637" lon="7.6657683">
        <ele>2620.4</ele>
        <time>2014-01-29T11:17:03Z</time>
      </trkpt>
      <trkpt lat="45.9455865" lon="7.6657182">
        <ele>2619.4</ele>
        <time>2014-01-29T11:17:04Z</time>
      </trkpt>
      <trkpt lat="45.9455599" lon="7.6656646">
        <ele>2618</ele>
        <time>2014-01-29T11:17:05Z</time>
      </trkpt>
      <trkpt lat="45.9455112" lon="7.6655556">
        <ele>2615.2</ele>
        <time>2014-01-29T11:17:06Z</time>
      </trkpt>
      <trkpt lat="45.9454807" lon="7.6654974">
        <ele>2613.6</ele>
        <time>2014-01-29T11:17:07Z</time>
      </trkpt>
      <trkpt lat="45.945402" lon="7.6653649">
        <ele>2612.2</ele>
        <time>2014-01-29T11:17:08Z</time>
      </trkpt>
      <trkpt lat="45.9453564" lon="7.6653">
        <ele>2610.8</ele>
        <time>2014-01-29T11:17:09Z</time>
      </trkpt>
      <trkpt lat="45.945267" lon="7.6651764">
        <ele>2607.6</ele>
        <time>2014-01-29T11:17:10Z</time>
      </trkpt>
      <trkpt lat="45.9452157" lon="7.6651116">
        <ele>2606.2</ele>
        <time>2014-01-29T11:17:11Z</time>
      </trkpt>
      <trkpt lat="45.9451105" lon="7.6649852">
        <ele>2602.6</ele>
        <time>2014-01-29T11:17:12Z</time>
      </trkpt>
      <trkpt lat="45.9447003" lon="7.6645689">
        <ele>2602.6</ele>
        <time>2014-01-29T11:17:16Z</time>
      </trkpt>
      <trkpt lat="45.9446185" lon="7.6644927">
        <ele>2600.4</ele>
        <time>2014-01-29T11:17:17Z</time>
      </trkpt>
      <trkpt lat="45.9444739" lon="7.6643604">
        <ele>2598.2</ele>
        <time>2014-01-29T11:17:18Z</time>
      </trkpt>
      <trkpt lat="45.9444024" lon="7.6642941">
        <ele>2596.4</ele>
        <time>2014-01-29T11:17:19Z</time>
      </trkpt>
      <trkpt lat="45.9442689" lon="7.6641694">
        <ele>2594.8</ele>
        <time>2014-01-29T11:17:20Z</time>
      </trkpt>
      <trkpt lat="45.944189" lon="7.6640964">
        <ele>2593.2</ele>
        <time>2014-01-29T11:17:21Z</time>
      </trkpt>
      <trkpt lat="45.9440658" lon="7.6639901">
        <ele>2592</ele>
        <time>2014-01-29T11:17:22Z</time>
      </trkpt>
      <trkpt lat="45.9439728" lon="7.66391">
        <ele>2590.8</ele>
        <time>2014-01-29T11:17:23Z</time>
      </trkpt>
      <trkpt lat="45.943845" lon="7.663801">
        <ele>2589.4</ele>
        <time>2014-01-29T11:17:24Z</time>
      </trkpt>
      <trkpt lat="45.9437666" lon="7.6637368">
        <ele>2588.2</ele>
        <time>2014-01-29T11:17:25Z</time>
      </trkpt>
      <trkpt lat="45.9435635" lon="7.663571">
        <ele>2587</ele>
        <time>2014-01-29T11:17:27Z</time>
      </trkpt>
      <trkpt lat="45.9434506" lon="7.6634697">
        <ele>2587</ele>
        <time>2014-01-29T11:17:28Z</time>
      </trkpt>
      <trkpt lat="45.9432893" lon="7.6633136">
        <ele>2586</ele>
        <time>2014-01-29T11:17:30Z</time>
      </trkpt>
      <trkpt lat="45.943091" lon="7.6630645">
        <ele>2586</ele>
        <time>2014-01-29T11:17:33Z</time>
      </trkpt>
      <trkpt lat="45.9429911" lon="7.662897">
        <ele>2586</ele>
        <time>2014-01-29T11:17:35Z</time>
      </trkpt>
      <trkpt lat="45.9429047" lon="7.6627277">
        <ele>2586</ele>
        <time>2014-01-29T11:17:37Z</time>
      </trkpt>
      <trkpt lat="45.9428141" lon="7.6624797">
        <ele>2584.8</ele>
        <time>2014-01-29T11:17:40Z</time>
      </trkpt>
      <trkpt lat="45.9428027" lon="7.6624164">
        <ele>2584.8</ele>
        <time>2014-01-29T11:17:41Z</time>
      </trkpt>
      <trkpt lat="45.9427836" lon="7.6623046">
        <ele>2583.4</ele>
        <time>2014-01-29T11:17:42Z</time>
      </trkpt>
      <trkpt lat="45.9427537" lon="7.6620997">
        <ele>2582.2</ele>
        <time>2014-01-29T11:17:44Z</time>
      </trkpt>
      <trkpt lat="45.9427145" lon="7.6618968">
        <ele>2580.6</ele>
        <time>2014-01-29T11:17:46Z</time>
      </trkpt>
      <trkpt lat="45.9426956" lon="7.6618162">
        <ele>2579.6</ele>
        <time>2014-01-29T11:17:47Z</time>
      </trkpt>
      <trkpt lat="45.9426606" lon="7.6616719">
        <ele>2578.4</ele>
        <time>2014-01-29T11:17:48Z</time>
      </trkpt>
      <trkpt lat="45.9426079" lon="7.6614403">
        <ele>2577.2</ele>
        <time>2014-01-29T11:17:50Z</time>
      </trkpt>
      <trkpt lat="45.9425869" lon="7.661351">
        <ele>2576</ele>
        <time>2014-01-29T11:17:51Z</time>
      </trkpt>
      <trkpt lat="45.9425541" lon="7.6612108">
        <ele>2575</ele>
        <time>2014-01-29T11:17:52Z</time>
      </trkpt>
      <trkpt lat="45.9425308" lon="7.6611121">
        <ele>2575</ele>
        <time>2014-01-29T11:17:53Z</time>
      </trkpt>
      <trkpt lat="45.942426" lon="7.6606131">
        <ele>2575</ele>
        <time>2014-01-29T11:17:58Z</time>
      </trkpt>
      <trkpt lat="45.9424176" lon="7.6605724">
        <ele>2574</ele>
        <time>2014-01-29T11:17:59Z</time>
      </trkpt>
      <trkpt lat="45.9423428" lon="7.6602015">
        <ele>2573</ele>
        <time>2014-01-29T11:18:04Z</time>
      </trkpt>
      <trkpt lat="45.9423381" lon="7.6601536">
        <ele>2573</ele>
        <time>2014-01-29T11:18:05Z</time>
      </trkpt>
      <trkpt lat="45.9422409" lon="7.6596213">
        <ele>2570.8</ele>
        <time>2014-01-29T11:18:12Z</time>
      </trkpt>
      <trkpt lat="45.9422117" lon="7.6594425">
        <ele>2569.6</ele>
        <time>2014-01-29T11:18:14Z</time>
      </trkpt>
      <trkpt lat="45.9421819" lon="7.6592599">
        <ele>2568.6</ele>
        <time>2014-01-29T11:18:16Z</time>
      </trkpt>
      <trkpt lat="45.9421705" lon="7.6591939">
        <ele>2567.2</ele>
        <time>2014-01-29T11:18:17Z</time>
      </trkpt>
      <trkpt lat="45.9421484" lon="7.6590611">
        <ele>2565.8</ele>
        <time>2014-01-29T11:18:18Z</time>
      </trkpt>
      <trkpt lat="45.9421363" lon="7.6589875">
        <ele>2563.8</ele>
        <time>2014-01-29T11:18:19Z</time>
      </trkpt>
      <trkpt lat="45.9421107" lon="7.6588473">
        <ele>2562</ele>
        <time>2014-01-29T11:18:20Z</time>
      </trkpt>
      <trkpt lat="45.9420937" lon="7.6587573">
        <ele>2560.8</ele>
        <time>2014-01-29T11:18:21Z</time>
      </trkpt>
      <trkpt lat="45.9420649" lon="7.6586175">
        <ele>2559.4</ele>
        <time>2014-01-29T11:18:22Z</time>
      </trkpt>
      <trkpt lat="45.9419992" lon="7.6583488">
        <ele>2557.8</ele>
        <time>2014-01-29T11:18:24Z</time>
      </trkpt>
      <trkpt lat="45.9419738" lon="7.6582413">
        <ele>2556.6</ele>
        <time>2014-01-29T11:18:25Z</time>
      </trkpt>
      <trkpt lat="45.9419364" lon="7.6580771">
        <ele>2555.2</ele>
        <time>2014-01-29T11:18:26Z</time>
      </trkpt>
      <trkpt lat="45.9419108" lon="7.6579562">
        <ele>2553.6</ele>
        <time>2014-01-29T11:18:27Z</time>
      </trkpt>
      <trkpt lat="45.9418741" lon="7.6577746">
        <ele>2552.4</ele>
        <time>2014-01-29T11:18:28Z</time>
      </trkpt>
      <trkpt lat="45.9418577" lon="7.6576915">
        <ele>2550.8</ele>
        <time>2014-01-29T11:18:29Z</time>
      </trkpt>
      <trkpt lat="45.9418131" lon="7.6574803">
        <ele>2549.4</ele>
        <time>2014-01-29T11:18:30Z</time>
      </trkpt>
      <trkpt lat="45.9417818" lon="7.6573533">
        <ele>2548.2</ele>
        <time>2014-01-29T11:18:31Z</time>
      </trkpt>
      <trkpt lat="45.941744" lon="7.6571905">
        <ele>2547</ele>
        <time>2014-01-29T11:18:32Z</time>
      </trkpt>
      <trkpt lat="45.9417194" lon="7.657054">
        <ele>2545.8</ele>
        <time>2014-01-29T11:18:33Z</time>
      </trkpt>
      <trkpt lat="45.9416946" lon="7.6568835">
        <ele>2544.6</ele>
        <time>2014-01-29T11:18:34Z</time>
      </trkpt>
      <trkpt lat="45.9416813" lon="7.6567832">
        <ele>2544.6</ele>
        <time>2014-01-29T11:18:35Z</time>
      </trkpt>
      <trkpt lat="45.9416603" lon="7.6566199">
        <ele>2543.2</ele>
        <time>2014-01-29T11:18:36Z</time>
      </trkpt>
      <trkpt lat="45.9416161" lon="7.6563263">
        <ele>2543.2</ele>
        <time>2014-01-29T11:18:39Z</time>
      </trkpt>
      <trkpt lat="45.9415469" lon="7.6560167">
        <ele>2543.2</ele>
        <time>2014-01-29T11:18:43Z</time>
      </trkpt>
      <trkpt lat="45.9414948" lon="7.6557932">
        <ele>2543.2</ele>
        <time>2014-01-29T11:18:48Z</time>
      </trkpt>
      <trkpt lat="45.9414557" lon="7.6556126">
        <ele>2542.2</ele>
        <time>2014-01-29T11:18:52Z</time>
      </trkpt>
      <trkpt lat="45.9414495" lon="7.6555828">
        <ele>2542.2</ele>
        <time>2014-01-29T11:18:53Z</time>
      </trkpt>
      <trkpt lat="45.9414042" lon="7.6553763">
        <ele>2542.2</ele>
        <time>2014-01-29T11:18:58Z</time>
      </trkpt>
      <trkpt lat="45.9413409" lon="7.6551871">
        <ele>2542.2</ele>
        <time>2014-01-29T11:19:03Z</time>
      </trkpt>
      <trkpt lat="45.9412744" lon="7.6551003">
        <ele>2542.2</ele>
        <time>2014-01-29T11:19:08Z</time>
      </trkpt>
      <trkpt lat="45.9412405" lon="7.6550892">
        <ele>2542.2</ele>
        <time>2014-01-29T11:19:13Z</time>
      </trkpt>
      <trkpt lat="45.9412403" lon="7.6550947">
        <ele>2542.2</ele>
        <time>2014-01-29T11:19:21Z</time>
      </trkpt>
      <trkpt lat="45.9412373" lon="7.6551123">
        <ele>2542.2</ele>
        <time>2014-01-29T11:19:29Z</time>
      </trkpt>
      <trkpt lat="45.9412451" lon="7.6551482">
        <ele>2542.2</ele>
        <time>2014-01-29T11:19:35Z</time>
      </trkpt>
      <trkpt lat="45.9412435" lon="7.6551739">
        <ele>2542.2</ele>
        <time>2014-01-29T11:19:41Z</time>
      </trkpt>
      <trkpt lat="45.9412493" lon="7.6551824">
        <ele>2542.2</ele>
        <time>2014-01-29T11:19:44Z</time>
      </trkpt>
      <trkpt lat="45.9412542" lon="7.6551839">
        <ele>2542.2</ele>
        <time>2014-01-29T11:19:46Z</time>
      </trkpt>
      <trkpt lat="45.9412837" lon="7.6551876">
        <ele>2542.2</ele>
        <time>2014-01-29T11:19:52Z</time>
      </trkpt>
      <trkpt lat="45.9412995" lon="7.6551929">
        <ele>2541.2</ele>
        <time>2014-01-29T11:19:53Z</time>
      </trkpt>
      <trkpt lat="45.9413399" lon="7.6552024">
        <ele>2541.2</ele>
        <time>2014-01-29T11:19:59Z</time>
      </trkpt>
      <trkpt lat="45.9413293" lon="7.655221">
        <ele>2541.2</ele>
        <time>2014-01-29T11:20:00Z</time>
      </trkpt>
      <trkpt lat="45.9413078" lon="7.6553031">
        <ele>2541.2</ele>
        <time>2014-01-29T11:20:03Z</time>
      </trkpt>
      <trkpt lat="45.9412894" lon="7.6554594">
        <ele>2541.2</ele>
        <time>2014-01-29T11:20:08Z</time>
      </trkpt>
      <trkpt lat="45.9412314" lon="7.6555707">
        <ele>2541.2</ele>
        <time>2014-01-29T11:20:13Z</time>
      </trkpt>
      <trkpt lat="45.9411088" lon="7.655791">
        <ele>2541.2</ele>
        <time>2014-01-29T11:20:18Z</time>
      </trkpt>
      <trkpt lat="45.9410901" lon="7.6557797">
        <ele>2541.2</ele>
        <time>2014-01-29T11:20:20Z</time>
      </trkpt>
      <trkpt lat="45.9410861" lon="7.6557593">
        <ele>2541.2</ele>
        <time>2014-01-29T11:20:22Z</time>
      </trkpt>
      <trkpt lat="45.9410977" lon="7.6556923">
        <ele>2541.2</ele>
        <time>2014-01-29T11:20:27Z</time>
      </trkpt>
      <trkpt lat="45.9411711" lon="7.6554505">
        <ele>2541.2</ele>
        <time>2014-01-29T11:20:33Z</time>
      </trkpt>
      <trkpt lat="45.9412856" lon="7.6552787">
        <ele>2541.2</ele>
        <time>2014-01-29T11:20:36Z</time>
      </trkpt>
      <trkpt lat="45.9413072" lon="7.6552383">
        <ele>2541.2</ele>
        <time>2014-01-29T11:20:37Z</time>
      </trkpt>
      <trkpt lat="45.941285" lon="7.6552145">
        <ele>2541.2</ele>
        <time>2014-01-29T11:20:41Z</time>
      </trkpt>
      <trkpt lat="45.9412727" lon="7.6552295">
        <ele>2541.2</ele>
        <time>2014-01-29T11:20:48Z</time>
      </trkpt>
      <trkpt lat="45.9412859" lon="7.6552216">
        <ele>2541.2</ele>
        <time>2014-01-29T11:20:49Z</time>
      </trkpt>
      <trkpt lat="45.9412824" lon="7.6552047">
        <ele>2541.2</ele>
        <time>2014-01-29T11:20:52Z</time>
      </trkpt>
      <trkpt lat="45.9412499" lon="7.6552464">
        <ele>2541.2</ele>
        <time>2014-01-29T11:20:56Z</time>
      </trkpt>
      <trkpt lat="45.9412744" lon="7.6552531">
        <ele>2541.2</ele>
        <time>2014-01-29T11:20:59Z</time>
      </trkpt>
      <trkpt lat="45.9412723" lon="7.6552556">
        <ele>2541.2</ele>
        <time>2014-01-29T11:21:01Z</time>
      </trkpt>
      <trkpt lat="45.9412571" lon="7.6552709">
        <ele>2540</ele>
        <time>2014-01-29T11:21:03Z</time>
      </trkpt>
      <trkpt lat="45.9411944" lon="7.6553875">
        <ele>2540</ele>
        <time>2014-01-29T11:21:06Z</time>
      </trkpt>
      <trkpt lat="45.9410601" lon="7.6555418">
        <ele>2540</ele>
        <time>2014-01-29T11:21:12Z</time>
      </trkpt>
      <trkpt lat="45.9409141" lon="7.6558764">
        <ele>2540</ele>
        <time>2014-01-29T11:21:16Z</time>
      </trkpt>
      <trkpt lat="45.9408239" lon="7.6560905">
        <ele>2539</ele>
        <time>2014-01-29T11:21:20Z</time>
      </trkpt>
      <trkpt lat="45.940795" lon="7.6561585">
        <ele>2537.6</ele>
        <time>2014-01-29T11:21:21Z</time>
      </trkpt>
      <trkpt lat="45.940782" lon="7.6561939">
        <ele>2537.6</ele>
        <time>2014-01-29T11:21:22Z</time>
      </trkpt>
      <trkpt lat="45.9407564" lon="7.6562573">
        <ele>2536.4</ele>
        <time>2014-01-29T11:21:23Z</time>
      </trkpt>
      <trkpt lat="45.9407207" lon="7.6563547">
        <ele>2535.2</ele>
        <time>2014-01-29T11:21:25Z</time>
      </trkpt>
      <trkpt lat="45.9406796" lon="7.6564522">
        <ele>2534</ele>
        <time>2014-01-29T11:21:27Z</time>
      </trkpt>
      <trkpt lat="45.9406374" lon="7.6565534">
        <ele>2532.8</ele>
        <time>2014-01-29T11:21:29Z</time>
      </trkpt>
      <trkpt lat="45.9405909" lon="7.6566536">
        <ele>2531.8</ele>
        <time>2014-01-29T11:21:31Z</time>
      </trkpt>
      <trkpt lat="45.940576" lon="7.6566894">
        <ele>2531.8</ele>
        <time>2014-01-29T11:21:32Z</time>
      </trkpt>
      <trkpt lat="45.9403866" lon="7.6571288">
        <ele>2531.8</ele>
        <time>2014-01-29T11:21:41Z</time>
      </trkpt>
      <trkpt lat="45.9403411" lon="7.6572269">
        <ele>2534.8</ele>
        <time>2014-01-29T11:21:43Z</time>
      </trkpt>
      <trkpt lat="45.9402752" lon="7.657376">
        <ele>2535.8</ele>
        <time>2014-01-29T11:21:46Z</time>
      </trkpt>
      <trkpt lat="45.9402588" lon="7.6574113">
        <ele>2537.2</ele>
        <time>2014-01-29T11:21:47Z</time>
      </trkpt>
      <trkpt lat="45.9402334" lon="7.6574708">
        <ele>2538.2</ele>
        <time>2014-01-29T11:21:48Z</time>
      </trkpt>
      <trkpt lat="45.9402161" lon="7.6575121">
        <ele>2539.4</ele>
        <time>2014-01-29T11:21:49Z</time>
      </trkpt>
      <trkpt lat="45.9401736" lon="7.6576068">
        <ele>2540.8</ele>
        <time>2014-01-29T11:21:51Z</time>
      </trkpt>
      <trkpt lat="45.9401475" lon="7.6576626">
        <ele>2541.8</ele>
        <time>2014-01-29T11:21:52Z</time>
      </trkpt>
      <trkpt lat="45.9400862" lon="7.657804">
        <ele>2543</ele>
        <time>2014-01-29T11:21:55Z</time>
      </trkpt>
      <trkpt lat="45.9400428" lon="7.6578994">
        <ele>2543</ele>
        <time>2014-01-29T11:21:57Z</time>
      </trkpt>
      <trkpt lat="45.9400172" lon="7.6579545">
        <ele>2544</ele>
        <time>2014-01-29T11:21:58Z</time>
      </trkpt>
      <trkpt lat="45.9399546" lon="7.6580939">
        <ele>2545.2</ele>
        <time>2014-01-29T11:22:01Z</time>
      </trkpt>
      <trkpt lat="45.9399319" lon="7.658149">
        <ele>2546.2</ele>
        <time>2014-01-29T11:22:02Z</time>
      </trkpt>
      <trkpt lat="45.9398866" lon="7.6582475">
        <ele>2547.2</ele>
        <time>2014-01-29T11:22:04Z</time>
      </trkpt>
      <trkpt lat="45.9398459" lon="7.6583399">
        <ele>2548.4</ele>
        <time>2014-01-29T11:22:06Z</time>
      </trkpt>
      <trkpt lat="45.9397989" lon="7.6584429">
        <ele>2549.6</ele>
        <time>2014-01-29T11:22:08Z</time>
      </trkpt>
      <trkpt lat="45.9397581" lon="7.6585376">
        <ele>2551</ele>
        <time>2014-01-29T11:22:10Z</time>
      </trkpt>
      <trkpt lat="45.9397145" lon="7.6586352">
        <ele>2552.2</ele>
        <time>2014-01-29T11:22:12Z</time>
      </trkpt>
      <trkpt lat="45.9396918" lon="7.65868">
        <ele>2552.2</ele>
        <time>2014-01-29T11:22:13Z</time>
      </trkpt>
      <trkpt lat="45.9396669" lon="7.6587338">
        <ele>2553.4</ele>
        <time>2014-01-29T11:22:14Z</time>
      </trkpt>
      <trkpt lat="45.9396262" lon="7.6588289">
        <ele>2554.6</ele>
        <time>2014-01-29T11:22:16Z</time>
      </trkpt>
      <trkpt lat="45.9396112" lon="7.658863">
        <ele>2555.6</ele>
        <time>2014-01-29T11:22:17Z</time>
      </trkpt>
      <trkpt lat="45.9395658" lon="7.658965">
        <ele>2556.8</ele>
        <time>2014-01-29T11:22:19Z</time>
      </trkpt>
      <trkpt lat="45.9395439" lon="7.6590162">
        <ele>2558</ele>
        <time>2014-01-29T11:22:20Z</time>
      </trkpt>
      <trkpt lat="45.9395247" lon="7.6590587">
        <ele>2559</ele>
        <time>2014-01-29T11:22:21Z</time>
      </trkpt>
      <trkpt lat="45.9394994" lon="7.659112">
        <ele>2559</ele>
        <time>2014-01-29T11:22:22Z</time>
      </trkpt>
      <trkpt lat="45.9394795" lon="7.6591555">
        <ele>2560</ele>
        <time>2014-01-29T11:22:23Z</time>
      </trkpt>
      <trkpt lat="45.9394549" lon="7.6592113">
        <ele>2561.4</ele>
        <time>2014-01-29T11:22:24Z</time>
      </trkpt>
      <trkpt lat="45.9394363" lon="7.6592491">
        <ele>2562.4</ele>
        <time>2014-01-29T11:22:25Z</time>
      </trkpt>
      <trkpt lat="45.9393701" lon="7.6593943">
        <ele>2563.4</ele>
        <time>2014-01-29T11:22:28Z</time>
      </trkpt>
      <trkpt lat="45.9393294" lon="7.6594849">
        <ele>2563.4</ele>
        <time>2014-01-29T11:22:30Z</time>
      </trkpt>
      <trkpt lat="45.9392866" lon="7.6595824">
        <ele>2564.6</ele>
        <time>2014-01-29T11:22:32Z</time>
      </trkpt>
      <trkpt lat="45.9392438" lon="7.6596789">
        <ele>2565.6</ele>
        <time>2014-01-29T11:22:34Z</time>
      </trkpt>
      <trkpt lat="45.9391855" lon="7.6598148">
        <ele>2566.8</ele>
        <time>2014-01-29T11:22:37Z</time>
      </trkpt>
      <trkpt lat="45.9391435" lon="7.6599101">
        <ele>2567.8</ele>
        <time>2014-01-29T11:22:39Z</time>
      </trkpt>
      <trkpt lat="45.9391218" lon="7.6599605">
        <ele>2569</ele>
        <time>2014-01-29T11:22:40Z</time>
      </trkpt>
      <trkpt lat="45.9391032" lon="7.6600036">
        <ele>2569</ele>
        <time>2014-01-29T11:22:41Z</time>
      </trkpt>
      <trkpt lat="45.9390794" lon="7.6600579">
        <ele>2570</ele>
        <time>2014-01-29T11:22:42Z</time>
      </trkpt>
      <trkpt lat="45.9390357" lon="7.6601542">
        <ele>2571.2</ele>
        <time>2014-01-29T11:22:44Z</time>
      </trkpt>
      <trkpt lat="45.9389943" lon="7.660248">
        <ele>2572.4</ele>
        <time>2014-01-29T11:22:46Z</time>
      </trkpt>
      <trkpt lat="45.9389788" lon="7.6602827">
        <ele>2573.6</ele>
        <time>2014-01-29T11:22:47Z</time>
      </trkpt>
      <trkpt lat="45.9389349" lon="7.6603812">
        <ele>2574.6</ele>
        <time>2014-01-29T11:22:49Z</time>
      </trkpt>
      <trkpt lat="45.9389128" lon="7.660431">
        <ele>2575.6</ele>
        <time>2014-01-29T11:22:50Z</time>
      </trkpt>
      <trkpt lat="45.9388695" lon="7.6605285">
        <ele>2577</ele>
        <time>2014-01-29T11:22:52Z</time>
      </trkpt>
      <trkpt lat="45.9388257" lon="7.6606235">
        <ele>2578</ele>
        <time>2014-01-29T11:22:54Z</time>
      </trkpt>
      <trkpt lat="45.9388082" lon="7.6606637">
        <ele>2579.2</ele>
        <time>2014-01-29T11:22:55Z</time>
      </trkpt>
      <trkpt lat="45.9387846" lon="7.6607168">
        <ele>2580.4</ele>
        <time>2014-01-29T11:22:56Z</time>
      </trkpt>
      <trkpt lat="45.9387434" lon="7.660811">
        <ele>2581.6</ele>
        <time>2014-01-29T11:22:58Z</time>
      </trkpt>
      <trkpt lat="45.9387271" lon="7.6608472">
        <ele>2582.6</ele>
        <time>2014-01-29T11:22:59Z</time>
      </trkpt>
      <trkpt lat="45.9386844" lon="7.6609442">
        <ele>2585</ele>
        <time>2014-01-29T11:23:01Z</time>
      </trkpt>
      <trkpt lat="45.9386185" lon="7.661094">
        <ele>2586</ele>
        <time>2014-01-29T11:23:04Z</time>
      </trkpt>
      <trkpt lat="45.9385782" lon="7.6611872">
        <ele>2586</ele>
        <time>2014-01-29T11:23:06Z</time>
      </trkpt>
      <trkpt lat="45.9385168" lon="7.6613292">
        <ele>2587.2</ele>
        <time>2014-01-29T11:23:09Z</time>
      </trkpt>
      <trkpt lat="45.938474" lon="7.6614251">
        <ele>2588.4</ele>
        <time>2014-01-29T11:23:11Z</time>
      </trkpt>
      <trkpt lat="45.9384312" lon="7.6615223">
        <ele>2589.6</ele>
        <time>2014-01-29T11:23:13Z</time>
      </trkpt>
      <trkpt lat="45.9383893" lon="7.6616171">
        <ele>2590.8</ele>
        <time>2014-01-29T11:23:15Z</time>
      </trkpt>
      <trkpt lat="45.9383663" lon="7.6616707">
        <ele>2591.8</ele>
        <time>2014-01-29T11:23:16Z</time>
      </trkpt>
      <trkpt lat="45.9383238" lon="7.6617657">
        <ele>2592.8</ele>
        <time>2014-01-29T11:23:18Z</time>
      </trkpt>
      <trkpt lat="45.938283" lon="7.6618566">
        <ele>2594</ele>
        <time>2014-01-29T11:23:20Z</time>
      </trkpt>
      <trkpt lat="45.9382629" lon="7.6619015">
        <ele>2595.2</ele>
        <time>2014-01-29T11:23:21Z</time>
      </trkpt>
      <trkpt lat="45.9382398" lon="7.6619546">
        <ele>2595.2</ele>
        <time>2014-01-29T11:23:22Z</time>
      </trkpt>
      <trkpt lat="45.938198" lon="7.662052">
        <ele>2596.2</ele>
        <time>2014-01-29T11:23:24Z</time>
      </trkpt>
      <trkpt lat="45.9381796" lon="7.6620929">
        <ele>2597.4</ele>
        <time>2014-01-29T11:23:25Z</time>
      </trkpt>
      <trkpt lat="45.9381381" lon="7.6621854">
        <ele>2598.4</ele>
        <time>2014-01-29T11:23:27Z</time>
      </trkpt>
      <trkpt lat="45.938097" lon="7.6622755">
        <ele>2599.8</ele>
        <time>2014-01-29T11:23:29Z</time>
      </trkpt>
      <trkpt lat="45.9380724" lon="7.6623294">
        <ele>2601.2</ele>
        <time>2014-01-29T11:23:30Z</time>
      </trkpt>
      <trkpt lat="45.9380538" lon="7.6623749">
        <ele>2602.2</ele>
        <time>2014-01-29T11:23:31Z</time>
      </trkpt>
      <trkpt lat="45.9380308" lon="7.6624268">
        <ele>2602.2</ele>
        <time>2014-01-29T11:23:32Z</time>
      </trkpt>
      <trkpt lat="45.9380106" lon="7.6624709">
        <ele>2603.4</ele>
        <time>2014-01-29T11:23:33Z</time>
      </trkpt>
      <trkpt lat="45.9379882" lon="7.6625221">
        <ele>2604.6</ele>
        <time>2014-01-29T11:23:34Z</time>
      </trkpt>
      <trkpt lat="45.9379484" lon="7.6626113">
        <ele>2605.8</ele>
        <time>2014-01-29T11:23:36Z</time>
      </trkpt>
      <trkpt lat="45.9379289" lon="7.6626533">
        <ele>2607</ele>
        <time>2014-01-29T11:23:37Z</time>
      </trkpt>
      <trkpt lat="45.9379041" lon="7.6627088">
        <ele>2608.2</ele>
        <time>2014-01-29T11:23:38Z</time>
      </trkpt>
      <trkpt lat="45.9378868" lon="7.6627484">
        <ele>2609.2</ele>
        <time>2014-01-29T11:23:39Z</time>
      </trkpt>
      <trkpt lat="45.9378477" lon="7.6628359">
        <ele>2610.4</ele>
        <time>2014-01-29T11:23:41Z</time>
      </trkpt>
      <trkpt lat="45.9378035" lon="7.6629342">
        <ele>2610.4</ele>
        <time>2014-01-29T11:23:43Z</time>
      </trkpt>
      <trkpt lat="45.9377807" lon="7.6629853">
        <ele>2611.4</ele>
        <time>2014-01-29T11:23:44Z</time>
      </trkpt>
      <trkpt lat="45.9376557" lon="7.6632632">
        <ele>2612.4</ele>
        <time>2014-01-29T11:23:50Z</time>
      </trkpt>
      <trkpt lat="45.9375931" lon="7.6634022">
        <ele>2612.4</ele>
        <time>2014-01-29T11:23:53Z</time>
      </trkpt>
      <trkpt lat="45.9375696" lon="7.6634561">
        <ele>2613.6</ele>
        <time>2014-01-29T11:23:54Z</time>
      </trkpt>
      <trkpt lat="45.9375287" lon="7.6635492">
        <ele>2614.6</ele>
        <time>2014-01-29T11:23:56Z</time>
      </trkpt>
      <trkpt lat="45.9374861" lon="7.6636424">
        <ele>2616</ele>
        <time>2014-01-29T11:23:58Z</time>
      </trkpt>
      <trkpt lat="45.9374458" lon="7.6637334">
        <ele>2617</ele>
        <time>2014-01-29T11:24:00Z</time>
      </trkpt>
      <trkpt lat="45.9374035" lon="7.6638291">
        <ele>2618</ele>
        <time>2014-01-29T11:24:02Z</time>
      </trkpt>
      <trkpt lat="45.9373442" lon="7.6639611">
        <ele>2619</ele>
        <time>2014-01-29T11:24:05Z</time>
      </trkpt>
      <trkpt lat="45.937321" lon="7.664014">
        <ele>2619</ele>
        <time>2014-01-29T11:24:06Z</time>
      </trkpt>
      <trkpt lat="45.9371807" lon="7.6643387">
        <ele>2616</ele>
        <time>2014-01-29T11:24:13Z</time>
      </trkpt>
      <trkpt lat="45.9371179" lon="7.664482">
        <ele>2615</ele>
        <time>2014-01-29T11:24:16Z</time>
      </trkpt>
      <trkpt lat="45.9370777" lon="7.6645764">
        <ele>2615</ele>
        <time>2014-01-29T11:24:18Z</time>
      </trkpt>
      <trkpt lat="45.9370198" lon="7.6647091">
        <ele>2613.8</ele>
        <time>2014-01-29T11:24:21Z</time>
      </trkpt>
      <trkpt lat="45.9368319" lon="7.6651389">
        <ele>2612.8</ele>
        <time>2014-01-29T11:24:30Z</time>
      </trkpt>
      <trkpt lat="45.9368139" lon="7.6651812">
        <ele>2611.8</ele>
        <time>2014-01-29T11:24:31Z</time>
      </trkpt>
      <trkpt lat="45.9367923" lon="7.6652308">
        <ele>2610.4</ele>
        <time>2014-01-29T11:24:32Z</time>
      </trkpt>
      <trkpt lat="45.9367741" lon="7.665274">
        <ele>2609.2</ele>
        <time>2014-01-29T11:24:33Z</time>
      </trkpt>
      <trkpt lat="45.9367522" lon="7.665325">
        <ele>2607.8</ele>
        <time>2014-01-29T11:24:34Z</time>
      </trkpt>
      <trkpt lat="45.9367364" lon="7.6653627">
        <ele>2606.8</ele>
        <time>2014-01-29T11:24:35Z</time>
      </trkpt>
      <trkpt lat="45.9367149" lon="7.6654141">
        <ele>2605.6</ele>
        <time>2014-01-29T11:24:36Z</time>
      </trkpt>
      <trkpt lat="45.9366702" lon="7.6655183">
        <ele>2604.6</ele>
        <time>2014-01-29T11:24:38Z</time>
      </trkpt>
      <trkpt lat="45.9366524" lon="7.6655634">
        <ele>2603.4</ele>
        <time>2014-01-29T11:24:39Z</time>
      </trkpt>
      <trkpt lat="45.9366257" lon="7.6656222">
        <ele>2602.2</ele>
        <time>2014-01-29T11:24:40Z</time>
      </trkpt>
      <trkpt lat="45.9366103" lon="7.6656571">
        <ele>2600.8</ele>
        <time>2014-01-29T11:24:41Z</time>
      </trkpt>
      <trkpt lat="45.9365763" lon="7.6657392">
        <ele>2599.6</ele>
        <time>2014-01-29T11:24:43Z</time>
      </trkpt>
      <trkpt lat="45.936546" lon="7.6658047">
        <ele>2598.4</ele>
        <time>2014-01-29T11:24:44Z</time>
      </trkpt>
      <trkpt lat="45.9365073" lon="7.6658985">
        <ele>2597.4</ele>
        <time>2014-01-29T11:24:46Z</time>
      </trkpt>
      <trkpt lat="45.9364978" lon="7.6659224">
        <ele>2596.2</ele>
        <time>2014-01-29T11:24:47Z</time>
      </trkpt>
      <trkpt lat="45.9364685" lon="7.6659903">
        <ele>2595.2</ele>
        <time>2014-01-29T11:24:48Z</time>
      </trkpt>
      <trkpt lat="45.9364292" lon="7.6660818">
        <ele>2594</ele>
        <time>2014-01-29T11:24:50Z</time>
      </trkpt>
      <trkpt lat="45.9364183" lon="7.6661094">
        <ele>2594</ele>
        <time>2014-01-29T11:24:51Z</time>
      </trkpt>
      <trkpt lat="45.9363914" lon="7.6661728">
        <ele>2593</ele>
        <time>2014-01-29T11:24:52Z</time>
      </trkpt>
      <trkpt lat="45.9363505" lon="7.6662643">
        <ele>2592</ele>
        <time>2014-01-29T11:24:54Z</time>
      </trkpt>
      <trkpt lat="45.9363359" lon="7.6663007">
        <ele>2591</ele>
        <time>2014-01-29T11:24:55Z</time>
      </trkpt>
      <trkpt lat="45.9363124" lon="7.6663589">
        <ele>2589.8</ele>
        <time>2014-01-29T11:24:56Z</time>
      </trkpt>
      <trkpt lat="45.9362726" lon="7.6664523">
        <ele>2588.6</ele>
        <time>2014-01-29T11:24:58Z</time>
      </trkpt>
      <trkpt lat="45.9362321" lon="7.6665477">
        <ele>2587.4</ele>
        <time>2014-01-29T11:25:00Z</time>
      </trkpt>
      <trkpt lat="45.9361916" lon="7.666641">
        <ele>2586.4</ele>
        <time>2014-01-29T11:25:02Z</time>
      </trkpt>
      <trkpt lat="45.9361316" lon="7.6667716">
        <ele>2585.2</ele>
        <time>2014-01-29T11:25:05Z</time>
      </trkpt>
      <trkpt lat="45.9360614" lon="7.6669317">
        <ele>2584.2</ele>
        <time>2014-01-29T11:25:08Z</time>
      </trkpt>
      <trkpt lat="45.9360446" lon="7.666969">
        <ele>2584.2</ele>
        <time>2014-01-29T11:25:09Z</time>
      </trkpt>
      <trkpt lat="45.936005" lon="7.6670646">
        <ele>2583.2</ele>
        <time>2014-01-29T11:25:11Z</time>
      </trkpt>
      <trkpt lat="45.9358318" lon="7.6674356">
        <ele>2583.2</ele>
        <time>2014-01-29T11:25:19Z</time>
      </trkpt>
      <trkpt lat="45.9357126" lon="7.667692">
        <ele>2586.2</ele>
        <time>2014-01-29T11:25:24Z</time>
      </trkpt>
      <trkpt lat="45.9356961" lon="7.6677264">
        <ele>2587.4</ele>
        <time>2014-01-29T11:25:25Z</time>
      </trkpt>
      <trkpt lat="45.9356667" lon="7.6677845">
        <ele>2587.4</ele>
        <time>2014-01-29T11:25:26Z</time>
      </trkpt>
      <trkpt lat="45.9356555" lon="7.6678115">
        <ele>2588.4</ele>
        <time>2014-01-29T11:25:27Z</time>
      </trkpt>
      <trkpt lat="45.9356079" lon="7.6679143">
        <ele>2589.4</ele>
        <time>2014-01-29T11:25:29Z</time>
      </trkpt>
      <trkpt lat="45.9355649" lon="7.6680076">
        <ele>2590.6</ele>
        <time>2014-01-29T11:25:31Z</time>
      </trkpt>
      <trkpt lat="45.9355253" lon="7.6680952">
        <ele>2591.8</ele>
        <time>2014-01-29T11:25:33Z</time>
      </trkpt>
      <trkpt lat="45.9354829" lon="7.668189">
        <ele>2592.8</ele>
        <time>2014-01-29T11:25:35Z</time>
      </trkpt>
      <trkpt lat="45.9354495" lon="7.6682495">
        <ele>2592.8</ele>
        <time>2014-01-29T11:25:36Z</time>
      </trkpt>
      <trkpt lat="45.9354377" lon="7.6682787">
        <ele>2593.8</ele>
        <time>2014-01-29T11:25:37Z</time>
      </trkpt>
      <trkpt lat="45.9354067" lon="7.6683456">
        <ele>2594.8</ele>
        <time>2014-01-29T11:25:38Z</time>
      </trkpt>
      <trkpt lat="45.9353629" lon="7.6684377">
        <ele>2596</ele>
        <time>2014-01-29T11:25:40Z</time>
      </trkpt>
      <trkpt lat="45.9353468" lon="7.6684725">
        <ele>2597.2</ele>
        <time>2014-01-29T11:25:41Z</time>
      </trkpt>
      <trkpt lat="45.9353103" lon="7.6685559">
        <ele>2598.4</ele>
        <time>2014-01-29T11:25:43Z</time>
      </trkpt>
      <trkpt lat="45.9352806" lon="7.6686219">
        <ele>2599.8</ele>
        <time>2014-01-29T11:25:44Z</time>
      </trkpt>
      <trkpt lat="45.9352647" lon="7.6686574">
        <ele>2601</ele>
        <time>2014-01-29T11:25:45Z</time>
      </trkpt>
      <trkpt lat="45.9352293" lon="7.6687379">
        <ele>2602</ele>
        <time>2014-01-29T11:25:47Z</time>
      </trkpt>
      <trkpt lat="45.9351362" lon="7.6689242">
        <ele>2603.2</ele>
        <time>2014-01-29T11:25:51Z</time>
      </trkpt>
      <trkpt lat="45.9350932" lon="7.6690138">
        <ele>2603.2</ele>
        <time>2014-01-29T11:25:53Z</time>
      </trkpt>
      <trkpt lat="45.935062" lon="7.6690786">
        <ele>2604.2</ele>
        <time>2014-01-29T11:25:54Z</time>
      </trkpt>
      <trkpt lat="45.9350218" lon="7.6691624">
        <ele>2605.4</ele>
        <time>2014-01-29T11:25:56Z</time>
      </trkpt>
      <trkpt lat="45.9349611" lon="7.6692961">
        <ele>2606.6</ele>
        <time>2014-01-29T11:25:59Z</time>
      </trkpt>
      <trkpt lat="45.9349322" lon="7.6693535">
        <ele>2607.8</ele>
        <time>2014-01-29T11:26:00Z</time>
      </trkpt>
      <trkpt lat="45.9348884" lon="7.6694417">
        <ele>2608.8</ele>
        <time>2014-01-29T11:26:02Z</time>
      </trkpt>
      <trkpt lat="45.9348741" lon="7.6694703">
        <ele>2608.8</ele>
        <time>2014-01-29T11:26:03Z</time>
      </trkpt>
      <trkpt lat="45.9348439" lon="7.6695354">
        <ele>2610.4</ele>
        <time>2014-01-29T11:26:04Z</time>
      </trkpt>
      <trkpt lat="45.9348305" lon="7.669565">
        <ele>2611.4</ele>
        <time>2014-01-29T11:26:05Z</time>
      </trkpt>
      <trkpt lat="45.9347877" lon="7.6696553">
        <ele>2612.6</ele>
        <time>2014-01-29T11:26:07Z</time>
      </trkpt>
      <trkpt lat="45.934739" lon="7.6697603">
        <ele>2613.8</ele>
        <time>2014-01-29T11:26:09Z</time>
      </trkpt>
      <trkpt lat="45.9346963" lon="7.6698483">
        <ele>2615</ele>
        <time>2014-01-29T11:26:11Z</time>
      </trkpt>
      <trkpt lat="45.9346699" lon="7.6699045">
        <ele>2616.2</ele>
        <time>2014-01-29T11:26:12Z</time>
      </trkpt>
      <trkpt lat="45.934629" lon="7.67">
        <ele>2617.4</ele>
        <time>2014-01-29T11:26:14Z</time>
      </trkpt>
      <trkpt lat="45.9346125" lon="7.6700348">
        <ele>2617.4</ele>
        <time>2014-01-29T11:26:15Z</time>
      </trkpt>
      <trkpt lat="45.9345854" lon="7.67009">
        <ele>2618.6</ele>
        <time>2014-01-29T11:26:16Z</time>
      </trkpt>
      <trkpt lat="45.9345442" lon="7.6701801">
        <ele>2619.6</ele>
        <time>2014-01-29T11:26:18Z</time>
      </trkpt>
      <trkpt lat="45.9345271" lon="7.670217">
        <ele>2620.8</ele>
        <time>2014-01-29T11:26:19Z</time>
      </trkpt>
      <trkpt lat="45.9345012" lon="7.6702719">
        <ele>2622.2</ele>
        <time>2014-01-29T11:26:20Z</time>
      </trkpt>
      <trkpt lat="45.9344618" lon="7.670364">
        <ele>2624.6</ele>
        <time>2014-01-29T11:26:22Z</time>
      </trkpt>
      <trkpt lat="45.9344188" lon="7.6704544">
        <ele>2625.6</ele>
        <time>2014-01-29T11:26:24Z</time>
      </trkpt>
      <trkpt lat="45.9343758" lon="7.6705564">
        <ele>2625.6</ele>
        <time>2014-01-29T11:26:26Z</time>
      </trkpt>
      <trkpt lat="45.934335" lon="7.6706483">
        <ele>2626.6</ele>
        <time>2014-01-29T11:26:28Z</time>
      </trkpt>
      <trkpt lat="45.9342779" lon="7.6707809">
        <ele>2627.8</ele>
        <time>2014-01-29T11:26:31Z</time>
      </trkpt>
      <trkpt lat="45.9342088" lon="7.6709362">
        <ele>2628.8</ele>
        <time>2014-01-29T11:26:34Z</time>
      </trkpt>
      <trkpt lat="45.9341938" lon="7.6709698">
        <ele>2628.8</ele>
        <time>2014-01-29T11:26:35Z</time>
      </trkpt>
      <trkpt lat="45.9341696" lon="7.6710271">
        <ele>2629.8</ele>
        <time>2014-01-29T11:26:36Z</time>
      </trkpt>
      <trkpt lat="45.9341266" lon="7.6711215">
        <ele>2631</ele>
        <time>2014-01-29T11:26:38Z</time>
      </trkpt>
      <trkpt lat="45.9340826" lon="7.6712173">
        <ele>2632.2</ele>
        <time>2014-01-29T11:26:40Z</time>
      </trkpt>
      <trkpt lat="45.9340416" lon="7.6713098">
        <ele>2633.2</ele>
        <time>2014-01-29T11:26:42Z</time>
      </trkpt>
      <trkpt lat="45.9339967" lon="7.6714062">
        <ele>2634.2</ele>
        <time>2014-01-29T11:26:44Z</time>
      </trkpt>
      <trkpt lat="45.9339817" lon="7.6714435">
        <ele>2635.2</ele>
        <time>2014-01-29T11:26:45Z</time>
      </trkpt>
      <trkpt lat="45.9339555" lon="7.6715034">
        <ele>2636.2</ele>
        <time>2014-01-29T11:26:46Z</time>
      </trkpt>
      <trkpt lat="45.9339448" lon="7.6715283">
        <ele>2636.2</ele>
        <time>2014-01-29T11:26:47Z</time>
      </trkpt>
      <trkpt lat="45.9339149" lon="7.6715992">
        <ele>2637.2</ele>
        <time>2014-01-29T11:26:48Z</time>
      </trkpt>
      <trkpt lat="45.9339034" lon="7.6716246">
        <ele>2638.4</ele>
        <time>2014-01-29T11:26:49Z</time>
      </trkpt>
      <trkpt lat="45.9338634" lon="7.6717198">
        <ele>2639.6</ele>
        <time>2014-01-29T11:26:51Z</time>
      </trkpt>
      <trkpt lat="45.9338208" lon="7.6718116">
        <ele>2641</ele>
        <time>2014-01-29T11:26:53Z</time>
      </trkpt>
      <trkpt lat="45.9337888" lon="7.6718779">
        <ele>2642</ele>
        <time>2014-01-29T11:26:54Z</time>
      </trkpt>
      <trkpt lat="45.9337484" lon="7.6719729">
        <ele>2643</ele>
        <time>2014-01-29T11:26:56Z</time>
      </trkpt>
      <trkpt lat="45.9337382" lon="7.6719996">
        <ele>2644.4</ele>
        <time>2014-01-29T11:26:57Z</time>
      </trkpt>
      <trkpt lat="45.93371" lon="7.6720655">
        <ele>2644.4</ele>
        <time>2014-01-29T11:26:58Z</time>
      </trkpt>
      <trkpt lat="45.933695" lon="7.6721016">
        <ele>2645.6</ele>
        <time>2014-01-29T11:26:59Z</time>
      </trkpt>
      <trkpt lat="45.9336697" lon="7.672161">
        <ele>2646.6</ele>
        <time>2014-01-29T11:27:00Z</time>
      </trkpt>
      <trkpt lat="45.9336257" lon="7.6722531">
        <ele>2648</ele>
        <time>2014-01-29T11:27:02Z</time>
      </trkpt>
      <trkpt lat="45.9335829" lon="7.6723498">
        <ele>2649.2</ele>
        <time>2014-01-29T11:27:04Z</time>
      </trkpt>
      <trkpt lat="45.9335314" lon="7.6724703">
        <ele>2651.8</ele>
        <time>2014-01-29T11:27:07Z</time>
      </trkpt>
      <trkpt lat="45.9335021" lon="7.6725366">
        <ele>2653</ele>
        <time>2014-01-29T11:27:08Z</time>
      </trkpt>
      <trkpt lat="45.9334864" lon="7.6725731">
        <ele>2654.2</ele>
        <time>2014-01-29T11:27:09Z</time>
      </trkpt>
      <trkpt lat="45.9334594" lon="7.6726279">
        <ele>2655.4</ele>
        <time>2014-01-29T11:27:10Z</time>
      </trkpt>
      <trkpt lat="45.9334208" lon="7.6727194">
        <ele>2656.8</ele>
        <time>2014-01-29T11:27:12Z</time>
      </trkpt>
      <trkpt lat="45.9333843" lon="7.6728108">
        <ele>2658.6</ele>
        <time>2014-01-29T11:27:14Z</time>
      </trkpt>
      <trkpt lat="45.9333803" lon="7.6728398">
        <ele>2659.8</ele>
        <time>2014-01-29T11:27:15Z</time>
      </trkpt>
      <trkpt lat="45.933356" lon="7.6728948">
        <ele>2660.8</ele>
        <time>2014-01-29T11:27:16Z</time>
      </trkpt>
      <trkpt lat="45.9333447" lon="7.6729199">
        <ele>2662.6</ele>
        <time>2014-01-29T11:27:17Z</time>
      </trkpt>
      <trkpt lat="45.9333151" lon="7.6729842">
        <ele>2664.2</ele>
        <time>2014-01-29T11:27:18Z</time>
      </trkpt>
      <trkpt lat="45.9332995" lon="7.6730207">
        <ele>2666.2</ele>
        <time>2014-01-29T11:27:19Z</time>
      </trkpt>
      <trkpt lat="45.933275" lon="7.6730746">
        <ele>2668.2</ele>
        <time>2014-01-29T11:27:20Z</time>
      </trkpt>
      <trkpt lat="45.9332614" lon="7.6731026">
        <ele>2670</ele>
        <time>2014-01-29T11:27:21Z</time>
      </trkpt>
      <trkpt lat="45.9332325" lon="7.6731617">
        <ele>2672</ele>
        <time>2014-01-29T11:27:22Z</time>
      </trkpt>
      <trkpt lat="45.9332208" lon="7.6731895">
        <ele>2673.8</ele>
        <time>2014-01-29T11:27:23Z</time>
      </trkpt>
      <trkpt lat="45.9331932" lon="7.6732533">
        <ele>2675.6</ele>
        <time>2014-01-29T11:27:24Z</time>
      </trkpt>
      <trkpt lat="45.933178" lon="7.6732873">
        <ele>2677.8</ele>
        <time>2014-01-29T11:27:25Z</time>
      </trkpt>
      <trkpt lat="45.9331538" lon="7.6733408">
        <ele>2680</ele>
        <time>2014-01-29T11:27:26Z</time>
      </trkpt>
      <trkpt lat="45.9331408" lon="7.6733651">
        <ele>2682</ele>
        <time>2014-01-29T11:27:27Z</time>
      </trkpt>
      <trkpt lat="45.9331139" lon="7.6734241">
        <ele>2685.8</ele>
        <time>2014-01-29T11:27:28Z</time>
      </trkpt>
      <trkpt lat="45.9331025" lon="7.67345">
        <ele>2687</ele>
        <time>2014-01-29T11:27:29Z</time>
      </trkpt>
      <trkpt lat="45.9330729" lon="7.6735121">
        <ele>2690.2</ele>
        <time>2014-01-29T11:27:30Z</time>
      </trkpt>
      <trkpt lat="45.9330572" lon="7.6735442">
        <ele>2691.2</ele>
        <time>2014-01-29T11:27:31Z</time>
      </trkpt>
      <trkpt lat="45.9330332" lon="7.6735951">
        <ele>2693.2</ele>
        <time>2014-01-29T11:27:32Z</time>
      </trkpt>
      <trkpt lat="45.933022" lon="7.6736243">
        <ele>2695.4</ele>
        <time>2014-01-29T11:27:33Z</time>
      </trkpt>
      <trkpt lat="45.9329953" lon="7.6736845">
        <ele>2698.6</ele>
        <time>2014-01-29T11:27:34Z</time>
      </trkpt>
      <trkpt lat="45.9329813" lon="7.6737112">
        <ele>2700</ele>
        <time>2014-01-29T11:27:35Z</time>
      </trkpt>
      <trkpt lat="45.9329518" lon="7.6737704">
        <ele>2702.8</ele>
        <time>2014-01-29T11:27:36Z</time>
      </trkpt>
      <trkpt lat="45.932942" lon="7.673795">
        <ele>2703.8</ele>
        <time>2014-01-29T11:27:37Z</time>
      </trkpt>
      <trkpt lat="45.9329169" lon="7.6738562">
        <ele>2706</ele>
        <time>2014-01-29T11:27:38Z</time>
      </trkpt>
      <trkpt lat="45.9329021" lon="7.6738905">
        <ele>2708.2</ele>
        <time>2014-01-29T11:27:39Z</time>
      </trkpt>
      <trkpt lat="45.9328793" lon="7.6739409">
        <ele>2710.2</ele>
        <time>2014-01-29T11:27:40Z</time>
      </trkpt>
      <trkpt lat="45.9328643" lon="7.6739742">
        <ele>2712.6</ele>
        <time>2014-01-29T11:27:41Z</time>
      </trkpt>
      <trkpt lat="45.9328421" lon="7.6740274">
        <ele>2714.4</ele>
        <time>2014-01-29T11:27:42Z</time>
      </trkpt>
      <trkpt lat="45.9328308" lon="7.6740536">
        <ele>2716.4</ele>
        <time>2014-01-29T11:27:43Z</time>
      </trkpt>
      <trkpt lat="45.9328036" lon="7.6741146">
        <ele>2718.6</ele>
        <time>2014-01-29T11:27:44Z</time>
      </trkpt>
      <trkpt lat="45.9327887" lon="7.6741468">
        <ele>2721</ele>
        <time>2014-01-29T11:27:45Z</time>
      </trkpt>
      <trkpt lat="45.9327656" lon="7.6742008">
        <ele>2723</ele>
        <time>2014-01-29T11:27:46Z</time>
      </trkpt>
      <trkpt lat="45.932756" lon="7.6742238">
        <ele>2725.2</ele>
        <time>2014-01-29T11:27:47Z</time>
      </trkpt>
      <trkpt lat="45.9327286" lon="7.6742856">
        <ele>2727.2</ele>
        <time>2014-01-29T11:27:48Z</time>
      </trkpt>
      <trkpt lat="45.9327154" lon="7.6743154">
        <ele>2729.8</ele>
        <time>2014-01-29T11:27:49Z</time>
      </trkpt>
      <trkpt lat="45.9326903" lon="7.6743615">
        <ele>2732.8</ele>
        <time>2014-01-29T11:27:50Z</time>
      </trkpt>
      <trkpt lat="45.9326569" lon="7.6744448">
        <ele>2736.8</ele>
        <time>2014-01-29T11:27:52Z</time>
      </trkpt>
      <trkpt lat="45.9326462" lon="7.6744707">
        <ele>2738</ele>
        <time>2014-01-29T11:27:53Z</time>
      </trkpt>
      <trkpt lat="45.932623" lon="7.6745208">
        <ele>2740.4</ele>
        <time>2014-01-29T11:27:54Z</time>
      </trkpt>
      <trkpt lat="45.9325788" lon="7.6746237">
        <ele>2742.4</ele>
        <time>2014-01-29T11:27:56Z</time>
      </trkpt>
      <trkpt lat="45.9325689" lon="7.6746466">
        <ele>2743.6</ele>
        <time>2014-01-29T11:27:57Z</time>
      </trkpt>
      <trkpt lat="45.9325385" lon="7.6747055">
        <ele>2744.6</ele>
        <time>2014-01-29T11:27:58Z</time>
      </trkpt>
      <trkpt lat="45.9325217" lon="7.6747521">
        <ele>2745.8</ele>
        <time>2014-01-29T11:27:59Z</time>
      </trkpt>
      <trkpt lat="45.9324971" lon="7.6748076">
        <ele>2746.8</ele>
        <time>2014-01-29T11:28:00Z</time>
      </trkpt>
      <trkpt lat="45.9324814" lon="7.6748409">
        <ele>2748.2</ele>
        <time>2014-01-29T11:28:01Z</time>
      </trkpt>
      <trkpt lat="45.9324587" lon="7.6748959">
        <ele>2749.8</ele>
        <time>2014-01-29T11:28:02Z</time>
      </trkpt>
      <trkpt lat="45.9324459" lon="7.6749264">
        <ele>2751.4</ele>
        <time>2014-01-29T11:28:03Z</time>
      </trkpt>
      <trkpt lat="45.9324166" lon="7.674987">
        <ele>2752.8</ele>
        <time>2014-01-29T11:28:04Z</time>
      </trkpt>
      <trkpt lat="45.9324037" lon="7.6750205">
        <ele>2754.4</ele>
        <time>2014-01-29T11:28:05Z</time>
      </trkpt>
      <trkpt lat="45.9323727" lon="7.6750677">
        <ele>2755.8</ele>
        <time>2014-01-29T11:28:06Z</time>
      </trkpt>
      <trkpt lat="45.9323254" lon="7.6751702">
        <ele>2757</ele>
        <time>2014-01-29T11:28:08Z</time>
      </trkpt>
      <trkpt lat="45.932311" lon="7.6752047">
        <ele>2757</ele>
        <time>2014-01-29T11:28:09Z</time>
      </trkpt>
      <trkpt lat="45.9322854" lon="7.6752615">
        <ele>2758.2</ele>
        <time>2014-01-29T11:28:10Z</time>
      </trkpt>
      <trkpt lat="45.9322275" lon="7.6753829">
        <ele>2759.4</ele>
        <time>2014-01-29T11:28:13Z</time>
      </trkpt>
      <trkpt lat="45.9321798" lon="7.6754892">
        <ele>2760.8</ele>
        <time>2014-01-29T11:28:15Z</time>
      </trkpt>
      <trkpt lat="45.9321539" lon="7.6755459">
        <ele>2762</ele>
        <time>2014-01-29T11:28:16Z</time>
      </trkpt>
      <trkpt lat="45.9321123" lon="7.6756346">
        <ele>2763.2</ele>
        <time>2014-01-29T11:28:18Z</time>
      </trkpt>
      <trkpt lat="45.9320707" lon="7.6757308">
        <ele>2764.6</ele>
        <time>2014-01-29T11:28:20Z</time>
      </trkpt>
      <trkpt lat="45.9320292" lon="7.6758218">
        <ele>2766.6</ele>
        <time>2014-01-29T11:28:22Z</time>
      </trkpt>
      <trkpt lat="45.9319884" lon="7.6759193">
        <ele>2767.8</ele>
        <time>2014-01-29T11:28:24Z</time>
      </trkpt>
      <trkpt lat="45.9319722" lon="7.6759541">
        <ele>2769.2</ele>
        <time>2014-01-29T11:28:25Z</time>
      </trkpt>
      <trkpt lat="45.9319468" lon="7.6760111">
        <ele>2770.2</ele>
        <time>2014-01-29T11:28:26Z</time>
      </trkpt>
      <trkpt lat="45.931891" lon="7.6761407">
        <ele>2771.6</ele>
        <time>2014-01-29T11:28:29Z</time>
      </trkpt>
      <trkpt lat="45.9318643" lon="7.6761983">
        <ele>2773</ele>
        <time>2014-01-29T11:28:30Z</time>
      </trkpt>
      <trkpt lat="45.9318479" lon="7.676234">
        <ele>2774.4</ele>
        <time>2014-01-29T11:28:31Z</time>
      </trkpt>
      <trkpt lat="45.9318221" lon="7.6762916">
        <ele>2775.4</ele>
        <time>2014-01-29T11:28:32Z</time>
      </trkpt>
      <trkpt lat="45.9317792" lon="7.6763899">
        <ele>2776.8</ele>
        <time>2014-01-29T11:28:34Z</time>
      </trkpt>
      <trkpt lat="45.9317655" lon="7.6764192">
        <ele>2778.4</ele>
        <time>2014-01-29T11:28:35Z</time>
      </trkpt>
      <trkpt lat="45.9317372" lon="7.6764802">
        <ele>2779.4</ele>
        <time>2014-01-29T11:28:36Z</time>
      </trkpt>
      <trkpt lat="45.9317282" lon="7.6765064">
        <ele>2780.6</ele>
        <time>2014-01-29T11:28:37Z</time>
      </trkpt>
      <trkpt lat="45.9317023" lon="7.6765735">
        <ele>2781.8</ele>
        <time>2014-01-29T11:28:38Z</time>
      </trkpt>
      <trkpt lat="45.9316852" lon="7.6766097">
        <ele>2783.2</ele>
        <time>2014-01-29T11:28:39Z</time>
      </trkpt>
      <trkpt lat="45.93166" lon="7.6766651">
        <ele>2784.2</ele>
        <time>2014-01-29T11:28:40Z</time>
      </trkpt>
      <trkpt lat="45.931621" lon="7.6767553">
        <ele>2785.4</ele>
        <time>2014-01-29T11:28:42Z</time>
      </trkpt>
      <trkpt lat="45.9316085" lon="7.6767841">
        <ele>2786.8</ele>
        <time>2014-01-29T11:28:43Z</time>
      </trkpt>
      <trkpt lat="45.9315796" lon="7.6768502">
        <ele>2787.8</ele>
        <time>2014-01-29T11:28:44Z</time>
      </trkpt>
      <trkpt lat="45.931563" lon="7.676886">
        <ele>2789.4</ele>
        <time>2014-01-29T11:28:45Z</time>
      </trkpt>
      <trkpt lat="45.9315376" lon="7.6769443">
        <ele>2790.6</ele>
        <time>2014-01-29T11:28:46Z</time>
      </trkpt>
      <trkpt lat="45.931497" lon="7.6770349">
        <ele>2793</ele>
        <time>2014-01-29T11:28:48Z</time>
      </trkpt>
      <trkpt lat="45.9314807" lon="7.6770717">
        <ele>2794.2</ele>
        <time>2014-01-29T11:28:49Z</time>
      </trkpt>
      <trkpt lat="45.9314431" lon="7.6771568">
        <ele>2795.8</ele>
        <time>2014-01-29T11:28:51Z</time>
      </trkpt>
      <trkpt lat="45.9314162" lon="7.6772167">
        <ele>2797.2</ele>
        <time>2014-01-29T11:28:52Z</time>
      </trkpt>
      <trkpt lat="45.9314044" lon="7.6772449">
        <ele>2798.8</ele>
        <time>2014-01-29T11:28:53Z</time>
      </trkpt>
      <trkpt lat="45.9313784" lon="7.6773074">
        <ele>2799.8</ele>
        <time>2014-01-29T11:28:54Z</time>
      </trkpt>
      <trkpt lat="45.9313317" lon="7.6774041">
        <ele>2801</ele>
        <time>2014-01-29T11:28:56Z</time>
      </trkpt>
      <trkpt lat="45.9313205" lon="7.6774302">
        <ele>2802.2</ele>
        <time>2014-01-29T11:28:57Z</time>
      </trkpt>
      <trkpt lat="45.9312932" lon="7.6774913">
        <ele>2803.4</ele>
        <time>2014-01-29T11:28:58Z</time>
      </trkpt>
      <trkpt lat="45.9312483" lon="7.6775832">
        <ele>2804.4</ele>
        <time>2014-01-29T11:29:00Z</time>
      </trkpt>
      <trkpt lat="45.9312388" lon="7.6776078">
        <ele>2805.4</ele>
        <time>2014-01-29T11:29:01Z</time>
      </trkpt>
      <trkpt lat="45.9312071" lon="7.6776885">
        <ele>2806.8</ele>
        <time>2014-01-29T11:29:02Z</time>
      </trkpt>
      <trkpt lat="45.931161" lon="7.677783">
        <ele>2808</ele>
        <time>2014-01-29T11:29:04Z</time>
      </trkpt>
      <trkpt lat="45.931121" lon="7.6778741">
        <ele>2809.2</ele>
        <time>2014-01-29T11:29:06Z</time>
      </trkpt>
      <trkpt lat="45.9311091" lon="7.6779024">
        <ele>2810.2</ele>
        <time>2014-01-29T11:29:07Z</time>
      </trkpt>
      <trkpt lat="45.9310793" lon="7.6779699">
        <ele>2811.6</ele>
        <time>2014-01-29T11:29:08Z</time>
      </trkpt>
      <trkpt lat="45.931039" lon="7.6780598">
        <ele>2812.6</ele>
        <time>2014-01-29T11:29:10Z</time>
      </trkpt>
      <trkpt lat="45.9310231" lon="7.6780943">
        <ele>2813.6</ele>
        <time>2014-01-29T11:29:11Z</time>
      </trkpt>
      <trkpt lat="45.9309981" lon="7.6781522">
        <ele>2814.8</ele>
        <time>2014-01-29T11:29:12Z</time>
      </trkpt>
      <trkpt lat="45.9309544" lon="7.6782504">
        <ele>2816</ele>
        <time>2014-01-29T11:29:14Z</time>
      </trkpt>
      <trkpt lat="45.9309371" lon="7.6782822">
        <ele>2817.4</ele>
        <time>2014-01-29T11:29:15Z</time>
      </trkpt>
      <trkpt lat="45.9309103" lon="7.6783412">
        <ele>2818.6</ele>
        <time>2014-01-29T11:29:16Z</time>
      </trkpt>
      <trkpt lat="45.9308979" lon="7.6783654">
        <ele>2819.8</ele>
        <time>2014-01-29T11:29:17Z</time>
      </trkpt>
      <trkpt lat="45.9308684" lon="7.6784328">
        <ele>2821</ele>
        <time>2014-01-29T11:29:18Z</time>
      </trkpt>
      <trkpt lat="45.930857" lon="7.6784582">
        <ele>2821</ele>
        <time>2014-01-29T11:29:19Z</time>
      </trkpt>
      <trkpt lat="45.9308289" lon="7.6785215">
        <ele>2822.2</ele>
        <time>2014-01-29T11:29:20Z</time>
      </trkpt>
      <trkpt lat="45.9307866" lon="7.6786166">
        <ele>2823.2</ele>
        <time>2014-01-29T11:29:22Z</time>
      </trkpt>
      <trkpt lat="45.9306897" lon="7.6788358">
        <ele>2824.2</ele>
        <time>2014-01-29T11:29:27Z</time>
      </trkpt>
      <trkpt lat="45.9306163" lon="7.6789964">
        <ele>2825.2</ele>
        <time>2014-01-29T11:29:30Z</time>
      </trkpt>
      <trkpt lat="45.9306005" lon="7.6790312">
        <ele>2825.2</ele>
        <time>2014-01-29T11:29:31Z</time>
      </trkpt>
      <trkpt lat="45.9305768" lon="7.6790813">
        <ele>2826.4</ele>
        <time>2014-01-29T11:29:32Z</time>
      </trkpt>
      <trkpt lat="45.9305306" lon="7.6791809">
        <ele>2827.4</ele>
        <time>2014-01-29T11:29:34Z</time>
      </trkpt>
      <trkpt lat="45.930468" lon="7.6793175">
        <ele>2828.4</ele>
        <time>2014-01-29T11:29:37Z</time>
      </trkpt>
      <trkpt lat="45.9304465" lon="7.6793647">
        <ele>2828.4</ele>
        <time>2014-01-29T11:29:38Z</time>
      </trkpt>
      <trkpt lat="45.9304263" lon="7.679411">
        <ele>2829.4</ele>
        <time>2014-01-29T11:29:39Z</time>
      </trkpt>
      <trkpt lat="45.9303842" lon="7.6795049">
        <ele>2830.6</ele>
        <time>2014-01-29T11:29:41Z</time>
      </trkpt>
      <trkpt lat="45.9303208" lon="7.6796522">
        <ele>2831.6</ele>
        <time>2014-01-29T11:29:44Z</time>
      </trkpt>
      <trkpt lat="45.9302162" lon="7.6798815">
        <ele>2831.6</ele>
        <time>2014-01-29T11:29:49Z</time>
      </trkpt>
      <trkpt lat="45.9300934" lon="7.6801133">
        <ele>2831.6</ele>
        <time>2014-01-29T11:29:55Z</time>
      </trkpt>
      <trkpt lat="45.9300746" lon="7.6801061">
        <ele>2831.6</ele>
        <time>2014-01-29T11:29:59Z</time>
      </trkpt>
      <trkpt lat="45.9300601" lon="7.6801064">
        <ele>2831.6</ele>
        <time>2014-01-29T11:30:08Z</time>
      </trkpt>
      <trkpt lat="45.9300563" lon="7.6800774">
        <ele>2831.6</ele>
        <time>2014-01-29T11:30:14Z</time>
      </trkpt>
      <trkpt lat="45.9300327" lon="7.6800977">
        <ele>2831.6</ele>
        <time>2014-01-29T11:30:19Z</time>
      </trkpt>
      <trkpt lat="45.9299897" lon="7.6801097">
        <ele>2831.6</ele>
        <time>2014-01-29T11:30:26Z</time>
      </trkpt>
      <trkpt lat="45.9299627" lon="7.6801008">
        <ele>2831.6</ele>
        <time>2014-01-29T11:30:32Z</time>
      </trkpt>
      <trkpt lat="45.9299528" lon="7.6801768">
        <ele>2831.6</ele>
        <time>2014-01-29T11:30:39Z</time>
      </trkpt>
      <trkpt lat="45.9299389" lon="7.6802205">
        <ele>2831.6</ele>
        <time>2014-01-29T11:30:44Z</time>
      </trkpt>
      <trkpt lat="45.9299442" lon="7.6802292">
        <ele>2831.6</ele>
        <time>2014-01-29T11:30:45Z</time>
      </trkpt>
      <trkpt lat="45.929942" lon="7.6802752">
        <ele>2831.6</ele>
        <time>2014-01-29T11:30:53Z</time>
      </trkpt>
      <trkpt lat="45.9299162" lon="7.6802744">
        <ele>2831.6</ele>
        <time>2014-01-29T11:31:00Z</time>
      </trkpt>
      <trkpt lat="45.9299" lon="7.6802634">
        <ele>2828.4</ele>
        <time>2014-01-29T11:31:04Z</time>
      </trkpt>
      <trkpt lat="45.9298756" lon="7.6802494">
        <ele>2828.4</ele>
        <time>2014-01-29T11:31:08Z</time>
      </trkpt>
      <trkpt lat="45.9298744" lon="7.6802487">
        <ele>2827.4</ele>
        <time>2014-01-29T11:31:10Z</time>
      </trkpt>
      <trkpt lat="45.9298489" lon="7.6802289">
        <ele>2826.4</ele>
        <time>2014-01-29T11:31:14Z</time>
      </trkpt>
      <trkpt lat="45.9298338" lon="7.6802151">
        <ele>2826.4</ele>
        <time>2014-01-29T11:31:16Z</time>
      </trkpt>
      <trkpt lat="45.9298002" lon="7.68019">
        <ele>2826.4</ele>
        <time>2014-01-29T11:31:23Z</time>
      </trkpt>
      <trkpt lat="45.9297945" lon="7.6801898">
        <ele>2826.4</ele>
        <time>2014-01-29T11:31:28Z</time>
      </trkpt>
      <trkpt lat="45.9297879" lon="7.6801913">
        <ele>2826.4</ele>
        <time>2014-01-29T11:31:35Z</time>
      </trkpt>
      <trkpt lat="45.9297861" lon="7.6801979">
        <ele>2826.4</ele>
        <time>2014-01-29T11:31:44Z</time>
      </trkpt>
      <trkpt lat="45.9297865" lon="7.6801985">
        <ele>2825.2</ele>
        <time>2014-01-29T11:31:49Z</time>
      </trkpt>
      <trkpt lat="45.9297845" lon="7.6801971">
        <ele>2825.2</ele>
        <time>2014-01-29T11:31:53Z</time>
      </trkpt>
      <trkpt lat="45.9297788" lon="7.680193">
        <ele>2825.2</ele>
        <time>2014-01-29T11:32:03Z</time>
      </trkpt>
      <trkpt lat="45.9297777" lon="7.6802005">
        <ele>2825.2</ele>
        <time>2014-01-29T11:32:10Z</time>
      </trkpt>
      <trkpt lat="45.9297779" lon="7.6802006">
        <ele>2825.2</ele>
        <time>2014-01-29T11:32:17Z</time>
      </trkpt>
      <trkpt lat="45.9297355" lon="7.6802101">
        <ele>2825.2</ele>
        <time>2014-01-29T11:32:24Z</time>
      </trkpt>
      <trkpt lat="45.9296478" lon="7.6802205">
        <ele>2825.2</ele>
        <time>2014-01-29T11:32:27Z</time>
      </trkpt>
      <trkpt lat="45.9295694" lon="7.680203">
        <ele>2824.2</ele>
        <time>2014-01-29T11:32:28Z</time>
      </trkpt>
      <trkpt lat="45.9295251" lon="7.6801782">
        <ele>2823.2</ele>
        <time>2014-01-29T11:32:29Z</time>
      </trkpt>
      <trkpt lat="45.9294218" lon="7.6800981">
        <ele>2821.6</ele>
        <time>2014-01-29T11:32:30Z</time>
      </trkpt>
      <trkpt lat="45.9293703" lon="7.680033">
        <ele>2820.4</ele>
        <time>2014-01-29T11:32:31Z</time>
      </trkpt>
      <trkpt lat="45.9292864" lon="7.6799253">
        <ele>2819.2</ele>
        <time>2014-01-29T11:32:32Z</time>
      </trkpt>
      <trkpt lat="45.9292413" lon="7.6798556">
        <ele>2818</ele>
        <time>2014-01-29T11:32:33Z</time>
      </trkpt>
      <trkpt lat="45.9291494" lon="7.6797034">
        <ele>2816.8</ele>
        <time>2014-01-29T11:32:34Z</time>
      </trkpt>
      <trkpt lat="45.9291331" lon="7.6796744">
        <ele>2815</ele>
        <time>2014-01-29T11:32:35Z</time>
      </trkpt>
      <trkpt lat="45.929027" lon="7.6794907">
        <ele>2813.6</ele>
        <time>2014-01-29T11:32:36Z</time>
      </trkpt>
      <trkpt lat="45.9289724" lon="7.6794114">
        <ele>2812</ele>
        <time>2014-01-29T11:32:37Z</time>
      </trkpt>
      <trkpt lat="45.9288601" lon="7.6792762">
        <ele>2810.8</ele>
        <time>2014-01-29T11:32:38Z</time>
      </trkpt>
      <trkpt lat="45.9287965" lon="7.6791911">
        <ele>2809.6</ele>
        <time>2014-01-29T11:32:39Z</time>
      </trkpt>
      <trkpt lat="45.9286974" lon="7.6790667">
        <ele>2807.2</ele>
        <time>2014-01-29T11:32:40Z</time>
      </trkpt>
      <trkpt lat="45.9286312" lon="7.6790047">
        <ele>2806</ele>
        <time>2014-01-29T11:32:41Z</time>
      </trkpt>
      <trkpt lat="45.9285327" lon="7.678881">
        <ele>2804.4</ele>
        <time>2014-01-29T11:32:42Z</time>
      </trkpt>
      <trkpt lat="45.9284779" lon="7.678845">
        <ele>2802.2</ele>
        <time>2014-01-29T11:32:43Z</time>
      </trkpt>
      <trkpt lat="45.9283477" lon="7.6787679">
        <ele>2801</ele>
        <time>2014-01-29T11:32:44Z</time>
      </trkpt>
      <trkpt lat="45.9281643" lon="7.6786854">
        <ele>2798.4</ele>
        <time>2014-01-29T11:32:46Z</time>
      </trkpt>
      <trkpt lat="45.928116" lon="7.6786654">
        <ele>2797</ele>
        <time>2014-01-29T11:32:47Z</time>
      </trkpt>
      <trkpt lat="45.9279834" lon="7.6786235">
        <ele>2795.8</ele>
        <time>2014-01-29T11:32:48Z</time>
      </trkpt>
      <trkpt lat="45.9279323" lon="7.6785955">
        <ele>2794.6</ele>
        <time>2014-01-29T11:32:49Z</time>
      </trkpt>
      <trkpt lat="45.9278089" lon="7.6785558">
        <ele>2793.4</ele>
        <time>2014-01-29T11:32:50Z</time>
      </trkpt>
      <trkpt lat="45.9276452" lon="7.6785322">
        <ele>2792.4</ele>
        <time>2014-01-29T11:32:52Z</time>
      </trkpt>
      <trkpt lat="45.9274695" lon="7.6785151">
        <ele>2790.8</ele>
        <time>2014-01-29T11:32:54Z</time>
      </trkpt>
      <trkpt lat="45.9274051" lon="7.6785203">
        <ele>2790.8</ele>
        <time>2014-01-29T11:32:55Z</time>
      </trkpt>
      <trkpt lat="45.9273038" lon="7.678527">
        <ele>2789</ele>
        <time>2014-01-29T11:32:56Z</time>
      </trkpt>
      <trkpt lat="45.9271472" lon="7.6785214">
        <ele>2787.2</ele>
        <time>2014-01-29T11:32:58Z</time>
      </trkpt>
      <trkpt lat="45.927076" lon="7.6785099">
        <ele>2786</ele>
        <time>2014-01-29T11:32:59Z</time>
      </trkpt>
      <trkpt lat="45.9269669" lon="7.678484">
        <ele>2784.8</ele>
        <time>2014-01-29T11:33:00Z</time>
      </trkpt>
      <trkpt lat="45.9268983" lon="7.6784619">
        <ele>2783.8</ele>
        <time>2014-01-29T11:33:01Z</time>
      </trkpt>
      <trkpt lat="45.9267919" lon="7.6784232">
        <ele>2782.6</ele>
        <time>2014-01-29T11:33:02Z</time>
      </trkpt>
      <trkpt lat="45.9266106" lon="7.6783298">
        <ele>2780.8</ele>
        <time>2014-01-29T11:33:04Z</time>
      </trkpt>
      <trkpt lat="45.9264396" lon="7.6782072">
        <ele>2778.8</ele>
        <time>2014-01-29T11:33:06Z</time>
      </trkpt>
      <trkpt lat="45.926272" lon="7.6780935">
        <ele>2777</ele>
        <time>2014-01-29T11:33:08Z</time>
      </trkpt>
      <trkpt lat="45.9262218" lon="7.6780639">
        <ele>2775.8</ele>
        <time>2014-01-29T11:33:09Z</time>
      </trkpt>
      <trkpt lat="45.9260959" lon="7.6779992">
        <ele>2774.8</ele>
        <time>2014-01-29T11:33:10Z</time>
      </trkpt>
      <trkpt lat="45.9260259" lon="7.6779742">
        <ele>2773.6</ele>
        <time>2014-01-29T11:33:11Z</time>
      </trkpt>
      <trkpt lat="45.9259153" lon="7.677937">
        <ele>2772.4</ele>
        <time>2014-01-29T11:33:12Z</time>
      </trkpt>
      <trkpt lat="45.925856" lon="7.677921">
        <ele>2771</ele>
        <time>2014-01-29T11:33:13Z</time>
      </trkpt>
      <trkpt lat="45.9257118" lon="7.677873">
        <ele>2769.2</ele>
        <time>2014-01-29T11:33:14Z</time>
      </trkpt>
      <trkpt lat="45.9256302" lon="7.6778375">
        <ele>2767.4</ele>
        <time>2014-01-29T11:33:15Z</time>
      </trkpt>
      <trkpt lat="45.9254999" lon="7.6777745">
        <ele>2765.8</ele>
        <time>2014-01-29T11:33:16Z</time>
      </trkpt>
      <trkpt lat="45.9254473" lon="7.6777355">
        <ele>2764.4</ele>
        <time>2014-01-29T11:33:17Z</time>
      </trkpt>
      <trkpt lat="45.9253126" lon="7.6776201">
        <ele>2763.2</ele>
        <time>2014-01-29T11:33:18Z</time>
      </trkpt>
      <trkpt lat="45.9251718" lon="7.6774125">
        <ele>2761.8</ele>
        <time>2014-01-29T11:33:20Z</time>
      </trkpt>
      <trkpt lat="45.925068" lon="7.6771938">
        <ele>2760.6</ele>
        <time>2014-01-29T11:33:22Z</time>
      </trkpt>
      <trkpt lat="45.9249855" lon="7.6769741">
        <ele>2759.4</ele>
        <time>2014-01-29T11:33:24Z</time>
      </trkpt>
      <trkpt lat="45.9249247" lon="7.676759">
        <ele>2759.4</ele>
        <time>2014-01-29T11:33:26Z</time>
      </trkpt>
      <trkpt lat="45.9248958" lon="7.6765527">
        <ele>2758</ele>
        <time>2014-01-29T11:33:28Z</time>
      </trkpt>
      <trkpt lat="45.9248697" lon="7.6763504">
        <ele>2757</ele>
        <time>2014-01-29T11:33:30Z</time>
      </trkpt>
      <trkpt lat="45.9248508" lon="7.676282">
        <ele>2757</ele>
        <time>2014-01-29T11:33:31Z</time>
      </trkpt>
      <trkpt lat="45.9248284" lon="7.6761788">
        <ele>2755.6</ele>
        <time>2014-01-29T11:33:32Z</time>
      </trkpt>
      <trkpt lat="45.9247777" lon="7.6760249">
        <ele>2753.8</ele>
        <time>2014-01-29T11:33:34Z</time>
      </trkpt>
      <trkpt lat="45.9247678" lon="7.675966">
        <ele>2752.6</ele>
        <time>2014-01-29T11:33:35Z</time>
      </trkpt>
      <trkpt lat="45.9247094" lon="7.6758493">
        <ele>2751</ele>
        <time>2014-01-29T11:33:36Z</time>
      </trkpt>
      <trkpt lat="45.9246748" lon="7.6757685">
        <ele>2749.2</ele>
        <time>2014-01-29T11:33:37Z</time>
      </trkpt>
      <trkpt lat="45.9246459" lon="7.6756863">
        <ele>2747</ele>
        <time>2014-01-29T11:33:38Z</time>
      </trkpt>
      <trkpt lat="45.9245525" lon="7.6755388">
        <ele>2743.2</ele>
        <time>2014-01-29T11:33:39Z</time>
      </trkpt>
      <trkpt lat="45.924526" lon="7.6754108">
        <ele>2742.2</ele>
        <time>2014-01-29T11:33:40Z</time>
      </trkpt>
      <trkpt lat="45.9243959" lon="7.6751616">
        <ele>2740</ele>
        <time>2014-01-29T11:33:42Z</time>
      </trkpt>
      <trkpt lat="45.9243446" lon="7.6749797">
        <ele>2735.6</ele>
        <time>2014-01-29T11:33:43Z</time>
      </trkpt>
      <trkpt lat="45.924265" lon="7.6748855">
        <ele>2734</ele>
        <time>2014-01-29T11:33:44Z</time>
      </trkpt>
      <trkpt lat="45.9241933" lon="7.6747529">
        <ele>2734</ele>
        <time>2014-01-29T11:33:45Z</time>
      </trkpt>
      <trkpt lat="45.9241479" lon="7.6746314">
        <ele>2731.4</ele>
        <time>2014-01-29T11:33:46Z</time>
      </trkpt>
      <trkpt lat="45.9240916" lon="7.6745347">
        <ele>2729.8</ele>
        <time>2014-01-29T11:33:47Z</time>
      </trkpt>
      <trkpt lat="45.924001" lon="7.6743804">
        <ele>2728</ele>
        <time>2014-01-29T11:33:48Z</time>
      </trkpt>
      <trkpt lat="45.9239426" lon="7.6741983">
        <ele>2725</ele>
        <time>2014-01-29T11:33:49Z</time>
      </trkpt>
      <trkpt lat="45.9238726" lon="7.6741022">
        <ele>2722</ele>
        <time>2014-01-29T11:33:50Z</time>
      </trkpt>
      <trkpt lat="45.9238026" lon="7.6739399">
        <ele>2718.6</ele>
        <time>2014-01-29T11:33:51Z</time>
      </trkpt>
      <trkpt lat="45.9237291" lon="7.6738432">
        <ele>2715.8</ele>
        <time>2014-01-29T11:33:52Z</time>
      </trkpt>
      <trkpt lat="45.9236327" lon="7.6737768">
        <ele>2713.4</ele>
        <time>2014-01-29T11:33:53Z</time>
      </trkpt>
      <trkpt lat="45.9234456" lon="7.6737174">
        <ele>2711.8</ele>
        <time>2014-01-29T11:33:55Z</time>
      </trkpt>
      <trkpt lat="45.9233711" lon="7.6736542">
        <ele>2708.8</ele>
        <time>2014-01-29T11:33:56Z</time>
      </trkpt>
      <trkpt lat="45.9232754" lon="7.6736432">
        <ele>2707.6</ele>
        <time>2014-01-29T11:33:57Z</time>
      </trkpt>
      <trkpt lat="45.9230956" lon="7.6735928">
        <ele>2706.2</ele>
        <time>2014-01-29T11:33:59Z</time>
      </trkpt>
      <trkpt lat="45.9230244" lon="7.6735505">
        <ele>2704.8</ele>
        <time>2014-01-29T11:34:00Z</time>
      </trkpt>
      <trkpt lat="45.9229448" lon="7.673501">
        <ele>2704.8</ele>
        <time>2014-01-29T11:34:01Z</time>
      </trkpt>
      <trkpt lat="45.922805" lon="7.6734078">
        <ele>2704.8</ele>
        <time>2014-01-29T11:34:03Z</time>
      </trkpt>
      <trkpt lat="45.9227549" lon="7.6733666">
        <ele>2703.8</ele>
        <time>2014-01-29T11:34:04Z</time>
      </trkpt>
      <trkpt lat="45.9227064" lon="7.6733141">
        <ele>2703.8</ele>
        <time>2014-01-29T11:34:05Z</time>
      </trkpt>
      <trkpt lat="45.9226734" lon="7.673243">
        <ele>2702.6</ele>
        <time>2014-01-29T11:34:06Z</time>
      </trkpt>
      <trkpt lat="45.9226608" lon="7.6731594">
        <ele>2702.6</ele>
        <time>2014-01-29T11:34:07Z</time>
      </trkpt>
      <trkpt lat="45.9226921" lon="7.6730272">
        <ele>2702.6</ele>
        <time>2014-01-29T11:34:10Z</time>
      </trkpt>
      <trkpt lat="45.9227111" lon="7.6729581">
        <ele>2702.6</ele>
        <time>2014-01-29T11:34:14Z</time>
      </trkpt>
      <trkpt lat="45.9227511" lon="7.6728453">
        <ele>2702.6</ele>
        <time>2014-01-29T11:34:21Z</time>
      </trkpt>
      <trkpt lat="45.9227589" lon="7.6728393">
        <ele>2702.6</ele>
        <time>2014-01-29T11:34:22Z</time>
      </trkpt>
      <trkpt lat="45.9227688" lon="7.6728429">
        <ele>2702.6</ele>
        <time>2014-01-29T11:34:26Z</time>
      </trkpt>
      <trkpt lat="45.9227905" lon="7.6728876">
        <ele>2702.6</ele>
        <time>2014-01-29T11:34:33Z</time>
      </trkpt>
      <trkpt lat="45.9228056" lon="7.6729163">
        <ele>2702.6</ele>
        <time>2014-01-29T11:34:40Z</time>
      </trkpt>
      <trkpt lat="45.9228093" lon="7.6729434">
        <ele>2702.6</ele>
        <time>2014-01-29T11:34:50Z</time>
      </trkpt>
      <trkpt lat="45.922806" lon="7.6729791">
        <ele>2702.6</ele>
        <time>2014-01-29T11:34:53Z</time>
      </trkpt>
      <trkpt lat="45.922804" lon="7.6729986">
        <ele>2702.6</ele>
        <time>2014-01-29T11:34:56Z</time>
      </trkpt>
      <trkpt lat="45.9228035" lon="7.6730144">
        <ele>2701.6</ele>
        <time>2014-01-29T11:34:58Z</time>
      </trkpt>
      <trkpt lat="45.9227941" lon="7.6730784">
        <ele>2701.6</ele>
        <time>2014-01-29T11:35:01Z</time>
      </trkpt>
      <trkpt lat="45.9227719" lon="7.6731902">
        <ele>2701.6</ele>
        <time>2014-01-29T11:35:05Z</time>
      </trkpt>
      <trkpt lat="45.9227504" lon="7.6732994">
        <ele>2704.6</ele>
        <time>2014-01-29T11:35:09Z</time>
      </trkpt>
      <trkpt lat="45.9227458" lon="7.6733154">
        <ele>2704.6</ele>
        <time>2014-01-29T11:35:10Z</time>
      </trkpt>
      <trkpt lat="45.922734" lon="7.6733739">
        <ele>2705.6</ele>
        <time>2014-01-29T11:35:12Z</time>
      </trkpt>
      <trkpt lat="45.9227202" lon="7.6734255">
        <ele>2706.6</ele>
        <time>2014-01-29T11:35:14Z</time>
      </trkpt>
      <trkpt lat="45.9227108" lon="7.6734804">
        <ele>2707.8</ele>
        <time>2014-01-29T11:35:16Z</time>
      </trkpt>
      <trkpt lat="45.9226936" lon="7.6735631">
        <ele>2708.8</ele>
        <time>2014-01-29T11:35:19Z</time>
      </trkpt>
      <trkpt lat="45.9226812" lon="7.6736125">
        <ele>2710</ele>
        <time>2014-01-29T11:35:21Z</time>
      </trkpt>
      <trkpt lat="45.9226724" lon="7.6736647">
        <ele>2711.2</ele>
        <time>2014-01-29T11:35:23Z</time>
      </trkpt>
      <trkpt lat="45.9226594" lon="7.6737203">
        <ele>2711.2</ele>
        <time>2014-01-29T11:35:25Z</time>
      </trkpt>
      <trkpt lat="45.922656" lon="7.6737432">
        <ele>2712.2</ele>
        <time>2014-01-29T11:35:26Z</time>
      </trkpt>
      <trkpt lat="45.9226431" lon="7.6737958">
        <ele>2713.4</ele>
        <time>2014-01-29T11:35:28Z</time>
      </trkpt>
      <trkpt lat="45.9226346" lon="7.6738469">
        <ele>2714.4</ele>
        <time>2014-01-29T11:35:30Z</time>
      </trkpt>
      <trkpt lat="45.9226275" lon="7.6738745">
        <ele>2715.6</ele>
        <time>2014-01-29T11:35:31Z</time>
      </trkpt>
      <trkpt lat="45.9226162" lon="7.6739289">
        <ele>2716.6</ele>
        <time>2014-01-29T11:35:33Z</time>
      </trkpt>
      <trkpt lat="45.9226115" lon="7.673953">
        <ele>2716.6</ele>
        <time>2014-01-29T11:35:34Z</time>
      </trkpt>
      <trkpt lat="45.922607" lon="7.6739662">
        <ele>2718</ele>
        <time>2014-01-29T11:35:35Z</time>
      </trkpt>
      <trkpt lat="45.9225942" lon="7.6740307">
        <ele>2719</ele>
        <time>2014-01-29T11:35:37Z</time>
      </trkpt>
      <trkpt lat="45.9225834" lon="7.6740777">
        <ele>2720.2</ele>
        <time>2014-01-29T11:35:39Z</time>
      </trkpt>
      <trkpt lat="45.9225818" lon="7.6740918">
        <ele>2721.2</ele>
        <time>2014-01-29T11:35:40Z</time>
      </trkpt>
      <trkpt lat="45.9225699" lon="7.6741426">
        <ele>2721.2</ele>
        <time>2014-01-29T11:35:42Z</time>
      </trkpt>
      <trkpt lat="45.9225594" lon="7.6741983">
        <ele>2722.4</ele>
        <time>2014-01-29T11:35:44Z</time>
      </trkpt>
      <trkpt lat="45.9225438" lon="7.67427">
        <ele>2723.4</ele>
        <time>2014-01-29T11:35:47Z</time>
      </trkpt>
      <trkpt lat="45.9225267" lon="7.6743325">
        <ele>2724.4</ele>
        <time>2014-01-29T11:35:49Z</time>
      </trkpt>
      <trkpt lat="45.9225221" lon="7.6743533">
        <ele>2725.6</ele>
        <time>2014-01-29T11:35:50Z</time>
      </trkpt>
      <trkpt lat="45.9225162" lon="7.6743847">
        <ele>2725.6</ele>
        <time>2014-01-29T11:35:51Z</time>
      </trkpt>
      <trkpt lat="45.9225035" lon="7.6744379">
        <ele>2726.8</ele>
        <time>2014-01-29T11:35:53Z</time>
      </trkpt>
      <trkpt lat="45.9224718" lon="7.6745966">
        <ele>2728</ele>
        <time>2014-01-29T11:35:59Z</time>
      </trkpt>
      <trkpt lat="45.922458" lon="7.6746624">
        <ele>2729.2</ele>
        <time>2014-01-29T11:36:02Z</time>
      </trkpt>
      <trkpt lat="45.9224313" lon="7.6747716">
        <ele>2730.2</ele>
        <time>2014-01-29T11:36:06Z</time>
      </trkpt>
      <trkpt lat="45.9224251" lon="7.6747993">
        <ele>2730.2</ele>
        <time>2014-01-29T11:36:07Z</time>
      </trkpt>
      <trkpt lat="45.9223971" lon="7.6749347">
        <ele>2731.2</ele>
        <time>2014-01-29T11:36:12Z</time>
      </trkpt>
      <trkpt lat="45.9223672" lon="7.675068">
        <ele>2731.2</ele>
        <time>2014-01-29T11:36:17Z</time>
      </trkpt>
      <trkpt lat="45.9223543" lon="7.6751325">
        <ele>2732.2</ele>
        <time>2014-01-29T11:36:19Z</time>
      </trkpt>
      <trkpt lat="45.9223312" lon="7.6752373">
        <ele>2733.4</ele>
        <time>2014-01-29T11:36:23Z</time>
      </trkpt>
      <trkpt lat="45.9223075" lon="7.6753444">
        <ele>2734.4</ele>
        <time>2014-01-29T11:36:27Z</time>
      </trkpt>
      <trkpt lat="45.9222963" lon="7.6753991">
        <ele>2734.4</ele>
        <time>2014-01-29T11:36:29Z</time>
      </trkpt>
      <trkpt lat="45.9222921" lon="7.6754216">
        <ele>2735.4</ele>
        <time>2014-01-29T11:36:30Z</time>
      </trkpt>
      <trkpt lat="45.9222588" lon="7.675576">
        <ele>2735.4</ele>
        <time>2014-01-29T11:36:36Z</time>
      </trkpt>
      <trkpt lat="45.9222405" lon="7.6756608">
        <ele>2736.4</ele>
        <time>2014-01-29T11:36:39Z</time>
      </trkpt>
      <trkpt lat="45.9222013" lon="7.6758448">
        <ele>2737.4</ele>
        <time>2014-01-29T11:36:46Z</time>
      </trkpt>
      <trkpt lat="45.9221723" lon="7.6759774">
        <ele>2737.4</ele>
        <time>2014-01-29T11:36:51Z</time>
      </trkpt>
      <trkpt lat="45.9221478" lon="7.6760879">
        <ele>2738.4</ele>
        <time>2014-01-29T11:36:55Z</time>
      </trkpt>
      <trkpt lat="45.9221197" lon="7.6762187">
        <ele>2739.6</ele>
        <time>2014-01-29T11:37:00Z</time>
      </trkpt>
      <trkpt lat="45.9221005" lon="7.6763019">
        <ele>2739.6</ele>
        <time>2014-01-29T11:37:03Z</time>
      </trkpt>
      <trkpt lat="45.9220895" lon="7.6763511">
        <ele>2740.6</ele>
        <time>2014-01-29T11:37:05Z</time>
      </trkpt>
      <trkpt lat="45.9220718" lon="7.6764317">
        <ele>2741.6</ele>
        <time>2014-01-29T11:37:08Z</time>
      </trkpt>
      <trkpt lat="45.9220502" lon="7.6765302">
        <ele>2742.6</ele>
        <time>2014-01-29T11:37:12Z</time>
      </trkpt>
      <trkpt lat="45.9220444" lon="7.6765526">
        <ele>2742.6</ele>
        <time>2014-01-29T11:37:13Z</time>
      </trkpt>
      <trkpt lat="45.922031" lon="7.6766166">
        <ele>2743.8</ele>
        <time>2014-01-29T11:37:15Z</time>
      </trkpt>
      <trkpt lat="45.9220215" lon="7.6766764">
        <ele>2745</ele>
        <time>2014-01-29T11:37:18Z</time>
      </trkpt>
      <trkpt lat="45.9220191" lon="7.6766937">
        <ele>2746</ele>
        <time>2014-01-29T11:37:19Z</time>
      </trkpt>
      <trkpt lat="45.9220162" lon="7.6767109">
        <ele>2746</ele>
        <time>2014-01-29T11:37:20Z</time>
      </trkpt>
      <trkpt lat="45.9220118" lon="7.6767371">
        <ele>2747</ele>
        <time>2014-01-29T11:37:21Z</time>
      </trkpt>
      <trkpt lat="45.9220008" lon="7.676781">
        <ele>2748.2</ele>
        <time>2014-01-29T11:37:23Z</time>
      </trkpt>
      <trkpt lat="45.9219953" lon="7.6768073">
        <ele>2749.2</ele>
        <time>2014-01-29T11:37:24Z</time>
      </trkpt>
      <trkpt lat="45.9219886" lon="7.6768344">
        <ele>2750.4</ele>
        <time>2014-01-29T11:37:25Z</time>
      </trkpt>
      <trkpt lat="45.9219783" lon="7.6768747">
        <ele>2751.4</ele>
        <time>2014-01-29T11:37:27Z</time>
      </trkpt>
      <trkpt lat="45.921972" lon="7.6769062">
        <ele>2752.6</ele>
        <time>2014-01-29T11:37:28Z</time>
      </trkpt>
      <trkpt lat="45.9219654" lon="7.6769318">
        <ele>2753.6</ele>
        <time>2014-01-29T11:37:29Z</time>
      </trkpt>
      <trkpt lat="45.9219544" lon="7.6769808">
        <ele>2754.6</ele>
        <time>2014-01-29T11:37:31Z</time>
      </trkpt>
      <trkpt lat="45.9219487" lon="7.6770036">
        <ele>2755.8</ele>
        <time>2014-01-29T11:37:32Z</time>
      </trkpt>
      <trkpt lat="45.9219411" lon="7.6770335">
        <ele>2756.8</ele>
        <time>2014-01-29T11:37:33Z</time>
      </trkpt>
      <trkpt lat="45.9219362" lon="7.6770556">
        <ele>2758</ele>
        <time>2014-01-29T11:37:34Z</time>
      </trkpt>
      <trkpt lat="45.9219245" lon="7.6771051">
        <ele>2759.2</ele>
        <time>2014-01-29T11:37:36Z</time>
      </trkpt>
      <trkpt lat="45.9219179" lon="7.6771315">
        <ele>2760.2</ele>
        <time>2014-01-29T11:37:37Z</time>
      </trkpt>
      <trkpt lat="45.9219131" lon="7.6771555">
        <ele>2761.6</ele>
        <time>2014-01-29T11:37:38Z</time>
      </trkpt>
      <trkpt lat="45.9219069" lon="7.6771828">
        <ele>2762.6</ele>
        <time>2014-01-29T11:37:39Z</time>
      </trkpt>
      <trkpt lat="45.9218947" lon="7.6772292">
        <ele>2763.6</ele>
        <time>2014-01-29T11:37:41Z</time>
      </trkpt>
      <trkpt lat="45.9218906" lon="7.6772505">
        <ele>2764.8</ele>
        <time>2014-01-29T11:37:42Z</time>
      </trkpt>
      <trkpt lat="45.9218829" lon="7.6772827">
        <ele>2766</ele>
        <time>2014-01-29T11:37:43Z</time>
      </trkpt>
      <trkpt lat="45.9218731" lon="7.6773303">
        <ele>2767</ele>
        <time>2014-01-29T11:37:45Z</time>
      </trkpt>
      <trkpt lat="45.9218683" lon="7.6773505">
        <ele>2768</ele>
        <time>2014-01-29T11:37:46Z</time>
      </trkpt>
      <trkpt lat="45.9218622" lon="7.6773745">
        <ele>2769.2</ele>
        <time>2014-01-29T11:37:47Z</time>
      </trkpt>
      <trkpt lat="45.9218503" lon="7.6774275">
        <ele>2770.6</ele>
        <time>2014-01-29T11:37:49Z</time>
      </trkpt>
      <trkpt lat="45.921845" lon="7.6774478">
        <ele>2771.6</ele>
        <time>2014-01-29T11:37:50Z</time>
      </trkpt>
      <trkpt lat="45.9218392" lon="7.6774728">
        <ele>2773</ele>
        <time>2014-01-29T11:37:51Z</time>
      </trkpt>
      <trkpt lat="45.9218348" lon="7.677494">
        <ele>2774.2</ele>
        <time>2014-01-29T11:37:52Z</time>
      </trkpt>
      <trkpt lat="45.921829" lon="7.6775205">
        <ele>2775.2</ele>
        <time>2014-01-29T11:37:53Z</time>
      </trkpt>
      <trkpt lat="45.921817" lon="7.677571">
        <ele>2776.4</ele>
        <time>2014-01-29T11:37:55Z</time>
      </trkpt>
      <trkpt lat="45.9218125" lon="7.677592">
        <ele>2777.6</ele>
        <time>2014-01-29T11:37:56Z</time>
      </trkpt>
      <trkpt lat="45.921808" lon="7.6776097">
        <ele>2778.6</ele>
        <time>2014-01-29T11:37:57Z</time>
      </trkpt>
      <trkpt lat="45.9218007" lon="7.6776409">
        <ele>2779.8</ele>
        <time>2014-01-29T11:37:58Z</time>
      </trkpt>
      <trkpt lat="45.9217957" lon="7.6776656">
        <ele>2781</ele>
        <time>2014-01-29T11:37:59Z</time>
      </trkpt>
      <trkpt lat="45.921785" lon="7.6777119">
        <ele>2782.2</ele>
        <time>2014-01-29T11:38:01Z</time>
      </trkpt>
      <trkpt lat="45.9217799" lon="7.6777335">
        <ele>2783.2</ele>
        <time>2014-01-29T11:38:02Z</time>
      </trkpt>
      <trkpt lat="45.9217739" lon="7.6777619">
        <ele>2784.4</ele>
        <time>2014-01-29T11:38:03Z</time>
      </trkpt>
      <trkpt lat="45.921768" lon="7.6777842">
        <ele>2785.6</ele>
        <time>2014-01-29T11:38:04Z</time>
      </trkpt>
      <trkpt lat="45.9217627" lon="7.677807">
        <ele>2786.8</ele>
        <time>2014-01-29T11:38:05Z</time>
      </trkpt>
      <trkpt lat="45.9217561" lon="7.6778464">
        <ele>2788</ele>
        <time>2014-01-29T11:38:07Z</time>
      </trkpt>
      <trkpt lat="45.921754" lon="7.6778637">
        <ele>2789.2</ele>
        <time>2014-01-29T11:38:08Z</time>
      </trkpt>
      <trkpt lat="45.9217506" lon="7.6778889">
        <ele>2790.6</ele>
        <time>2014-01-29T11:38:09Z</time>
      </trkpt>
      <trkpt lat="45.9217395" lon="7.6779354">
        <ele>2791.8</ele>
        <time>2014-01-29T11:38:11Z</time>
      </trkpt>
      <trkpt lat="45.921734" lon="7.677957">
        <ele>2793</ele>
        <time>2014-01-29T11:38:12Z</time>
      </trkpt>
      <trkpt lat="45.9217218" lon="7.6780098">
        <ele>2794.2</ele>
        <time>2014-01-29T11:38:14Z</time>
      </trkpt>
      <trkpt lat="45.9217155" lon="7.6780378">
        <ele>2795.4</ele>
        <time>2014-01-29T11:38:15Z</time>
      </trkpt>
      <trkpt lat="45.9217068" lon="7.6780794">
        <ele>2796.6</ele>
        <time>2014-01-29T11:38:17Z</time>
      </trkpt>
      <trkpt lat="45.9216996" lon="7.6781111">
        <ele>2797.8</ele>
        <time>2014-01-29T11:38:18Z</time>
      </trkpt>
      <trkpt lat="45.9216935" lon="7.6781377">
        <ele>2799</ele>
        <time>2014-01-29T11:38:19Z</time>
      </trkpt>
      <trkpt lat="45.9216837" lon="7.6781848">
        <ele>2800</ele>
        <time>2014-01-29T11:38:21Z</time>
      </trkpt>
      <trkpt lat="45.9216788" lon="7.6782065">
        <ele>2801.2</ele>
        <time>2014-01-29T11:38:22Z</time>
      </trkpt>
      <trkpt lat="45.9216682" lon="7.6782556">
        <ele>2802.4</ele>
        <time>2014-01-29T11:38:24Z</time>
      </trkpt>
      <trkpt lat="45.9216614" lon="7.6782856">
        <ele>2803.6</ele>
        <time>2014-01-29T11:38:25Z</time>
      </trkpt>
      <trkpt lat="45.9216567" lon="7.6783069">
        <ele>2804.6</ele>
        <time>2014-01-29T11:38:26Z</time>
      </trkpt>
      <trkpt lat="45.9216474" lon="7.6783552">
        <ele>2805.8</ele>
        <time>2014-01-29T11:38:28Z</time>
      </trkpt>
      <trkpt lat="45.9216442" lon="7.678374">
        <ele>2807</ele>
        <time>2014-01-29T11:38:29Z</time>
      </trkpt>
      <trkpt lat="45.921646" lon="7.6783863">
        <ele>2807</ele>
        <time>2014-01-29T11:38:30Z</time>
      </trkpt>
      <trkpt lat="45.9216384" lon="7.6784115">
        <ele>2808.4</ele>
        <time>2014-01-29T11:38:31Z</time>
      </trkpt>
      <trkpt lat="45.921625" lon="7.6784632">
        <ele>2809.4</ele>
        <time>2014-01-29T11:38:33Z</time>
      </trkpt>
      <trkpt lat="45.9216141" lon="7.6785151">
        <ele>2810.6</ele>
        <time>2014-01-29T11:38:35Z</time>
      </trkpt>
      <trkpt lat="45.9216088" lon="7.6785388">
        <ele>2810.6</ele>
        <time>2014-01-29T11:38:36Z</time>
      </trkpt>
      <trkpt lat="45.9215985" lon="7.678593">
        <ele>2811.6</ele>
        <time>2014-01-29T11:38:38Z</time>
      </trkpt>
      <trkpt lat="45.9215834" lon="7.6786658">
        <ele>2812.8</ele>
        <time>2014-01-29T11:38:41Z</time>
      </trkpt>
      <trkpt lat="45.9215685" lon="7.6787262">
        <ele>2813.8</ele>
        <time>2014-01-29T11:38:43Z</time>
      </trkpt>
      <trkpt lat="45.9215513" lon="7.6788012">
        <ele>2815</ele>
        <time>2014-01-29T11:38:46Z</time>
      </trkpt>
      <trkpt lat="45.9215333" lon="7.678882">
        <ele>2816.2</ele>
        <time>2014-01-29T11:38:49Z</time>
      </trkpt>
      <trkpt lat="45.9215288" lon="7.6789028">
        <ele>2816.2</ele>
        <time>2014-01-29T11:38:50Z</time>
      </trkpt>
      <trkpt lat="45.9215237" lon="7.6789301">
        <ele>2817.4</ele>
        <time>2014-01-29T11:38:51Z</time>
      </trkpt>
      <trkpt lat="45.9215058" lon="7.6790079">
        <ele>2818.4</ele>
        <time>2014-01-29T11:38:54Z</time>
      </trkpt>
      <trkpt lat="45.9214984" lon="7.6790534">
        <ele>2819.8</ele>
        <time>2014-01-29T11:38:56Z</time>
      </trkpt>
      <trkpt lat="45.9214928" lon="7.6790948">
        <ele>2820.8</ele>
        <time>2014-01-29T11:38:58Z</time>
      </trkpt>
      <trkpt lat="45.9214858" lon="7.6791207">
        <ele>2822</ele>
        <time>2014-01-29T11:38:59Z</time>
      </trkpt>
      <trkpt lat="45.9214799" lon="7.6791445">
        <ele>2822</ele>
        <time>2014-01-29T11:39:00Z</time>
      </trkpt>
      <trkpt lat="45.9214732" lon="7.6791706">
        <ele>2823.2</ele>
        <time>2014-01-29T11:39:01Z</time>
      </trkpt>
      <trkpt lat="45.9214601" lon="7.6792251">
        <ele>2824.2</ele>
        <time>2014-01-29T11:39:03Z</time>
      </trkpt>
      <trkpt lat="45.9214542" lon="7.6792485">
        <ele>2825.2</ele>
        <time>2014-01-29T11:39:04Z</time>
      </trkpt>
      <trkpt lat="45.9214483" lon="7.6792751">
        <ele>2826.4</ele>
        <time>2014-01-29T11:39:05Z</time>
      </trkpt>
      <trkpt lat="45.9214363" lon="7.6793253">
        <ele>2827.4</ele>
        <time>2014-01-29T11:39:07Z</time>
      </trkpt>
      <trkpt lat="45.9214238" lon="7.6793797">
        <ele>2828.6</ele>
        <time>2014-01-29T11:39:09Z</time>
      </trkpt>
      <trkpt lat="45.9214188" lon="7.6794013">
        <ele>2829.8</ele>
        <time>2014-01-29T11:39:10Z</time>
      </trkpt>
      <trkpt lat="45.9214086" lon="7.6794496">
        <ele>2830.8</ele>
        <time>2014-01-29T11:39:12Z</time>
      </trkpt>
      <trkpt lat="45.9214016" lon="7.6794807">
        <ele>2831.8</ele>
        <time>2014-01-29T11:39:13Z</time>
      </trkpt>
      <trkpt lat="45.9213902" lon="7.6795325">
        <ele>2833</ele>
        <time>2014-01-29T11:39:15Z</time>
      </trkpt>
      <trkpt lat="45.9213857" lon="7.6795541">
        <ele>2834.2</ele>
        <time>2014-01-29T11:39:16Z</time>
      </trkpt>
      <trkpt lat="45.9213814" lon="7.6795716">
        <ele>2835.2</ele>
        <time>2014-01-29T11:39:17Z</time>
      </trkpt>
      <trkpt lat="45.9213686" lon="7.6796309">
        <ele>2836.6</ele>
        <time>2014-01-29T11:39:19Z</time>
      </trkpt>
      <trkpt lat="45.9213644" lon="7.6796508">
        <ele>2837.6</ele>
        <time>2014-01-29T11:39:20Z</time>
      </trkpt>
      <trkpt lat="45.9213584" lon="7.6796783">
        <ele>2838.6</ele>
        <time>2014-01-29T11:39:21Z</time>
      </trkpt>
      <trkpt lat="45.9213471" lon="7.6797278">
        <ele>2839.8</ele>
        <time>2014-01-29T11:39:23Z</time>
      </trkpt>
      <trkpt lat="45.9213403" lon="7.679754">
        <ele>2841</ele>
        <time>2014-01-29T11:39:24Z</time>
      </trkpt>
      <trkpt lat="45.9213298" lon="7.6798028">
        <ele>2842.2</ele>
        <time>2014-01-29T11:39:26Z</time>
      </trkpt>
      <trkpt lat="45.9213247" lon="7.6798209">
        <ele>2843.2</ele>
        <time>2014-01-29T11:39:27Z</time>
      </trkpt>
      <trkpt lat="45.9213182" lon="7.6798526">
        <ele>2844.2</ele>
        <time>2014-01-29T11:39:28Z</time>
      </trkpt>
      <trkpt lat="45.9213074" lon="7.6799014">
        <ele>2845.4</ele>
        <time>2014-01-29T11:39:30Z</time>
      </trkpt>
      <trkpt lat="45.9213014" lon="7.6799274">
        <ele>2846.4</ele>
        <time>2014-01-29T11:39:31Z</time>
      </trkpt>
      <trkpt lat="45.92129" lon="7.6799789">
        <ele>2847.6</ele>
        <time>2014-01-29T11:39:33Z</time>
      </trkpt>
      <trkpt lat="45.9212852" lon="7.6800007">
        <ele>2848.8</ele>
        <time>2014-01-29T11:39:34Z</time>
      </trkpt>
      <trkpt lat="45.9212795" lon="7.6800255">
        <ele>2849.8</ele>
        <time>2014-01-29T11:39:35Z</time>
      </trkpt>
      <trkpt lat="45.9212694" lon="7.6800731">
        <ele>2851.2</ele>
        <time>2014-01-29T11:39:37Z</time>
      </trkpt>
      <trkpt lat="45.9212635" lon="7.6800977">
        <ele>2852.6</ele>
        <time>2014-01-29T11:39:38Z</time>
      </trkpt>
      <trkpt lat="45.9212582" lon="7.6801241">
        <ele>2853.6</ele>
        <time>2014-01-29T11:39:39Z</time>
      </trkpt>
      <trkpt lat="45.921253" lon="7.6801446">
        <ele>2855</ele>
        <time>2014-01-29T11:39:40Z</time>
      </trkpt>
      <trkpt lat="45.9212485" lon="7.6801643">
        <ele>2855</ele>
        <time>2014-01-29T11:39:41Z</time>
      </trkpt>
      <trkpt lat="45.9212431" lon="7.6801905">
        <ele>2856</ele>
        <time>2014-01-29T11:39:42Z</time>
      </trkpt>
      <trkpt lat="45.9212361" lon="7.680221">
        <ele>2857.2</ele>
        <time>2014-01-29T11:39:43Z</time>
      </trkpt>
      <trkpt lat="45.9212313" lon="7.6802422">
        <ele>2858.6</ele>
        <time>2014-01-29T11:39:44Z</time>
      </trkpt>
      <trkpt lat="45.9212211" lon="7.6802822">
        <ele>2859.6</ele>
        <time>2014-01-29T11:39:46Z</time>
      </trkpt>
      <trkpt lat="45.9212098" lon="7.6803366">
        <ele>2860.8</ele>
        <time>2014-01-29T11:39:48Z</time>
      </trkpt>
      <trkpt lat="45.9212035" lon="7.6803637">
        <ele>2861.8</ele>
        <time>2014-01-29T11:39:49Z</time>
      </trkpt>
      <trkpt lat="45.9211993" lon="7.6803845">
        <ele>2861.8</ele>
        <time>2014-01-29T11:39:50Z</time>
      </trkpt>
      <trkpt lat="45.9211928" lon="7.6804123">
        <ele>2863</ele>
        <time>2014-01-29T11:39:51Z</time>
      </trkpt>
      <trkpt lat="45.921181" lon="7.6804608">
        <ele>2864.2</ele>
        <time>2014-01-29T11:39:53Z</time>
      </trkpt>
      <trkpt lat="45.9211686" lon="7.6805152">
        <ele>2865.6</ele>
        <time>2014-01-29T11:39:55Z</time>
      </trkpt>
      <trkpt lat="45.9211639" lon="7.6805357">
        <ele>2866.6</ele>
        <time>2014-01-29T11:39:56Z</time>
      </trkpt>
      <trkpt lat="45.9211521" lon="7.680587">
        <ele>2868</ele>
        <time>2014-01-29T11:39:58Z</time>
      </trkpt>
      <trkpt lat="45.9211466" lon="7.6806126">
        <ele>2869</ele>
        <time>2014-01-29T11:39:59Z</time>
      </trkpt>
      <trkpt lat="45.9211352" lon="7.6806638">
        <ele>2870.2</ele>
        <time>2014-01-29T11:40:01Z</time>
      </trkpt>
      <trkpt lat="45.92113" lon="7.6806862">
        <ele>2871.4</ele>
        <time>2014-01-29T11:40:02Z</time>
      </trkpt>
      <trkpt lat="45.9211232" lon="7.6807156">
        <ele>2871.4</ele>
        <time>2014-01-29T11:40:03Z</time>
      </trkpt>
      <trkpt lat="45.9211179" lon="7.6807384">
        <ele>2872.4</ele>
        <time>2014-01-29T11:40:04Z</time>
      </trkpt>
      <trkpt lat="45.921112" lon="7.6807643">
        <ele>2873.6</ele>
        <time>2014-01-29T11:40:05Z</time>
      </trkpt>
      <trkpt lat="45.921102" lon="7.6808128">
        <ele>2874.6</ele>
        <time>2014-01-29T11:40:07Z</time>
      </trkpt>
      <trkpt lat="45.9210966" lon="7.6808374">
        <ele>2875.6</ele>
        <time>2014-01-29T11:40:08Z</time>
      </trkpt>
      <trkpt lat="45.9210914" lon="7.6808646">
        <ele>2876.8</ele>
        <time>2014-01-29T11:40:09Z</time>
      </trkpt>
      <trkpt lat="45.9210888" lon="7.6808918">
        <ele>2877.8</ele>
        <time>2014-01-29T11:40:11Z</time>
      </trkpt>
      <trkpt lat="45.921079" lon="7.6809461">
        <ele>2879</ele>
        <time>2014-01-29T11:40:13Z</time>
      </trkpt>
      <trkpt lat="45.9210724" lon="7.6809714">
        <ele>2879</ele>
        <time>2014-01-29T11:40:14Z</time>
      </trkpt>
      <trkpt lat="45.9210463" lon="7.6810795">
        <ele>2880.2</ele>
        <time>2014-01-29T11:40:18Z</time>
      </trkpt>
      <trkpt lat="45.9210218" lon="7.6811872">
        <ele>2881.2</ele>
        <time>2014-01-29T11:40:22Z</time>
      </trkpt>
      <trkpt lat="45.9210028" lon="7.681273">
        <ele>2882.4</ele>
        <time>2014-01-29T11:40:25Z</time>
      </trkpt>
      <trkpt lat="45.9209854" lon="7.6813518">
        <ele>2883.4</ele>
        <time>2014-01-29T11:40:28Z</time>
      </trkpt>
      <trkpt lat="45.920968" lon="7.681432">
        <ele>2884.6</ele>
        <time>2014-01-29T11:40:31Z</time>
      </trkpt>
      <trkpt lat="45.920943" lon="7.6815381">
        <ele>2885.6</ele>
        <time>2014-01-29T11:40:35Z</time>
      </trkpt>
      <trkpt lat="45.9209179" lon="7.681645">
        <ele>2886.8</ele>
        <time>2014-01-29T11:40:39Z</time>
      </trkpt>
      <trkpt lat="45.9209086" lon="7.6816885">
        <ele>2887.8</ele>
        <time>2014-01-29T11:40:41Z</time>
      </trkpt>
      <trkpt lat="45.9208953" lon="7.6817506">
        <ele>2889</ele>
        <time>2014-01-29T11:40:43Z</time>
      </trkpt>
      <trkpt lat="45.920879" lon="7.6818263">
        <ele>2890</ele>
        <time>2014-01-29T11:40:46Z</time>
      </trkpt>
      <trkpt lat="45.9208668" lon="7.6818796">
        <ele>2891</ele>
        <time>2014-01-29T11:40:48Z</time>
      </trkpt>
      <trkpt lat="45.920849" lon="7.6819573">
        <ele>2892</ele>
        <time>2014-01-29T11:40:51Z</time>
      </trkpt>
      <trkpt lat="45.9208438" lon="7.6819942">
        <ele>2893.4</ele>
        <time>2014-01-29T11:40:53Z</time>
      </trkpt>
      <trkpt lat="45.9208334" lon="7.6820166">
        <ele>2893.4</ele>
        <time>2014-01-29T11:40:54Z</time>
      </trkpt>
      <trkpt lat="45.9208163" lon="7.6820881">
        <ele>2894.4</ele>
        <time>2014-01-29T11:40:57Z</time>
      </trkpt>
      <trkpt lat="45.9207906" lon="7.6821991">
        <ele>2895.6</ele>
        <time>2014-01-29T11:41:01Z</time>
      </trkpt>
      <trkpt lat="45.9207792" lon="7.6822541">
        <ele>2895.6</ele>
        <time>2014-01-29T11:41:03Z</time>
      </trkpt>
      <trkpt lat="45.9207672" lon="7.682305">
        <ele>2896.6</ele>
        <time>2014-01-29T11:41:05Z</time>
      </trkpt>
      <trkpt lat="45.9207506" lon="7.6823828">
        <ele>2897.6</ele>
        <time>2014-01-29T11:41:08Z</time>
      </trkpt>
      <trkpt lat="45.9207281" lon="7.6824846">
        <ele>2898.8</ele>
        <time>2014-01-29T11:41:12Z</time>
      </trkpt>
      <trkpt lat="45.9207091" lon="7.6825703">
        <ele>2899.8</ele>
        <time>2014-01-29T11:41:15Z</time>
      </trkpt>
      <trkpt lat="45.9206921" lon="7.6826467">
        <ele>2900.8</ele>
        <time>2014-01-29T11:41:18Z</time>
      </trkpt>
      <trkpt lat="45.9206817" lon="7.6826986">
        <ele>2900.8</ele>
        <time>2014-01-29T11:41:20Z</time>
      </trkpt>
      <trkpt lat="45.9206699" lon="7.68275">
        <ele>2902</ele>
        <time>2014-01-29T11:41:22Z</time>
      </trkpt>
      <trkpt lat="45.9206583" lon="7.682807">
        <ele>2903</ele>
        <time>2014-01-29T11:41:24Z</time>
      </trkpt>
      <trkpt lat="45.9206351" lon="7.6829135">
        <ele>2904.2</ele>
        <time>2014-01-29T11:41:28Z</time>
      </trkpt>
      <trkpt lat="45.9206244" lon="7.6829647">
        <ele>2905.2</ele>
        <time>2014-01-29T11:41:30Z</time>
      </trkpt>
      <trkpt lat="45.9206065" lon="7.6830486">
        <ele>2906.4</ele>
        <time>2014-01-29T11:41:33Z</time>
      </trkpt>
      <trkpt lat="45.9206016" lon="7.6830728">
        <ele>2906.4</ele>
        <time>2014-01-29T11:41:34Z</time>
      </trkpt>
      <trkpt lat="45.9205898" lon="7.6831246">
        <ele>2907.4</ele>
        <time>2014-01-29T11:41:36Z</time>
      </trkpt>
      <trkpt lat="45.9205716" lon="7.6832068">
        <ele>2908.6</ele>
        <time>2014-01-29T11:41:39Z</time>
      </trkpt>
      <trkpt lat="45.9205625" lon="7.683249">
        <ele>2909.6</ele>
        <time>2014-01-29T11:41:41Z</time>
      </trkpt>
      <trkpt lat="45.9205487" lon="7.6833106">
        <ele>2910.6</ele>
        <time>2014-01-29T11:41:43Z</time>
      </trkpt>
      <trkpt lat="45.9205328" lon="7.6833851">
        <ele>2911.6</ele>
        <time>2014-01-29T11:41:46Z</time>
      </trkpt>
      <trkpt lat="45.9205211" lon="7.6834378">
        <ele>2912.8</ele>
        <time>2014-01-29T11:41:48Z</time>
      </trkpt>
      <trkpt lat="45.9205104" lon="7.6834872">
        <ele>2913.8</ele>
        <time>2014-01-29T11:41:50Z</time>
      </trkpt>
      <trkpt lat="45.9204985" lon="7.6835396">
        <ele>2915</ele>
        <time>2014-01-29T11:41:52Z</time>
      </trkpt>
      <trkpt lat="45.9204796" lon="7.6836197">
        <ele>2916</ele>
        <time>2014-01-29T11:41:55Z</time>
      </trkpt>
      <trkpt lat="45.9204744" lon="7.6836424">
        <ele>2917</ele>
        <time>2014-01-29T11:41:56Z</time>
      </trkpt>
      <trkpt lat="45.9204631" lon="7.6836946">
        <ele>2918</ele>
        <time>2014-01-29T11:41:58Z</time>
      </trkpt>
      <trkpt lat="45.9204526" lon="7.6837448">
        <ele>2919.2</ele>
        <time>2014-01-29T11:42:00Z</time>
      </trkpt>
      <trkpt lat="45.9204477" lon="7.6837875">
        <ele>2919.2</ele>
        <time>2014-01-29T11:42:02Z</time>
      </trkpt>
      <trkpt lat="45.9204402" lon="7.6838199">
        <ele>2920.4</ele>
        <time>2014-01-29T11:42:03Z</time>
      </trkpt>
      <trkpt lat="45.920428" lon="7.6838688">
        <ele>2921.4</ele>
        <time>2014-01-29T11:42:05Z</time>
      </trkpt>
      <trkpt lat="45.9204121" lon="7.6839459">
        <ele>2922.4</ele>
        <time>2014-01-29T11:42:08Z</time>
      </trkpt>
      <trkpt lat="45.9203962" lon="7.6840163">
        <ele>2923.6</ele>
        <time>2014-01-29T11:42:11Z</time>
      </trkpt>
      <trkpt lat="45.9203766" lon="7.6841021">
        <ele>2924.6</ele>
        <time>2014-01-29T11:42:14Z</time>
      </trkpt>
      <trkpt lat="45.9203616" lon="7.6841725">
        <ele>2925.6</ele>
        <time>2014-01-29T11:42:17Z</time>
      </trkpt>
      <trkpt lat="45.9203483" lon="7.684234">
        <ele>2926.6</ele>
        <time>2014-01-29T11:42:19Z</time>
      </trkpt>
      <trkpt lat="45.920332" lon="7.6843074">
        <ele>2927.8</ele>
        <time>2014-01-29T11:42:22Z</time>
      </trkpt>
      <trkpt lat="45.9203129" lon="7.6843913">
        <ele>2929</ele>
        <time>2014-01-29T11:42:25Z</time>
      </trkpt>
      <trkpt lat="45.9203021" lon="7.6844394">
        <ele>2930.2</ele>
        <time>2014-01-29T11:42:27Z</time>
      </trkpt>
      <trkpt lat="45.9202911" lon="7.684492">
        <ele>2931.2</ele>
        <time>2014-01-29T11:42:29Z</time>
      </trkpt>
      <trkpt lat="45.9202791" lon="7.6845421">
        <ele>2932.2</ele>
        <time>2014-01-29T11:42:31Z</time>
      </trkpt>
      <trkpt lat="45.920271" lon="7.6845924">
        <ele>2933.4</ele>
        <time>2014-01-29T11:42:33Z</time>
      </trkpt>
      <trkpt lat="45.9202423" lon="7.6846903">
        <ele>2934.6</ele>
        <time>2014-01-29T11:42:37Z</time>
      </trkpt>
      <trkpt lat="45.9202295" lon="7.684746">
        <ele>2935.6</ele>
        <time>2014-01-29T11:42:39Z</time>
      </trkpt>
      <trkpt lat="45.9202133" lon="7.6848209">
        <ele>2937</ele>
        <time>2014-01-29T11:42:42Z</time>
      </trkpt>
      <trkpt lat="45.920195" lon="7.6849063">
        <ele>2938.2</ele>
        <time>2014-01-29T11:42:45Z</time>
      </trkpt>
      <trkpt lat="45.9201863" lon="7.6849489">
        <ele>2939.2</ele>
        <time>2014-01-29T11:42:47Z</time>
      </trkpt>
      <trkpt lat="45.9201727" lon="7.6850116">
        <ele>2940.2</ele>
        <time>2014-01-29T11:42:49Z</time>
      </trkpt>
      <trkpt lat="45.9201568" lon="7.6850869">
        <ele>2941.4</ele>
        <time>2014-01-29T11:42:52Z</time>
      </trkpt>
      <trkpt lat="45.9201452" lon="7.6851423">
        <ele>2941.4</ele>
        <time>2014-01-29T11:42:54Z</time>
      </trkpt>
      <trkpt lat="45.9201387" lon="7.6851711">
        <ele>2942.4</ele>
        <time>2014-01-29T11:42:55Z</time>
      </trkpt>
      <trkpt lat="45.9201225" lon="7.6852473">
        <ele>2943.6</ele>
        <time>2014-01-29T11:42:58Z</time>
      </trkpt>
      <trkpt lat="45.9201166" lon="7.6852742">
        <ele>2944.8</ele>
        <time>2014-01-29T11:42:59Z</time>
      </trkpt>
      <trkpt lat="45.920102" lon="7.6853436">
        <ele>2946</ele>
        <time>2014-01-29T11:43:02Z</time>
      </trkpt>
      <trkpt lat="45.9200979" lon="7.685371">
        <ele>2947.2</ele>
        <time>2014-01-29T11:43:03Z</time>
      </trkpt>
      <trkpt lat="45.9200875" lon="7.6854155">
        <ele>2948.4</ele>
        <time>2014-01-29T11:43:05Z</time>
      </trkpt>
      <trkpt lat="45.9200792" lon="7.6854602">
        <ele>2949.6</ele>
        <time>2014-01-29T11:43:07Z</time>
      </trkpt>
      <trkpt lat="45.9200741" lon="7.6854834">
        <ele>2950.8</ele>
        <time>2014-01-29T11:43:08Z</time>
      </trkpt>
      <trkpt lat="45.9200689" lon="7.6855124">
        <ele>2952.2</ele>
        <time>2014-01-29T11:43:09Z</time>
      </trkpt>
      <trkpt lat="45.9200647" lon="7.6855321">
        <ele>2953.6</ele>
        <time>2014-01-29T11:43:10Z</time>
      </trkpt>
      <trkpt lat="45.9200547" lon="7.685579">
        <ele>2954.8</ele>
        <time>2014-01-29T11:43:12Z</time>
      </trkpt>
      <trkpt lat="45.9200513" lon="7.6855952">
        <ele>2956</ele>
        <time>2014-01-29T11:43:13Z</time>
      </trkpt>
      <trkpt lat="45.9200441" lon="7.6856288">
        <ele>2957</ele>
        <time>2014-01-29T11:43:14Z</time>
      </trkpt>
      <trkpt lat="45.9200383" lon="7.6856561">
        <ele>2958</ele>
        <time>2014-01-29T11:43:15Z</time>
      </trkpt>
      <trkpt lat="45.9200342" lon="7.6856765">
        <ele>2959.2</ele>
        <time>2014-01-29T11:43:16Z</time>
      </trkpt>
      <trkpt lat="45.9200238" lon="7.685725">
        <ele>2960.4</ele>
        <time>2014-01-29T11:43:18Z</time>
      </trkpt>
      <trkpt lat="45.9200186" lon="7.6857495">
        <ele>2961.4</ele>
        <time>2014-01-29T11:43:19Z</time>
      </trkpt>
      <trkpt lat="45.920014" lon="7.6857698">
        <ele>2962.4</ele>
        <time>2014-01-29T11:43:20Z</time>
      </trkpt>
      <trkpt lat="45.9200086" lon="7.6857949">
        <ele>2964</ele>
        <time>2014-01-29T11:43:21Z</time>
      </trkpt>
      <trkpt lat="45.9199997" lon="7.6858367">
        <ele>2965.4</ele>
        <time>2014-01-29T11:43:23Z</time>
      </trkpt>
      <trkpt lat="45.9199932" lon="7.6858661">
        <ele>2966.8</ele>
        <time>2014-01-29T11:43:24Z</time>
      </trkpt>
      <trkpt lat="45.9199876" lon="7.6858921">
        <ele>2968</ele>
        <time>2014-01-29T11:43:25Z</time>
      </trkpt>
      <trkpt lat="45.9199781" lon="7.6859371">
        <ele>2969.4</ele>
        <time>2014-01-29T11:43:27Z</time>
      </trkpt>
      <trkpt lat="45.9199731" lon="7.6859594">
        <ele>2970.8</ele>
        <time>2014-01-29T11:43:28Z</time>
      </trkpt>
      <trkpt lat="45.9199678" lon="7.6859837">
        <ele>2972.4</ele>
        <time>2014-01-29T11:43:29Z</time>
      </trkpt>
      <trkpt lat="45.9199629" lon="7.6860066">
        <ele>2973.6</ele>
        <time>2014-01-29T11:43:30Z</time>
      </trkpt>
      <trkpt lat="45.919953" lon="7.6860521">
        <ele>2974.8</ele>
        <time>2014-01-29T11:43:32Z</time>
      </trkpt>
      <trkpt lat="45.9199469" lon="7.6860805">
        <ele>2976</ele>
        <time>2014-01-29T11:43:33Z</time>
      </trkpt>
      <trkpt lat="45.9199429" lon="7.6860988">
        <ele>2977.2</ele>
        <time>2014-01-29T11:43:34Z</time>
      </trkpt>
      <trkpt lat="45.9199334" lon="7.6861419">
        <ele>2979.2</ele>
        <time>2014-01-29T11:43:36Z</time>
      </trkpt>
      <trkpt lat="45.9199272" lon="7.6861718">
        <ele>2980.6</ele>
        <time>2014-01-29T11:43:37Z</time>
      </trkpt>
      <trkpt lat="45.919922" lon="7.6861948">
        <ele>2981.8</ele>
        <time>2014-01-29T11:43:38Z</time>
      </trkpt>
      <trkpt lat="45.9199163" lon="7.68622">
        <ele>2983</ele>
        <time>2014-01-29T11:43:39Z</time>
      </trkpt>
      <trkpt lat="45.9199086" lon="7.6862564">
        <ele>2984.8</ele>
        <time>2014-01-29T11:43:41Z</time>
      </trkpt>
      <trkpt lat="45.9199025" lon="7.6862847">
        <ele>2985.8</ele>
        <time>2014-01-29T11:43:42Z</time>
      </trkpt>
      <trkpt lat="45.9198966" lon="7.6863124">
        <ele>2987</ele>
        <time>2014-01-29T11:43:43Z</time>
      </trkpt>
      <trkpt lat="45.9198921" lon="7.6863332">
        <ele>2988.2</ele>
        <time>2014-01-29T11:43:44Z</time>
      </trkpt>
      <trkpt lat="45.919887" lon="7.6863563">
        <ele>2989.2</ele>
        <time>2014-01-29T11:43:45Z</time>
      </trkpt>
      <trkpt lat="45.9198822" lon="7.6863761">
        <ele>2990.2</ele>
        <time>2014-01-29T11:43:46Z</time>
      </trkpt>
      <trkpt lat="45.9198786" lon="7.6863941">
        <ele>2990.2</ele>
        <time>2014-01-29T11:43:47Z</time>
      </trkpt>
      <trkpt lat="45.9198723" lon="7.6864246">
        <ele>2992</ele>
        <time>2014-01-29T11:43:48Z</time>
      </trkpt>
      <trkpt lat="45.9198666" lon="7.6864495">
        <ele>2993.2</ele>
        <time>2014-01-29T11:43:49Z</time>
      </trkpt>
      <trkpt lat="45.9198614" lon="7.6864724">
        <ele>2994.2</ele>
        <time>2014-01-29T11:43:50Z</time>
      </trkpt>
      <trkpt lat="45.9198509" lon="7.6865196">
        <ele>2995.6</ele>
        <time>2014-01-29T11:43:52Z</time>
      </trkpt>
      <trkpt lat="45.9198462" lon="7.6865396">
        <ele>2996.8</ele>
        <time>2014-01-29T11:43:53Z</time>
      </trkpt>
      <trkpt lat="45.9198394" lon="7.6865702">
        <ele>2997.8</ele>
        <time>2014-01-29T11:43:54Z</time>
      </trkpt>
      <trkpt lat="45.919829" lon="7.6866173">
        <ele>2999.2</ele>
        <time>2014-01-29T11:43:56Z</time>
      </trkpt>
      <trkpt lat="45.9198235" lon="7.6866422">
        <ele>3000.2</ele>
        <time>2014-01-29T11:43:57Z</time>
      </trkpt>
      <trkpt lat="45.9198183" lon="7.6866664">
        <ele>3001.4</ele>
        <time>2014-01-29T11:43:58Z</time>
      </trkpt>
      <trkpt lat="45.9198079" lon="7.6867132">
        <ele>3002.8</ele>
        <time>2014-01-29T11:44:00Z</time>
      </trkpt>
      <trkpt lat="45.9198026" lon="7.6867389">
        <ele>3003.8</ele>
        <time>2014-01-29T11:44:01Z</time>
      </trkpt>
      <trkpt lat="45.9197915" lon="7.6867886">
        <ele>3005.6</ele>
        <time>2014-01-29T11:44:03Z</time>
      </trkpt>
      <trkpt lat="45.9197872" lon="7.6868072">
        <ele>3006.6</ele>
        <time>2014-01-29T11:44:04Z</time>
      </trkpt>
      <trkpt lat="45.9197814" lon="7.6868349">
        <ele>3007.8</ele>
        <time>2014-01-29T11:44:05Z</time>
      </trkpt>
      <trkpt lat="45.9197767" lon="7.6868571">
        <ele>3007.8</ele>
        <time>2014-01-29T11:44:06Z</time>
      </trkpt>
      <trkpt lat="45.9197716" lon="7.6868812">
        <ele>3009.6</ele>
        <time>2014-01-29T11:44:07Z</time>
      </trkpt>
      <trkpt lat="45.9197658" lon="7.6869173">
        <ele>3010.8</ele>
        <time>2014-01-29T11:44:09Z</time>
      </trkpt>
      <trkpt lat="45.9197604" lon="7.6869402">
        <ele>3011.8</ele>
        <time>2014-01-29T11:44:10Z</time>
      </trkpt>
      <trkpt lat="45.9197565" lon="7.686958">
        <ele>3011.8</ele>
        <time>2014-01-29T11:44:11Z</time>
      </trkpt>
      <trkpt lat="45.9197499" lon="7.6869893">
        <ele>3013</ele>
        <time>2014-01-29T11:44:12Z</time>
      </trkpt>
      <trkpt lat="45.9197433" lon="7.6870195">
        <ele>3014</ele>
        <time>2014-01-29T11:44:13Z</time>
      </trkpt>
      <trkpt lat="45.9197326" lon="7.6870696">
        <ele>3015.2</ele>
        <time>2014-01-29T11:44:15Z</time>
      </trkpt>
      <trkpt lat="45.9197236" lon="7.6871101">
        <ele>3016.6</ele>
        <time>2014-01-29T11:44:17Z</time>
      </trkpt>
      <trkpt lat="45.9197118" lon="7.6871674">
        <ele>3018</ele>
        <time>2014-01-29T11:44:19Z</time>
      </trkpt>
      <trkpt lat="45.9197017" lon="7.6872183">
        <ele>3019.4</ele>
        <time>2014-01-29T11:44:21Z</time>
      </trkpt>
      <trkpt lat="45.9196923" lon="7.6872627">
        <ele>3020.8</ele>
        <time>2014-01-29T11:44:23Z</time>
      </trkpt>
      <trkpt lat="45.9196797" lon="7.6873217">
        <ele>3022.2</ele>
        <time>2014-01-29T11:44:25Z</time>
      </trkpt>
      <trkpt lat="45.9196691" lon="7.6873695">
        <ele>3023.8</ele>
        <time>2014-01-29T11:44:27Z</time>
      </trkpt>
      <trkpt lat="45.9196579" lon="7.6874206">
        <ele>3025.2</ele>
        <time>2014-01-29T11:44:29Z</time>
      </trkpt>
      <trkpt lat="45.9196472" lon="7.68747">
        <ele>3026.8</ele>
        <time>2014-01-29T11:44:31Z</time>
      </trkpt>
      <trkpt lat="45.9196358" lon="7.6875225">
        <ele>3028.2</ele>
        <time>2014-01-29T11:44:33Z</time>
      </trkpt>
      <trkpt lat="45.9196253" lon="7.687571">
        <ele>3029.6</ele>
        <time>2014-01-29T11:44:35Z</time>
      </trkpt>
      <trkpt lat="45.9196201" lon="7.6875945">
        <ele>3030.6</ele>
        <time>2014-01-29T11:44:36Z</time>
      </trkpt>
      <trkpt lat="45.9196091" lon="7.6876453">
        <ele>3032</ele>
        <time>2014-01-29T11:44:38Z</time>
      </trkpt>
      <trkpt lat="45.9196032" lon="7.6876729">
        <ele>3033</ele>
        <time>2014-01-29T11:44:39Z</time>
      </trkpt>
      <trkpt lat="45.9195946" lon="7.6877112">
        <ele>3034.2</ele>
        <time>2014-01-29T11:44:41Z</time>
      </trkpt>
      <trkpt lat="45.9195815" lon="7.6877725">
        <ele>3035.8</ele>
        <time>2014-01-29T11:44:43Z</time>
      </trkpt>
      <trkpt lat="45.9195767" lon="7.6877948">
        <ele>3036.8</ele>
        <time>2014-01-29T11:44:44Z</time>
      </trkpt>
      <trkpt lat="45.9195659" lon="7.6878438">
        <ele>3038</ele>
        <time>2014-01-29T11:44:46Z</time>
      </trkpt>
      <trkpt lat="45.9195552" lon="7.6878929">
        <ele>3039.6</ele>
        <time>2014-01-29T11:44:48Z</time>
      </trkpt>
      <trkpt lat="45.9195441" lon="7.6879422">
        <ele>3041.2</ele>
        <time>2014-01-29T11:44:50Z</time>
      </trkpt>
      <trkpt lat="45.9195389" lon="7.6879687">
        <ele>3041.2</ele>
        <time>2014-01-29T11:44:51Z</time>
      </trkpt>
      <trkpt lat="45.9195341" lon="7.6879902">
        <ele>3042.8</ele>
        <time>2014-01-29T11:44:52Z</time>
      </trkpt>
      <trkpt lat="45.9195224" lon="7.6880421">
        <ele>3044.4</ele>
        <time>2014-01-29T11:44:54Z</time>
      </trkpt>
      <trkpt lat="45.9195165" lon="7.6880691">
        <ele>3045.6</ele>
        <time>2014-01-29T11:44:55Z</time>
      </trkpt>
      <trkpt lat="45.9195064" lon="7.6881163">
        <ele>3047</ele>
        <time>2014-01-29T11:44:57Z</time>
      </trkpt>
      <trkpt lat="45.9195006" lon="7.6881408">
        <ele>3048</ele>
        <time>2014-01-29T11:44:58Z</time>
      </trkpt>
      <trkpt lat="45.9194908" lon="7.6881887">
        <ele>3049.4</ele>
        <time>2014-01-29T11:45:00Z</time>
      </trkpt>
      <trkpt lat="45.919485" lon="7.6882143">
        <ele>3050.4</ele>
        <time>2014-01-29T11:45:01Z</time>
      </trkpt>
      <trkpt lat="45.9194741" lon="7.6882655">
        <ele>3052</ele>
        <time>2014-01-29T11:45:03Z</time>
      </trkpt>
      <trkpt lat="45.9194698" lon="7.6882845">
        <ele>3053</ele>
        <time>2014-01-29T11:45:04Z</time>
      </trkpt>
      <trkpt lat="45.9194586" lon="7.6883348">
        <ele>3054.6</ele>
        <time>2014-01-29T11:45:06Z</time>
      </trkpt>
      <trkpt lat="45.9194532" lon="7.6883604">
        <ele>3055.6</ele>
        <time>2014-01-29T11:45:07Z</time>
      </trkpt>
      <trkpt lat="45.9194416" lon="7.6884105">
        <ele>3057.2</ele>
        <time>2014-01-29T11:45:09Z</time>
      </trkpt>
      <trkpt lat="45.9194375" lon="7.6884314">
        <ele>3058.2</ele>
        <time>2014-01-29T11:45:10Z</time>
      </trkpt>
      <trkpt lat="45.9194199" lon="7.6885115">
        <ele>3060.2</ele>
        <time>2014-01-29T11:45:13Z</time>
      </trkpt>
      <trkpt lat="45.9194146" lon="7.6885355">
        <ele>3061.6</ele>
        <time>2014-01-29T11:45:14Z</time>
      </trkpt>
      <trkpt lat="45.9194084" lon="7.6885639">
        <ele>3063</ele>
        <time>2014-01-29T11:45:15Z</time>
      </trkpt>
      <trkpt lat="45.9194038" lon="7.6885852">
        <ele>3064</ele>
        <time>2014-01-29T11:45:16Z</time>
      </trkpt>
      <trkpt lat="45.9194002" lon="7.688603">
        <ele>3065.2</ele>
        <time>2014-01-29T11:45:17Z</time>
      </trkpt>
      <trkpt lat="45.9193907" lon="7.6886367">
        <ele>3066.2</ele>
        <time>2014-01-29T11:45:18Z</time>
      </trkpt>
      <trkpt lat="45.919379" lon="7.6886904">
        <ele>3067.4</ele>
        <time>2014-01-29T11:45:20Z</time>
      </trkpt>
      <trkpt lat="45.9193729" lon="7.6887185">
        <ele>3068.6</ele>
        <time>2014-01-29T11:45:21Z</time>
      </trkpt>
      <trkpt lat="45.9193671" lon="7.688743">
        <ele>3068.6</ele>
        <time>2014-01-29T11:45:22Z</time>
      </trkpt>
      <trkpt lat="45.9193622" lon="7.6887655">
        <ele>3069.6</ele>
        <time>2014-01-29T11:45:23Z</time>
      </trkpt>
      <trkpt lat="45.919348" lon="7.6888294">
        <ele>3070.8</ele>
        <time>2014-01-29T11:45:25Z</time>
      </trkpt>
      <trkpt lat="45.9193423" lon="7.6888513">
        <ele>3071.8</ele>
        <time>2014-01-29T11:45:26Z</time>
      </trkpt>
      <trkpt lat="45.919336" lon="7.6888815">
        <ele>3073</ele>
        <time>2014-01-29T11:45:27Z</time>
      </trkpt>
      <trkpt lat="45.9193235" lon="7.6889353">
        <ele>3074.2</ele>
        <time>2014-01-29T11:45:29Z</time>
      </trkpt>
      <trkpt lat="45.9193194" lon="7.6889533">
        <ele>3075.4</ele>
        <time>2014-01-29T11:45:30Z</time>
      </trkpt>
      <trkpt lat="45.9193092" lon="7.6890022">
        <ele>3076.6</ele>
        <time>2014-01-29T11:45:32Z</time>
      </trkpt>
      <trkpt lat="45.9193012" lon="7.6890369">
        <ele>3078</ele>
        <time>2014-01-29T11:45:33Z</time>
      </trkpt>
      <trkpt lat="45.9192971" lon="7.6890577">
        <ele>3079.4</ele>
        <time>2014-01-29T11:45:34Z</time>
      </trkpt>
      <trkpt lat="45.919285" lon="7.689113">
        <ele>3080.6</ele>
        <time>2014-01-29T11:45:36Z</time>
      </trkpt>
      <trkpt lat="45.9192787" lon="7.6891409">
        <ele>3081.8</ele>
        <time>2014-01-29T11:45:37Z</time>
      </trkpt>
      <trkpt lat="45.9192733" lon="7.6891676">
        <ele>3082.8</ele>
        <time>2014-01-29T11:45:38Z</time>
      </trkpt>
      <trkpt lat="45.9192616" lon="7.68922">
        <ele>3084</ele>
        <time>2014-01-29T11:45:40Z</time>
      </trkpt>
      <trkpt lat="45.9192576" lon="7.6892385">
        <ele>3085.2</ele>
        <time>2014-01-29T11:45:41Z</time>
      </trkpt>
      <trkpt lat="45.9192509" lon="7.6892709">
        <ele>3085.2</ele>
        <time>2014-01-29T11:45:42Z</time>
      </trkpt>
      <trkpt lat="45.9192437" lon="7.6893038">
        <ele>3086.4</ele>
        <time>2014-01-29T11:45:43Z</time>
      </trkpt>
      <trkpt lat="45.919238" lon="7.6893277">
        <ele>3087.6</ele>
        <time>2014-01-29T11:45:44Z</time>
      </trkpt>
      <trkpt lat="45.9192313" lon="7.689357">
        <ele>3088.8</ele>
        <time>2014-01-29T11:45:45Z</time>
      </trkpt>
      <trkpt lat="45.9192224" lon="7.6893991">
        <ele>3089.8</ele>
        <time>2014-01-29T11:45:47Z</time>
      </trkpt>
      <trkpt lat="45.9192145" lon="7.6894337">
        <ele>3091</ele>
        <time>2014-01-29T11:45:48Z</time>
      </trkpt>
      <trkpt lat="45.9192035" lon="7.689486">
        <ele>3092.4</ele>
        <time>2014-01-29T11:45:50Z</time>
      </trkpt>
      <trkpt lat="45.9191974" lon="7.6895139">
        <ele>3093.4</ele>
        <time>2014-01-29T11:45:51Z</time>
      </trkpt>
      <trkpt lat="45.9191874" lon="7.6895596">
        <ele>3094.4</ele>
        <time>2014-01-29T11:45:53Z</time>
      </trkpt>
      <trkpt lat="45.9191689" lon="7.6896417">
        <ele>3095.8</ele>
        <time>2014-01-29T11:45:56Z</time>
      </trkpt>
      <trkpt lat="45.9191613" lon="7.68967">
        <ele>3097</ele>
        <time>2014-01-29T11:45:57Z</time>
      </trkpt>
      <trkpt lat="45.9191544" lon="7.6896967">
        <ele>3098.2</ele>
        <time>2014-01-29T11:45:58Z</time>
      </trkpt>
      <trkpt lat="45.9191492" lon="7.6897195">
        <ele>3099.4</ele>
        <time>2014-01-29T11:45:59Z</time>
      </trkpt>
      <trkpt lat="45.9191445" lon="7.689744">
        <ele>3100.8</ele>
        <time>2014-01-29T11:46:00Z</time>
      </trkpt>
      <trkpt lat="45.9191344" lon="7.6897957">
        <ele>3102</ele>
        <time>2014-01-29T11:46:02Z</time>
      </trkpt>
      <trkpt lat="45.9191281" lon="7.6898264">
        <ele>3103.4</ele>
        <time>2014-01-29T11:46:03Z</time>
      </trkpt>
      <trkpt lat="45.9191173" lon="7.6898779">
        <ele>3105.4</ele>
        <time>2014-01-29T11:46:05Z</time>
      </trkpt>
      <trkpt lat="45.9191117" lon="7.6899026">
        <ele>3106.6</ele>
        <time>2014-01-29T11:46:06Z</time>
      </trkpt>
      <trkpt lat="45.9190997" lon="7.6899562">
        <ele>3108</ele>
        <time>2014-01-29T11:46:08Z</time>
      </trkpt>
      <trkpt lat="45.9190929" lon="7.6899834">
        <ele>3109.2</ele>
        <time>2014-01-29T11:46:09Z</time>
      </trkpt>
      <trkpt lat="45.9190779" lon="7.690046">
        <ele>3110.8</ele>
        <time>2014-01-29T11:46:12Z</time>
      </trkpt>
      <trkpt lat="45.9190722" lon="7.6900722">
        <ele>3112.2</ele>
        <time>2014-01-29T11:46:13Z</time>
      </trkpt>
      <trkpt lat="45.9190527" lon="7.6901611">
        <ele>3112.2</ele>
        <time>2014-01-29T11:46:16Z</time>
      </trkpt>
      <trkpt lat="45.9190469" lon="7.6901849">
        <ele>3113.6</ele>
        <time>2014-01-29T11:46:17Z</time>
      </trkpt>
      <trkpt lat="45.9190038" lon="7.6903286">
        <ele>3114.6</ele>
        <time>2014-01-29T11:46:21Z</time>
      </trkpt>
      <trkpt lat="45.9189826" lon="7.6903688">
        <ele>3115.6</ele>
        <time>2014-01-29T11:46:22Z</time>
      </trkpt>
      <trkpt lat="45.9189092" lon="7.690534">
        <ele>3112.2</ele>
        <time>2014-01-29T11:46:25Z</time>
      </trkpt>
      <trkpt lat="45.9188872" lon="7.6905397">
        <ele>3112.2</ele>
        <time>2014-01-29T11:46:26Z</time>
      </trkpt>
      <trkpt lat="45.9188785" lon="7.6905185">
        <ele>3112.2</ele>
        <time>2014-01-29T11:46:29Z</time>
      </trkpt>
      <trkpt lat="45.9188779" lon="7.6905035">
        <ele>3111.2</ele>
        <time>2014-01-29T11:46:35Z</time>
      </trkpt>
      <trkpt lat="45.9188783" lon="7.6905039">
        <ele>3111.2</ele>
        <time>2014-01-29T11:46:36Z</time>
      </trkpt>
      <trkpt lat="45.9188764" lon="7.6905094">
        <ele>3111.2</ele>
        <time>2014-01-29T11:46:44Z</time>
      </trkpt>
      <trkpt lat="45.9188791" lon="7.6905128">
        <ele>3111.2</ele>
        <time>2014-01-29T11:46:51Z</time>
      </trkpt>
      <trkpt lat="45.9188741" lon="7.6905219">
        <ele>3111.2</ele>
        <time>2014-01-29T11:47:02Z</time>
      </trkpt>
      <trkpt lat="45.9188796" lon="7.6905335">
        <ele>3111.2</ele>
        <time>2014-01-29T11:47:09Z</time>
      </trkpt>
      <trkpt lat="45.9188788" lon="7.6905326">
        <ele>3110</ele>
        <time>2014-01-29T11:47:15Z</time>
      </trkpt>
      <trkpt lat="45.918879" lon="7.6905335">
        <ele>3110</ele>
        <time>2014-01-29T11:47:19Z</time>
      </trkpt>
      <trkpt lat="45.918878" lon="7.6905335">
        <ele>3110</ele>
        <time>2014-01-29T11:47:27Z</time>
      </trkpt>
      <trkpt lat="45.9188772" lon="7.6905318">
        <ele>3110</ele>
        <time>2014-01-29T11:47:34Z</time>
      </trkpt>
      <trkpt lat="45.9188773" lon="7.6905324">
        <ele>3109</ele>
        <time>2014-01-29T11:47:35Z</time>
      </trkpt>
      <trkpt lat="45.918878" lon="7.690539">
        <ele>3109</ele>
        <time>2014-01-29T11:47:46Z</time>
      </trkpt>
      <trkpt lat="45.9188776" lon="7.6905405">
        <ele>3112.2</ele>
        <time>2014-01-29T11:47:55Z</time>
      </trkpt>
      <trkpt lat="45.9188773" lon="7.6905397">
        <ele>3112.2</ele>
        <time>2014-01-29T11:47:56Z</time>
      </trkpt>
      <trkpt lat="45.9188774" lon="7.6905412">
        <ele>3112.2</ele>
        <time>2014-01-29T11:48:06Z</time>
      </trkpt>
      <trkpt lat="45.9188783" lon="7.6905405">
        <ele>3112.2</ele>
        <time>2014-01-29T11:48:18Z</time>
      </trkpt>
      <trkpt lat="45.9188783" lon="7.6905401">
        <ele>3112.2</ele>
        <time>2014-01-29T11:48:33Z</time>
      </trkpt>
      <trkpt lat="45.9188775" lon="7.6905383">
        <ele>3112.2</ele>
        <time>2014-01-29T11:48:42Z</time>
      </trkpt>
      <trkpt lat="45.9188832" lon="7.6905278">
        <ele>3109.2</ele>
        <time>2014-01-29T11:48:47Z</time>
      </trkpt>
      <trkpt lat="45.9188845" lon="7.6905222">
        <ele>3109.2</ele>
        <time>2014-01-29T11:48:49Z</time>
      </trkpt>
      <trkpt lat="45.9188521" lon="7.6904741">
        <ele>3109.2</ele>
        <time>2014-01-29T11:48:55Z</time>
      </trkpt>
      <trkpt lat="45.918821" lon="7.6904022">
        <ele>3108</ele>
        <time>2014-01-29T11:48:58Z</time>
      </trkpt>
      <trkpt lat="45.9187977" lon="7.6903617">
        <ele>3106.6</ele>
        <time>2014-01-29T11:48:59Z</time>
      </trkpt>
      <trkpt lat="45.9187714" lon="7.6903293">
        <ele>3106.6</ele>
        <time>2014-01-29T11:49:00Z</time>
      </trkpt>
      <trkpt lat="45.9187583" lon="7.6902748">
        <ele>3105.6</ele>
        <time>2014-01-29T11:49:01Z</time>
      </trkpt>
      <trkpt lat="45.9187262" lon="7.690212">
        <ele>3104.4</ele>
        <time>2014-01-29T11:49:02Z</time>
      </trkpt>
      <trkpt lat="45.9186814" lon="7.690175">
        <ele>3102.4</ele>
        <time>2014-01-29T11:49:03Z</time>
      </trkpt>
      <trkpt lat="45.9186618" lon="7.6900973">
        <ele>3100.8</ele>
        <time>2014-01-29T11:49:04Z</time>
      </trkpt>
      <trkpt lat="45.9186057" lon="7.6900261">
        <ele>3098.6</ele>
        <time>2014-01-29T11:49:05Z</time>
      </trkpt>
      <trkpt lat="45.9185631" lon="7.6899785">
        <ele>3095.2</ele>
        <time>2014-01-29T11:49:06Z</time>
      </trkpt>
      <trkpt lat="45.9185336" lon="7.6898896">
        <ele>3092.2</ele>
        <time>2014-01-29T11:49:07Z</time>
      </trkpt>
      <trkpt lat="45.9184704" lon="7.6898268">
        <ele>3088</ele>
        <time>2014-01-29T11:49:08Z</time>
      </trkpt>
      <trkpt lat="45.9183848" lon="7.6896622">
        <ele>3082.8</ele>
        <time>2014-01-29T11:49:10Z</time>
      </trkpt>
      <trkpt lat="45.9183478" lon="7.6896511">
        <ele>3081.4</ele>
        <time>2014-01-29T11:49:11Z</time>
      </trkpt>
      <trkpt lat="45.9183075" lon="7.6895588">
        <ele>3079.2</ele>
        <time>2014-01-29T11:49:12Z</time>
      </trkpt>
      <trkpt lat="45.9182431" lon="7.6894972">
        <ele>3078</ele>
        <time>2014-01-29T11:49:13Z</time>
      </trkpt>
      <trkpt lat="45.9182023" lon="7.6894678">
        <ele>3076.2</ele>
        <time>2014-01-29T11:49:14Z</time>
      </trkpt>
      <trkpt lat="45.9181535" lon="7.6893671">
        <ele>3070.6</ele>
        <time>2014-01-29T11:49:15Z</time>
      </trkpt>
      <trkpt lat="45.9181005" lon="7.689351">
        <ele>3069.4</ele>
        <time>2014-01-29T11:49:16Z</time>
      </trkpt>
      <trkpt lat="45.9180673" lon="7.6892994">
        <ele>3067.2</ele>
        <time>2014-01-29T11:49:17Z</time>
      </trkpt>
      <trkpt lat="45.9179929" lon="7.6892011">
        <ele>3063.8</ele>
        <time>2014-01-29T11:49:18Z</time>
      </trkpt>
      <trkpt lat="45.917918" lon="7.6891579">
        <ele>3060.2</ele>
        <time>2014-01-29T11:49:19Z</time>
      </trkpt>
      <trkpt lat="45.9178684" lon="7.6890665">
        <ele>3056</ele>
        <time>2014-01-29T11:49:20Z</time>
      </trkpt>
      <trkpt lat="45.9178002" lon="7.6890143">
        <ele>3051.4</ele>
        <time>2014-01-29T11:49:21Z</time>
      </trkpt>
      <trkpt lat="45.9177171" lon="7.6889273">
        <ele>3046.4</ele>
        <time>2014-01-29T11:49:22Z</time>
      </trkpt>
      <trkpt lat="45.9176305" lon="7.6888481">
        <ele>3044.6</ele>
        <time>2014-01-29T11:49:23Z</time>
      </trkpt>
      <trkpt lat="45.9175094" lon="7.6887407">
        <ele>3038</ele>
        <time>2014-01-29T11:49:24Z</time>
      </trkpt>
      <trkpt lat="45.9173887" lon="7.6885794">
        <ele>3036.4</ele>
        <time>2014-01-29T11:49:25Z</time>
      </trkpt>
      <trkpt lat="45.917303" lon="7.6884806">
        <ele>3032.8</ele>
        <time>2014-01-29T11:49:26Z</time>
      </trkpt>
      <trkpt lat="45.9172014" lon="7.6883558">
        <ele>3028.8</ele>
        <time>2014-01-29T11:49:27Z</time>
      </trkpt>
      <trkpt lat="45.9170636" lon="7.6881931">
        <ele>3023.2</ele>
        <time>2014-01-29T11:49:28Z</time>
      </trkpt>
      <trkpt lat="45.916927" lon="7.6880384">
        <ele>3021</ele>
        <time>2014-01-29T11:49:29Z</time>
      </trkpt>
      <trkpt lat="45.916809" lon="7.6879094">
        <ele>3015.4</ele>
        <time>2014-01-29T11:49:30Z</time>
      </trkpt>
      <trkpt lat="45.9166871" lon="7.6877818">
        <ele>3012.2</ele>
        <time>2014-01-29T11:49:31Z</time>
      </trkpt>
      <trkpt lat="45.9165364" lon="7.6876241">
        <ele>3008.4</ele>
        <time>2014-01-29T11:49:32Z</time>
      </trkpt>
      <trkpt lat="45.9163819" lon="7.6874499">
        <ele>3005.2</ele>
        <time>2014-01-29T11:49:33Z</time>
      </trkpt>
      <trkpt lat="45.9162636" lon="7.6873036">
        <ele>3001.6</ele>
        <time>2014-01-29T11:49:34Z</time>
      </trkpt>
      <trkpt lat="45.9161279" lon="7.6871265">
        <ele>2998.4</ele>
        <time>2014-01-29T11:49:35Z</time>
      </trkpt>
      <trkpt lat="45.9160151" lon="7.686981">
        <ele>2995.8</ele>
        <time>2014-01-29T11:49:36Z</time>
      </trkpt>
      <trkpt lat="45.9159497" lon="7.6868967">
        <ele>2994.4</ele>
        <time>2014-01-29T11:49:37Z</time>
      </trkpt>
      <trkpt lat="45.9158064" lon="7.6867012">
        <ele>2993.2</ele>
        <time>2014-01-29T11:49:38Z</time>
      </trkpt>
      <trkpt lat="45.9156912" lon="7.6865697">
        <ele>2991.6</ele>
        <time>2014-01-29T11:49:39Z</time>
      </trkpt>
      <trkpt lat="45.9156187" lon="7.6864762">
        <ele>2991.6</ele>
        <time>2014-01-29T11:49:40Z</time>
      </trkpt>
      <trkpt lat="45.9153336" lon="7.6860659">
        <ele>2991.6</ele>
        <time>2014-01-29T11:49:44Z</time>
      </trkpt>
      <trkpt lat="45.915271" lon="7.685936">
        <ele>2990.6</ele>
        <time>2014-01-29T11:49:45Z</time>
      </trkpt>
      <trkpt lat="45.9152269" lon="7.6858363">
        <ele>2989.4</ele>
        <time>2014-01-29T11:49:46Z</time>
      </trkpt>
      <trkpt lat="45.9151872" lon="7.6857527">
        <ele>2988</ele>
        <time>2014-01-29T11:49:47Z</time>
      </trkpt>
      <trkpt lat="45.9151214" lon="7.6856051">
        <ele>2987</ele>
        <time>2014-01-29T11:49:48Z</time>
      </trkpt>
      <trkpt lat="45.9150776" lon="7.6854648">
        <ele>2985.8</ele>
        <time>2014-01-29T11:49:49Z</time>
      </trkpt>
      <trkpt lat="45.9150056" lon="7.6853062">
        <ele>2984.8</ele>
        <time>2014-01-29T11:49:51Z</time>
      </trkpt>
      <trkpt lat="45.9149813" lon="7.6852223">
        <ele>2984.8</ele>
        <time>2014-01-29T11:49:52Z</time>
      </trkpt>
      <trkpt lat="45.9149512" lon="7.6851697">
        <ele>2983.4</ele>
        <time>2014-01-29T11:49:53Z</time>
      </trkpt>
      <trkpt lat="45.9149055" lon="7.6851378">
        <ele>2983.4</ele>
        <time>2014-01-29T11:49:55Z</time>
      </trkpt>
      <trkpt lat="45.9148507" lon="7.6850767">
        <ele>2983.4</ele>
        <time>2014-01-29T11:50:00Z</time>
      </trkpt>
      <trkpt lat="45.9148332" lon="7.6850395">
        <ele>2982.2</ele>
        <time>2014-01-29T11:50:01Z</time>
      </trkpt>
      <trkpt lat="45.9147989" lon="7.6849141">
        <ele>2980.8</ele>
        <time>2014-01-29T11:50:03Z</time>
      </trkpt>
      <trkpt lat="45.9147835" lon="7.6848305">
        <ele>2979.8</ele>
        <time>2014-01-29T11:50:04Z</time>
      </trkpt>
      <trkpt lat="45.914749" lon="7.6847661">
        <ele>2978.4</ele>
        <time>2014-01-29T11:50:05Z</time>
      </trkpt>
      <trkpt lat="45.914709" lon="7.6845981">
        <ele>2976.4</ele>
        <time>2014-01-29T11:50:07Z</time>
      </trkpt>
      <trkpt lat="45.9146691" lon="7.6845385">
        <ele>2975</ele>
        <time>2014-01-29T11:50:08Z</time>
      </trkpt>
      <trkpt lat="45.9146455" lon="7.6844192">
        <ele>2973.6</ele>
        <time>2014-01-29T11:50:09Z</time>
      </trkpt>
      <trkpt lat="45.9146072" lon="7.6843272">
        <ele>2972</ele>
        <time>2014-01-29T11:50:10Z</time>
      </trkpt>
      <trkpt lat="45.9145659" lon="7.6842645">
        <ele>2970.2</ele>
        <time>2014-01-29T11:50:11Z</time>
      </trkpt>
      <trkpt lat="45.9145324" lon="7.6841314">
        <ele>2968.4</ele>
        <time>2014-01-29T11:50:12Z</time>
      </trkpt>
      <trkpt lat="45.9144797" lon="7.6839855">
        <ele>2965.2</ele>
        <time>2014-01-29T11:50:13Z</time>
      </trkpt>
      <trkpt lat="45.9144149" lon="7.6839233">
        <ele>2963.6</ele>
        <time>2014-01-29T11:50:14Z</time>
      </trkpt>
      <trkpt lat="45.9143723" lon="7.6838097">
        <ele>2961.6</ele>
        <time>2014-01-29T11:50:15Z</time>
      </trkpt>
      <trkpt lat="45.9143589" lon="7.6837035">
        <ele>2960.4</ele>
        <time>2014-01-29T11:50:16Z</time>
      </trkpt>
      <trkpt lat="45.9143147" lon="7.6836464">
        <ele>2960.4</ele>
        <time>2014-01-29T11:50:17Z</time>
      </trkpt>
      <trkpt lat="45.9142511" lon="7.6835499">
        <ele>2958.2</ele>
        <time>2014-01-29T11:50:18Z</time>
      </trkpt>
      <trkpt lat="45.9142025" lon="7.683445">
        <ele>2956.8</ele>
        <time>2014-01-29T11:50:19Z</time>
      </trkpt>
      <trkpt lat="45.914097" lon="7.6833395">
        <ele>2955</ele>
        <time>2014-01-29T11:50:21Z</time>
      </trkpt>
      <trkpt lat="45.9140535" lon="7.6832461">
        <ele>2952.8</ele>
        <time>2014-01-29T11:50:22Z</time>
      </trkpt>
      <trkpt lat="45.9139946" lon="7.6831786">
        <ele>2950</ele>
        <time>2014-01-29T11:50:23Z</time>
      </trkpt>
      <trkpt lat="45.913924" lon="7.683025">
        <ele>2947</ele>
        <time>2014-01-29T11:50:24Z</time>
      </trkpt>
      <trkpt lat="45.9138191" lon="7.682926">
        <ele>2942.8</ele>
        <time>2014-01-29T11:50:25Z</time>
      </trkpt>
      <trkpt lat="45.9137296" lon="7.682855">
        <ele>2941.8</ele>
        <time>2014-01-29T11:50:26Z</time>
      </trkpt>
      <trkpt lat="45.9136539" lon="7.6827303">
        <ele>2940</ele>
        <time>2014-01-29T11:50:27Z</time>
      </trkpt>
      <trkpt lat="45.9135587" lon="7.6826449">
        <ele>2938.6</ele>
        <time>2014-01-29T11:50:28Z</time>
      </trkpt>
      <trkpt lat="45.9134637" lon="7.6825784">
        <ele>2937.2</ele>
        <time>2014-01-29T11:50:29Z</time>
      </trkpt>
      <trkpt lat="45.9133921" lon="7.6824789">
        <ele>2935.6</ele>
        <time>2014-01-29T11:50:30Z</time>
      </trkpt>
      <trkpt lat="45.9132831" lon="7.6824109">
        <ele>2933.8</ele>
        <time>2014-01-29T11:50:31Z</time>
      </trkpt>
      <trkpt lat="45.913191" lon="7.6823578">
        <ele>2931.6</ele>
        <time>2014-01-29T11:50:32Z</time>
      </trkpt>
      <trkpt lat="45.9130807" lon="7.6822338">
        <ele>2928.2</ele>
        <time>2014-01-29T11:50:33Z</time>
      </trkpt>
      <trkpt lat="45.9129729" lon="7.68218">
        <ele>2925.6</ele>
        <time>2014-01-29T11:50:34Z</time>
      </trkpt>
      <trkpt lat="45.9128494" lon="7.6821382">
        <ele>2923.6</ele>
        <time>2014-01-29T11:50:35Z</time>
      </trkpt>
      <trkpt lat="45.9127489" lon="7.6820191">
        <ele>2920.2</ele>
        <time>2014-01-29T11:50:36Z</time>
      </trkpt>
      <trkpt lat="45.912622" lon="7.6819275">
        <ele>2913.8</ele>
        <time>2014-01-29T11:50:37Z</time>
      </trkpt>
      <trkpt lat="45.9125007" lon="7.6818918">
        <ele>2912.6</ele>
        <time>2014-01-29T11:50:38Z</time>
      </trkpt>
      <trkpt lat="45.9123861" lon="7.6817667">
        <ele>2908</ele>
        <time>2014-01-29T11:50:39Z</time>
      </trkpt>
      <trkpt lat="45.9122818" lon="7.6817205">
        <ele>2906.2</ele>
        <time>2014-01-29T11:50:40Z</time>
      </trkpt>
      <trkpt lat="45.9121992" lon="7.6816424">
        <ele>2902.4</ele>
        <time>2014-01-29T11:50:41Z</time>
      </trkpt>
      <trkpt lat="45.912066" lon="7.6815009">
        <ele>2897.8</ele>
        <time>2014-01-29T11:50:42Z</time>
      </trkpt>
      <trkpt lat="45.9119218" lon="7.6814187">
        <ele>2894.2</ele>
        <time>2014-01-29T11:50:43Z</time>
      </trkpt>
      <trkpt lat="45.9118417" lon="7.6812921">
        <ele>2889.6</ele>
        <time>2014-01-29T11:50:44Z</time>
      </trkpt>
      <trkpt lat="45.9117123" lon="7.6812003">
        <ele>2885.2</ele>
        <time>2014-01-29T11:50:45Z</time>
      </trkpt>
      <trkpt lat="45.9115968" lon="7.6812028">
        <ele>2881.2</ele>
        <time>2014-01-29T11:50:46Z</time>
      </trkpt>
      <trkpt lat="45.9114754" lon="7.6811284">
        <ele>2878.6</ele>
        <time>2014-01-29T11:50:47Z</time>
      </trkpt>
      <trkpt lat="45.9113534" lon="7.681013">
        <ele>2876.8</ele>
        <time>2014-01-29T11:50:48Z</time>
      </trkpt>
      <trkpt lat="45.9112211" lon="7.6809572">
        <ele>2874.6</ele>
        <time>2014-01-29T11:50:49Z</time>
      </trkpt>
      <trkpt lat="45.911129" lon="7.6808773">
        <ele>2873.6</ele>
        <time>2014-01-29T11:50:50Z</time>
      </trkpt>
      <trkpt lat="45.9110323" lon="7.6807633">
        <ele>2873.6</ele>
        <time>2014-01-29T11:50:51Z</time>
      </trkpt>
      <trkpt lat="45.910956" lon="7.6806846">
        <ele>2873.6</ele>
        <time>2014-01-29T11:50:52Z</time>
      </trkpt>
      <trkpt lat="45.9108546" lon="7.6806201">
        <ele>2873.6</ele>
        <time>2014-01-29T11:50:53Z</time>
      </trkpt>
      <trkpt lat="45.9107779" lon="7.6806087">
        <ele>2872.6</ele>
        <time>2014-01-29T11:50:54Z</time>
      </trkpt>
      <trkpt lat="45.9106057" lon="7.6805198">
        <ele>2872.6</ele>
        <time>2014-01-29T11:50:57Z</time>
      </trkpt>
      <trkpt lat="45.9105155" lon="7.6805023">
        <ele>2871.6</ele>
        <time>2014-01-29T11:50:59Z</time>
      </trkpt>
      <trkpt lat="45.9104947" lon="7.6804634">
        <ele>2871.6</ele>
        <time>2014-01-29T11:51:00Z</time>
      </trkpt>
      <trkpt lat="45.9104184" lon="7.6804031">
        <ele>2871.6</ele>
        <time>2014-01-29T11:51:04Z</time>
      </trkpt>
      <trkpt lat="45.9104037" lon="7.6803763">
        <ele>2871.6</ele>
        <time>2014-01-29T11:51:10Z</time>
      </trkpt>
      <trkpt lat="45.9104025" lon="7.6803701">
        <ele>2870.4</ele>
        <time>2014-01-29T11:51:11Z</time>
      </trkpt>
      <trkpt lat="45.9103874" lon="7.6803211">
        <ele>2870.4</ele>
        <time>2014-01-29T11:51:16Z</time>
      </trkpt>
      <trkpt lat="45.9103778" lon="7.68029">
        <ele>2870.4</ele>
        <time>2014-01-29T11:51:22Z</time>
      </trkpt>
      <trkpt lat="45.9103646" lon="7.6802573">
        <ele>2869.4</ele>
        <time>2014-01-29T11:51:25Z</time>
      </trkpt>
      <trkpt lat="45.9103566" lon="7.6802428">
        <ele>2869.4</ele>
        <time>2014-01-29T11:51:27Z</time>
      </trkpt>
      <trkpt lat="45.9103462" lon="7.680195">
        <ele>2869.4</ele>
        <time>2014-01-29T11:51:32Z</time>
      </trkpt>
      <trkpt lat="45.9103311" lon="7.680152">
        <ele>2869.4</ele>
        <time>2014-01-29T11:51:33Z</time>
      </trkpt>
      <trkpt lat="45.9102985" lon="7.6800745">
        <ele>2869.4</ele>
        <time>2014-01-29T11:51:37Z</time>
      </trkpt>
      <trkpt lat="45.9102565" lon="7.6799573">
        <ele>2871.6</ele>
        <time>2014-01-29T11:51:42Z</time>
      </trkpt>
      <trkpt lat="45.9102388" lon="7.6799029">
        <ele>2872.6</ele>
        <time>2014-01-29T11:51:44Z</time>
      </trkpt>
      <trkpt lat="45.9102185" lon="7.6798525">
        <ele>2872.6</ele>
        <time>2014-01-29T11:51:46Z</time>
      </trkpt>
      <trkpt lat="45.9102112" lon="7.6798328">
        <ele>2873.8</ele>
        <time>2014-01-29T11:51:47Z</time>
      </trkpt>
      <trkpt lat="45.9101891" lon="7.6797779">
        <ele>2874.8</ele>
        <time>2014-01-29T11:51:49Z</time>
      </trkpt>
      <trkpt lat="45.9101725" lon="7.679731">
        <ele>2874.8</ele>
        <time>2014-01-29T11:51:51Z</time>
      </trkpt>
      <trkpt lat="45.9101637" lon="7.6797091">
        <ele>2876</ele>
        <time>2014-01-29T11:51:52Z</time>
      </trkpt>
      <trkpt lat="45.9101421" lon="7.6796544">
        <ele>2877.2</ele>
        <time>2014-01-29T11:51:54Z</time>
      </trkpt>
      <trkpt lat="45.9101236" lon="7.6796065">
        <ele>2878.2</ele>
        <time>2014-01-29T11:51:56Z</time>
      </trkpt>
      <trkpt lat="45.9101129" lon="7.6795798">
        <ele>2878.2</ele>
        <time>2014-01-29T11:51:57Z</time>
      </trkpt>
      <trkpt lat="45.9101052" lon="7.6795585">
        <ele>2879.4</ele>
        <time>2014-01-29T11:51:58Z</time>
      </trkpt>
      <trkpt lat="45.9100951" lon="7.6795318">
        <ele>2880.4</ele>
        <time>2014-01-29T11:51:59Z</time>
      </trkpt>
      <trkpt lat="45.9100761" lon="7.6794843">
        <ele>2881.4</ele>
        <time>2014-01-29T11:52:01Z</time>
      </trkpt>
      <trkpt lat="45.9100522" lon="7.6794351">
        <ele>2882.6</ele>
        <time>2014-01-29T11:52:03Z</time>
      </trkpt>
      <trkpt lat="45.9100437" lon="7.6794133">
        <ele>2882.6</ele>
        <time>2014-01-29T11:52:04Z</time>
      </trkpt>
      <trkpt lat="45.9100349" lon="7.6793894">
        <ele>2883.6</ele>
        <time>2014-01-29T11:52:05Z</time>
      </trkpt>
      <trkpt lat="45.9100058" lon="7.679315">
        <ele>2884.6</ele>
        <time>2014-01-29T11:52:08Z</time>
      </trkpt>
      <trkpt lat="45.9099682" lon="7.6792172">
        <ele>2885.6</ele>
        <time>2014-01-29T11:52:12Z</time>
      </trkpt>
      <trkpt lat="45.9099373" lon="7.6791373">
        <ele>2886.6</ele>
        <time>2014-01-29T11:52:15Z</time>
      </trkpt>
      <trkpt lat="45.9098994" lon="7.6790381">
        <ele>2887.8</ele>
        <time>2014-01-29T11:52:19Z</time>
      </trkpt>
      <trkpt lat="45.9098725" lon="7.6789697">
        <ele>2889</ele>
        <time>2014-01-29T11:52:22Z</time>
      </trkpt>
      <trkpt lat="45.9098498" lon="7.6789181">
        <ele>2889</ele>
        <time>2014-01-29T11:52:24Z</time>
      </trkpt>
      <trkpt lat="45.9098403" lon="7.6788908">
        <ele>2890</ele>
        <time>2014-01-29T11:52:25Z</time>
      </trkpt>
      <trkpt lat="45.9098216" lon="7.6788428">
        <ele>2891.2</ele>
        <time>2014-01-29T11:52:27Z</time>
      </trkpt>
      <trkpt lat="45.9097946" lon="7.6787716">
        <ele>2892.2</ele>
        <time>2014-01-29T11:52:30Z</time>
      </trkpt>
      <trkpt lat="45.9097676" lon="7.6787027">
        <ele>2893.4</ele>
        <time>2014-01-29T11:52:33Z</time>
      </trkpt>
      <trkpt lat="45.9097458" lon="7.6786475">
        <ele>2894.4</ele>
        <time>2014-01-29T11:52:35Z</time>
      </trkpt>
      <trkpt lat="45.9097372" lon="7.6786244">
        <ele>2894.4</ele>
        <time>2014-01-29T11:52:36Z</time>
      </trkpt>
      <trkpt lat="45.9097177" lon="7.6785759">
        <ele>2895.6</ele>
        <time>2014-01-29T11:52:38Z</time>
      </trkpt>
      <trkpt lat="45.9097002" lon="7.6785278">
        <ele>2896.6</ele>
        <time>2014-01-29T11:52:40Z</time>
      </trkpt>
      <trkpt lat="45.9096809" lon="7.6784817">
        <ele>2897.8</ele>
        <time>2014-01-29T11:52:42Z</time>
      </trkpt>
      <trkpt lat="45.9096624" lon="7.67843">
        <ele>2899</ele>
        <time>2014-01-29T11:52:44Z</time>
      </trkpt>
      <trkpt lat="45.9096426" lon="7.6783834">
        <ele>2900</ele>
        <time>2014-01-29T11:52:46Z</time>
      </trkpt>
      <trkpt lat="45.9096258" lon="7.678336">
        <ele>2901.2</ele>
        <time>2014-01-29T11:52:48Z</time>
      </trkpt>
      <trkpt lat="45.9096132" lon="7.6783083">
        <ele>2901.2</ele>
        <time>2014-01-29T11:52:49Z</time>
      </trkpt>
      <trkpt lat="45.9096077" lon="7.6782911">
        <ele>2902.4</ele>
        <time>2014-01-29T11:52:50Z</time>
      </trkpt>
      <trkpt lat="45.90959" lon="7.6782412">
        <ele>2903.4</ele>
        <time>2014-01-29T11:52:52Z</time>
      </trkpt>
      <trkpt lat="45.9095716" lon="7.6781762">
        <ele>2904.4</ele>
        <time>2014-01-29T11:52:55Z</time>
      </trkpt>
      <trkpt lat="45.9095577" lon="7.6781564">
        <ele>2905.4</ele>
        <time>2014-01-29T11:52:56Z</time>
      </trkpt>
      <trkpt lat="45.9095386" lon="7.6781053">
        <ele>2906.4</ele>
        <time>2014-01-29T11:52:58Z</time>
      </trkpt>
      <trkpt lat="45.9094915" lon="7.6779918">
        <ele>2906.4</ele>
        <time>2014-01-29T11:53:03Z</time>
      </trkpt>
      <trkpt lat="45.9094547" lon="7.6777836">
        <ele>2906.4</ele>
        <time>2014-01-29T11:53:08Z</time>
      </trkpt>
      <trkpt lat="45.909456" lon="7.6776131">
        <ele>2906.4</ele>
        <time>2014-01-29T11:53:13Z</time>
      </trkpt>
      <trkpt lat="45.9094609" lon="7.6775764">
        <ele>2906.4</ele>
        <time>2014-01-29T11:53:19Z</time>
      </trkpt>
      <trkpt lat="45.9094622" lon="7.6775718">
        <ele>2906.4</ele>
        <time>2014-01-29T11:53:29Z</time>
      </trkpt>
      <trkpt lat="45.9094686" lon="7.6775604">
        <ele>2906.4</ele>
        <time>2014-01-29T11:53:40Z</time>
      </trkpt>
      <trkpt lat="45.9094739" lon="7.6775501">
        <ele>2906.4</ele>
        <time>2014-01-29T11:53:50Z</time>
      </trkpt>
      <trkpt lat="45.9094782" lon="7.6775448">
        <ele>2906.4</ele>
        <time>2014-01-29T11:53:59Z</time>
      </trkpt>
      <trkpt lat="45.909477" lon="7.6775391">
        <ele>2906.4</ele>
        <time>2014-01-29T11:54:12Z</time>
      </trkpt>
      <trkpt lat="45.9094743" lon="7.6775287">
        <ele>2906.4</ele>
        <time>2014-01-29T11:54:20Z</time>
      </trkpt>
      <trkpt lat="45.9094725" lon="7.6775195">
        <ele>2906.4</ele>
        <time>2014-01-29T11:54:32Z</time>
      </trkpt>
      <trkpt lat="45.9094589" lon="7.6774244">
        <ele>2906.4</ele>
        <time>2014-01-29T11:54:39Z</time>
      </trkpt>
      <trkpt lat="45.9094488" lon="7.6773816">
        <ele>2903.2</ele>
        <time>2014-01-29T11:54:40Z</time>
      </trkpt>
      <trkpt lat="45.9094265" lon="7.6773329">
        <ele>2901.8</ele>
        <time>2014-01-29T11:54:41Z</time>
      </trkpt>
      <trkpt lat="45.9094042" lon="7.6772335">
        <ele>2898.8</ele>
        <time>2014-01-29T11:54:42Z</time>
      </trkpt>
      <trkpt lat="45.9093034" lon="7.6770268">
        <ele>2896.2</ele>
        <time>2014-01-29T11:54:44Z</time>
      </trkpt>
      <trkpt lat="45.9092374" lon="7.6768741">
        <ele>2891</ele>
        <time>2014-01-29T11:54:45Z</time>
      </trkpt>
      <trkpt lat="45.9091473" lon="7.6767864">
        <ele>2888.8</ele>
        <time>2014-01-29T11:54:46Z</time>
      </trkpt>
      <trkpt lat="45.9090694" lon="7.6767026">
        <ele>2885</ele>
        <time>2014-01-29T11:54:47Z</time>
      </trkpt>
      <trkpt lat="45.9089713" lon="7.6765139">
        <ele>2882</ele>
        <time>2014-01-29T11:54:48Z</time>
      </trkpt>
      <trkpt lat="45.9088514" lon="7.6763368">
        <ele>2879.6</ele>
        <time>2014-01-29T11:54:49Z</time>
      </trkpt>
      <trkpt lat="45.9087701" lon="7.6762251">
        <ele>2878.2</ele>
        <time>2014-01-29T11:54:50Z</time>
      </trkpt>
      <trkpt lat="45.9086933" lon="7.6760618">
        <ele>2877.2</ele>
        <time>2014-01-29T11:54:51Z</time>
      </trkpt>
      <trkpt lat="45.9086463" lon="7.6759306">
        <ele>2877.2</ele>
        <time>2014-01-29T11:54:52Z</time>
      </trkpt>
      <trkpt lat="45.90856" lon="7.6757655">
        <ele>2876</ele>
        <time>2014-01-29T11:54:54Z</time>
      </trkpt>
      <trkpt lat="45.9085069" lon="7.6757626">
        <ele>2876</ele>
        <time>2014-01-29T11:54:56Z</time>
      </trkpt>
      <trkpt lat="45.9084817" lon="7.6756936">
        <ele>2874.8</ele>
        <time>2014-01-29T11:54:58Z</time>
      </trkpt>
      <trkpt lat="45.9084463" lon="7.6756806">
        <ele>2873.8</ele>
        <time>2014-01-29T11:54:59Z</time>
      </trkpt>
      <trkpt lat="45.9084314" lon="7.6756908">
        <ele>2873.8</ele>
        <time>2014-01-29T11:55:02Z</time>
      </trkpt>
      <trkpt lat="45.9084259" lon="7.6756934">
        <ele>2872.8</ele>
        <time>2014-01-29T11:55:05Z</time>
      </trkpt>
      <trkpt lat="45.9084246" lon="7.6757018">
        <ele>2872.8</ele>
        <time>2014-01-29T11:55:19Z</time>
      </trkpt>
      <trkpt lat="45.9084282" lon="7.6756999">
        <ele>2871.6</ele>
        <time>2014-01-29T11:55:27Z</time>
      </trkpt>
      <trkpt lat="45.9084281" lon="7.6756991">
        <ele>2871.6</ele>
        <time>2014-01-29T11:55:30Z</time>
      </trkpt>
      <trkpt lat="45.9084122" lon="7.6756813">
        <ele>2871.6</ele>
        <time>2014-01-29T11:55:39Z</time>
      </trkpt>
      <trkpt lat="45.908395" lon="7.6756563">
        <ele>2870.4</ele>
        <time>2014-01-29T11:55:40Z</time>
      </trkpt>
      <trkpt lat="45.9083477" lon="7.6754981">
        <ele>2866.6</ele>
        <time>2014-01-29T11:55:42Z</time>
      </trkpt>
      <trkpt lat="45.9082966" lon="7.6754066">
        <ele>2863</ele>
        <time>2014-01-29T11:55:43Z</time>
      </trkpt>
      <trkpt lat="45.9082749" lon="7.6752783">
        <ele>2859.2</ele>
        <time>2014-01-29T11:55:44Z</time>
      </trkpt>
      <trkpt lat="45.9081977" lon="7.6751538">
        <ele>2853.8</ele>
        <time>2014-01-29T11:55:45Z</time>
      </trkpt>
      <trkpt lat="45.9081239" lon="7.675088">
        <ele>2852.2</ele>
        <time>2014-01-29T11:55:46Z</time>
      </trkpt>
      <trkpt lat="45.9081091" lon="7.6749857">
        <ele>2850.2</ele>
        <time>2014-01-29T11:55:47Z</time>
      </trkpt>
      <trkpt lat="45.9080751" lon="7.6748477">
        <ele>2848.2</ele>
        <time>2014-01-29T11:55:48Z</time>
      </trkpt>
      <trkpt lat="45.9080163" lon="7.6747535">
        <ele>2845.4</ele>
        <time>2014-01-29T11:55:49Z</time>
      </trkpt>
      <trkpt lat="45.9080217" lon="7.6746746">
        <ele>2845.4</ele>
        <time>2014-01-29T11:55:50Z</time>
      </trkpt>
      <trkpt lat="45.9080226" lon="7.6746177">
        <ele>2844.4</ele>
        <time>2014-01-29T11:55:51Z</time>
      </trkpt>
      <trkpt lat="45.9079991" lon="7.6746082">
        <ele>2844.4</ele>
        <time>2014-01-29T11:55:53Z</time>
      </trkpt>
      <trkpt lat="45.9079878" lon="7.6745807">
        <ele>2844.4</ele>
        <time>2014-01-29T11:55:58Z</time>
      </trkpt>
      <trkpt lat="45.9079876" lon="7.6745659">
        <ele>2844.4</ele>
        <time>2014-01-29T11:56:06Z</time>
      </trkpt>
      <trkpt lat="45.9079897" lon="7.6745421">
        <ele>2844.4</ele>
        <time>2014-01-29T11:56:11Z</time>
      </trkpt>
      <trkpt lat="45.9079879" lon="7.6745384">
        <ele>2843.4</ele>
        <time>2014-01-29T11:56:16Z</time>
      </trkpt>
      <trkpt lat="45.9079835" lon="7.6745114">
        <ele>2843.4</ele>
        <time>2014-01-29T11:56:18Z</time>
      </trkpt>
      <trkpt lat="45.9079798" lon="7.6744648">
        <ele>2842.4</ele>
        <time>2014-01-29T11:56:20Z</time>
      </trkpt>
      <trkpt lat="45.9079868" lon="7.6743639">
        <ele>2841.2</ele>
        <time>2014-01-29T11:56:23Z</time>
      </trkpt>
      <trkpt lat="45.9080023" lon="7.6742928">
        <ele>2841.2</ele>
        <time>2014-01-29T11:56:28Z</time>
      </trkpt>
      <trkpt lat="45.9080038" lon="7.6742861">
        <ele>2841.2</ele>
        <time>2014-01-29T11:56:36Z</time>
      </trkpt>
      <trkpt lat="45.9080055" lon="7.6741845">
        <ele>2840.2</ele>
        <time>2014-01-29T11:56:43Z</time>
      </trkpt>
      <trkpt lat="45.9080281" lon="7.6740691">
        <ele>2839.2</ele>
        <time>2014-01-29T11:56:47Z</time>
      </trkpt>
      <trkpt lat="45.9080442" lon="7.6740061">
        <ele>2839.2</ele>
        <time>2014-01-29T11:56:50Z</time>
      </trkpt>
      <trkpt lat="45.9080411" lon="7.6740084">
        <ele>2839.2</ele>
        <time>2014-01-29T11:56:57Z</time>
      </trkpt>
      <trkpt lat="45.908032" lon="7.673978">
        <ele>2838</ele>
        <time>2014-01-29T11:57:10Z</time>
      </trkpt>
      <trkpt lat="45.9080015" lon="7.6738865">
        <ele>2836.8</ele>
        <time>2014-01-29T11:57:12Z</time>
      </trkpt>
      <trkpt lat="45.907964" lon="7.6738463">
        <ele>2835.2</ele>
        <time>2014-01-29T11:57:13Z</time>
      </trkpt>
      <trkpt lat="45.9079019" lon="7.6738536">
        <ele>2833.4</ele>
        <time>2014-01-29T11:57:14Z</time>
      </trkpt>
      <trkpt lat="45.9078608" lon="7.6739096">
        <ele>2831.8</ele>
        <time>2014-01-29T11:57:15Z</time>
      </trkpt>
      <trkpt lat="45.9078344" lon="7.6739714">
        <ele>2830.6</ele>
        <time>2014-01-29T11:57:17Z</time>
      </trkpt>
      <trkpt lat="45.9077988" lon="7.6740192">
        <ele>2830.6</ele>
        <time>2014-01-29T11:57:18Z</time>
      </trkpt>
      <trkpt lat="45.9077698" lon="7.6740665">
        <ele>2829.4</ele>
        <time>2014-01-29T11:57:19Z</time>
      </trkpt>
      <trkpt lat="45.9077659" lon="7.6740668">
        <ele>2829.4</ele>
        <time>2014-01-29T11:57:21Z</time>
      </trkpt>
      <trkpt lat="45.9077651" lon="7.6740529">
        <ele>2829.4</ele>
        <time>2014-01-29T11:57:26Z</time>
      </trkpt>
      <trkpt lat="45.9077209" lon="7.6740178">
        <ele>2828.4</ele>
        <time>2014-01-29T11:57:33Z</time>
      </trkpt>
      <trkpt lat="45.9077109" lon="7.6739555">
        <ele>2828.4</ele>
        <time>2014-01-29T11:57:34Z</time>
      </trkpt>
      <trkpt lat="45.9076961" lon="7.6738743">
        <ele>2826.8</ele>
        <time>2014-01-29T11:57:35Z</time>
      </trkpt>
      <trkpt lat="45.9076491" lon="7.6738507">
        <ele>2825.4</ele>
        <time>2014-01-29T11:57:36Z</time>
      </trkpt>
      <trkpt lat="45.9076094" lon="7.6738001">
        <ele>2823.8</ele>
        <time>2014-01-29T11:57:37Z</time>
      </trkpt>
      <trkpt lat="45.9076042" lon="7.6736994">
        <ele>2822.2</ele>
        <time>2014-01-29T11:57:38Z</time>
      </trkpt>
      <trkpt lat="45.9075527" lon="7.6736573">
        <ele>2818</ele>
        <time>2014-01-29T11:57:39Z</time>
      </trkpt>
      <trkpt lat="45.9075328" lon="7.673647">
        <ele>2816.4</ele>
        <time>2014-01-29T11:57:40Z</time>
      </trkpt>
      <trkpt lat="45.9075148" lon="7.6734964">
        <ele>2813.8</ele>
        <time>2014-01-29T11:57:42Z</time>
      </trkpt>
      <trkpt lat="45.9074637" lon="7.6734539">
        <ele>2812.6</ele>
        <time>2014-01-29T11:57:43Z</time>
      </trkpt>
      <trkpt lat="45.9074306" lon="7.6734272">
        <ele>2810.4</ele>
        <time>2014-01-29T11:57:44Z</time>
      </trkpt>
      <trkpt lat="45.9074294" lon="7.6733397">
        <ele>2809</ele>
        <time>2014-01-29T11:57:45Z</time>
      </trkpt>
      <trkpt lat="45.9074291" lon="7.6732808">
        <ele>2807.8</ele>
        <time>2014-01-29T11:57:46Z</time>
      </trkpt>
      <trkpt lat="45.9073776" lon="7.6732747">
        <ele>2806.6</ele>
        <time>2014-01-29T11:57:48Z</time>
      </trkpt>
      <trkpt lat="45.9073793" lon="7.6732739">
        <ele>2805.6</ele>
        <time>2014-01-29T11:57:52Z</time>
      </trkpt>
      <trkpt lat="45.9073791" lon="7.673277">
        <ele>2805.6</ele>
        <time>2014-01-29T11:57:58Z</time>
      </trkpt>
      <trkpt lat="45.9073838" lon="7.6732728">
        <ele>2805.6</ele>
        <time>2014-01-29T11:58:10Z</time>
      </trkpt>
      <trkpt lat="45.9073854" lon="7.6732583">
        <ele>2805.6</ele>
        <time>2014-01-29T11:58:16Z</time>
      </trkpt>
      <trkpt lat="45.9073843" lon="7.6732164">
        <ele>2805.6</ele>
        <time>2014-01-29T11:58:22Z</time>
      </trkpt>
      <trkpt lat="45.9073852" lon="7.6732164">
        <ele>2805.6</ele>
        <time>2014-01-29T11:58:29Z</time>
      </trkpt>
      <trkpt lat="45.9073857" lon="7.6732216">
        <ele>2805.6</ele>
        <time>2014-01-29T11:58:41Z</time>
      </trkpt>
      <trkpt lat="45.9073858" lon="7.6732203">
        <ele>2805.6</ele>
        <time>2014-01-29T11:58:59Z</time>
      </trkpt>
      <trkpt lat="45.9073849" lon="7.6732146">
        <ele>2805.6</ele>
        <time>2014-01-29T11:59:11Z</time>
      </trkpt>
      <trkpt lat="45.9073811" lon="7.6732133">
        <ele>2805.6</ele>
        <time>2014-01-29T11:59:20Z</time>
      </trkpt>
      <trkpt lat="45.9073828" lon="7.6732102">
        <ele>2805.6</ele>
        <time>2014-01-29T11:59:27Z</time>
      </trkpt>
      <trkpt lat="45.9073854" lon="7.6732085">
        <ele>2805.6</ele>
        <time>2014-01-29T11:59:43Z</time>
      </trkpt>
      <trkpt lat="45.9073853" lon="7.673208">
        <ele>2805.6</ele>
        <time>2014-01-29T11:59:54Z</time>
      </trkpt>
      <trkpt lat="45.9073728" lon="7.673216">
        <ele>2805.6</ele>
        <time>2014-01-29T12:00:00Z</time>
      </trkpt>
      <trkpt lat="45.9073542" lon="7.6732303">
        <ele>2804.4</ele>
        <time>2014-01-29T12:00:01Z</time>
      </trkpt>
      <trkpt lat="45.9073282" lon="7.6732444">
        <ele>2803.4</ele>
        <time>2014-01-29T12:00:02Z</time>
      </trkpt>
      <trkpt lat="45.9072896" lon="7.6732057">
        <ele>2802</ele>
        <time>2014-01-29T12:00:03Z</time>
      </trkpt>
      <trkpt lat="45.9072572" lon="7.6731417">
        <ele>2798.8</ele>
        <time>2014-01-29T12:00:04Z</time>
      </trkpt>
      <trkpt lat="45.9072098" lon="7.6731514">
        <ele>2797.6</ele>
        <time>2014-01-29T12:00:05Z</time>
      </trkpt>
      <trkpt lat="45.9071914" lon="7.6731798">
        <ele>2797.6</ele>
        <time>2014-01-29T12:00:06Z</time>
      </trkpt>
      <trkpt lat="45.907158" lon="7.673189">
        <ele>2796.4</ele>
        <time>2014-01-29T12:00:07Z</time>
      </trkpt>
      <trkpt lat="45.9071086" lon="7.6731917">
        <ele>2794.8</ele>
        <time>2014-01-29T12:00:08Z</time>
      </trkpt>
      <trkpt lat="45.907058" lon="7.6731966">
        <ele>2793.4</ele>
        <time>2014-01-29T12:00:09Z</time>
      </trkpt>
      <trkpt lat="45.9070296" lon="7.6731473">
        <ele>2792.2</ele>
        <time>2014-01-29T12:00:10Z</time>
      </trkpt>
      <trkpt lat="45.9070277" lon="7.6730776">
        <ele>2790.2</ele>
        <time>2014-01-29T12:00:11Z</time>
      </trkpt>
      <trkpt lat="45.9070404" lon="7.6729938">
        <ele>2788.6</ele>
        <time>2014-01-29T12:00:12Z</time>
      </trkpt>
      <trkpt lat="45.9070587" lon="7.6729046">
        <ele>2786</ele>
        <time>2014-01-29T12:00:13Z</time>
      </trkpt>
      <trkpt lat="45.9070223" lon="7.6728333">
        <ele>2784.6</ele>
        <time>2014-01-29T12:00:14Z</time>
      </trkpt>
      <trkpt lat="45.9069803" lon="7.6728142">
        <ele>2782.2</ele>
        <time>2014-01-29T12:00:15Z</time>
      </trkpt>
      <trkpt lat="45.9069553" lon="7.6727516">
        <ele>2780.8</ele>
        <time>2014-01-29T12:00:16Z</time>
      </trkpt>
      <trkpt lat="45.9069163" lon="7.6727129">
        <ele>2778.8</ele>
        <time>2014-01-29T12:00:17Z</time>
      </trkpt>
      <trkpt lat="45.906863" lon="7.6726735">
        <ele>2776</ele>
        <time>2014-01-29T12:00:18Z</time>
      </trkpt>
      <trkpt lat="45.9068118" lon="7.6725878">
        <ele>2774.6</ele>
        <time>2014-01-29T12:00:19Z</time>
      </trkpt>
      <trkpt lat="45.9067592" lon="7.6725715">
        <ele>2772.8</ele>
        <time>2014-01-29T12:00:20Z</time>
      </trkpt>
      <trkpt lat="45.9067053" lon="7.6725278">
        <ele>2770.2</ele>
        <time>2014-01-29T12:00:21Z</time>
      </trkpt>
      <trkpt lat="45.9066866" lon="7.6724412">
        <ele>2767.6</ele>
        <time>2014-01-29T12:00:22Z</time>
      </trkpt>
      <trkpt lat="45.9066482" lon="7.6724042">
        <ele>2766.4</ele>
        <time>2014-01-29T12:00:23Z</time>
      </trkpt>
      <trkpt lat="45.9066163" lon="7.6723444">
        <ele>2764.6</ele>
        <time>2014-01-29T12:00:24Z</time>
      </trkpt>
      <trkpt lat="45.9065838" lon="7.6722559">
        <ele>2763</ele>
        <time>2014-01-29T12:00:25Z</time>
      </trkpt>
      <trkpt lat="45.9065566" lon="7.67224">
        <ele>2761</ele>
        <time>2014-01-29T12:00:26Z</time>
      </trkpt>
      <trkpt lat="45.9065374" lon="7.6721917">
        <ele>2758.8</ele>
        <time>2014-01-29T12:00:27Z</time>
      </trkpt>
      <trkpt lat="45.9065358" lon="7.6721208">
        <ele>2757.4</ele>
        <time>2014-01-29T12:00:28Z</time>
      </trkpt>
      <trkpt lat="45.9065089" lon="7.6720867">
        <ele>2756.4</ele>
        <time>2014-01-29T12:00:29Z</time>
      </trkpt>
      <trkpt lat="45.9065052" lon="7.6720867">
        <ele>2756.4</ele>
        <time>2014-01-29T12:00:32Z</time>
      </trkpt>
      <trkpt lat="45.906499" lon="7.6720809">
        <ele>2756.4</ele>
        <time>2014-01-29T12:00:39Z</time>
      </trkpt>
      <trkpt lat="45.9064881" lon="7.672072">
        <ele>2755.2</ele>
        <time>2014-01-29T12:00:42Z</time>
      </trkpt>
      <trkpt lat="45.90648" lon="7.6720695">
        <ele>2754.2</ele>
        <time>2014-01-29T12:00:43Z</time>
      </trkpt>
      <trkpt lat="45.9064799" lon="7.672068">
        <ele>2754.2</ele>
        <time>2014-01-29T12:00:44Z</time>
      </trkpt>
      <trkpt lat="45.9064597" lon="7.6720548">
        <ele>2754.2</ele>
        <time>2014-01-29T12:00:52Z</time>
      </trkpt>
      <trkpt lat="45.9064517" lon="7.6720425">
        <ele>2754.2</ele>
        <time>2014-01-29T12:00:58Z</time>
      </trkpt>
      <trkpt lat="45.9064499" lon="7.6720329">
        <ele>2754.2</ele>
        <time>2014-01-29T12:01:05Z</time>
      </trkpt>
      <trkpt lat="45.9064494" lon="7.6720259">
        <ele>2754.2</ele>
        <time>2014-01-29T12:01:14Z</time>
      </trkpt>
      <trkpt lat="45.9064494" lon="7.6720263">
        <ele>2754.2</ele>
        <time>2014-01-29T12:01:25Z</time>
      </trkpt>
      <trkpt lat="45.9064515" lon="7.6720213">
        <ele>2754.2</ele>
        <time>2014-01-29T12:01:34Z</time>
      </trkpt>
      <trkpt lat="45.9064437" lon="7.6719981">
        <ele>2754.2</ele>
        <time>2014-01-29T12:01:36Z</time>
      </trkpt>
      <trkpt lat="45.9064341" lon="7.6719579">
        <ele>2752.8</ele>
        <time>2014-01-29T12:01:37Z</time>
      </trkpt>
      <trkpt lat="45.9064283" lon="7.6719099">
        <ele>2752.8</ele>
        <time>2014-01-29T12:01:38Z</time>
      </trkpt>
      <trkpt lat="45.9064101" lon="7.6718245">
        <ele>2751.4</ele>
        <time>2014-01-29T12:01:39Z</time>
      </trkpt>
      <trkpt lat="45.9063976" lon="7.6717458">
        <ele>2750</ele>
        <time>2014-01-29T12:01:40Z</time>
      </trkpt>
      <trkpt lat="45.9063844" lon="7.6716681">
        <ele>2749</ele>
        <time>2014-01-29T12:01:41Z</time>
      </trkpt>
      <trkpt lat="45.9063575" lon="7.6715565">
        <ele>2749</ele>
        <time>2014-01-29T12:01:42Z</time>
      </trkpt>
      <trkpt lat="45.9063179" lon="7.6714379">
        <ele>2747.4</ele>
        <time>2014-01-29T12:01:43Z</time>
      </trkpt>
      <trkpt lat="45.9062788" lon="7.6713537">
        <ele>2746</ele>
        <time>2014-01-29T12:01:44Z</time>
      </trkpt>
      <trkpt lat="45.9062231" lon="7.6712536">
        <ele>2744.2</ele>
        <time>2014-01-29T12:01:45Z</time>
      </trkpt>
      <trkpt lat="45.9061809" lon="7.67121">
        <ele>2743</ele>
        <time>2014-01-29T12:01:46Z</time>
      </trkpt>
      <trkpt lat="45.9061585" lon="7.6711539">
        <ele>2742</ele>
        <time>2014-01-29T12:01:47Z</time>
      </trkpt>
      <trkpt lat="45.9060803" lon="7.6710188">
        <ele>2740.6</ele>
        <time>2014-01-29T12:01:49Z</time>
      </trkpt>
      <trkpt lat="45.9060252" lon="7.6709511">
        <ele>2740.6</ele>
        <time>2014-01-29T12:01:51Z</time>
      </trkpt>
      <trkpt lat="45.9060093" lon="7.6709017">
        <ele>2740.6</ele>
        <time>2014-01-29T12:01:52Z</time>
      </trkpt>
      <trkpt lat="45.9059793" lon="7.6708769">
        <ele>2739.6</ele>
        <time>2014-01-29T12:01:53Z</time>
      </trkpt>
      <trkpt lat="45.905901" lon="7.6707864">
        <ele>2738.4</ele>
        <time>2014-01-29T12:01:56Z</time>
      </trkpt>
      <trkpt lat="45.9058449" lon="7.6707338">
        <ele>2738.4</ele>
        <time>2014-01-29T12:02:00Z</time>
      </trkpt>
      <trkpt lat="45.9058401" lon="7.6707221">
        <ele>2738.4</ele>
        <time>2014-01-29T12:02:05Z</time>
      </trkpt>
      <trkpt lat="45.9058187" lon="7.6706838">
        <ele>2738.4</ele>
        <time>2014-01-29T12:02:14Z</time>
      </trkpt>
      <trkpt lat="45.9058087" lon="7.6706717">
        <ele>2738.4</ele>
        <time>2014-01-29T12:02:15Z</time>
      </trkpt>
      <trkpt lat="45.9057993" lon="7.6706628">
        <ele>2737.4</ele>
        <time>2014-01-29T12:02:16Z</time>
      </trkpt>
      <trkpt lat="45.9057135" lon="7.6705939">
        <ele>2736.4</ele>
        <time>2014-01-29T12:02:21Z</time>
      </trkpt>
      <trkpt lat="45.9056946" lon="7.6705752">
        <ele>2736.4</ele>
        <time>2014-01-29T12:02:22Z</time>
      </trkpt>
      <trkpt lat="45.9056698" lon="7.6705587">
        <ele>2735.4</ele>
        <time>2014-01-29T12:02:23Z</time>
      </trkpt>
      <trkpt lat="45.9055879" lon="7.6704602">
        <ele>2734.4</ele>
        <time>2014-01-29T12:02:27Z</time>
      </trkpt>
      <trkpt lat="45.9055628" lon="7.6704347">
        <ele>2734.4</ele>
        <time>2014-01-29T12:02:28Z</time>
      </trkpt>
      <trkpt lat="45.9055055" lon="7.6703817">
        <ele>2733.2</ele>
        <time>2014-01-29T12:02:30Z</time>
      </trkpt>
      <trkpt lat="45.9054383" lon="7.6703117">
        <ele>2732</ele>
        <time>2014-01-29T12:02:32Z</time>
      </trkpt>
      <trkpt lat="45.9053544" lon="7.6702054">
        <ele>2731</ele>
        <time>2014-01-29T12:02:34Z</time>
      </trkpt>
      <trkpt lat="45.9052634" lon="7.6700649">
        <ele>2727.6</ele>
        <time>2014-01-29T12:02:36Z</time>
      </trkpt>
      <trkpt lat="45.9052091" lon="7.6699941">
        <ele>2726.4</ele>
        <time>2014-01-29T12:02:37Z</time>
      </trkpt>
      <trkpt lat="45.9051754" lon="7.6699134">
        <ele>2726.4</ele>
        <time>2014-01-29T12:02:38Z</time>
      </trkpt>
      <trkpt lat="45.9051419" lon="7.6698477">
        <ele>2725.2</ele>
        <time>2014-01-29T12:02:39Z</time>
      </trkpt>
      <trkpt lat="45.9051206" lon="7.6697763">
        <ele>2725.2</ele>
        <time>2014-01-29T12:02:41Z</time>
      </trkpt>
      <trkpt lat="45.9050659" lon="7.6697045">
        <ele>2724.2</ele>
        <time>2014-01-29T12:02:44Z</time>
      </trkpt>
      <trkpt lat="45.9050316" lon="7.6696605">
        <ele>2723</ele>
        <time>2014-01-29T12:02:46Z</time>
      </trkpt>
      <trkpt lat="45.9049899" lon="7.6696326">
        <ele>2723</ele>
        <time>2014-01-29T12:02:48Z</time>
      </trkpt>
      <trkpt lat="45.9049532" lon="7.6695888">
        <ele>2723</ele>
        <time>2014-01-29T12:02:53Z</time>
      </trkpt>
      <trkpt lat="45.9049524" lon="7.6695742">
        <ele>2723</ele>
        <time>2014-01-29T12:03:00Z</time>
      </trkpt>
      <trkpt lat="45.9049528" lon="7.669573">
        <ele>2723</ele>
        <time>2014-01-29T12:03:09Z</time>
      </trkpt>
      <trkpt lat="45.9049529" lon="7.6695758">
        <ele>2723</ele>
        <time>2014-01-29T12:03:19Z</time>
      </trkpt>
      <trkpt lat="45.9049475" lon="7.6695734">
        <ele>2723</ele>
        <time>2014-01-29T12:03:27Z</time>
      </trkpt>
      <trkpt lat="45.9049369" lon="7.6695701">
        <ele>2723</ele>
        <time>2014-01-29T12:03:35Z</time>
      </trkpt>
      <trkpt lat="45.9049321" lon="7.6695707">
        <ele>2723</ele>
        <time>2014-01-29T12:03:43Z</time>
      </trkpt>
      <trkpt lat="45.9049197" lon="7.6695638">
        <ele>2723</ele>
        <time>2014-01-29T12:03:53Z</time>
      </trkpt>
      <trkpt lat="45.9049187" lon="7.6695645">
        <ele>2722</ele>
        <time>2014-01-29T12:03:55Z</time>
      </trkpt>
      <trkpt lat="45.9049177" lon="7.6695696">
        <ele>2722</ele>
        <time>2014-01-29T12:04:05Z</time>
      </trkpt>
      <trkpt lat="45.9049367" lon="7.6695687">
        <ele>2722</ele>
        <time>2014-01-29T12:04:11Z</time>
      </trkpt>
      <trkpt lat="45.90499" lon="7.6695112">
        <ele>2722</ele>
        <time>2014-01-29T12:04:16Z</time>
      </trkpt>
      <trkpt lat="45.9049542" lon="7.6694256">
        <ele>2720.6</ele>
        <time>2014-01-29T12:04:18Z</time>
      </trkpt>
      <trkpt lat="45.9049606" lon="7.6693407">
        <ele>2717.2</ele>
        <time>2014-01-29T12:04:19Z</time>
      </trkpt>
      <trkpt lat="45.904963" lon="7.66926">
        <ele>2714</ele>
        <time>2014-01-29T12:04:20Z</time>
      </trkpt>
      <trkpt lat="45.9049238" lon="7.6691971">
        <ele>2711.6</ele>
        <time>2014-01-29T12:04:21Z</time>
      </trkpt>
      <trkpt lat="45.904919" lon="7.6691298">
        <ele>2708.2</ele>
        <time>2014-01-29T12:04:22Z</time>
      </trkpt>
      <trkpt lat="45.9049157" lon="7.6690251">
        <ele>2706.6</ele>
        <time>2014-01-29T12:04:23Z</time>
      </trkpt>
      <trkpt lat="45.9048859" lon="7.6689499">
        <ele>2703.6</ele>
        <time>2014-01-29T12:04:24Z</time>
      </trkpt>
      <trkpt lat="45.9049028" lon="7.6688453">
        <ele>2702</ele>
        <time>2014-01-29T12:04:25Z</time>
      </trkpt>
      <trkpt lat="45.9048889" lon="7.6687621">
        <ele>2699</ele>
        <time>2014-01-29T12:04:26Z</time>
      </trkpt>
      <trkpt lat="45.904888" lon="7.6686657">
        <ele>2696.4</ele>
        <time>2014-01-29T12:04:27Z</time>
      </trkpt>
      <trkpt lat="45.9048819" lon="7.6685616">
        <ele>2693</ele>
        <time>2014-01-29T12:04:28Z</time>
      </trkpt>
      <trkpt lat="45.9048572" lon="7.6684793">
        <ele>2690</ele>
        <time>2014-01-29T12:04:29Z</time>
      </trkpt>
      <trkpt lat="45.9048815" lon="7.6683464">
        <ele>2688</ele>
        <time>2014-01-29T12:04:31Z</time>
      </trkpt>
      <trkpt lat="45.9048611" lon="7.6682659">
        <ele>2685.8</ele>
        <time>2014-01-29T12:04:32Z</time>
      </trkpt>
      <trkpt lat="45.904871" lon="7.6681678">
        <ele>2684</ele>
        <time>2014-01-29T12:04:33Z</time>
      </trkpt>
      <trkpt lat="45.9048482" lon="7.6681084">
        <ele>2682.2</ele>
        <time>2014-01-29T12:04:34Z</time>
      </trkpt>
      <trkpt lat="45.9048275" lon="7.6680332">
        <ele>2679.8</ele>
        <time>2014-01-29T12:04:35Z</time>
      </trkpt>
      <trkpt lat="45.9048425" lon="7.6679505">
        <ele>2677.8</ele>
        <time>2014-01-29T12:04:36Z</time>
      </trkpt>
      <trkpt lat="45.9048208" lon="7.6678635">
        <ele>2676</ele>
        <time>2014-01-29T12:04:37Z</time>
      </trkpt>
      <trkpt lat="45.9048176" lon="7.6677684">
        <ele>2674.4</ele>
        <time>2014-01-29T12:04:38Z</time>
      </trkpt>
      <trkpt lat="45.904815" lon="7.6677093">
        <ele>2673</ele>
        <time>2014-01-29T12:04:39Z</time>
      </trkpt>
      <trkpt lat="45.9047993" lon="7.6676323">
        <ele>2671.8</ele>
        <time>2014-01-29T12:04:40Z</time>
      </trkpt>
      <trkpt lat="45.9048098" lon="7.6675456">
        <ele>2670.4</ele>
        <time>2014-01-29T12:04:42Z</time>
      </trkpt>
      <trkpt lat="45.9048084" lon="7.6675442">
        <ele>2670.4</ele>
        <time>2014-01-29T12:04:45Z</time>
      </trkpt>
      <trkpt lat="45.9048091" lon="7.6675441">
        <ele>2669.4</ele>
        <time>2014-01-29T12:04:52Z</time>
      </trkpt>
      <trkpt lat="45.9048088" lon="7.6675447">
        <ele>2669.4</ele>
        <time>2014-01-29T12:04:53Z</time>
      </trkpt>
      <trkpt lat="45.9048052" lon="7.6675407">
        <ele>2669.4</ele>
        <time>2014-01-29T12:05:00Z</time>
      </trkpt>
      <trkpt lat="45.9048057" lon="7.6674898">
        <ele>2669.4</ele>
        <time>2014-01-29T12:05:05Z</time>
      </trkpt>
      <trkpt lat="45.9047969" lon="7.6674591">
        <ele>2668.4</ele>
        <time>2014-01-29T12:05:06Z</time>
      </trkpt>
      <trkpt lat="45.9047837" lon="7.6673766">
        <ele>2667.2</ele>
        <time>2014-01-29T12:05:09Z</time>
      </trkpt>
      <trkpt lat="45.9048295" lon="7.6673003">
        <ele>2666</ele>
        <time>2014-01-29T12:05:11Z</time>
      </trkpt>
      <trkpt lat="45.9048343" lon="7.6672389">
        <ele>2664.8</ele>
        <time>2014-01-29T12:05:12Z</time>
      </trkpt>
      <trkpt lat="45.904862" lon="7.6671806">
        <ele>2663.8</ele>
        <time>2014-01-29T12:05:13Z</time>
      </trkpt>
      <trkpt lat="45.9048943" lon="7.6671291">
        <ele>2662.6</ele>
        <time>2014-01-29T12:05:14Z</time>
      </trkpt>
      <trkpt lat="45.9048894" lon="7.667059">
        <ele>2661.4</ele>
        <time>2014-01-29T12:05:15Z</time>
      </trkpt>
      <trkpt lat="45.9049141" lon="7.6670151">
        <ele>2660.4</ele>
        <time>2014-01-29T12:05:16Z</time>
      </trkpt>
      <trkpt lat="45.9049508" lon="7.6669642">
        <ele>2659.4</ele>
        <time>2014-01-29T12:05:17Z</time>
      </trkpt>
      <trkpt lat="45.9049641" lon="7.6668652">
        <ele>2657.4</ele>
        <time>2014-01-29T12:05:18Z</time>
      </trkpt>
      <trkpt lat="45.905" lon="7.6667734">
        <ele>2655</ele>
        <time>2014-01-29T12:05:19Z</time>
      </trkpt>
      <trkpt lat="45.9050474" lon="7.6666924">
        <ele>2652.6</ele>
        <time>2014-01-29T12:05:20Z</time>
      </trkpt>
      <trkpt lat="45.9050523" lon="7.6665807">
        <ele>2650</ele>
        <time>2014-01-29T12:05:21Z</time>
      </trkpt>
      <trkpt lat="45.9050861" lon="7.6664937">
        <ele>2647.6</ele>
        <time>2014-01-29T12:05:22Z</time>
      </trkpt>
      <trkpt lat="45.9051297" lon="7.6663664">
        <ele>2645.2</ele>
        <time>2014-01-29T12:05:23Z</time>
      </trkpt>
      <trkpt lat="45.9051362" lon="7.6662433">
        <ele>2641.4</ele>
        <time>2014-01-29T12:05:24Z</time>
      </trkpt>
      <trkpt lat="45.9051884" lon="7.6661146">
        <ele>2640</ele>
        <time>2014-01-29T12:05:25Z</time>
      </trkpt>
      <trkpt lat="45.9051869" lon="7.6659998">
        <ele>2638.4</ele>
        <time>2014-01-29T12:05:26Z</time>
      </trkpt>
      <trkpt lat="45.9051937" lon="7.6658777">
        <ele>2635.2</ele>
        <time>2014-01-29T12:05:27Z</time>
      </trkpt>
      <trkpt lat="45.9052298" lon="7.6657572">
        <ele>2633.8</ele>
        <time>2014-01-29T12:05:28Z</time>
      </trkpt>
      <trkpt lat="45.9052177" lon="7.6656429">
        <ele>2632.6</ele>
        <time>2014-01-29T12:05:29Z</time>
      </trkpt>
      <trkpt lat="45.9052357" lon="7.6655505">
        <ele>2631</ele>
        <time>2014-01-29T12:05:30Z</time>
      </trkpt>
      <trkpt lat="45.9052473" lon="7.6654626">
        <ele>2629.6</ele>
        <time>2014-01-29T12:05:31Z</time>
      </trkpt>
      <trkpt lat="45.9052366" lon="7.6653571">
        <ele>2628</ele>
        <time>2014-01-29T12:05:32Z</time>
      </trkpt>
      <trkpt lat="45.9052624" lon="7.6652539">
        <ele>2626.8</ele>
        <time>2014-01-29T12:05:33Z</time>
      </trkpt>
      <trkpt lat="45.9052559" lon="7.6651777">
        <ele>2625.4</ele>
        <time>2014-01-29T12:05:34Z</time>
      </trkpt>
      <trkpt lat="45.9052355" lon="7.6651316">
        <ele>2624.2</ele>
        <time>2014-01-29T12:05:35Z</time>
      </trkpt>
      <trkpt lat="45.9052571" lon="7.66509">
        <ele>2623</ele>
        <time>2014-01-29T12:05:36Z</time>
      </trkpt>
      <trkpt lat="45.9052726" lon="7.6650102">
        <ele>2622</ele>
        <time>2014-01-29T12:05:38Z</time>
      </trkpt>
      <trkpt lat="45.9052643" lon="7.6649737">
        <ele>2622</ele>
        <time>2014-01-29T12:05:39Z</time>
      </trkpt>
      <trkpt lat="45.9053275" lon="7.6648532">
        <ele>2619.8</ele>
        <time>2014-01-29T12:05:43Z</time>
      </trkpt>
      <trkpt lat="45.9053152" lon="7.6647954">
        <ele>2618.6</ele>
        <time>2014-01-29T12:05:44Z</time>
      </trkpt>
      <trkpt lat="45.9052846" lon="7.6647407">
        <ele>2616.2</ele>
        <time>2014-01-29T12:05:45Z</time>
      </trkpt>
      <trkpt lat="45.905281" lon="7.6646746">
        <ele>2614.8</ele>
        <time>2014-01-29T12:05:46Z</time>
      </trkpt>
      <trkpt lat="45.9052877" lon="7.6645807">
        <ele>2613.2</ele>
        <time>2014-01-29T12:05:47Z</time>
      </trkpt>
      <trkpt lat="45.9052536" lon="7.6645006">
        <ele>2610.6</ele>
        <time>2014-01-29T12:05:48Z</time>
      </trkpt>
      <trkpt lat="45.9052583" lon="7.664474">
        <ele>2608.8</ele>
        <time>2014-01-29T12:05:49Z</time>
      </trkpt>
      <trkpt lat="45.9052822" lon="7.6642983">
        <ele>2606.4</ele>
        <time>2014-01-29T12:05:50Z</time>
      </trkpt>
      <trkpt lat="45.9053043" lon="7.664188">
        <ele>2606.4</ele>
        <time>2014-01-29T12:05:51Z</time>
      </trkpt>
      <trkpt lat="45.9052305" lon="7.6640601">
        <ele>2600.8</ele>
        <time>2014-01-29T12:05:52Z</time>
      </trkpt>
      <trkpt lat="45.9052558" lon="7.6638968">
        <ele>2596.6</ele>
        <time>2014-01-29T12:05:53Z</time>
      </trkpt>
      <trkpt lat="45.9052403" lon="7.6637656">
        <ele>2593.4</ele>
        <time>2014-01-29T12:05:54Z</time>
      </trkpt>
      <trkpt lat="45.9051872" lon="7.6636381">
        <ele>2589.6</ele>
        <time>2014-01-29T12:05:55Z</time>
      </trkpt>
      <trkpt lat="45.9051927" lon="7.6634968">
        <ele>2588.2</ele>
        <time>2014-01-29T12:05:56Z</time>
      </trkpt>
      <trkpt lat="45.9051378" lon="7.6633567">
        <ele>2585.6</ele>
        <time>2014-01-29T12:05:57Z</time>
      </trkpt>
      <trkpt lat="45.905101" lon="7.6632417">
        <ele>2583.2</ele>
        <time>2014-01-29T12:05:58Z</time>
      </trkpt>
      <trkpt lat="45.9051114" lon="7.663108">
        <ele>2581.4</ele>
        <time>2014-01-29T12:05:59Z</time>
      </trkpt>
      <trkpt lat="45.9050901" lon="7.6630111">
        <ele>2579.8</ele>
        <time>2014-01-29T12:06:00Z</time>
      </trkpt>
      <trkpt lat="45.9050635" lon="7.6629165">
        <ele>2577.2</ele>
        <time>2014-01-29T12:06:01Z</time>
      </trkpt>
      <trkpt lat="45.9050725" lon="7.6628266">
        <ele>2576</ele>
        <time>2014-01-29T12:06:02Z</time>
      </trkpt>
      <trkpt lat="45.9051067" lon="7.6627387">
        <ele>2576</ele>
        <time>2014-01-29T12:06:03Z</time>
      </trkpt>
      <trkpt lat="45.9051339" lon="7.6626804">
        <ele>2574.8</ele>
        <time>2014-01-29T12:06:04Z</time>
      </trkpt>
      <trkpt lat="45.9051783" lon="7.6625883">
        <ele>2574.8</ele>
        <time>2014-01-29T12:06:06Z</time>
      </trkpt>
      <trkpt lat="45.9051906" lon="7.6625398">
        <ele>2574.8</ele>
        <time>2014-01-29T12:06:07Z</time>
      </trkpt>
      <trkpt lat="45.9051998" lon="7.6624931">
        <ele>2573.6</ele>
        <time>2014-01-29T12:06:08Z</time>
      </trkpt>
      <trkpt lat="45.9052263" lon="7.662396">
        <ele>2572.6</ele>
        <time>2014-01-29T12:06:10Z</time>
      </trkpt>
      <trkpt lat="45.9052532" lon="7.6622548">
        <ele>2571.2</ele>
        <time>2014-01-29T12:06:12Z</time>
      </trkpt>
      <trkpt lat="45.9052702" lon="7.6621519">
        <ele>2569.8</ele>
        <time>2014-01-29T12:06:13Z</time>
      </trkpt>
      <trkpt lat="45.9053001" lon="7.6620692">
        <ele>2568.4</ele>
        <time>2014-01-29T12:06:14Z</time>
      </trkpt>
      <trkpt lat="45.9053374" lon="7.6619517">
        <ele>2566.8</ele>
        <time>2014-01-29T12:06:15Z</time>
      </trkpt>
      <trkpt lat="45.9053205" lon="7.6618485">
        <ele>2564.6</ele>
        <time>2014-01-29T12:06:16Z</time>
      </trkpt>
      <trkpt lat="45.9053546" lon="7.6617271">
        <ele>2562.2</ele>
        <time>2014-01-29T12:06:17Z</time>
      </trkpt>
      <trkpt lat="45.9053934" lon="7.6616016">
        <ele>2559.4</ele>
        <time>2014-01-29T12:06:18Z</time>
      </trkpt>
      <trkpt lat="45.9053919" lon="7.6614469">
        <ele>2555.4</ele>
        <time>2014-01-29T12:06:19Z</time>
      </trkpt>
      <trkpt lat="45.905434" lon="7.6613549">
        <ele>2554.2</ele>
        <time>2014-01-29T12:06:20Z</time>
      </trkpt>
      <trkpt lat="45.9054714" lon="7.6612426">
        <ele>2552.6</ele>
        <time>2014-01-29T12:06:21Z</time>
      </trkpt>
      <trkpt lat="45.9054498" lon="7.6611488">
        <ele>2550.4</ele>
        <time>2014-01-29T12:06:22Z</time>
      </trkpt>
      <trkpt lat="45.9054489" lon="7.6610416">
        <ele>2547.2</ele>
        <time>2014-01-29T12:06:23Z</time>
      </trkpt>
      <trkpt lat="45.9054719" lon="7.6609333">
        <ele>2545.2</ele>
        <time>2014-01-29T12:06:24Z</time>
      </trkpt>
      <trkpt lat="45.9054579" lon="7.6608318">
        <ele>2542.8</ele>
        <time>2014-01-29T12:06:25Z</time>
      </trkpt>
      <trkpt lat="45.9055001" lon="7.6607645">
        <ele>2540.4</ele>
        <time>2014-01-29T12:06:26Z</time>
      </trkpt>
      <trkpt lat="45.9054988" lon="7.6606713">
        <ele>2538.4</ele>
        <time>2014-01-29T12:06:27Z</time>
      </trkpt>
      <trkpt lat="45.9054994" lon="7.6606013">
        <ele>2536.4</ele>
        <time>2014-01-29T12:06:28Z</time>
      </trkpt>
      <trkpt lat="45.9055233" lon="7.6605143">
        <ele>2535</ele>
        <time>2014-01-29T12:06:29Z</time>
      </trkpt>
      <trkpt lat="45.905504" lon="7.6604457">
        <ele>2533.4</ele>
        <time>2014-01-29T12:06:30Z</time>
      </trkpt>
      <trkpt lat="45.9055157" lon="7.6603676">
        <ele>2531.6</ele>
        <time>2014-01-29T12:06:31Z</time>
      </trkpt>
      <trkpt lat="45.9054888" lon="7.6602675">
        <ele>2529.2</ele>
        <time>2014-01-29T12:06:32Z</time>
      </trkpt>
      <trkpt lat="45.9054766" lon="7.6601457">
        <ele>2525.2</ele>
        <time>2014-01-29T12:06:33Z</time>
      </trkpt>
      <trkpt lat="45.9054523" lon="7.6600363">
        <ele>2521.8</ele>
        <time>2014-01-29T12:06:34Z</time>
      </trkpt>
      <trkpt lat="45.90541" lon="7.6599432">
        <ele>2518.8</ele>
        <time>2014-01-29T12:06:35Z</time>
      </trkpt>
      <trkpt lat="45.9054036" lon="7.6598108">
        <ele>2515.8</ele>
        <time>2014-01-29T12:06:36Z</time>
      </trkpt>
      <trkpt lat="45.9053617" lon="7.6596916">
        <ele>2513.2</ele>
        <time>2014-01-29T12:06:37Z</time>
      </trkpt>
      <trkpt lat="45.9053487" lon="7.6595425">
        <ele>2509.8</ele>
        <time>2014-01-29T12:06:38Z</time>
      </trkpt>
      <trkpt lat="45.9052963" lon="7.6594064">
        <ele>2506.4</ele>
        <time>2014-01-29T12:06:39Z</time>
      </trkpt>
      <trkpt lat="45.9052827" lon="7.6592702">
        <ele>2505</ele>
        <time>2014-01-29T12:06:40Z</time>
      </trkpt>
      <trkpt lat="45.905242" lon="7.6591675">
        <ele>2502.6</ele>
        <time>2014-01-29T12:06:41Z</time>
      </trkpt>
      <trkpt lat="45.9052191" lon="7.6589984">
        <ele>2500.6</ele>
        <time>2014-01-29T12:06:42Z</time>
      </trkpt>
      <trkpt lat="45.9051697" lon="7.6588175">
        <ele>2498.4</ele>
        <time>2014-01-29T12:06:43Z</time>
      </trkpt>
      <trkpt lat="45.9050957" lon="7.65871">
        <ele>2496</ele>
        <time>2014-01-29T12:06:44Z</time>
      </trkpt>
      <trkpt lat="45.905052" lon="7.6585439">
        <ele>2493.6</ele>
        <time>2014-01-29T12:06:45Z</time>
      </trkpt>
      <trkpt lat="45.9050621" lon="7.6583998">
        <ele>2491.6</ele>
        <time>2014-01-29T12:06:46Z</time>
      </trkpt>
      <trkpt lat="45.9050323" lon="7.6582688">
        <ele>2489.6</ele>
        <time>2014-01-29T12:06:47Z</time>
      </trkpt>
      <trkpt lat="45.9049422" lon="7.658104">
        <ele>2487.6</ele>
        <time>2014-01-29T12:06:48Z</time>
      </trkpt>
      <trkpt lat="45.9048551" lon="7.6579567">
        <ele>2484.2</ele>
        <time>2014-01-29T12:06:49Z</time>
      </trkpt>
      <trkpt lat="45.9048318" lon="7.6578146">
        <ele>2482.6</ele>
        <time>2014-01-29T12:06:50Z</time>
      </trkpt>
      <trkpt lat="45.9048394" lon="7.6576437">
        <ele>2481.4</ele>
        <time>2014-01-29T12:06:51Z</time>
      </trkpt>
      <trkpt lat="45.9048059" lon="7.6575247">
        <ele>2480.2</ele>
        <time>2014-01-29T12:06:52Z</time>
      </trkpt>
      <trkpt lat="45.9047641" lon="7.6574057">
        <ele>2478.6</ele>
        <time>2014-01-29T12:06:53Z</time>
      </trkpt>
      <trkpt lat="45.9047616" lon="7.6572802">
        <ele>2477.4</ele>
        <time>2014-01-29T12:06:54Z</time>
      </trkpt>
      <trkpt lat="45.9047304" lon="7.657174">
        <ele>2476.2</ele>
        <time>2014-01-29T12:06:55Z</time>
      </trkpt>
      <trkpt lat="45.9047387" lon="7.6570754">
        <ele>2475.2</ele>
        <time>2014-01-29T12:06:56Z</time>
      </trkpt>
      <trkpt lat="45.9047119" lon="7.6569948">
        <ele>2474</ele>
        <time>2014-01-29T12:06:57Z</time>
      </trkpt>
      <trkpt lat="45.9047078" lon="7.6568569">
        <ele>2472.6</ele>
        <time>2014-01-29T12:06:59Z</time>
      </trkpt>
      <trkpt lat="45.9046879" lon="7.6568302">
        <ele>2472.6</ele>
        <time>2014-01-29T12:07:00Z</time>
      </trkpt>
      <trkpt lat="45.904697" lon="7.6567862">
        <ele>2471.6</ele>
        <time>2014-01-29T12:07:01Z</time>
      </trkpt>
      <trkpt lat="45.9047249" lon="7.6567465">
        <ele>2471.6</ele>
        <time>2014-01-29T12:07:03Z</time>
      </trkpt>
      <trkpt lat="45.9047171" lon="7.6567494">
        <ele>2471.6</ele>
        <time>2014-01-29T12:07:08Z</time>
      </trkpt>
      <trkpt lat="45.9047186" lon="7.6567578">
        <ele>2471.6</ele>
        <time>2014-01-29T12:07:16Z</time>
      </trkpt>
      <trkpt lat="45.9047192" lon="7.6567587">
        <ele>2470.6</ele>
        <time>2014-01-29T12:07:18Z</time>
      </trkpt>
      <trkpt lat="45.90472" lon="7.6567627">
        <ele>2470.6</ele>
        <time>2014-01-29T12:07:30Z</time>
      </trkpt>
      <trkpt lat="45.9047193" lon="7.6567577">
        <ele>2470.6</ele>
        <time>2014-01-29T12:07:40Z</time>
      </trkpt>
      <trkpt lat="45.9047191" lon="7.6566769">
        <ele>2470.6</ele>
        <time>2014-01-29T12:07:48Z</time>
      </trkpt>
      <trkpt lat="45.9046353" lon="7.6565376">
        <ele>2468.4</ele>
        <time>2014-01-29T12:07:52Z</time>
      </trkpt>
      <trkpt lat="45.9045928" lon="7.656482">
        <ele>2466.8</ele>
        <time>2014-01-29T12:07:53Z</time>
      </trkpt>
      <trkpt lat="45.9045489" lon="7.6564147">
        <ele>2465.4</ele>
        <time>2014-01-29T12:07:54Z</time>
      </trkpt>
      <trkpt lat="45.9045032" lon="7.6563188">
        <ele>2462.6</ele>
        <time>2014-01-29T12:07:55Z</time>
      </trkpt>
      <trkpt lat="45.9044744" lon="7.6562149">
        <ele>2461.4</ele>
        <time>2014-01-29T12:07:56Z</time>
      </trkpt>
      <trkpt lat="45.9044122" lon="7.6561039">
        <ele>2457.6</ele>
        <time>2014-01-29T12:07:57Z</time>
      </trkpt>
      <trkpt lat="45.9043232" lon="7.6560291">
        <ele>2455.6</ele>
        <time>2014-01-29T12:07:58Z</time>
      </trkpt>
      <trkpt lat="45.9042662" lon="7.6559075">
        <ele>2455.6</ele>
        <time>2014-01-29T12:07:59Z</time>
      </trkpt>
      <trkpt lat="45.9041742" lon="7.6557113">
        <ele>2454.2</ele>
        <time>2014-01-29T12:08:01Z</time>
      </trkpt>
      <trkpt lat="45.9040901" lon="7.65563">
        <ele>2453.2</ele>
        <time>2014-01-29T12:08:02Z</time>
      </trkpt>
      <trkpt lat="45.9040439" lon="7.6555031">
        <ele>2453.2</ele>
        <time>2014-01-29T12:08:03Z</time>
      </trkpt>
      <trkpt lat="45.904056" lon="7.6553049">
        <ele>2451.4</ele>
        <time>2014-01-29T12:08:05Z</time>
      </trkpt>
      <trkpt lat="45.9040012" lon="7.6552222">
        <ele>2451.4</ele>
        <time>2014-01-29T12:08:07Z</time>
      </trkpt>
      <trkpt lat="45.9040046" lon="7.6551743">
        <ele>2451.4</ele>
        <time>2014-01-29T12:08:08Z</time>
      </trkpt>
      <trkpt lat="45.90402" lon="7.6551149">
        <ele>2451.4</ele>
        <time>2014-01-29T12:08:10Z</time>
      </trkpt>
      <trkpt lat="45.9040249" lon="7.6551052">
        <ele>2451.4</ele>
        <time>2014-01-29T12:08:14Z</time>
      </trkpt>
      <trkpt lat="45.9040241" lon="7.6551156">
        <ele>2451.4</ele>
        <time>2014-01-29T12:08:23Z</time>
      </trkpt>
      <trkpt lat="45.9040247" lon="7.6551143">
        <ele>2451.4</ele>
        <time>2014-01-29T12:08:30Z</time>
      </trkpt>
      <trkpt lat="45.904025" lon="7.6551152">
        <ele>2451.4</ele>
        <time>2014-01-29T12:08:41Z</time>
      </trkpt>
      <trkpt lat="45.9040221" lon="7.6551197">
        <ele>2451.4</ele>
        <time>2014-01-29T12:08:49Z</time>
      </trkpt>
      <trkpt lat="45.9040228" lon="7.6551195">
        <ele>2451.4</ele>
        <time>2014-01-29T12:08:58Z</time>
      </trkpt>
      <trkpt lat="45.9040152" lon="7.6551226">
        <ele>2451.4</ele>
        <time>2014-01-29T12:09:11Z</time>
      </trkpt>
      <trkpt lat="45.9040137" lon="7.6551239">
        <ele>2451.4</ele>
        <time>2014-01-29T12:09:19Z</time>
      </trkpt>
      <trkpt lat="45.904012" lon="7.6551291">
        <ele>2451.4</ele>
        <time>2014-01-29T12:09:28Z</time>
      </trkpt>
      <trkpt lat="45.9040107" lon="7.6551306">
        <ele>2451.4</ele>
        <time>2014-01-29T12:09:40Z</time>
      </trkpt>
      <trkpt lat="45.9040121" lon="7.6551242">
        <ele>2451.4</ele>
        <time>2014-01-29T12:09:57Z</time>
      </trkpt>
      <trkpt lat="45.9040127" lon="7.6551237">
        <ele>2451.4</ele>
        <time>2014-01-29T12:10:13Z</time>
      </trkpt>
      <trkpt lat="45.9040125" lon="7.6551337">
        <ele>2451.4</ele>
        <time>2014-01-29T12:10:29Z</time>
      </trkpt>
      <trkpt lat="45.9040114" lon="7.6551263">
        <ele>2451.4</ele>
        <time>2014-01-29T12:10:38Z</time>
      </trkpt>
      <trkpt lat="45.9040127" lon="7.6551258">
        <ele>2451.4</ele>
        <time>2014-01-29T12:10:54Z</time>
      </trkpt>
      <trkpt lat="45.9040049" lon="7.6551106">
        <ele>2451.4</ele>
        <time>2014-01-29T12:11:13Z</time>
      </trkpt>
      <trkpt lat="45.9039609" lon="7.6550418">
        <ele>2451.4</ele>
        <time>2014-01-29T12:11:21Z</time>
      </trkpt>
      <trkpt lat="45.9038919" lon="7.654955">
        <ele>2451.4</ele>
        <time>2014-01-29T12:11:28Z</time>
      </trkpt>
      <trkpt lat="45.9037966" lon="7.654819">
        <ele>2451.4</ele>
        <time>2014-01-29T12:11:33Z</time>
      </trkpt>
      <trkpt lat="45.9037343" lon="7.6547203">
        <ele>2450.4</ele>
        <time>2014-01-29T12:11:36Z</time>
      </trkpt>
      <trkpt lat="45.9037072" lon="7.6546837">
        <ele>2449.4</ele>
        <time>2014-01-29T12:11:37Z</time>
      </trkpt>
      <trkpt lat="45.9036449" lon="7.6546069">
        <ele>2448.2</ele>
        <time>2014-01-29T12:11:39Z</time>
      </trkpt>
      <trkpt lat="45.9035904" lon="7.6545393">
        <ele>2448.2</ele>
        <time>2014-01-29T12:11:41Z</time>
      </trkpt>
      <trkpt lat="45.9035519" lon="7.6544837">
        <ele>2447.2</ele>
        <time>2014-01-29T12:11:42Z</time>
      </trkpt>
      <trkpt lat="45.9035092" lon="7.6544185">
        <ele>2445.8</ele>
        <time>2014-01-29T12:11:43Z</time>
      </trkpt>
      <trkpt lat="45.903476" lon="7.654366">
        <ele>2444.8</ele>
        <time>2014-01-29T12:11:44Z</time>
      </trkpt>
      <trkpt lat="45.903398" lon="7.6542388">
        <ele>2443.6</ele>
        <time>2014-01-29T12:11:46Z</time>
      </trkpt>
      <trkpt lat="45.9033557" lon="7.6541695">
        <ele>2442.4</ele>
        <time>2014-01-29T12:11:47Z</time>
      </trkpt>
      <trkpt lat="45.9033097" lon="7.6540935">
        <ele>2441.2</ele>
        <time>2014-01-29T12:11:48Z</time>
      </trkpt>
      <trkpt lat="45.9031523" lon="7.6538206">
        <ele>2438.4</ele>
        <time>2014-01-29T12:11:51Z</time>
      </trkpt>
      <trkpt lat="45.9030863" lon="7.6537468">
        <ele>2436.6</ele>
        <time>2014-01-29T12:11:52Z</time>
      </trkpt>
      <trkpt lat="45.9029268" lon="7.6535332">
        <ele>2432.2</ele>
        <time>2014-01-29T12:11:54Z</time>
      </trkpt>
      <trkpt lat="45.9028171" lon="7.653453">
        <ele>2429.6</ele>
        <time>2014-01-29T12:11:55Z</time>
      </trkpt>
      <trkpt lat="45.9027331" lon="7.6533708">
        <ele>2427.2</ele>
        <time>2014-01-29T12:11:56Z</time>
      </trkpt>
      <trkpt lat="45.9026196" lon="7.6532938">
        <ele>2424.8</ele>
        <time>2014-01-29T12:11:57Z</time>
      </trkpt>
      <trkpt lat="45.9025144" lon="7.6532083">
        <ele>2423.2</ele>
        <time>2014-01-29T12:11:58Z</time>
      </trkpt>
      <trkpt lat="45.9024053" lon="7.6531339">
        <ele>2422</ele>
        <time>2014-01-29T12:11:59Z</time>
      </trkpt>
      <trkpt lat="45.9023092" lon="7.6530748">
        <ele>2420.4</ele>
        <time>2014-01-29T12:12:00Z</time>
      </trkpt>
      <trkpt lat="45.9021978" lon="7.6530029">
        <ele>2418.8</ele>
        <time>2014-01-29T12:12:01Z</time>
      </trkpt>
      <trkpt lat="45.9021027" lon="7.6529446">
        <ele>2417.4</ele>
        <time>2014-01-29T12:12:02Z</time>
      </trkpt>
      <trkpt lat="45.9019778" lon="7.6528678">
        <ele>2415.8</ele>
        <time>2014-01-29T12:12:03Z</time>
      </trkpt>
      <trkpt lat="45.9018812" lon="7.6528071">
        <ele>2413.8</ele>
        <time>2014-01-29T12:12:04Z</time>
      </trkpt>
      <trkpt lat="45.9017665" lon="7.6527373">
        <ele>2411.6</ele>
        <time>2014-01-29T12:12:05Z</time>
      </trkpt>
      <trkpt lat="45.9016586" lon="7.6526861">
        <ele>2409.8</ele>
        <time>2014-01-29T12:12:06Z</time>
      </trkpt>
      <trkpt lat="45.9015479" lon="7.6526175">
        <ele>2408.4</ele>
        <time>2014-01-29T12:12:07Z</time>
      </trkpt>
      <trkpt lat="45.9014553" lon="7.652544">
        <ele>2407</ele>
        <time>2014-01-29T12:12:08Z</time>
      </trkpt>
      <trkpt lat="45.9013321" lon="7.6524633">
        <ele>2406</ele>
        <time>2014-01-29T12:12:09Z</time>
      </trkpt>
      <trkpt lat="45.9012527" lon="7.6523906">
        <ele>2405</ele>
        <time>2014-01-29T12:12:10Z</time>
      </trkpt>
      <trkpt lat="45.9010746" lon="7.6522676">
        <ele>2405</ele>
        <time>2014-01-29T12:12:12Z</time>
      </trkpt>
      <trkpt lat="45.9009807" lon="7.6521852">
        <ele>2403.8</ele>
        <time>2014-01-29T12:12:13Z</time>
      </trkpt>
      <trkpt lat="45.9008279" lon="7.6520583">
        <ele>2402.8</ele>
        <time>2014-01-29T12:12:15Z</time>
      </trkpt>
      <trkpt lat="45.9007559" lon="7.6520127">
        <ele>2401.6</ele>
        <time>2014-01-29T12:12:16Z</time>
      </trkpt>
      <trkpt lat="45.9006735" lon="7.6519679">
        <ele>2400.4</ele>
        <time>2014-01-29T12:12:17Z</time>
      </trkpt>
      <trkpt lat="45.9005866" lon="7.6519246">
        <ele>2399</ele>
        <time>2014-01-29T12:12:18Z</time>
      </trkpt>
      <trkpt lat="45.9004913" lon="7.6518594">
        <ele>2397.2</ele>
        <time>2014-01-29T12:12:19Z</time>
      </trkpt>
      <trkpt lat="45.9004224" lon="7.6517893">
        <ele>2395.4</ele>
        <time>2014-01-29T12:12:20Z</time>
      </trkpt>
      <trkpt lat="45.9003186" lon="7.6517225">
        <ele>2393.4</ele>
        <time>2014-01-29T12:12:21Z</time>
      </trkpt>
      <trkpt lat="45.9002246" lon="7.6516729">
        <ele>2391</ele>
        <time>2014-01-29T12:12:22Z</time>
      </trkpt>
      <trkpt lat="45.9001431" lon="7.6516107">
        <ele>2388.8</ele>
        <time>2014-01-29T12:12:23Z</time>
      </trkpt>
      <trkpt lat="45.9000028" lon="7.6515271">
        <ele>2386.2</ele>
        <time>2014-01-29T12:12:24Z</time>
      </trkpt>
      <trkpt lat="45.8998812" lon="7.651442">
        <ele>2383.4</ele>
        <time>2014-01-29T12:12:25Z</time>
      </trkpt>
      <trkpt lat="45.8997765" lon="7.6513735">
        <ele>2380.6</ele>
        <time>2014-01-29T12:12:26Z</time>
      </trkpt>
      <trkpt lat="45.8996486" lon="7.6512902">
        <ele>2378.2</ele>
        <time>2014-01-29T12:12:27Z</time>
      </trkpt>
      <trkpt lat="45.8995309" lon="7.6512116">
        <ele>2376.2</ele>
        <time>2014-01-29T12:12:28Z</time>
      </trkpt>
      <trkpt lat="45.8994116" lon="7.6511289">
        <ele>2374.2</ele>
        <time>2014-01-29T12:12:29Z</time>
      </trkpt>
      <trkpt lat="45.8993053" lon="7.6510594">
        <ele>2372.2</ele>
        <time>2014-01-29T12:12:30Z</time>
      </trkpt>
      <trkpt lat="45.8991794" lon="7.6509831">
        <ele>2369.8</ele>
        <time>2014-01-29T12:12:31Z</time>
      </trkpt>
      <trkpt lat="45.899073" lon="7.6509108">
        <ele>2367.8</ele>
        <time>2014-01-29T12:12:32Z</time>
      </trkpt>
      <trkpt lat="45.8989304" lon="7.6508166">
        <ele>2365.8</ele>
        <time>2014-01-29T12:12:33Z</time>
      </trkpt>
      <trkpt lat="45.8988252" lon="7.6507448">
        <ele>2364</ele>
        <time>2014-01-29T12:12:34Z</time>
      </trkpt>
      <trkpt lat="45.8987096" lon="7.6506629">
        <ele>2363</ele>
        <time>2014-01-29T12:12:35Z</time>
      </trkpt>
      <trkpt lat="45.8986089" lon="7.6505922">
        <ele>2361.8</ele>
        <time>2014-01-29T12:12:36Z</time>
      </trkpt>
      <trkpt lat="45.8985" lon="7.6505078">
        <ele>2360.6</ele>
        <time>2014-01-29T12:12:37Z</time>
      </trkpt>
      <trkpt lat="45.8984116" lon="7.6504371">
        <ele>2360.6</ele>
        <time>2014-01-29T12:12:38Z</time>
      </trkpt>
      <trkpt lat="45.8983056" lon="7.6503571">
        <ele>2359.6</ele>
        <time>2014-01-29T12:12:39Z</time>
      </trkpt>
      <trkpt lat="45.8981716" lon="7.6502626">
        <ele>2358.4</ele>
        <time>2014-01-29T12:12:41Z</time>
      </trkpt>
      <trkpt lat="45.8980809" lon="7.6502058">
        <ele>2358.4</ele>
        <time>2014-01-29T12:12:42Z</time>
      </trkpt>
      <trkpt lat="45.8979894" lon="7.6501589">
        <ele>2357.4</ele>
        <time>2014-01-29T12:12:43Z</time>
      </trkpt>
      <trkpt lat="45.897923" lon="7.6501393">
        <ele>2357.4</ele>
        <time>2014-01-29T12:12:44Z</time>
      </trkpt>
      <trkpt lat="45.8978468" lon="7.6501462">
        <ele>2357.4</ele>
        <time>2014-01-29T12:12:45Z</time>
      </trkpt>
      <trkpt lat="45.897796" lon="7.6501731">
        <ele>2356.4</ele>
        <time>2014-01-29T12:12:46Z</time>
      </trkpt>
      <trkpt lat="45.8976939" lon="7.6502064">
        <ele>2356.4</ele>
        <time>2014-01-29T12:12:48Z</time>
      </trkpt>
      <trkpt lat="45.8976015" lon="7.6502783">
        <ele>2354.8</ele>
        <time>2014-01-29T12:12:50Z</time>
      </trkpt>
      <trkpt lat="45.8975429" lon="7.650327">
        <ele>2353.4</ele>
        <time>2014-01-29T12:12:51Z</time>
      </trkpt>
      <trkpt lat="45.8974848" lon="7.6503717">
        <ele>2353.4</ele>
        <time>2014-01-29T12:12:52Z</time>
      </trkpt>
      <trkpt lat="45.8974308" lon="7.6504089">
        <ele>2352.2</ele>
        <time>2014-01-29T12:12:53Z</time>
      </trkpt>
      <trkpt lat="45.8973347" lon="7.6504636">
        <ele>2350.8</ele>
        <time>2014-01-29T12:12:54Z</time>
      </trkpt>
      <trkpt lat="45.8972489" lon="7.6505009">
        <ele>2349.6</ele>
        <time>2014-01-29T12:12:55Z</time>
      </trkpt>
      <trkpt lat="45.8971741" lon="7.6505278">
        <ele>2348.4</ele>
        <time>2014-01-29T12:12:56Z</time>
      </trkpt>
      <trkpt lat="45.897078" lon="7.6505535">
        <ele>2347</ele>
        <time>2014-01-29T12:12:57Z</time>
      </trkpt>
      <trkpt lat="45.8969817" lon="7.6505705">
        <ele>2345.4</ele>
        <time>2014-01-29T12:12:58Z</time>
      </trkpt>
      <trkpt lat="45.8968758" lon="7.650583">
        <ele>2344</ele>
        <time>2014-01-29T12:12:59Z</time>
      </trkpt>
      <trkpt lat="45.8967843" lon="7.6505897">
        <ele>2344</ele>
        <time>2014-01-29T12:13:00Z</time>
      </trkpt>
      <trkpt lat="45.8966807" lon="7.650595">
        <ele>2343</ele>
        <time>2014-01-29T12:13:01Z</time>
      </trkpt>
      <trkpt lat="45.8964945" lon="7.6506273">
        <ele>2343</ele>
        <time>2014-01-29T12:13:03Z</time>
      </trkpt>
      <trkpt lat="45.8964252" lon="7.6506587">
        <ele>2343</ele>
        <time>2014-01-29T12:13:04Z</time>
      </trkpt>
      <trkpt lat="45.8963523" lon="7.6507008">
        <ele>2342</ele>
        <time>2014-01-29T12:13:05Z</time>
      </trkpt>
      <trkpt lat="45.8961696" lon="7.6508011">
        <ele>2342</ele>
        <time>2014-01-29T12:13:08Z</time>
      </trkpt>
      <trkpt lat="45.8960908" lon="7.6508368">
        <ele>2340.6</ele>
        <time>2014-01-29T12:13:09Z</time>
      </trkpt>
      <trkpt lat="45.8959729" lon="7.6509083">
        <ele>2340.6</ele>
        <time>2014-01-29T12:13:11Z</time>
      </trkpt>
      <trkpt lat="45.8959182" lon="7.6509512">
        <ele>2339.6</ele>
        <time>2014-01-29T12:13:12Z</time>
      </trkpt>
      <trkpt lat="45.8958498" lon="7.6509975">
        <ele>2339.6</ele>
        <time>2014-01-29T12:13:13Z</time>
      </trkpt>
      <trkpt lat="45.8957956" lon="7.6510281">
        <ele>2338.4</ele>
        <time>2014-01-29T12:13:14Z</time>
      </trkpt>
      <trkpt lat="45.8957284" lon="7.6510668">
        <ele>2338.4</ele>
        <time>2014-01-29T12:13:15Z</time>
      </trkpt>
      <trkpt lat="45.8956653" lon="7.6510687">
        <ele>2336.2</ele>
        <time>2014-01-29T12:13:16Z</time>
      </trkpt>
      <trkpt lat="45.8955911" lon="7.6510604">
        <ele>2333.6</ele>
        <time>2014-01-29T12:13:17Z</time>
      </trkpt>
      <trkpt lat="45.895525" lon="7.6510556">
        <ele>2332.4</ele>
        <time>2014-01-29T12:13:18Z</time>
      </trkpt>
      <trkpt lat="45.8954861" lon="7.6510221">
        <ele>2331.4</ele>
        <time>2014-01-29T12:13:19Z</time>
      </trkpt>
      <trkpt lat="45.8954746" lon="7.6509847">
        <ele>2330.2</ele>
        <time>2014-01-29T12:13:20Z</time>
      </trkpt>
      <trkpt lat="45.8954528" lon="7.65096">
        <ele>2329</ele>
        <time>2014-01-29T12:13:21Z</time>
      </trkpt>
      <trkpt lat="45.8954421" lon="7.6509481">
        <ele>2329</ele>
        <time>2014-01-29T12:13:23Z</time>
      </trkpt>
      <trkpt lat="45.8954231" lon="7.650935">
        <ele>2328</ele>
        <time>2014-01-29T12:13:30Z</time>
      </trkpt>
      <trkpt lat="45.8953992" lon="7.6509042">
        <ele>2327</ele>
        <time>2014-01-29T12:13:31Z</time>
      </trkpt>
      <trkpt lat="45.8953342" lon="7.6508151">
        <ele>2325.6</ele>
        <time>2014-01-29T12:13:33Z</time>
      </trkpt>
      <trkpt lat="45.8952976" lon="7.6507673">
        <ele>2324.4</ele>
        <time>2014-01-29T12:13:34Z</time>
      </trkpt>
      <trkpt lat="45.8952027" lon="7.6506513">
        <ele>2323.2</ele>
        <time>2014-01-29T12:13:36Z</time>
      </trkpt>
      <trkpt lat="45.8951485" lon="7.6505791">
        <ele>2321.8</ele>
        <time>2014-01-29T12:13:37Z</time>
      </trkpt>
      <trkpt lat="45.8951028" lon="7.6505151">
        <ele>2320.8</ele>
        <time>2014-01-29T12:13:38Z</time>
      </trkpt>
      <trkpt lat="45.8950426" lon="7.6504322">
        <ele>2319.8</ele>
        <time>2014-01-29T12:13:39Z</time>
      </trkpt>
      <trkpt lat="45.8949507" lon="7.6503193">
        <ele>2318.4</ele>
        <time>2014-01-29T12:13:41Z</time>
      </trkpt>
      <trkpt lat="45.8948871" lon="7.6502337">
        <ele>2317.2</ele>
        <time>2014-01-29T12:13:42Z</time>
      </trkpt>
      <trkpt lat="45.8948174" lon="7.6501367">
        <ele>2317.2</ele>
        <time>2014-01-29T12:13:43Z</time>
      </trkpt>
      <trkpt lat="45.894759" lon="7.6500619">
        <ele>2315.8</ele>
        <time>2014-01-29T12:13:44Z</time>
      </trkpt>
      <trkpt lat="45.8946844" lon="7.6499816">
        <ele>2314.8</ele>
        <time>2014-01-29T12:13:45Z</time>
      </trkpt>
      <trkpt lat="45.894615" lon="7.6499158">
        <ele>2312.6</ele>
        <time>2014-01-29T12:13:46Z</time>
      </trkpt>
      <trkpt lat="45.8945664" lon="7.6498399">
        <ele>2311.6</ele>
        <time>2014-01-29T12:13:47Z</time>
      </trkpt>
      <trkpt lat="45.8944725" lon="7.6497257">
        <ele>2310.2</ele>
        <time>2014-01-29T12:13:48Z</time>
      </trkpt>
      <trkpt lat="45.8943817" lon="7.6496629">
        <ele>2308.8</ele>
        <time>2014-01-29T12:13:49Z</time>
      </trkpt>
      <trkpt lat="45.8943267" lon="7.6495735">
        <ele>2307</ele>
        <time>2014-01-29T12:13:50Z</time>
      </trkpt>
      <trkpt lat="45.8942347" lon="7.6494802">
        <ele>2303.4</ele>
        <time>2014-01-29T12:13:51Z</time>
      </trkpt>
      <trkpt lat="45.8941513" lon="7.6494185">
        <ele>2302.2</ele>
        <time>2014-01-29T12:13:52Z</time>
      </trkpt>
      <trkpt lat="45.8940607" lon="7.6493025">
        <ele>2300.8</ele>
        <time>2014-01-29T12:13:53Z</time>
      </trkpt>
      <trkpt lat="45.8939625" lon="7.6492323">
        <ele>2299</ele>
        <time>2014-01-29T12:13:54Z</time>
      </trkpt>
      <trkpt lat="45.8938565" lon="7.6491552">
        <ele>2297.6</ele>
        <time>2014-01-29T12:13:55Z</time>
      </trkpt>
      <trkpt lat="45.8938053" lon="7.6490414">
        <ele>2296.2</ele>
        <time>2014-01-29T12:13:56Z</time>
      </trkpt>
      <trkpt lat="45.8936646" lon="7.6488539">
        <ele>2296.2</ele>
        <time>2014-01-29T12:13:58Z</time>
      </trkpt>
      <trkpt lat="45.8936159" lon="7.6488356">
        <ele>2296.2</ele>
        <time>2014-01-29T12:13:59Z</time>
      </trkpt>
      <trkpt lat="45.8935434" lon="7.6488607">
        <ele>2296.2</ele>
        <time>2014-01-29T12:14:02Z</time>
      </trkpt>
      <trkpt lat="45.8935234" lon="7.648855">
        <ele>2296.2</ele>
        <time>2014-01-29T12:14:06Z</time>
      </trkpt>
      <trkpt lat="45.893524" lon="7.648856">
        <ele>2294.2</ele>
        <time>2014-01-29T12:14:12Z</time>
      </trkpt>
      <trkpt lat="45.8935235" lon="7.6488589">
        <ele>2294.2</ele>
        <time>2014-01-29T12:14:17Z</time>
      </trkpt>
      <trkpt lat="45.8935267" lon="7.6488649">
        <ele>2293.2</ele>
        <time>2014-01-29T12:14:24Z</time>
      </trkpt>
      <trkpt lat="45.8935271" lon="7.6488652">
        <ele>2293.2</ele>
        <time>2014-01-29T12:14:25Z</time>
      </trkpt>
      <trkpt lat="45.8935295" lon="7.6488719">
        <ele>2293.2</ele>
        <time>2014-01-29T12:14:33Z</time>
      </trkpt>
      <trkpt lat="45.8935315" lon="7.6488698">
        <ele>2293.2</ele>
        <time>2014-01-29T12:14:42Z</time>
      </trkpt>
      <trkpt lat="45.8935264" lon="7.6488666">
        <ele>2293.2</ele>
        <time>2014-01-29T12:14:50Z</time>
      </trkpt>
      <trkpt lat="45.8935276" lon="7.648871">
        <ele>2293.2</ele>
        <time>2014-01-29T12:14:58Z</time>
      </trkpt>
      <trkpt lat="45.8935281" lon="7.6488713">
        <ele>2293.2</ele>
        <time>2014-01-29T12:15:05Z</time>
      </trkpt>
      <trkpt lat="45.8935305" lon="7.6488734">
        <ele>2293.2</ele>
        <time>2014-01-29T12:15:15Z</time>
      </trkpt>
      <trkpt lat="45.8935344" lon="7.6488647">
        <ele>2293.2</ele>
        <time>2014-01-29T12:15:24Z</time>
      </trkpt>
      <trkpt lat="45.8935369" lon="7.6488544">
        <ele>2293.2</ele>
        <time>2014-01-29T12:15:30Z</time>
      </trkpt>
      <trkpt lat="45.8935373" lon="7.6488518">
        <ele>2293.2</ele>
        <time>2014-01-29T12:15:43Z</time>
      </trkpt>
      <trkpt lat="45.8935338" lon="7.6487567">
        <ele>2293.2</ele>
        <time>2014-01-29T12:15:52Z</time>
      </trkpt>
      <trkpt lat="45.8934891" lon="7.6485822">
        <ele>2291</ele>
        <time>2014-01-29T12:15:55Z</time>
      </trkpt>
      <trkpt lat="45.8934545" lon="7.6485224">
        <ele>2288.2</ele>
        <time>2014-01-29T12:15:56Z</time>
      </trkpt>
      <trkpt lat="45.8933934" lon="7.6484566">
        <ele>2285.8</ele>
        <time>2014-01-29T12:15:57Z</time>
      </trkpt>
      <trkpt lat="45.8933222" lon="7.6484596">
        <ele>2283</ele>
        <time>2014-01-29T12:15:58Z</time>
      </trkpt>
      <trkpt lat="45.8932381" lon="7.6484838">
        <ele>2280.4</ele>
        <time>2014-01-29T12:15:59Z</time>
      </trkpt>
      <trkpt lat="45.8931607" lon="7.6484457">
        <ele>2276.4</ele>
        <time>2014-01-29T12:16:00Z</time>
      </trkpt>
      <trkpt lat="45.8930593" lon="7.648437">
        <ele>2275</ele>
        <time>2014-01-29T12:16:01Z</time>
      </trkpt>
      <trkpt lat="45.8929924" lon="7.6484954">
        <ele>2275</ele>
        <time>2014-01-29T12:16:02Z</time>
      </trkpt>
      <trkpt lat="45.8928909" lon="7.6485338">
        <ele>2270.4</ele>
        <time>2014-01-29T12:16:03Z</time>
      </trkpt>
      <trkpt lat="45.8927978" lon="7.6485678">
        <ele>2267.2</ele>
        <time>2014-01-29T12:16:04Z</time>
      </trkpt>
      <trkpt lat="45.8927206" lon="7.6486833">
        <ele>2263</ele>
        <time>2014-01-29T12:16:05Z</time>
      </trkpt>
      <trkpt lat="45.8926297" lon="7.648761">
        <ele>2259.4</ele>
        <time>2014-01-29T12:16:06Z</time>
      </trkpt>
      <trkpt lat="45.892504" lon="7.648805">
        <ele>2256.2</ele>
        <time>2014-01-29T12:16:07Z</time>
      </trkpt>
      <trkpt lat="45.8923996" lon="7.648919">
        <ele>2252.8</ele>
        <time>2014-01-29T12:16:08Z</time>
      </trkpt>
      <trkpt lat="45.8923186" lon="7.649082">
        <ele>2249.6</ele>
        <time>2014-01-29T12:16:09Z</time>
      </trkpt>
      <trkpt lat="45.8922293" lon="7.6491896">
        <ele>2244.4</ele>
        <time>2014-01-29T12:16:10Z</time>
      </trkpt>
      <trkpt lat="45.8920999" lon="7.6493071">
        <ele>2239.2</ele>
        <time>2014-01-29T12:16:11Z</time>
      </trkpt>
      <trkpt lat="45.8919964" lon="7.6494588">
        <ele>2237.6</ele>
        <time>2014-01-29T12:16:12Z</time>
      </trkpt>
      <trkpt lat="45.8918931" lon="7.6496499">
        <ele>2236.6</ele>
        <time>2014-01-29T12:16:13Z</time>
      </trkpt>
      <trkpt lat="45.8917091" lon="7.6498974">
        <ele>2234.8</ele>
        <time>2014-01-29T12:16:15Z</time>
      </trkpt>
      <trkpt lat="45.8915891" lon="7.6500004">
        <ele>2232.4</ele>
        <time>2014-01-29T12:16:16Z</time>
      </trkpt>
      <trkpt lat="45.8914792" lon="7.6501344">
        <ele>2229</ele>
        <time>2014-01-29T12:16:17Z</time>
      </trkpt>
      <trkpt lat="45.8913565" lon="7.6502407">
        <ele>2226.6</ele>
        <time>2014-01-29T12:16:18Z</time>
      </trkpt>
      <trkpt lat="45.8911926" lon="7.6502981">
        <ele>2224.8</ele>
        <time>2014-01-29T12:16:19Z</time>
      </trkpt>
      <trkpt lat="45.8910829" lon="7.6502681">
        <ele>2223.8</ele>
        <time>2014-01-29T12:16:20Z</time>
      </trkpt>
      <trkpt lat="45.8909683" lon="7.6501891">
        <ele>2223.8</ele>
        <time>2014-01-29T12:16:21Z</time>
      </trkpt>
      <trkpt lat="45.8907894" lon="7.650094">
        <ele>2222.4</ele>
        <time>2014-01-29T12:16:23Z</time>
      </trkpt>
      <trkpt lat="45.8907219" lon="7.6500427">
        <ele>2222.4</ele>
        <time>2014-01-29T12:16:24Z</time>
      </trkpt>
      <trkpt lat="45.8906099" lon="7.6499879">
        <ele>2221.4</ele>
        <time>2014-01-29T12:16:26Z</time>
      </trkpt>
      <trkpt lat="45.8904934" lon="7.6499686">
        <ele>2220.4</ele>
        <time>2014-01-29T12:16:29Z</time>
      </trkpt>
      <trkpt lat="45.8904574" lon="7.6499599">
        <ele>2220.4</ele>
        <time>2014-01-29T12:16:30Z</time>
      </trkpt>
      <trkpt lat="45.8904003" lon="7.6499445">
        <ele>2219.2</ele>
        <time>2014-01-29T12:16:31Z</time>
      </trkpt>
      <trkpt lat="45.8902814" lon="7.6499109">
        <ele>2218.2</ele>
        <time>2014-01-29T12:16:33Z</time>
      </trkpt>
      <trkpt lat="45.8900808" lon="7.6498771">
        <ele>2217.2</ele>
        <time>2014-01-29T12:16:37Z</time>
      </trkpt>
      <trkpt lat="45.8900332" lon="7.6498627">
        <ele>2217.2</ele>
        <time>2014-01-29T12:16:38Z</time>
      </trkpt>
      <trkpt lat="45.8898422" lon="7.6498301">
        <ele>2216</ele>
        <time>2014-01-29T12:16:42Z</time>
      </trkpt>
      <trkpt lat="45.8896416" lon="7.6498286">
        <ele>2214.6</ele>
        <time>2014-01-29T12:16:46Z</time>
      </trkpt>
      <trkpt lat="45.8894688" lon="7.6498404">
        <ele>2213.4</ele>
        <time>2014-01-29T12:16:49Z</time>
      </trkpt>
      <trkpt lat="45.8893477" lon="7.6498363">
        <ele>2212.4</ele>
        <time>2014-01-29T12:16:51Z</time>
      </trkpt>
      <trkpt lat="45.889294" lon="7.6498236">
        <ele>2212.4</ele>
        <time>2014-01-29T12:16:52Z</time>
      </trkpt>
      <trkpt lat="45.8890266" lon="7.6497333">
        <ele>2211.2</ele>
        <time>2014-01-29T12:16:57Z</time>
      </trkpt>
      <trkpt lat="45.8889822" lon="7.6497195">
        <ele>2211.2</ele>
        <time>2014-01-29T12:16:58Z</time>
      </trkpt>
      <trkpt lat="45.8888303" lon="7.6496877">
        <ele>2210.2</ele>
        <time>2014-01-29T12:17:01Z</time>
      </trkpt>
      <trkpt lat="45.888634" lon="7.6496601">
        <ele>2210.2</ele>
        <time>2014-01-29T12:17:05Z</time>
      </trkpt>
      <trkpt lat="45.8882789" lon="7.6495538">
        <ele>2210.2</ele>
        <time>2014-01-29T12:17:13Z</time>
      </trkpt>
      <trkpt lat="45.8882054" lon="7.649538">
        <ele>2208</ele>
        <time>2014-01-29T12:17:15Z</time>
      </trkpt>
      <trkpt lat="45.8879875" lon="7.6495413">
        <ele>2208</ele>
        <time>2014-01-29T12:17:21Z</time>
      </trkpt>
      <trkpt lat="45.8878809" lon="7.6495655">
        <ele>2207</ele>
        <time>2014-01-29T12:17:25Z</time>
      </trkpt>
      <trkpt lat="45.887888" lon="7.6495687">
        <ele>2207</ele>
        <time>2014-01-29T12:17:26Z</time>
      </trkpt>
      <trkpt lat="45.8878858" lon="7.6495636">
        <ele>2207</ele>
        <time>2014-01-29T12:17:33Z</time>
      </trkpt>
      <trkpt lat="45.8878788" lon="7.6495782">
        <ele>2207</ele>
        <time>2014-01-29T12:17:39Z</time>
      </trkpt>
      <trkpt lat="45.8878692" lon="7.6495779">
        <ele>2207</ele>
        <time>2014-01-29T12:17:40Z</time>
      </trkpt>
      <trkpt lat="45.8878067" lon="7.6495925">
        <ele>2206</ele>
        <time>2014-01-29T12:17:43Z</time>
      </trkpt>
      <trkpt lat="45.8877772" lon="7.649602">
        <ele>2206</ele>
        <time>2014-01-29T12:17:44Z</time>
      </trkpt>
      <trkpt lat="45.8877393" lon="7.6496145">
        <ele>2205</ele>
        <time>2014-01-29T12:17:45Z</time>
      </trkpt>
      <trkpt lat="45.8876665" lon="7.6496223">
        <ele>2205</ele>
        <time>2014-01-29T12:17:47Z</time>
      </trkpt>
      <trkpt lat="45.8876109" lon="7.6496218">
        <ele>2204</ele>
        <time>2014-01-29T12:17:48Z</time>
      </trkpt>
      <trkpt lat="45.8875607" lon="7.6496226">
        <ele>2204</ele>
        <time>2014-01-29T12:17:49Z</time>
      </trkpt>
      <trkpt lat="45.8875185" lon="7.6496249">
        <ele>2203</ele>
        <time>2014-01-29T12:17:50Z</time>
      </trkpt>
      <trkpt lat="45.8873621" lon="7.6496713">
        <ele>2201.8</ele>
        <time>2014-01-29T12:17:53Z</time>
      </trkpt>
      <trkpt lat="45.887312" lon="7.6497025">
        <ele>2201.8</ele>
        <time>2014-01-29T12:17:54Z</time>
      </trkpt>
      <trkpt lat="45.8872614" lon="7.6497424">
        <ele>2200.6</ele>
        <time>2014-01-29T12:17:55Z</time>
      </trkpt>
      <trkpt lat="45.8871732" lon="7.6498226">
        <ele>2199.4</ele>
        <time>2014-01-29T12:17:57Z</time>
      </trkpt>
      <trkpt lat="45.8871177" lon="7.6498738">
        <ele>2198.2</ele>
        <time>2014-01-29T12:17:58Z</time>
      </trkpt>
      <trkpt lat="45.887056" lon="7.6499298">
        <ele>2198.2</ele>
        <time>2014-01-29T12:17:59Z</time>
      </trkpt>
      <trkpt lat="45.8869957" lon="7.6499749">
        <ele>2196.8</ele>
        <time>2014-01-29T12:18:00Z</time>
      </trkpt>
      <trkpt lat="45.8869122" lon="7.6500218">
        <ele>2195.2</ele>
        <time>2014-01-29T12:18:01Z</time>
      </trkpt>
      <trkpt lat="45.8868401" lon="7.6500558">
        <ele>2194.2</ele>
        <time>2014-01-29T12:18:02Z</time>
      </trkpt>
      <trkpt lat="45.88674" lon="7.650106">
        <ele>2193</ele>
        <time>2014-01-29T12:18:03Z</time>
      </trkpt>
      <trkpt lat="45.8865763" lon="7.6501943">
        <ele>2190.6</ele>
        <time>2014-01-29T12:18:05Z</time>
      </trkpt>
      <trkpt lat="45.8864941" lon="7.6502311">
        <ele>2189.4</ele>
        <time>2014-01-29T12:18:06Z</time>
      </trkpt>
      <trkpt lat="45.8864033" lon="7.6502665">
        <ele>2188.4</ele>
        <time>2014-01-29T12:18:07Z</time>
      </trkpt>
      <trkpt lat="45.8862163" lon="7.650295">
        <ele>2186.8</ele>
        <time>2014-01-29T12:18:09Z</time>
      </trkpt>
      <trkpt lat="45.8861426" lon="7.6502682">
        <ele>2185.6</ele>
        <time>2014-01-29T12:18:10Z</time>
      </trkpt>
      <trkpt lat="45.8860594" lon="7.6502091">
        <ele>2184.2</ele>
        <time>2014-01-29T12:18:11Z</time>
      </trkpt>
      <trkpt lat="45.8859957" lon="7.6501344">
        <ele>2184.2</ele>
        <time>2014-01-29T12:18:12Z</time>
      </trkpt>
      <trkpt lat="45.8859309" lon="7.6500085">
        <ele>2182.8</ele>
        <time>2014-01-29T12:18:13Z</time>
      </trkpt>
      <trkpt lat="45.8858987" lon="7.649894">
        <ele>2181.6</ele>
        <time>2014-01-29T12:18:14Z</time>
      </trkpt>
      <trkpt lat="45.8858681" lon="7.6497582">
        <ele>2180.4</ele>
        <time>2014-01-29T12:18:15Z</time>
      </trkpt>
      <trkpt lat="45.8858416" lon="7.6496318">
        <ele>2179.2</ele>
        <time>2014-01-29T12:18:16Z</time>
      </trkpt>
      <trkpt lat="45.8858" lon="7.649532">
        <ele>2179.2</ele>
        <time>2014-01-29T12:18:17Z</time>
      </trkpt>
      <trkpt lat="45.885752" lon="7.6494538">
        <ele>2178</ele>
        <time>2014-01-29T12:18:18Z</time>
      </trkpt>
      <trkpt lat="45.8857308" lon="7.649316">
        <ele>2178</ele>
        <time>2014-01-29T12:18:21Z</time>
      </trkpt>
      <trkpt lat="45.885733" lon="7.6493149">
        <ele>2178</ele>
        <time>2014-01-29T12:18:27Z</time>
      </trkpt>
      <trkpt lat="45.8857384" lon="7.6493217">
        <ele>2178</ele>
        <time>2014-01-29T12:18:36Z</time>
      </trkpt>
      <trkpt lat="45.8857415" lon="7.6493248">
        <ele>2178</ele>
        <time>2014-01-29T12:18:45Z</time>
      </trkpt>
      <trkpt lat="45.8857374" lon="7.6493128">
        <ele>2178</ele>
        <time>2014-01-29T12:18:52Z</time>
      </trkpt>
      <trkpt lat="45.8856784" lon="7.6491961">
        <ele>2178</ele>
        <time>2014-01-29T12:18:58Z</time>
      </trkpt>
      <trkpt lat="45.8856386" lon="7.6491144">
        <ele>2177</ele>
        <time>2014-01-29T12:19:01Z</time>
      </trkpt>
      <trkpt lat="45.8856329" lon="7.6491196">
        <ele>2177</ele>
        <time>2014-01-29T12:19:02Z</time>
      </trkpt>
      <trkpt lat="45.8856345" lon="7.6491083">
        <ele>2177</ele>
        <time>2014-01-29T12:19:07Z</time>
      </trkpt>
      <trkpt lat="45.8856346" lon="7.6491062">
        <ele>2177</ele>
        <time>2014-01-29T12:19:15Z</time>
      </trkpt>
      <trkpt lat="45.8856303" lon="7.6491056">
        <ele>2177</ele>
        <time>2014-01-29T12:19:27Z</time>
      </trkpt>
      <trkpt lat="45.8856342" lon="7.6491066">
        <ele>2177</ele>
        <time>2014-01-29T12:19:37Z</time>
      </trkpt>
      <trkpt lat="45.8856334" lon="7.6491106">
        <ele>2177</ele>
        <time>2014-01-29T12:19:46Z</time>
      </trkpt>
      <trkpt lat="45.8856314" lon="7.6491052">
        <ele>2177</ele>
        <time>2014-01-29T12:20:03Z</time>
      </trkpt>
      <trkpt lat="45.8856284" lon="7.6490994">
        <ele>2177</ele>
        <time>2014-01-29T12:20:14Z</time>
      </trkpt>
      <trkpt lat="45.8856291" lon="7.6491039">
        <ele>2177</ele>
        <time>2014-01-29T12:20:24Z</time>
      </trkpt>
      <trkpt lat="45.8856009" lon="7.649117">
        <ele>2177</ele>
        <time>2014-01-29T12:20:31Z</time>
      </trkpt>
      <trkpt lat="45.8855937" lon="7.6491059">
        <ele>2177</ele>
        <time>2014-01-29T12:20:37Z</time>
      </trkpt>
      <trkpt lat="45.885597" lon="7.6491093">
        <ele>2177</ele>
        <time>2014-01-29T12:20:45Z</time>
      </trkpt>
      <trkpt lat="45.8855933" lon="7.6491113">
        <ele>2177</ele>
        <time>2014-01-29T12:20:52Z</time>
      </trkpt>
      <trkpt lat="45.8855917" lon="7.6491124">
        <ele>2177</ele>
        <time>2014-01-29T12:21:03Z</time>
      </trkpt>
      <trkpt lat="45.8855566" lon="7.6490922">
        <ele>2177</ele>
        <time>2014-01-29T12:21:11Z</time>
      </trkpt>
      <trkpt lat="45.8855043" lon="7.6490278">
        <ele>2175.2</ele>
        <time>2014-01-29T12:21:13Z</time>
      </trkpt>
      <trkpt lat="45.885459" lon="7.6489918">
        <ele>2173.8</ele>
        <time>2014-01-29T12:21:14Z</time>
      </trkpt>
      <trkpt lat="45.8854073" lon="7.6489718">
        <ele>2172.4</ele>
        <time>2014-01-29T12:21:15Z</time>
      </trkpt>
      <trkpt lat="45.885385" lon="7.6489088">
        <ele>2171.2</ele>
        <time>2014-01-29T12:21:16Z</time>
      </trkpt>
      <trkpt lat="45.8853496" lon="7.6488552">
        <ele>2170</ele>
        <time>2014-01-29T12:21:17Z</time>
      </trkpt>
      <trkpt lat="45.8853193" lon="7.6488586">
        <ele>2168.6</ele>
        <time>2014-01-29T12:21:18Z</time>
      </trkpt>
      <trkpt lat="45.8852808" lon="7.6488521">
        <ele>2167.4</ele>
        <time>2014-01-29T12:21:19Z</time>
      </trkpt>
      <trkpt lat="45.8852442" lon="7.6488352">
        <ele>2166.4</ele>
        <time>2014-01-29T12:21:20Z</time>
      </trkpt>
      <trkpt lat="45.8852229" lon="7.6487917">
        <ele>2165</ele>
        <time>2014-01-29T12:21:21Z</time>
      </trkpt>
      <trkpt lat="45.8852084" lon="7.6487459">
        <ele>2163.8</ele>
        <time>2014-01-29T12:21:22Z</time>
      </trkpt>
      <trkpt lat="45.8851571" lon="7.6487231">
        <ele>2162.2</ele>
        <time>2014-01-29T12:21:23Z</time>
      </trkpt>
      <trkpt lat="45.8851151" lon="7.6487594">
        <ele>2161</ele>
        <time>2014-01-29T12:21:24Z</time>
      </trkpt>
      <trkpt lat="45.8850826" lon="7.6488014">
        <ele>2158</ele>
        <time>2014-01-29T12:21:25Z</time>
      </trkpt>
      <trkpt lat="45.885031" lon="7.6488413">
        <ele>2156.6</ele>
        <time>2014-01-29T12:21:26Z</time>
      </trkpt>
      <trkpt lat="45.8849908" lon="7.6488975">
        <ele>2155.4</ele>
        <time>2014-01-29T12:21:27Z</time>
      </trkpt>
      <trkpt lat="45.8849445" lon="7.6489563">
        <ele>2152.8</ele>
        <time>2014-01-29T12:21:28Z</time>
      </trkpt>
      <trkpt lat="45.884892" lon="7.6490243">
        <ele>2151.8</ele>
        <time>2014-01-29T12:21:29Z</time>
      </trkpt>
      <trkpt lat="45.884841" lon="7.6490668">
        <ele>2150</ele>
        <time>2014-01-29T12:21:30Z</time>
      </trkpt>
      <trkpt lat="45.8847915" lon="7.6491315">
        <ele>2148.8</ele>
        <time>2014-01-29T12:21:31Z</time>
      </trkpt>
      <trkpt lat="45.8846719" lon="7.6491472">
        <ele>2146.2</ele>
        <time>2014-01-29T12:21:33Z</time>
      </trkpt>
      <trkpt lat="45.8846343" lon="7.6490857">
        <ele>2144.4</ele>
        <time>2014-01-29T12:21:34Z</time>
      </trkpt>
      <trkpt lat="45.8846204" lon="7.6489817">
        <ele>2141.2</ele>
        <time>2014-01-29T12:21:35Z</time>
      </trkpt>
      <trkpt lat="45.8846084" lon="7.6488781">
        <ele>2141.2</ele>
        <time>2014-01-29T12:21:36Z</time>
      </trkpt>
      <trkpt lat="45.8845598" lon="7.648797">
        <ele>2138.8</ele>
        <time>2014-01-29T12:21:37Z</time>
      </trkpt>
      <trkpt lat="45.8845686" lon="7.6487018">
        <ele>2136.8</ele>
        <time>2014-01-29T12:21:38Z</time>
      </trkpt>
      <trkpt lat="45.8846002" lon="7.6485884">
        <ele>2135.2</ele>
        <time>2014-01-29T12:21:39Z</time>
      </trkpt>
      <trkpt lat="45.8845571" lon="7.648511">
        <ele>2134</ele>
        <time>2014-01-29T12:21:40Z</time>
      </trkpt>
      <trkpt lat="45.8845315" lon="7.6484195">
        <ele>2132.8</ele>
        <time>2014-01-29T12:21:41Z</time>
      </trkpt>
      <trkpt lat="45.8845576" lon="7.6483524">
        <ele>2131.8</ele>
        <time>2014-01-29T12:21:42Z</time>
      </trkpt>
      <trkpt lat="45.8845754" lon="7.6482439">
        <ele>2130.2</ele>
        <time>2014-01-29T12:21:43Z</time>
      </trkpt>
      <trkpt lat="45.8845435" lon="7.6481846">
        <ele>2128.8</ele>
        <time>2014-01-29T12:21:44Z</time>
      </trkpt>
      <trkpt lat="45.8845278" lon="7.6481025">
        <ele>2127.2</ele>
        <time>2014-01-29T12:21:45Z</time>
      </trkpt>
      <trkpt lat="45.884548" lon="7.6480308">
        <ele>2125.8</ele>
        <time>2014-01-29T12:21:46Z</time>
      </trkpt>
      <trkpt lat="45.8845137" lon="7.6479557">
        <ele>2124.8</ele>
        <time>2014-01-29T12:21:47Z</time>
      </trkpt>
      <trkpt lat="45.8844982" lon="7.6478798">
        <ele>2123.6</ele>
        <time>2014-01-29T12:21:48Z</time>
      </trkpt>
      <trkpt lat="45.8845236" lon="7.6477788">
        <ele>2121.8</ele>
        <time>2014-01-29T12:21:49Z</time>
      </trkpt>
      <trkpt lat="45.8845026" lon="7.6476837">
        <ele>2119.8</ele>
        <time>2014-01-29T12:21:50Z</time>
      </trkpt>
      <trkpt lat="45.8844588" lon="7.6476207">
        <ele>2115.8</ele>
        <time>2014-01-29T12:21:51Z</time>
      </trkpt>
      <trkpt lat="45.8844679" lon="7.6475452">
        <ele>2114.6</ele>
        <time>2014-01-29T12:21:52Z</time>
      </trkpt>
      <trkpt lat="45.8844982" lon="7.6474169">
        <ele>2110.6</ele>
        <time>2014-01-29T12:21:53Z</time>
      </trkpt>
      <trkpt lat="45.8844717" lon="7.6473242">
        <ele>2108.4</ele>
        <time>2014-01-29T12:21:54Z</time>
      </trkpt>
      <trkpt lat="45.8844406" lon="7.6472361">
        <ele>2105.4</ele>
        <time>2014-01-29T12:21:55Z</time>
      </trkpt>
      <trkpt lat="45.8844666" lon="7.6471307">
        <ele>2103.8</ele>
        <time>2014-01-29T12:21:56Z</time>
      </trkpt>
      <trkpt lat="45.8844469" lon="7.6470179">
        <ele>2099.8</ele>
        <time>2014-01-29T12:21:57Z</time>
      </trkpt>
      <trkpt lat="45.8844179" lon="7.6469362">
        <ele>2098</ele>
        <time>2014-01-29T12:21:58Z</time>
      </trkpt>
      <trkpt lat="45.8844339" lon="7.6468119">
        <ele>2095.4</ele>
        <time>2014-01-29T12:21:59Z</time>
      </trkpt>
      <trkpt lat="45.8844124" lon="7.6467185">
        <ele>2092.8</ele>
        <time>2014-01-29T12:22:00Z</time>
      </trkpt>
      <trkpt lat="45.884365" lon="7.6466288">
        <ele>2089.6</ele>
        <time>2014-01-29T12:22:01Z</time>
      </trkpt>
      <trkpt lat="45.8843744" lon="7.6465354">
        <ele>2088.4</ele>
        <time>2014-01-29T12:22:02Z</time>
      </trkpt>
      <trkpt lat="45.8843865" lon="7.6463989">
        <ele>2086.4</ele>
        <time>2014-01-29T12:22:03Z</time>
      </trkpt>
      <trkpt lat="45.8843483" lon="7.6463256">
        <ele>2083.2</ele>
        <time>2014-01-29T12:22:04Z</time>
      </trkpt>
      <trkpt lat="45.8843214" lon="7.6462315">
        <ele>2081.8</ele>
        <time>2014-01-29T12:22:05Z</time>
      </trkpt>
      <trkpt lat="45.8843364" lon="7.6461301">
        <ele>2080.6</ele>
        <time>2014-01-29T12:22:06Z</time>
      </trkpt>
      <trkpt lat="45.8843114" lon="7.6460399">
        <ele>2078.8</ele>
        <time>2014-01-29T12:22:07Z</time>
      </trkpt>
      <trkpt lat="45.8842809" lon="7.6459541">
        <ele>2075.6</ele>
        <time>2014-01-29T12:22:08Z</time>
      </trkpt>
      <trkpt lat="45.884275" lon="7.6458501">
        <ele>2073.2</ele>
        <time>2014-01-29T12:22:09Z</time>
      </trkpt>
      <trkpt lat="45.8842269" lon="7.6458007">
        <ele>2070.8</ele>
        <time>2014-01-29T12:22:10Z</time>
      </trkpt>
      <trkpt lat="45.884192" lon="7.6457204">
        <ele>2068.2</ele>
        <time>2014-01-29T12:22:11Z</time>
      </trkpt>
      <trkpt lat="45.8842064" lon="7.6456173">
        <ele>2065.6</ele>
        <time>2014-01-29T12:22:12Z</time>
      </trkpt>
      <trkpt lat="45.884163" lon="7.6455016">
        <ele>2062.2</ele>
        <time>2014-01-29T12:22:13Z</time>
      </trkpt>
      <trkpt lat="45.8841191" lon="7.6454469">
        <ele>2059</ele>
        <time>2014-01-29T12:22:14Z</time>
      </trkpt>
      <trkpt lat="45.8841367" lon="7.6453397">
        <ele>2056.4</ele>
        <time>2014-01-29T12:22:15Z</time>
      </trkpt>
      <trkpt lat="45.8841474" lon="7.6452354">
        <ele>2053.6</ele>
        <time>2014-01-29T12:22:16Z</time>
      </trkpt>
      <trkpt lat="45.884089" lon="7.6451708">
        <ele>2051.6</ele>
        <time>2014-01-29T12:22:17Z</time>
      </trkpt>
      <trkpt lat="45.8840548" lon="7.6451039">
        <ele>2047.8</ele>
        <time>2014-01-29T12:22:18Z</time>
      </trkpt>
      <trkpt lat="45.8840843" lon="7.6450175">
        <ele>2046.6</ele>
        <time>2014-01-29T12:22:19Z</time>
      </trkpt>
      <trkpt lat="45.8840773" lon="7.6449379">
        <ele>2043.8</ele>
        <time>2014-01-29T12:22:20Z</time>
      </trkpt>
      <trkpt lat="45.8840221" lon="7.644873">
        <ele>2041</ele>
        <time>2014-01-29T12:22:21Z</time>
      </trkpt>
      <trkpt lat="45.8839738" lon="7.6448444">
        <ele>2039.2</ele>
        <time>2014-01-29T12:22:22Z</time>
      </trkpt>
      <trkpt lat="45.8838771" lon="7.6447994">
        <ele>2038</ele>
        <time>2014-01-29T12:22:24Z</time>
      </trkpt>
      <trkpt lat="45.8838553" lon="7.6447171">
        <ele>2036.8</ele>
        <time>2014-01-29T12:22:26Z</time>
      </trkpt>
      <trkpt lat="45.8838662" lon="7.6447067">
        <ele>2036.8</ele>
        <time>2014-01-29T12:22:27Z</time>
      </trkpt>
      <trkpt lat="45.8838681" lon="7.6447077">
        <ele>2035.8</ele>
        <time>2014-01-29T12:22:29Z</time>
      </trkpt>
      <trkpt lat="45.8838753" lon="7.6447099">
        <ele>2035.8</ele>
        <time>2014-01-29T12:22:32Z</time>
      </trkpt>
      <trkpt lat="45.8838766" lon="7.6447166">
        <ele>2034.8</ele>
        <time>2014-01-29T12:22:40Z</time>
      </trkpt>
      <trkpt lat="45.8838801" lon="7.6447239">
        <ele>2034.8</ele>
        <time>2014-01-29T12:22:49Z</time>
      </trkpt>
      <trkpt lat="45.8838805" lon="7.6447249">
        <ele>2033.6</ele>
        <time>2014-01-29T12:22:50Z</time>
      </trkpt>
      <trkpt lat="45.8838828" lon="7.6447305">
        <ele>2033.6</ele>
        <time>2014-01-29T12:22:59Z</time>
      </trkpt>
      <trkpt lat="45.883901" lon="7.6447204">
        <ele>2032.6</ele>
        <time>2014-01-29T12:23:02Z</time>
      </trkpt>
      <trkpt lat="45.8839467" lon="7.644683">
        <ele>2032.6</ele>
        <time>2014-01-29T12:23:04Z</time>
      </trkpt>
      <trkpt lat="45.8840131" lon="7.6445715">
        <ele>2029.8</ele>
        <time>2014-01-29T12:23:06Z</time>
      </trkpt>
      <trkpt lat="45.8840185" lon="7.6445018">
        <ele>2028</ele>
        <time>2014-01-29T12:23:07Z</time>
      </trkpt>
      <trkpt lat="45.8840576" lon="7.6444197">
        <ele>2023.4</ele>
        <time>2014-01-29T12:23:08Z</time>
      </trkpt>
      <trkpt lat="45.8840539" lon="7.6443103">
        <ele>2021.2</ele>
        <time>2014-01-29T12:23:09Z</time>
      </trkpt>
      <trkpt lat="45.8840322" lon="7.6442768">
        <ele>2018.4</ele>
        <time>2014-01-29T12:23:10Z</time>
      </trkpt>
      <trkpt lat="45.8840157" lon="7.6442236">
        <ele>2017</ele>
        <time>2014-01-29T12:23:11Z</time>
      </trkpt>
      <trkpt lat="45.8840101" lon="7.6441485">
        <ele>2013.2</ele>
        <time>2014-01-29T12:23:12Z</time>
      </trkpt>
      <trkpt lat="45.8839644" lon="7.6440844">
        <ele>2010.6</ele>
        <time>2014-01-29T12:23:13Z</time>
      </trkpt>
      <trkpt lat="45.8839357" lon="7.6440505">
        <ele>2009.4</ele>
        <time>2014-01-29T12:23:14Z</time>
      </trkpt>
      <trkpt lat="45.8839023" lon="7.6439406">
        <ele>2004.2</ele>
        <time>2014-01-29T12:23:15Z</time>
      </trkpt>
      <trkpt lat="45.8838438" lon="7.643909">
        <ele>2001.6</ele>
        <time>2014-01-29T12:23:16Z</time>
      </trkpt>
      <trkpt lat="45.8837841" lon="7.6438437">
        <ele>1998</ele>
        <time>2014-01-29T12:23:17Z</time>
      </trkpt>
      <trkpt lat="45.8837149" lon="7.6438094">
        <ele>1993.8</ele>
        <time>2014-01-29T12:23:18Z</time>
      </trkpt>
      <trkpt lat="45.8836522" lon="7.6437835">
        <ele>1992.4</ele>
        <time>2014-01-29T12:23:19Z</time>
      </trkpt>
      <trkpt lat="45.8836105" lon="7.6437023">
        <ele>1989.4</ele>
        <time>2014-01-29T12:23:20Z</time>
      </trkpt>
      <trkpt lat="45.8835319" lon="7.6436756">
        <ele>1987.8</ele>
        <time>2014-01-29T12:23:21Z</time>
      </trkpt>
      <trkpt lat="45.8835022" lon="7.643634">
        <ele>1986.2</ele>
        <time>2014-01-29T12:23:22Z</time>
      </trkpt>
      <trkpt lat="45.8835138" lon="7.6435361">
        <ele>1984.8</ele>
        <time>2014-01-29T12:23:23Z</time>
      </trkpt>
      <trkpt lat="45.8835415" lon="7.643451">
        <ele>1982.6</ele>
        <time>2014-01-29T12:23:24Z</time>
      </trkpt>
      <trkpt lat="45.8835129" lon="7.6433651">
        <ele>1980.4</ele>
        <time>2014-01-29T12:23:25Z</time>
      </trkpt>
      <trkpt lat="45.8835342" lon="7.6432708">
        <ele>1976.6</ele>
        <time>2014-01-29T12:23:26Z</time>
      </trkpt>
      <trkpt lat="45.8835705" lon="7.6431624">
        <ele>1973.6</ele>
        <time>2014-01-29T12:23:27Z</time>
      </trkpt>
      <trkpt lat="45.8835413" lon="7.643075">
        <ele>1970.2</ele>
        <time>2014-01-29T12:23:28Z</time>
      </trkpt>
      <trkpt lat="45.8835649" lon="7.6429639">
        <ele>1966.4</ele>
        <time>2014-01-29T12:23:29Z</time>
      </trkpt>
      <trkpt lat="45.8836159" lon="7.6429151">
        <ele>1965</ele>
        <time>2014-01-29T12:23:30Z</time>
      </trkpt>
      <trkpt lat="45.8836149" lon="7.6427905">
        <ele>1962</ele>
        <time>2014-01-29T12:23:31Z</time>
      </trkpt>
      <trkpt lat="45.8835797" lon="7.6426983">
        <ele>1958.8</ele>
        <time>2014-01-29T12:23:32Z</time>
      </trkpt>
      <trkpt lat="45.8836099" lon="7.6425826">
        <ele>1954.8</ele>
        <time>2014-01-29T12:23:33Z</time>
      </trkpt>
      <trkpt lat="45.8836678" lon="7.6425146">
        <ele>1953.6</ele>
        <time>2014-01-29T12:23:34Z</time>
      </trkpt>
      <trkpt lat="45.88366" lon="7.6423881">
        <ele>1949.4</ele>
        <time>2014-01-29T12:23:35Z</time>
      </trkpt>
      <trkpt lat="45.8836701" lon="7.642302">
        <ele>1945</ele>
        <time>2014-01-29T12:23:36Z</time>
      </trkpt>
      <trkpt lat="45.8837388" lon="7.6422235">
        <ele>1943.2</ele>
        <time>2014-01-29T12:23:37Z</time>
      </trkpt>
      <trkpt lat="45.8837568" lon="7.6421087">
        <ele>1938.8</ele>
        <time>2014-01-29T12:23:38Z</time>
      </trkpt>
      <trkpt lat="45.8837786" lon="7.6420017">
        <ele>1936</ele>
        <time>2014-01-29T12:23:39Z</time>
      </trkpt>
      <trkpt lat="45.8838475" lon="7.6419424">
        <ele>1934.8</ele>
        <time>2014-01-29T12:23:40Z</time>
      </trkpt>
      <trkpt lat="45.8839019" lon="7.6418296">
        <ele>1931.4</ele>
        <time>2014-01-29T12:23:41Z</time>
      </trkpt>
      <trkpt lat="45.8838908" lon="7.6417488">
        <ele>1930.2</ele>
        <time>2014-01-29T12:23:42Z</time>
      </trkpt>
      <trkpt lat="45.8839392" lon="7.6416302">
        <ele>1928.6</ele>
        <time>2014-01-29T12:23:43Z</time>
      </trkpt>
      <trkpt lat="45.8839422" lon="7.6415442">
        <ele>1926.8</ele>
        <time>2014-01-29T12:23:44Z</time>
      </trkpt>
      <trkpt lat="45.8839682" lon="7.6414562">
        <ele>1923.6</ele>
        <time>2014-01-29T12:23:45Z</time>
      </trkpt>
      <trkpt lat="45.8839913" lon="7.6413759">
        <ele>1922.6</ele>
        <time>2014-01-29T12:23:46Z</time>
      </trkpt>
      <trkpt lat="45.8839661" lon="7.6412798">
        <ele>1918.6</ele>
        <time>2014-01-29T12:23:47Z</time>
      </trkpt>
      <trkpt lat="45.883987" lon="7.64119">
        <ele>1917</ele>
        <time>2014-01-29T12:23:48Z</time>
      </trkpt>
      <trkpt lat="45.8840345" lon="7.6410636">
        <ele>1912.2</ele>
        <time>2014-01-29T12:23:49Z</time>
      </trkpt>
      <trkpt lat="45.8840236" lon="7.6409487">
        <ele>1909.6</ele>
        <time>2014-01-29T12:23:50Z</time>
      </trkpt>
      <trkpt lat="45.884076" lon="7.6408031">
        <ele>1906.2</ele>
        <time>2014-01-29T12:23:51Z</time>
      </trkpt>
      <trkpt lat="45.8841428" lon="7.6407392">
        <ele>1905</ele>
        <time>2014-01-29T12:23:52Z</time>
      </trkpt>
      <trkpt lat="45.8841837" lon="7.6405879">
        <ele>1902.4</ele>
        <time>2014-01-29T12:23:53Z</time>
      </trkpt>
      <trkpt lat="45.8841918" lon="7.6404888">
        <ele>1901.4</ele>
        <time>2014-01-29T12:23:54Z</time>
      </trkpt>
      <trkpt lat="45.8842367" lon="7.640355">
        <ele>1899.4</ele>
        <time>2014-01-29T12:23:55Z</time>
      </trkpt>
      <trkpt lat="45.884214" lon="7.6402489">
        <ele>1897.6</ele>
        <time>2014-01-29T12:23:56Z</time>
      </trkpt>
      <trkpt lat="45.884211" lon="7.6401432">
        <ele>1894.6</ele>
        <time>2014-01-29T12:23:57Z</time>
      </trkpt>
      <trkpt lat="45.8842392" lon="7.6400451">
        <ele>1894.6</ele>
        <time>2014-01-29T12:23:58Z</time>
      </trkpt>
      <trkpt lat="45.8842312" lon="7.6399443">
        <ele>1893.2</ele>
        <time>2014-01-29T12:23:59Z</time>
      </trkpt>
      <trkpt lat="45.88426" lon="7.6398995">
        <ele>1892</ele>
        <time>2014-01-29T12:24:00Z</time>
      </trkpt>
      <trkpt lat="45.8843104" lon="7.6398721">
        <ele>1890.8</ele>
        <time>2014-01-29T12:24:01Z</time>
      </trkpt>
      <trkpt lat="45.8843557" lon="7.6398286">
        <ele>1887.4</ele>
        <time>2014-01-29T12:24:02Z</time>
      </trkpt>
      <trkpt lat="45.8843623" lon="7.6397297">
        <ele>1885</ele>
        <time>2014-01-29T12:24:03Z</time>
      </trkpt>
      <trkpt lat="45.8844155" lon="7.6396953">
        <ele>1883.8</ele>
        <time>2014-01-29T12:24:04Z</time>
      </trkpt>
      <trkpt lat="45.8844886" lon="7.6396363">
        <ele>1879.8</ele>
        <time>2014-01-29T12:24:05Z</time>
      </trkpt>
      <trkpt lat="45.8844975" lon="7.6395572">
        <ele>1878.8</ele>
        <time>2014-01-29T12:24:06Z</time>
      </trkpt>
      <trkpt lat="45.8845484" lon="7.6395004">
        <ele>1874.8</ele>
        <time>2014-01-29T12:24:07Z</time>
      </trkpt>
      <trkpt lat="45.8846238" lon="7.6394873">
        <ele>1873.6</ele>
        <time>2014-01-29T12:24:08Z</time>
      </trkpt>
      <trkpt lat="45.8846674" lon="7.6393958">
        <ele>1870</ele>
        <time>2014-01-29T12:24:09Z</time>
      </trkpt>
      <trkpt lat="45.8847211" lon="7.6393439">
        <ele>1868.6</ele>
        <time>2014-01-29T12:24:10Z</time>
      </trkpt>
      <trkpt lat="45.8847914" lon="7.6392404">
        <ele>1864.4</ele>
        <time>2014-01-29T12:24:11Z</time>
      </trkpt>
      <trkpt lat="45.8848124" lon="7.6391506">
        <ele>1862.6</ele>
        <time>2014-01-29T12:24:12Z</time>
      </trkpt>
      <trkpt lat="45.8848783" lon="7.6389878">
        <ele>1856.2</ele>
        <time>2014-01-29T12:24:13Z</time>
      </trkpt>
      <trkpt lat="45.8849137" lon="7.6389416">
        <ele>1853.4</ele>
        <time>2014-01-29T12:24:14Z</time>
      </trkpt>
      <trkpt lat="45.8850669" lon="7.6387895">
        <ele>1848.2</ele>
        <time>2014-01-29T12:24:15Z</time>
      </trkpt>
      <trkpt lat="45.8851105" lon="7.6386585">
        <ele>1846.8</ele>
        <time>2014-01-29T12:24:16Z</time>
      </trkpt>
      <trkpt lat="45.8851354" lon="7.6385465">
        <ele>1845</ele>
        <time>2014-01-29T12:24:17Z</time>
      </trkpt>
      <trkpt lat="45.8851818" lon="7.6385175">
        <ele>1844</ele>
        <time>2014-01-29T12:24:18Z</time>
      </trkpt>
      <trkpt lat="45.8852144" lon="7.6385232">
        <ele>1843</ele>
        <time>2014-01-29T12:24:19Z</time>
      </trkpt>
      <trkpt lat="45.8852146" lon="7.6385403">
        <ele>1842</ele>
        <time>2014-01-29T12:24:22Z</time>
      </trkpt>
      <trkpt lat="45.8852176" lon="7.6385543">
        <ele>1841</ele>
        <time>2014-01-29T12:24:26Z</time>
      </trkpt>
      <trkpt lat="45.8852197" lon="7.6385678">
        <ele>1839.8</ele>
        <time>2014-01-29T12:24:32Z</time>
      </trkpt>
      <trkpt lat="45.8852204" lon="7.6385774">
        <ele>1838.6</ele>
        <time>2014-01-29T12:24:42Z</time>
      </trkpt>
      <trkpt lat="45.8852203" lon="7.6385772">
        <ele>1838.6</ele>
        <time>2014-01-29T12:24:43Z</time>
      </trkpt>
      <trkpt lat="45.8852222" lon="7.6385863">
        <ele>1838.6</ele>
        <time>2014-01-29T12:24:53Z</time>
      </trkpt>
      <trkpt lat="45.8852222" lon="7.6385869">
        <ele>1837.6</ele>
        <time>2014-01-29T12:24:54Z</time>
      </trkpt>
      <trkpt lat="45.8852207" lon="7.6385972">
        <ele>1837.6</ele>
        <time>2014-01-29T12:25:05Z</time>
      </trkpt>
      <trkpt lat="45.8852172" lon="7.6385999">
        <ele>1837.6</ele>
        <time>2014-01-29T12:25:14Z</time>
      </trkpt>
      <trkpt lat="45.885218" lon="7.6386061">
        <ele>1837.6</ele>
        <time>2014-01-29T12:25:26Z</time>
      </trkpt>
      <trkpt lat="45.8852135" lon="7.6386082">
        <ele>1837.6</ele>
        <time>2014-01-29T12:25:38Z</time>
      </trkpt>
      <trkpt lat="45.8852135" lon="7.6386097">
        <ele>1837.6</ele>
        <time>2014-01-29T12:25:49Z</time>
      </trkpt>
      <trkpt lat="45.8852135" lon="7.63861">
        <ele>1837.6</ele>
        <time>2014-01-29T12:25:57Z</time>
      </trkpt>
      <trkpt lat="45.8852157" lon="7.638615">
        <ele>1837.6</ele>
        <time>2014-01-29T12:26:11Z</time>
      </trkpt>
      <trkpt lat="45.8852166" lon="7.6386174">
        <ele>1837.6</ele>
        <time>2014-01-29T12:26:20Z</time>
      </trkpt>
      <trkpt lat="45.8852121" lon="7.6386144">
        <ele>1837.6</ele>
        <time>2014-01-29T12:26:27Z</time>
      </trkpt>
      <trkpt lat="45.8852052" lon="7.638609">
        <ele>1837.6</ele>
        <time>2014-01-29T12:26:35Z</time>
      </trkpt>
      <trkpt lat="45.8852064" lon="7.6386159">
        <ele>1837.6</ele>
        <time>2014-01-29T12:26:47Z</time>
      </trkpt>
      <trkpt lat="45.8852094" lon="7.6386169">
        <ele>1837.6</ele>
        <time>2014-01-29T12:26:58Z</time>
      </trkpt>
      <trkpt lat="45.8852126" lon="7.6385851">
        <ele>1837.6</ele>
        <time>2014-01-29T12:27:02Z</time>
      </trkpt>
      <trkpt lat="45.8852087" lon="7.6385167">
        <ele>1837.6</ele>
        <time>2014-01-29T12:27:04Z</time>
      </trkpt>
      <trkpt lat="45.8851845" lon="7.6382811">
        <ele>1835.4</ele>
        <time>2014-01-29T12:27:08Z</time>
      </trkpt>
      <trkpt lat="45.8851766" lon="7.6381842">
        <ele>1834.2</ele>
        <time>2014-01-29T12:27:09Z</time>
      </trkpt>
      <trkpt lat="45.8851676" lon="7.638102">
        <ele>1833.2</ele>
        <time>2014-01-29T12:27:10Z</time>
      </trkpt>
      <trkpt lat="45.8851558" lon="7.6379792">
        <ele>1832.2</ele>
        <time>2014-01-29T12:27:11Z</time>
      </trkpt>
      <trkpt lat="45.8851489" lon="7.6378828">
        <ele>1828.4</ele>
        <time>2014-01-29T12:27:12Z</time>
      </trkpt>
      <trkpt lat="45.8851227" lon="7.6377028">
        <ele>1823.4</ele>
        <time>2014-01-29T12:27:13Z</time>
      </trkpt>
      <trkpt lat="45.8850757" lon="7.6375887">
        <ele>1819.2</ele>
        <time>2014-01-29T12:27:14Z</time>
      </trkpt>
      <trkpt lat="45.885059" lon="7.6373945">
        <ele>1815.6</ele>
        <time>2014-01-29T12:27:15Z</time>
      </trkpt>
      <trkpt lat="45.8850853" lon="7.6371736">
        <ele>1811</ele>
        <time>2014-01-29T12:27:16Z</time>
      </trkpt>
      <trkpt lat="45.8850465" lon="7.6369883">
        <ele>1804.6</ele>
        <time>2014-01-29T12:27:17Z</time>
      </trkpt>
      <trkpt lat="45.8849872" lon="7.6368231">
        <ele>1802.2</ele>
        <time>2014-01-29T12:27:18Z</time>
      </trkpt>
      <trkpt lat="45.8849834" lon="7.636632">
        <ele>1801</ele>
        <time>2014-01-29T12:27:19Z</time>
      </trkpt>
      <trkpt lat="45.8849862" lon="7.6364673">
        <ele>1798.8</ele>
        <time>2014-01-29T12:27:20Z</time>
      </trkpt>
      <trkpt lat="45.8849864" lon="7.6363305">
        <ele>1798.8</ele>
        <time>2014-01-29T12:27:21Z</time>
      </trkpt>
      <trkpt lat="45.8850121" lon="7.636196">
        <ele>1795.6</ele>
        <time>2014-01-29T12:27:22Z</time>
      </trkpt>
      <trkpt lat="45.8849912" lon="7.6360694">
        <ele>1792.2</ele>
        <time>2014-01-29T12:27:23Z</time>
      </trkpt>
      <trkpt lat="45.8850171" lon="7.6359513">
        <ele>1791</ele>
        <time>2014-01-29T12:27:24Z</time>
      </trkpt>
      <trkpt lat="45.8849907" lon="7.6358504">
        <ele>1789.8</ele>
        <time>2014-01-29T12:27:25Z</time>
      </trkpt>
      <trkpt lat="45.8849911" lon="7.6357894">
        <ele>1789.8</ele>
        <time>2014-01-29T12:27:26Z</time>
      </trkpt>
      <trkpt lat="45.8849833" lon="7.6357363">
        <ele>1789.8</ele>
        <time>2014-01-29T12:27:29Z</time>
      </trkpt>
      <trkpt lat="45.88498" lon="7.6357415">
        <ele>1789.8</ele>
        <time>2014-01-29T12:27:36Z</time>
      </trkpt>
      <trkpt lat="45.8849789" lon="7.6356861">
        <ele>1788.8</ele>
        <time>2014-01-29T12:27:45Z</time>
      </trkpt>
      <trkpt lat="45.8849773" lon="7.6356356">
        <ele>1787.6</ele>
        <time>2014-01-29T12:27:46Z</time>
      </trkpt>
      <trkpt lat="45.8849689" lon="7.6355502">
        <ele>1784.2</ele>
        <time>2014-01-29T12:27:47Z</time>
      </trkpt>
      <trkpt lat="45.8849208" lon="7.6354022">
        <ele>1780.4</ele>
        <time>2014-01-29T12:27:48Z</time>
      </trkpt>
      <trkpt lat="45.8848576" lon="7.6352489">
        <ele>1773.4</ele>
        <time>2014-01-29T12:27:49Z</time>
      </trkpt>
      <trkpt lat="45.8848254" lon="7.6350862">
        <ele>1771.4</ele>
        <time>2014-01-29T12:27:50Z</time>
      </trkpt>
      <trkpt lat="45.8847955" lon="7.634914">
        <ele>1765.4</ele>
        <time>2014-01-29T12:27:51Z</time>
      </trkpt>
      <trkpt lat="45.8847111" lon="7.6347176">
        <ele>1761.2</ele>
        <time>2014-01-29T12:27:52Z</time>
      </trkpt>
      <trkpt lat="45.8847039" lon="7.6345537">
        <ele>1758.4</ele>
        <time>2014-01-29T12:27:53Z</time>
      </trkpt>
      <trkpt lat="45.8846598" lon="7.6343144">
        <ele>1756.2</ele>
        <time>2014-01-29T12:27:54Z</time>
      </trkpt>
      <trkpt lat="45.8846245" lon="7.6341231">
        <ele>1755</ele>
        <time>2014-01-29T12:27:55Z</time>
      </trkpt>
      <trkpt lat="45.8846096" lon="7.6339409">
        <ele>1753.8</ele>
        <time>2014-01-29T12:27:56Z</time>
      </trkpt>
      <trkpt lat="45.8845951" lon="7.6337809">
        <ele>1752.6</ele>
        <time>2014-01-29T12:27:57Z</time>
      </trkpt>
      <trkpt lat="45.8845447" lon="7.6335633">
        <ele>1752.6</ele>
        <time>2014-01-29T12:27:59Z</time>
      </trkpt>
      <trkpt lat="45.8844319" lon="7.6332958">
        <ele>1752.6</ele>
        <time>2014-01-29T12:28:02Z</time>
      </trkpt>
      <trkpt lat="45.8844168" lon="7.6332217">
        <ele>1755.8</ele>
        <time>2014-01-29T12:28:03Z</time>
      </trkpt>
      <trkpt lat="45.8843925" lon="7.6330917">
        <ele>1755.8</ele>
        <time>2014-01-29T12:28:05Z</time>
      </trkpt>
      <trkpt lat="45.8843225" lon="7.6327354">
        <ele>1751.4</ele>
        <time>2014-01-29T12:28:09Z</time>
      </trkpt>
      <trkpt lat="45.8842847" lon="7.6325479">
        <ele>1750.4</ele>
        <time>2014-01-29T12:28:11Z</time>
      </trkpt>
      <trkpt lat="45.8842577" lon="7.6324128">
        <ele>1749.4</ele>
        <time>2014-01-29T12:28:12Z</time>
      </trkpt>
      <trkpt lat="45.8842288" lon="7.6323123">
        <ele>1747</ele>
        <time>2014-01-29T12:28:13Z</time>
      </trkpt>
      <trkpt lat="45.8841969" lon="7.632164">
        <ele>1743.2</ele>
        <time>2014-01-29T12:28:14Z</time>
      </trkpt>
      <trkpt lat="45.8841505" lon="7.6320165">
        <ele>1741.2</ele>
        <time>2014-01-29T12:28:15Z</time>
      </trkpt>
      <trkpt lat="45.8841166" lon="7.6318767">
        <ele>1740</ele>
        <time>2014-01-29T12:28:16Z</time>
      </trkpt>
      <trkpt lat="45.8840847" lon="7.6318061">
        <ele>1738.8</ele>
        <time>2014-01-29T12:28:17Z</time>
      </trkpt>
      <trkpt lat="45.8840997" lon="7.6316651">
        <ele>1737.6</ele>
        <time>2014-01-29T12:28:18Z</time>
      </trkpt>
      <trkpt lat="45.884125" lon="7.6315425">
        <ele>1736.4</ele>
        <time>2014-01-29T12:28:20Z</time>
      </trkpt>
      <trkpt lat="45.8841252" lon="7.6315672">
        <ele>1736.4</ele>
        <time>2014-01-29T12:28:22Z</time>
      </trkpt>
      <trkpt lat="45.8841365" lon="7.6315664">
        <ele>1736.4</ele>
        <time>2014-01-29T12:28:28Z</time>
      </trkpt>
      <trkpt lat="45.8841423" lon="7.6315855">
        <ele>1736.4</ele>
        <time>2014-01-29T12:28:36Z</time>
      </trkpt>
      <trkpt lat="45.8841453" lon="7.6315894">
        <ele>1736.4</ele>
        <time>2014-01-29T12:28:43Z</time>
      </trkpt>
      <trkpt lat="45.8841501" lon="7.6315996">
        <ele>1736.4</ele>
        <time>2014-01-29T12:28:52Z</time>
      </trkpt>
      <trkpt lat="45.8841794" lon="7.631609">
        <ele>1736.4</ele>
        <time>2014-01-29T12:29:07Z</time>
      </trkpt>
      <trkpt lat="45.8842399" lon="7.631588">
        <ele>1735.4</ele>
        <time>2014-01-29T12:29:09Z</time>
      </trkpt>
      <trkpt lat="45.8842809" lon="7.6315594">
        <ele>1734</ele>
        <time>2014-01-29T12:29:10Z</time>
      </trkpt>
      <trkpt lat="45.8843168" lon="7.6314992">
        <ele>1729.8</ele>
        <time>2014-01-29T12:29:11Z</time>
      </trkpt>
      <trkpt lat="45.8844013" lon="7.6314387">
        <ele>1726.2</ele>
        <time>2014-01-29T12:29:12Z</time>
      </trkpt>
      <trkpt lat="45.8844637" lon="7.6313576">
        <ele>1724.6</ele>
        <time>2014-01-29T12:29:13Z</time>
      </trkpt>
      <trkpt lat="45.8845681" lon="7.6312626">
        <ele>1719.2</ele>
        <time>2014-01-29T12:29:14Z</time>
      </trkpt>
      <trkpt lat="45.884682" lon="7.6311348">
        <ele>1714.6</ele>
        <time>2014-01-29T12:29:15Z</time>
      </trkpt>
      <trkpt lat="45.8847767" lon="7.6310089">
        <ele>1712.6</ele>
        <time>2014-01-29T12:29:16Z</time>
      </trkpt>
      <trkpt lat="45.8847944" lon="7.6308644">
        <ele>1711</ele>
        <time>2014-01-29T12:29:17Z</time>
      </trkpt>
      <trkpt lat="45.8847855" lon="7.6306613">
        <ele>1710</ele>
        <time>2014-01-29T12:29:18Z</time>
      </trkpt>
      <trkpt lat="45.8847179" lon="7.6305163">
        <ele>1708.6</ele>
        <time>2014-01-29T12:29:19Z</time>
      </trkpt>
      <trkpt lat="45.884675" lon="7.6303814">
        <ele>1707.6</ele>
        <time>2014-01-29T12:29:20Z</time>
      </trkpt>
      <trkpt lat="45.8846468" lon="7.6302706">
        <ele>1706.6</ele>
        <time>2014-01-29T12:29:21Z</time>
      </trkpt>
      <trkpt lat="45.8846232" lon="7.6301348">
        <ele>1705.4</ele>
        <time>2014-01-29T12:29:22Z</time>
      </trkpt>
      <trkpt lat="45.8845501" lon="7.6299366">
        <ele>1705.4</ele>
        <time>2014-01-29T12:29:24Z</time>
      </trkpt>
      <trkpt lat="45.8845143" lon="7.6298506">
        <ele>1704</ele>
        <time>2014-01-29T12:29:25Z</time>
      </trkpt>
      <trkpt lat="45.8844766" lon="7.6296484">
        <ele>1701.2</ele>
        <time>2014-01-29T12:29:27Z</time>
      </trkpt>
      <trkpt lat="45.8844519" lon="7.6295478">
        <ele>1701.2</ele>
        <time>2014-01-29T12:29:28Z</time>
      </trkpt>
      <trkpt lat="45.8844461" lon="7.6295036">
        <ele>1698.8</ele>
        <time>2014-01-29T12:29:29Z</time>
      </trkpt>
      <trkpt lat="45.884433" lon="7.6293737">
        <ele>1697.2</ele>
        <time>2014-01-29T12:29:30Z</time>
      </trkpt>
      <trkpt lat="45.8843813" lon="7.629323">
        <ele>1695.4</ele>
        <time>2014-01-29T12:29:31Z</time>
      </trkpt>
      <trkpt lat="45.8843275" lon="7.6292652">
        <ele>1693.8</ele>
        <time>2014-01-29T12:29:32Z</time>
      </trkpt>
      <trkpt lat="45.8843085" lon="7.6291684">
        <ele>1689.4</ele>
        <time>2014-01-29T12:29:33Z</time>
      </trkpt>
      <trkpt lat="45.8842898" lon="7.6290654">
        <ele>1689.4</ele>
        <time>2014-01-29T12:29:34Z</time>
      </trkpt>
      <trkpt lat="45.884277" lon="7.6290038">
        <ele>1684.6</ele>
        <time>2014-01-29T12:29:35Z</time>
      </trkpt>
      <trkpt lat="45.8843051" lon="7.6288582">
        <ele>1679.2</ele>
        <time>2014-01-29T12:29:36Z</time>
      </trkpt>
      <trkpt lat="45.8842648" lon="7.6287349">
        <ele>1673.6</ele>
        <time>2014-01-29T12:29:37Z</time>
      </trkpt>
      <trkpt lat="45.8842584" lon="7.6286073">
        <ele>1671</ele>
        <time>2014-01-29T12:29:38Z</time>
      </trkpt>
      <trkpt lat="45.8842295" lon="7.6284592">
        <ele>1664.2</ele>
        <time>2014-01-29T12:29:39Z</time>
      </trkpt>
      <trkpt lat="45.8842099" lon="7.6283065">
        <ele>1661.2</ele>
        <time>2014-01-29T12:29:40Z</time>
      </trkpt>
      <trkpt lat="45.8841874" lon="7.6281589">
        <ele>1658</ele>
        <time>2014-01-29T12:29:41Z</time>
      </trkpt>
      <trkpt lat="45.8841969" lon="7.6280096">
        <ele>1654</ele>
        <time>2014-01-29T12:29:42Z</time>
      </trkpt>
      <trkpt lat="45.8842402" lon="7.6278749">
        <ele>1651</ele>
        <time>2014-01-29T12:29:43Z</time>
      </trkpt>
      <trkpt lat="45.8842456" lon="7.6277046">
        <ele>1648.2</ele>
        <time>2014-01-29T12:29:44Z</time>
      </trkpt>
      <trkpt lat="45.8842623" lon="7.6275862">
        <ele>1646.2</ele>
        <time>2014-01-29T12:29:45Z</time>
      </trkpt>
      <trkpt lat="45.8843021" lon="7.6274816">
        <ele>1646.2</ele>
        <time>2014-01-29T12:29:46Z</time>
      </trkpt>
      <trkpt lat="45.8842968" lon="7.6273534">
        <ele>1643</ele>
        <time>2014-01-29T12:29:47Z</time>
      </trkpt>
      <trkpt lat="45.8842831" lon="7.6272295">
        <ele>1643</ele>
        <time>2014-01-29T12:29:48Z</time>
      </trkpt>
      <trkpt lat="45.884232" lon="7.6271161">
        <ele>1639.8</ele>
        <time>2014-01-29T12:29:49Z</time>
      </trkpt>
      <trkpt lat="45.8841893" lon="7.6270176">
        <ele>1639.8</ele>
        <time>2014-01-29T12:29:50Z</time>
      </trkpt>
      <trkpt lat="45.884177" lon="7.6268913">
        <ele>1636.2</ele>
        <time>2014-01-29T12:29:51Z</time>
      </trkpt>
      <trkpt lat="45.8841242" lon="7.6267044">
        <ele>1634.4</ele>
        <time>2014-01-29T12:29:53Z</time>
      </trkpt>
      <trkpt lat="45.8841205" lon="7.6265502">
        <ele>1632.6</ele>
        <time>2014-01-29T12:29:54Z</time>
      </trkpt>
      <trkpt lat="45.8841203" lon="7.6264372">
        <ele>1630.2</ele>
        <time>2014-01-29T12:29:55Z</time>
      </trkpt>
      <trkpt lat="45.8841537" lon="7.6262712">
        <ele>1629</ele>
        <time>2014-01-29T12:29:57Z</time>
      </trkpt>
      <trkpt lat="45.8841692" lon="7.6262045">
        <ele>1628</ele>
        <time>2014-01-29T12:29:58Z</time>
      </trkpt>
      <trkpt lat="45.8842107" lon="7.6261704">
        <ele>1628</ele>
        <time>2014-01-29T12:29:59Z</time>
      </trkpt>
      <trkpt lat="45.8842462" lon="7.6260827">
        <ele>1626.6</ele>
        <time>2014-01-29T12:30:00Z</time>
      </trkpt>
      <trkpt lat="45.8843079" lon="7.626019">
        <ele>1624.6</ele>
        <time>2014-01-29T12:30:01Z</time>
      </trkpt>
      <trkpt lat="45.8843635" lon="7.6259528">
        <ele>1624.6</ele>
        <time>2014-01-29T12:30:02Z</time>
      </trkpt>
      <trkpt lat="45.8843977" lon="7.6258386">
        <ele>1622</ele>
        <time>2014-01-29T12:30:03Z</time>
      </trkpt>
      <trkpt lat="45.8844308" lon="7.6257373">
        <ele>1622</ele>
        <time>2014-01-29T12:30:04Z</time>
      </trkpt>
      <trkpt lat="45.8844945" lon="7.6257169">
        <ele>1621</ele>
        <time>2014-01-29T12:30:05Z</time>
      </trkpt>
      <trkpt lat="45.8845509" lon="7.6256906">
        <ele>1620</ele>
        <time>2014-01-29T12:30:06Z</time>
      </trkpt>
      <trkpt lat="45.8845867" lon="7.6256229">
        <ele>1617.2</ele>
        <time>2014-01-29T12:30:07Z</time>
      </trkpt>
      <trkpt lat="45.8846217" lon="7.6255636">
        <ele>1617.2</ele>
        <time>2014-01-29T12:30:08Z</time>
      </trkpt>
      <trkpt lat="45.8846996" lon="7.6255473">
        <ele>1614.2</ele>
        <time>2014-01-29T12:30:09Z</time>
      </trkpt>
      <trkpt lat="45.8847624" lon="7.6255091">
        <ele>1614.2</ele>
        <time>2014-01-29T12:30:10Z</time>
      </trkpt>
      <trkpt lat="45.8847666" lon="7.6254247">
        <ele>1612.8</ele>
        <time>2014-01-29T12:30:11Z</time>
      </trkpt>
      <trkpt lat="45.8848263" lon="7.6253741">
        <ele>1611.4</ele>
        <time>2014-01-29T12:30:12Z</time>
      </trkpt>
      <trkpt lat="45.8848789" lon="7.6253801">
        <ele>1609.8</ele>
        <time>2014-01-29T12:30:13Z</time>
      </trkpt>
      <trkpt lat="45.8849484" lon="7.6253937">
        <ele>1608.4</ele>
        <time>2014-01-29T12:30:14Z</time>
      </trkpt>
      <trkpt lat="45.8850139" lon="7.6254166">
        <ele>1605</ele>
        <time>2014-01-29T12:30:15Z</time>
      </trkpt>
      <trkpt lat="45.8850731" lon="7.6254123">
        <ele>1605</ele>
        <time>2014-01-29T12:30:16Z</time>
      </trkpt>
      <trkpt lat="45.8851317" lon="7.6254017">
        <ele>1600.4</ele>
        <time>2014-01-29T12:30:17Z</time>
      </trkpt>
      <trkpt lat="45.8852709" lon="7.6253989">
        <ele>1597.6</ele>
        <time>2014-01-29T12:30:19Z</time>
      </trkpt>
      <trkpt lat="45.8853409" lon="7.625376">
        <ele>1596.4</ele>
        <time>2014-01-29T12:30:20Z</time>
      </trkpt>
      <trkpt lat="45.8857425" lon="7.624476">
        <ele>1580.8</ele>
        <time>2014-01-29T12:30:31Z</time>
      </trkpt>
      <trkpt lat="45.8858552" lon="7.6244736">
        <ele>1577.8</ele>
        <time>2014-01-29T12:30:33Z</time>
      </trkpt>
      <trkpt lat="45.8860351" lon="7.6245357">
        <ele>1573.8</ele>
        <time>2014-01-29T12:30:35Z</time>
      </trkpt>
      <trkpt lat="45.886248" lon="7.6246468">
        <ele>1570.8</ele>
        <time>2014-01-29T12:30:37Z</time>
      </trkpt>
      <trkpt lat="45.8864376" lon="7.6246917">
        <ele>1569</ele>
        <time>2014-01-29T12:30:39Z</time>
      </trkpt>
      <trkpt lat="45.8865697" lon="7.6246807">
        <ele>1567.4</ele>
        <time>2014-01-29T12:30:40Z</time>
      </trkpt>
      <trkpt lat="45.8866976" lon="7.6246556">
        <ele>1566</ele>
        <time>2014-01-29T12:30:41Z</time>
      </trkpt>
      <trkpt lat="45.8868147" lon="7.6246451">
        <ele>1564.8</ele>
        <time>2014-01-29T12:30:42Z</time>
      </trkpt>
      <trkpt lat="45.8869133" lon="7.6246561">
        <ele>1564.8</ele>
        <time>2014-01-29T12:30:43Z</time>
      </trkpt>
      <trkpt lat="45.887111" lon="7.6246711">
        <ele>1564.8</ele>
        <time>2014-01-29T12:30:45Z</time>
      </trkpt>
      <trkpt lat="45.8872046" lon="7.6246766">
        <ele>1563.8</ele>
        <time>2014-01-29T12:30:46Z</time>
      </trkpt>
      <trkpt lat="45.8873759" lon="7.624687">
        <ele>1562.6</ele>
        <time>2014-01-29T12:30:48Z</time>
      </trkpt>
      <trkpt lat="45.8876352" lon="7.6247263">
        <ele>1561.4</ele>
        <time>2014-01-29T12:30:51Z</time>
      </trkpt>
      <trkpt lat="45.8877155" lon="7.6247362">
        <ele>1561.4</ele>
        <time>2014-01-29T12:30:52Z</time>
      </trkpt>
      <trkpt lat="45.8879103" lon="7.6247427">
        <ele>1560.2</ele>
        <time>2014-01-29T12:30:55Z</time>
      </trkpt>
      <trkpt lat="45.8879714" lon="7.6247411">
        <ele>1560.2</ele>
        <time>2014-01-29T12:30:56Z</time>
      </trkpt>
      <trkpt lat="45.8881836" lon="7.6246882">
        <ele>1560.2</ele>
        <time>2014-01-29T12:31:00Z</time>
      </trkpt>
      <trkpt lat="45.8882582" lon="7.6246411">
        <ele>1558.2</ele>
        <time>2014-01-29T12:31:01Z</time>
      </trkpt>
      <trkpt lat="45.8883509" lon="7.624595">
        <ele>1557</ele>
        <time>2014-01-29T12:31:03Z</time>
      </trkpt>
      <trkpt lat="45.888384" lon="7.6245461">
        <ele>1557</ele>
        <time>2014-01-29T12:31:04Z</time>
      </trkpt>
      <trkpt lat="45.888422" lon="7.6244632">
        <ele>1555.8</ele>
        <time>2014-01-29T12:31:06Z</time>
      </trkpt>
      <trkpt lat="45.8884106" lon="7.6244326">
        <ele>1555.8</ele>
        <time>2014-01-29T12:31:07Z</time>
      </trkpt>
      <trkpt lat="45.8884052" lon="7.6244216">
        <ele>1555.8</ele>
        <time>2014-01-29T12:31:08Z</time>
      </trkpt>
      <trkpt lat="45.8883965" lon="7.6244287">
        <ele>1555.8</ele>
        <time>2014-01-29T12:31:13Z</time>
      </trkpt>
      <trkpt lat="45.8883889" lon="7.624434">
        <ele>1555.8</ele>
        <time>2014-01-29T12:31:26Z</time>
      </trkpt>
      <trkpt lat="45.8883864" lon="7.6244362">
        <ele>1555.8</ele>
        <time>2014-01-29T12:31:37Z</time>
      </trkpt>
      <trkpt lat="45.8883863" lon="7.6244363">
        <ele>1555.8</ele>
        <time>2014-01-29T12:31:39Z</time>
      </trkpt>
      <trkpt lat="45.8883858" lon="7.6244359">
        <ele>1555.8</ele>
        <time>2014-01-29T12:31:40Z</time>
      </trkpt>
      <trkpt lat="45.8883786" lon="7.624426">
        <ele>1555.8</ele>
        <time>2014-01-29T12:31:58Z</time>
      </trkpt>
      <trkpt lat="45.8883682" lon="7.6244103">
        <ele>1560.4</ele>
        <time>2014-01-29T12:32:10Z</time>
      </trkpt>
      <trkpt lat="45.8883633" lon="7.6244081">
        <ele>1557.2</ele>
        <time>2014-01-29T12:32:11Z</time>
      </trkpt>
      <trkpt lat="45.8883646" lon="7.6244119">
        <ele>1557.2</ele>
        <time>2014-01-29T12:32:21Z</time>
      </trkpt>
      <trkpt lat="45.8883671" lon="7.6244103">
        <ele>1557.2</ele>
        <time>2014-01-29T12:32:32Z</time>
      </trkpt>
      <trkpt lat="45.8883654" lon="7.6244127">
        <ele>1557.2</ele>
        <time>2014-01-29T12:32:43Z</time>
      </trkpt>
      <trkpt lat="45.8883666" lon="7.6244104">
        <ele>1557.2</ele>
        <time>2014-01-29T12:32:55Z</time>
      </trkpt>
      <trkpt lat="45.8883672" lon="7.624415">
        <ele>1557.2</ele>
        <time>2014-01-29T12:33:05Z</time>
      </trkpt>
      <trkpt lat="45.8883697" lon="7.6244127">
        <ele>1557.2</ele>
        <time>2014-01-29T12:33:12Z</time>
      </trkpt>
      <trkpt lat="45.8883639" lon="7.624395">
        <ele>1557.2</ele>
        <time>2014-01-29T12:33:21Z</time>
      </trkpt>
      <trkpt lat="45.8883535" lon="7.6243732">
        <ele>1557.2</ele>
        <time>2014-01-29T12:33:36Z</time>
      </trkpt>
      <trkpt lat="45.8883469" lon="7.6243689">
        <ele>1557.2</ele>
        <time>2014-01-29T12:33:55Z</time>
      </trkpt>
      <trkpt lat="45.8883485" lon="7.6243614">
        <ele>1557.2</ele>
        <time>2014-01-29T12:34:07Z</time>
      </trkpt>
      <trkpt lat="45.8883195" lon="7.6243375">
        <ele>1557.2</ele>
        <time>2014-01-29T12:34:17Z</time>
      </trkpt>
      <trkpt lat="45.8883037" lon="7.6243418">
        <ele>1557.2</ele>
        <time>2014-01-29T12:34:25Z</time>
      </trkpt>
      <trkpt lat="45.8883237" lon="7.6243676">
        <ele>1557.2</ele>
        <time>2014-01-29T12:34:29Z</time>
      </trkpt>
      <trkpt lat="45.8883518" lon="7.6243772">
        <ele>1557.2</ele>
        <time>2014-01-29T12:34:32Z</time>
      </trkpt>
      <trkpt lat="45.8883511" lon="7.6243815">
        <ele>1557.2</ele>
        <time>2014-01-29T12:34:38Z</time>
      </trkpt>
      <trkpt lat="45.8883584" lon="7.6243691">
        <ele>1557.2</ele>
        <time>2014-01-29T12:34:47Z</time>
      </trkpt>
      <trkpt lat="45.8883354" lon="7.6243314">
        <ele>1557.2</ele>
        <time>2014-01-29T12:34:57Z</time>
      </trkpt>
      <trkpt lat="45.8883053" lon="7.6243077">
        <ele>1557.2</ele>
        <time>2014-01-29T12:35:01Z</time>
      </trkpt>
      <trkpt lat="45.8882853" lon="7.6243171">
        <ele>1557.2</ele>
        <time>2014-01-29T12:35:03Z</time>
      </trkpt>
      <trkpt lat="45.8882655" lon="7.6243303">
        <ele>1557.2</ele>
        <time>2014-01-29T12:35:05Z</time>
      </trkpt>
      <trkpt lat="45.888208" lon="7.6243618">
        <ele>1557.2</ele>
        <time>2014-01-29T12:35:11Z</time>
      </trkpt>
      <trkpt lat="45.8881923" lon="7.6243538">
        <ele>1557.2</ele>
        <time>2014-01-29T12:35:13Z</time>
      </trkpt>
      <trkpt lat="45.8881715" lon="7.6243284">
        <ele>1557.2</ele>
        <time>2014-01-29T12:35:16Z</time>
      </trkpt>
      <trkpt lat="45.8881203" lon="7.6241831">
        <ele>1557.2</ele>
        <time>2014-01-29T12:35:27Z</time>
      </trkpt>
      <trkpt lat="45.8880712" lon="7.6240605">
        <ele>1557.2</ele>
        <time>2014-01-29T12:35:40Z</time>
      </trkpt>
      <trkpt lat="45.8880425" lon="7.6240412">
        <ele>1557.2</ele>
        <time>2014-01-29T12:35:48Z</time>
      </trkpt>
      <trkpt lat="45.8880406" lon="7.624048">
        <ele>1557.2</ele>
        <time>2014-01-29T12:36:01Z</time>
      </trkpt>
      <trkpt lat="45.8880428" lon="7.6240516">
        <ele>1557.2</ele>
        <time>2014-01-29T12:36:14Z</time>
      </trkpt>
      <trkpt lat="45.8880227" lon="7.6241172">
        <ele>1557.2</ele>
        <time>2014-01-29T12:36:30Z</time>
      </trkpt>
      <trkpt lat="45.8879808" lon="7.624181">
        <ele>1557.2</ele>
        <time>2014-01-29T12:36:49Z</time>
      </trkpt>
      <trkpt lat="45.8879687" lon="7.6241954">
        <ele>1560.2</ele>
        <time>2014-01-29T12:36:58Z</time>
      </trkpt>
      <trkpt lat="45.887959" lon="7.6242052">
        <ele>1560.2</ele>
        <time>2014-01-29T12:37:04Z</time>
      </trkpt>
      <trkpt lat="45.8879238" lon="7.6242369">
        <ele>1560.2</ele>
        <time>2014-01-29T12:37:16Z</time>
      </trkpt>
      <trkpt lat="45.8878942" lon="7.6242966">
        <ele>1560.2</ele>
        <time>2014-01-29T12:37:24Z</time>
      </trkpt>
      <trkpt lat="45.8878962" lon="7.6242927">
        <ele>1561.4</ele>
        <time>2014-01-29T12:37:26Z</time>
      </trkpt>
      <trkpt lat="45.8879011" lon="7.6242759">
        <ele>1561.4</ele>
        <time>2014-01-29T12:37:30Z</time>
      </trkpt>
      <trkpt lat="45.8879319" lon="7.6241982">
        <ele>1561.4</ele>
        <time>2014-01-29T12:37:38Z</time>
      </trkpt>
      <trkpt lat="45.887944" lon="7.6241656">
        <ele>1562.4</ele>
        <time>2014-01-29T12:37:41Z</time>
      </trkpt>
      <trkpt lat="45.8879538" lon="7.6241334">
        <ele>1562.4</ele>
        <time>2014-01-29T12:37:44Z</time>
      </trkpt>
      <trkpt lat="45.8879512" lon="7.6241195">
        <ele>1563.6</ele>
        <time>2014-01-29T12:37:45Z</time>
      </trkpt>
      <trkpt lat="45.8879575" lon="7.6240851">
        <ele>1564.6</ele>
        <time>2014-01-29T12:37:49Z</time>
      </trkpt>
      <trkpt lat="45.8879559" lon="7.6240646">
        <ele>1564.6</ele>
        <time>2014-01-29T12:37:52Z</time>
      </trkpt>
      <trkpt lat="45.8879541" lon="7.6240304">
        <ele>1565.6</ele>
        <time>2014-01-29T12:37:54Z</time>
      </trkpt>
      <trkpt lat="45.8879508" lon="7.6239744">
        <ele>1565.6</ele>
        <time>2014-01-29T12:38:00Z</time>
      </trkpt>
      <trkpt lat="45.8879893" lon="7.623894">
        <ele>1565.6</ele>
        <time>2014-01-29T12:38:10Z</time>
      </trkpt>
      <trkpt lat="45.8880239" lon="7.6238736">
        <ele>1565.6</ele>
        <time>2014-01-29T12:38:13Z</time>
      </trkpt>
      <trkpt lat="45.88803" lon="7.6238794">
        <ele>1565.6</ele>
        <time>2014-01-29T12:38:16Z</time>
      </trkpt>
      <trkpt lat="45.8880242" lon="7.6238936">
        <ele>1565.6</ele>
        <time>2014-01-29T12:38:23Z</time>
      </trkpt>
      <trkpt lat="45.8879953" lon="7.6239132">
        <ele>1565.6</ele>
        <time>2014-01-29T12:38:30Z</time>
      </trkpt>
      <trkpt lat="45.8880221" lon="7.6239169">
        <ele>1565.6</ele>
        <time>2014-01-29T12:38:37Z</time>
      </trkpt>
      <trkpt lat="45.8880772" lon="7.623977">
        <ele>1565.6</ele>
        <time>2014-01-29T12:38:43Z</time>
      </trkpt>
      <trkpt lat="45.8881439" lon="7.6240651">
        <ele>1565.6</ele>
        <time>2014-01-29T12:38:54Z</time>
      </trkpt>
      <trkpt lat="45.8881615" lon="7.6240918">
        <ele>1566.8</ele>
        <time>2014-01-29T12:38:55Z</time>
      </trkpt>
      <trkpt lat="45.8882158" lon="7.6241512">
        <ele>1566.8</ele>
        <time>2014-01-29T12:38:58Z</time>
      </trkpt>
      <trkpt lat="45.8882712" lon="7.6242604">
        <ele>1568.2</ele>
        <time>2014-01-29T12:39:00Z</time>
      </trkpt>
      <trkpt lat="45.8882863" lon="7.6243095">
        <ele>1570.8</ele>
        <time>2014-01-29T12:39:01Z</time>
      </trkpt>
      <trkpt lat="45.8882911" lon="7.624352">
        <ele>1572</ele>
        <time>2014-01-29T12:39:02Z</time>
      </trkpt>
      <trkpt lat="45.8883086" lon="7.6244079">
        <ele>1574.4</ele>
        <time>2014-01-29T12:39:03Z</time>
      </trkpt>
      <trkpt lat="45.8883179" lon="7.624459">
        <ele>1575.6</ele>
        <time>2014-01-29T12:39:04Z</time>
      </trkpt>
      <trkpt lat="45.8883484" lon="7.6245448">
        <ele>1578.8</ele>
        <time>2014-01-29T12:39:06Z</time>
      </trkpt>
      <trkpt lat="45.8883688" lon="7.6246034">
        <ele>1580.4</ele>
        <time>2014-01-29T12:39:07Z</time>
      </trkpt>
      <trkpt lat="45.8883801" lon="7.624653">
        <ele>1581.8</ele>
        <time>2014-01-29T12:39:08Z</time>
      </trkpt>
      <trkpt lat="45.8883876" lon="7.6246841">
        <ele>1583</ele>
        <time>2014-01-29T12:39:09Z</time>
      </trkpt>
      <trkpt lat="45.8883924" lon="7.6247338">
        <ele>1584.6</ele>
        <time>2014-01-29T12:39:10Z</time>
      </trkpt>
      <trkpt lat="45.8884162" lon="7.6247929">
        <ele>1588.2</ele>
        <time>2014-01-29T12:39:11Z</time>
      </trkpt>
      <trkpt lat="45.888422" lon="7.62484">
        <ele>1589.8</ele>
        <time>2014-01-29T12:39:12Z</time>
      </trkpt>
      <trkpt lat="45.8884411" lon="7.6248895">
        <ele>1592.2</ele>
        <time>2014-01-29T12:39:13Z</time>
      </trkpt>
      <trkpt lat="45.8884491" lon="7.6249349">
        <ele>1593.6</ele>
        <time>2014-01-29T12:39:14Z</time>
      </trkpt>
      <trkpt lat="45.888468" lon="7.6249826">
        <ele>1596.4</ele>
        <time>2014-01-29T12:39:15Z</time>
      </trkpt>
      <trkpt lat="45.8884778" lon="7.6250285">
        <ele>1598</ele>
        <time>2014-01-29T12:39:16Z</time>
      </trkpt>
      <trkpt lat="45.8884905" lon="7.6250641">
        <ele>1599.2</ele>
        <time>2014-01-29T12:39:17Z</time>
      </trkpt>
      <trkpt lat="45.8885039" lon="7.6251145">
        <ele>1601.8</ele>
        <time>2014-01-29T12:39:18Z</time>
      </trkpt>
      <trkpt lat="45.888513" lon="7.6251534">
        <ele>1603.4</ele>
        <time>2014-01-29T12:39:19Z</time>
      </trkpt>
      <trkpt lat="45.8885257" lon="7.6252025">
        <ele>1605</ele>
        <time>2014-01-29T12:39:20Z</time>
      </trkpt>
      <trkpt lat="45.8885376" lon="7.6252579">
        <ele>1608.6</ele>
        <time>2014-01-29T12:39:21Z</time>
      </trkpt>
      <trkpt lat="45.8885479" lon="7.6253026">
        <ele>1609.6</ele>
        <time>2014-01-29T12:39:22Z</time>
      </trkpt>
      <trkpt lat="45.8885554" lon="7.6253354">
        <ele>1611</ele>
        <time>2014-01-29T12:39:23Z</time>
      </trkpt>
      <trkpt lat="45.8885661" lon="7.6253893">
        <ele>1612.8</ele>
        <time>2014-01-29T12:39:24Z</time>
      </trkpt>
      <trkpt lat="45.8885828" lon="7.6254418">
        <ele>1617.2</ele>
        <time>2014-01-29T12:39:25Z</time>
      </trkpt>
      <trkpt lat="45.8885993" lon="7.6255478">
        <ele>1624.6</ele>
        <time>2014-01-29T12:39:27Z</time>
      </trkpt>
      <trkpt lat="45.8886143" lon="7.6256339">
        <ele>1629.4</ele>
        <time>2014-01-29T12:39:29Z</time>
      </trkpt>
      <trkpt lat="45.8886238" lon="7.6256866">
        <ele>1631.4</ele>
        <time>2014-01-29T12:39:30Z</time>
      </trkpt>
      <trkpt lat="45.8886333" lon="7.6257398">
        <ele>1636.8</ele>
        <time>2014-01-29T12:39:31Z</time>
      </trkpt>
      <trkpt lat="45.8886413" lon="7.6257828">
        <ele>1638.6</ele>
        <time>2014-01-29T12:39:32Z</time>
      </trkpt>
      <trkpt lat="45.8886504" lon="7.6258222">
        <ele>1641.6</ele>
        <time>2014-01-29T12:39:33Z</time>
      </trkpt>
      <trkpt lat="45.888659" lon="7.6258649">
        <ele>1642.8</ele>
        <time>2014-01-29T12:39:34Z</time>
      </trkpt>
      <trkpt lat="45.8886799" lon="7.6259641">
        <ele>1645</ele>
        <time>2014-01-29T12:39:36Z</time>
      </trkpt>
      <trkpt lat="45.8886898" lon="7.6260102">
        <ele>1646.2</ele>
        <time>2014-01-29T12:39:37Z</time>
      </trkpt>
      <trkpt lat="45.8887006" lon="7.6260698">
        <ele>1648.2</ele>
        <time>2014-01-29T12:39:39Z</time>
      </trkpt>
      <trkpt lat="45.8887079" lon="7.6261097">
        <ele>1648.2</ele>
        <time>2014-01-29T12:39:40Z</time>
      </trkpt>
      <trkpt lat="45.8887195" lon="7.6261616">
        <ele>1651.6</ele>
        <time>2014-01-29T12:39:41Z</time>
      </trkpt>
      <trkpt lat="45.8887254" lon="7.6261962">
        <ele>1653</ele>
        <time>2014-01-29T12:39:42Z</time>
      </trkpt>
      <trkpt lat="45.888735" lon="7.6262509">
        <ele>1654.4</ele>
        <time>2014-01-29T12:39:43Z</time>
      </trkpt>
      <trkpt lat="45.8887424" lon="7.6262914">
        <ele>1655.8</ele>
        <time>2014-01-29T12:39:44Z</time>
      </trkpt>
      <trkpt lat="45.8887523" lon="7.6263396">
        <ele>1657.2</ele>
        <time>2014-01-29T12:39:45Z</time>
      </trkpt>
      <trkpt lat="45.8887605" lon="7.6263793">
        <ele>1658.8</ele>
        <time>2014-01-29T12:39:46Z</time>
      </trkpt>
      <trkpt lat="45.8887707" lon="7.6264303">
        <ele>1660.4</ele>
        <time>2014-01-29T12:39:47Z</time>
      </trkpt>
      <trkpt lat="45.8887774" lon="7.6264678">
        <ele>1661.4</ele>
        <time>2014-01-29T12:39:48Z</time>
      </trkpt>
      <trkpt lat="45.8887875" lon="7.6265225">
        <ele>1662.6</ele>
        <time>2014-01-29T12:39:49Z</time>
      </trkpt>
      <trkpt lat="45.8887933" lon="7.626555">
        <ele>1665</ele>
        <time>2014-01-29T12:39:50Z</time>
      </trkpt>
      <trkpt lat="45.888805" lon="7.6266121">
        <ele>1666.4</ele>
        <time>2014-01-29T12:39:51Z</time>
      </trkpt>
      <trkpt lat="45.8888136" lon="7.6266494">
        <ele>1667.6</ele>
        <time>2014-01-29T12:39:52Z</time>
      </trkpt>
      <trkpt lat="45.8888254" lon="7.6267027">
        <ele>1669</ele>
        <time>2014-01-29T12:39:53Z</time>
      </trkpt>
      <trkpt lat="45.8888323" lon="7.6267385">
        <ele>1670.6</ele>
        <time>2014-01-29T12:39:54Z</time>
      </trkpt>
      <trkpt lat="45.8888422" lon="7.6267888">
        <ele>1672.2</ele>
        <time>2014-01-29T12:39:55Z</time>
      </trkpt>
      <trkpt lat="45.8888506" lon="7.6268306">
        <ele>1673.8</ele>
        <time>2014-01-29T12:39:56Z</time>
      </trkpt>
      <trkpt lat="45.888862" lon="7.6268839">
        <ele>1675.2</ele>
        <time>2014-01-29T12:39:57Z</time>
      </trkpt>
      <trkpt lat="45.8888699" lon="7.6269239">
        <ele>1676.8</ele>
        <time>2014-01-29T12:39:58Z</time>
      </trkpt>
      <trkpt lat="45.88888" lon="7.6269759">
        <ele>1678.4</ele>
        <time>2014-01-29T12:39:59Z</time>
      </trkpt>
      <trkpt lat="45.8888859" lon="7.6270116">
        <ele>1680</ele>
        <time>2014-01-29T12:40:00Z</time>
      </trkpt>
      <trkpt lat="45.8888943" lon="7.6270582">
        <ele>1681.8</ele>
        <time>2014-01-29T12:40:01Z</time>
      </trkpt>
      <trkpt lat="45.8889029" lon="7.6271042">
        <ele>1683.4</ele>
        <time>2014-01-29T12:40:02Z</time>
      </trkpt>
      <trkpt lat="45.8889132" lon="7.6271581">
        <ele>1685</ele>
        <time>2014-01-29T12:40:03Z</time>
      </trkpt>
      <trkpt lat="45.8889204" lon="7.6271974">
        <ele>1686.8</ele>
        <time>2014-01-29T12:40:04Z</time>
      </trkpt>
      <trkpt lat="45.8889291" lon="7.6272425">
        <ele>1688.6</ele>
        <time>2014-01-29T12:40:05Z</time>
      </trkpt>
      <trkpt lat="45.888937" lon="7.6272834">
        <ele>1689.8</ele>
        <time>2014-01-29T12:40:06Z</time>
      </trkpt>
      <trkpt lat="45.8889474" lon="7.6273346">
        <ele>1692.2</ele>
        <time>2014-01-29T12:40:07Z</time>
      </trkpt>
      <trkpt lat="45.8889546" lon="7.6273725">
        <ele>1693.4</ele>
        <time>2014-01-29T12:40:08Z</time>
      </trkpt>
      <trkpt lat="45.8889709" lon="7.6274579">
        <ele>1697.4</ele>
        <time>2014-01-29T12:40:10Z</time>
      </trkpt>
      <trkpt lat="45.8889816" lon="7.6275109">
        <ele>1698.6</ele>
        <time>2014-01-29T12:40:11Z</time>
      </trkpt>
      <trkpt lat="45.8889893" lon="7.6275467">
        <ele>1699.8</ele>
        <time>2014-01-29T12:40:12Z</time>
      </trkpt>
      <trkpt lat="45.8890023" lon="7.6276101">
        <ele>1700.8</ele>
        <time>2014-01-29T12:40:13Z</time>
      </trkpt>
      <trkpt lat="45.8890227" lon="7.6277058">
        <ele>1701.8</ele>
        <time>2014-01-29T12:40:15Z</time>
      </trkpt>
      <trkpt lat="45.8890337" lon="7.6277476">
        <ele>1701.8</ele>
        <time>2014-01-29T12:40:16Z</time>
      </trkpt>
      <trkpt lat="45.8890474" lon="7.6278034">
        <ele>1702.8</ele>
        <time>2014-01-29T12:40:17Z</time>
      </trkpt>
      <trkpt lat="45.8890574" lon="7.6278473">
        <ele>1704</ele>
        <time>2014-01-29T12:40:18Z</time>
      </trkpt>
      <trkpt lat="45.8890762" lon="7.6279398">
        <ele>1705</ele>
        <time>2014-01-29T12:40:20Z</time>
      </trkpt>
      <trkpt lat="45.8890888" lon="7.6280006">
        <ele>1706</ele>
        <time>2014-01-29T12:40:21Z</time>
      </trkpt>
      <trkpt lat="45.8891091" lon="7.628099">
        <ele>1707</ele>
        <time>2014-01-29T12:40:23Z</time>
      </trkpt>
      <trkpt lat="45.8891171" lon="7.628139">
        <ele>1708.2</ele>
        <time>2014-01-29T12:40:24Z</time>
      </trkpt>
      <trkpt lat="45.8891301" lon="7.6281956">
        <ele>1709.4</ele>
        <time>2014-01-29T12:40:25Z</time>
      </trkpt>
      <trkpt lat="45.8891536" lon="7.628299">
        <ele>1710.6</ele>
        <time>2014-01-29T12:40:27Z</time>
      </trkpt>
      <trkpt lat="45.8891633" lon="7.6283417">
        <ele>1711.8</ele>
        <time>2014-01-29T12:40:28Z</time>
      </trkpt>
      <trkpt lat="45.8891758" lon="7.6283974">
        <ele>1712.8</ele>
        <time>2014-01-29T12:40:29Z</time>
      </trkpt>
      <trkpt lat="45.889184" lon="7.6284345">
        <ele>1713.8</ele>
        <time>2014-01-29T12:40:30Z</time>
      </trkpt>
      <trkpt lat="45.8892046" lon="7.6285353">
        <ele>1715.2</ele>
        <time>2014-01-29T12:40:32Z</time>
      </trkpt>
      <trkpt lat="45.8892165" lon="7.6285936">
        <ele>1716.4</ele>
        <time>2014-01-29T12:40:33Z</time>
      </trkpt>
      <trkpt lat="45.8892253" lon="7.6286361">
        <ele>1717.6</ele>
        <time>2014-01-29T12:40:34Z</time>
      </trkpt>
      <trkpt lat="45.8892352" lon="7.6286842">
        <ele>1719</ele>
        <time>2014-01-29T12:40:35Z</time>
      </trkpt>
      <trkpt lat="45.8892445" lon="7.6287288">
        <ele>1720</ele>
        <time>2014-01-29T12:40:36Z</time>
      </trkpt>
      <trkpt lat="45.8892562" lon="7.6287853">
        <ele>1721.2</ele>
        <time>2014-01-29T12:40:37Z</time>
      </trkpt>
      <trkpt lat="45.8892643" lon="7.6288274">
        <ele>1722.2</ele>
        <time>2014-01-29T12:40:38Z</time>
      </trkpt>
      <trkpt lat="45.8893109" lon="7.6290809">
        <ele>1722.2</ele>
        <time>2014-01-29T12:40:43Z</time>
      </trkpt>
      <trkpt lat="45.8893809" lon="7.6294217">
        <ele>1723.2</ele>
        <time>2014-01-29T12:40:50Z</time>
      </trkpt>
      <trkpt lat="45.889412" lon="7.6295876">
        <ele>1724.4</ele>
        <time>2014-01-29T12:40:53Z</time>
      </trkpt>
      <trkpt lat="45.8894405" lon="7.6297287">
        <ele>1725.4</ele>
        <time>2014-01-29T12:40:56Z</time>
      </trkpt>
      <trkpt lat="45.8894702" lon="7.6298812">
        <ele>1726.6</ele>
        <time>2014-01-29T12:40:59Z</time>
      </trkpt>
      <trkpt lat="45.8894976" lon="7.6300245">
        <ele>1727.6</ele>
        <time>2014-01-29T12:41:02Z</time>
      </trkpt>
      <trkpt lat="45.8895094" lon="7.6300843">
        <ele>1727.6</ele>
        <time>2014-01-29T12:41:03Z</time>
      </trkpt>
      <trkpt lat="45.8895182" lon="7.6301287">
        <ele>1728.8</ele>
        <time>2014-01-29T12:41:04Z</time>
      </trkpt>
      <trkpt lat="45.8895466" lon="7.6302858">
        <ele>1729.8</ele>
        <time>2014-01-29T12:41:07Z</time>
      </trkpt>
      <trkpt lat="45.8895656" lon="7.630392">
        <ele>1730.8</ele>
        <time>2014-01-29T12:41:09Z</time>
      </trkpt>
      <trkpt lat="45.8895866" lon="7.6304954">
        <ele>1732.2</ele>
        <time>2014-01-29T12:41:11Z</time>
      </trkpt>
      <trkpt lat="45.889593" lon="7.6305305">
        <ele>1733.2</ele>
        <time>2014-01-29T12:41:12Z</time>
      </trkpt>
      <trkpt lat="45.8896136" lon="7.6306406">
        <ele>1734.2</ele>
        <time>2014-01-29T12:41:14Z</time>
      </trkpt>
      <trkpt lat="45.8896255" lon="7.6306958">
        <ele>1735.4</ele>
        <time>2014-01-29T12:41:15Z</time>
      </trkpt>
      <trkpt lat="45.8896358" lon="7.630744">
        <ele>1736.6</ele>
        <time>2014-01-29T12:41:16Z</time>
      </trkpt>
      <trkpt lat="45.8896564" lon="7.6308405">
        <ele>1737.8</ele>
        <time>2014-01-29T12:41:18Z</time>
      </trkpt>
      <trkpt lat="45.8896684" lon="7.6308965">
        <ele>1739</ele>
        <time>2014-01-29T12:41:19Z</time>
      </trkpt>
      <trkpt lat="45.8896929" lon="7.6309908">
        <ele>1740.2</ele>
        <time>2014-01-29T12:41:21Z</time>
      </trkpt>
      <trkpt lat="45.889743" lon="7.6312333">
        <ele>1741.2</ele>
        <time>2014-01-29T12:41:26Z</time>
      </trkpt>
      <trkpt lat="45.889787" lon="7.631431">
        <ele>1741.2</ele>
        <time>2014-01-29T12:41:30Z</time>
      </trkpt>
      <trkpt lat="45.8897995" lon="7.6314948">
        <ele>1742.2</ele>
        <time>2014-01-29T12:41:31Z</time>
      </trkpt>
      <trkpt lat="45.8898308" lon="7.6316356">
        <ele>1743.4</ele>
        <time>2014-01-29T12:41:34Z</time>
      </trkpt>
      <trkpt lat="45.8898518" lon="7.6317279">
        <ele>1744.4</ele>
        <time>2014-01-29T12:41:36Z</time>
      </trkpt>
      <trkpt lat="45.8898655" lon="7.6317881">
        <ele>1745.4</ele>
        <time>2014-01-29T12:41:37Z</time>
      </trkpt>
      <trkpt lat="45.8898777" lon="7.6318331">
        <ele>1745.4</ele>
        <time>2014-01-29T12:41:38Z</time>
      </trkpt>
      <trkpt lat="45.8898921" lon="7.6318898">
        <ele>1746.8</ele>
        <time>2014-01-29T12:41:39Z</time>
      </trkpt>
      <trkpt lat="45.889917" lon="7.6319921">
        <ele>1747.8</ele>
        <time>2014-01-29T12:41:41Z</time>
      </trkpt>
      <trkpt lat="45.8899425" lon="7.6320909">
        <ele>1749.4</ele>
        <time>2014-01-29T12:41:43Z</time>
      </trkpt>
      <trkpt lat="45.8899538" lon="7.6321353">
        <ele>1750.4</ele>
        <time>2014-01-29T12:41:44Z</time>
      </trkpt>
      <trkpt lat="45.8899663" lon="7.6321914">
        <ele>1751.8</ele>
        <time>2014-01-29T12:41:45Z</time>
      </trkpt>
      <trkpt lat="45.8899772" lon="7.6322387">
        <ele>1752.8</ele>
        <time>2014-01-29T12:41:46Z</time>
      </trkpt>
      <trkpt lat="45.8899896" lon="7.6322934">
        <ele>1754.2</ele>
        <time>2014-01-29T12:41:47Z</time>
      </trkpt>
      <trkpt lat="45.8899987" lon="7.6323323">
        <ele>1755.4</ele>
        <time>2014-01-29T12:41:48Z</time>
      </trkpt>
      <trkpt lat="45.8900111" lon="7.6323853">
        <ele>1756.6</ele>
        <time>2014-01-29T12:41:49Z</time>
      </trkpt>
      <trkpt lat="45.8900183" lon="7.6324207">
        <ele>1758</ele>
        <time>2014-01-29T12:41:50Z</time>
      </trkpt>
      <trkpt lat="45.8900304" lon="7.632481">
        <ele>1759.4</ele>
        <time>2014-01-29T12:41:51Z</time>
      </trkpt>
      <trkpt lat="45.8900387" lon="7.6325214">
        <ele>1760.8</ele>
        <time>2014-01-29T12:41:52Z</time>
      </trkpt>
      <trkpt lat="45.8900515" lon="7.6325781">
        <ele>1762.4</ele>
        <time>2014-01-29T12:41:53Z</time>
      </trkpt>
      <trkpt lat="45.8900613" lon="7.6326169">
        <ele>1764</ele>
        <time>2014-01-29T12:41:54Z</time>
      </trkpt>
      <trkpt lat="45.890073" lon="7.6326692">
        <ele>1765.4</ele>
        <time>2014-01-29T12:41:55Z</time>
      </trkpt>
      <trkpt lat="45.890085" lon="7.6327108">
        <ele>1766.4</ele>
        <time>2014-01-29T12:41:56Z</time>
      </trkpt>
      <trkpt lat="45.8900979" lon="7.6327655">
        <ele>1767.4</ele>
        <time>2014-01-29T12:41:57Z</time>
      </trkpt>
      <trkpt lat="45.890105" lon="7.6328111">
        <ele>1768.6</ele>
        <time>2014-01-29T12:41:58Z</time>
      </trkpt>
      <trkpt lat="45.8901147" lon="7.6328647">
        <ele>1770</ele>
        <time>2014-01-29T12:41:59Z</time>
      </trkpt>
      <trkpt lat="45.8901198" lon="7.632899">
        <ele>1772.6</ele>
        <time>2014-01-29T12:42:00Z</time>
      </trkpt>
      <trkpt lat="45.8901306" lon="7.6329512">
        <ele>1775</ele>
        <time>2014-01-29T12:42:01Z</time>
      </trkpt>
      <trkpt lat="45.8901381" lon="7.632987">
        <ele>1776</ele>
        <time>2014-01-29T12:42:02Z</time>
      </trkpt>
      <trkpt lat="45.8901487" lon="7.6330396">
        <ele>1777.2</ele>
        <time>2014-01-29T12:42:03Z</time>
      </trkpt>
      <trkpt lat="45.8901572" lon="7.6330789">
        <ele>1778.6</ele>
        <time>2014-01-29T12:42:04Z</time>
      </trkpt>
      <trkpt lat="45.8901675" lon="7.6331273">
        <ele>1781.2</ele>
        <time>2014-01-29T12:42:05Z</time>
      </trkpt>
      <trkpt lat="45.8901754" lon="7.6331665">
        <ele>1782.4</ele>
        <time>2014-01-29T12:42:06Z</time>
      </trkpt>
      <trkpt lat="45.8901864" lon="7.6332198">
        <ele>1784.6</ele>
        <time>2014-01-29T12:42:07Z</time>
      </trkpt>
      <trkpt lat="45.8901938" lon="7.6332582">
        <ele>1785.6</ele>
        <time>2014-01-29T12:42:08Z</time>
      </trkpt>
      <trkpt lat="45.8902035" lon="7.6333085">
        <ele>1788</ele>
        <time>2014-01-29T12:42:09Z</time>
      </trkpt>
      <trkpt lat="45.8902118" lon="7.6333437">
        <ele>1789.2</ele>
        <time>2014-01-29T12:42:10Z</time>
      </trkpt>
      <trkpt lat="45.8902243" lon="7.6333953">
        <ele>1790.4</ele>
        <time>2014-01-29T12:42:11Z</time>
      </trkpt>
      <trkpt lat="45.8902331" lon="7.6334248">
        <ele>1792.8</ele>
        <time>2014-01-29T12:42:12Z</time>
      </trkpt>
      <trkpt lat="45.8902492" lon="7.6334807">
        <ele>1794</ele>
        <time>2014-01-29T12:42:13Z</time>
      </trkpt>
      <trkpt lat="45.8902585" lon="7.6335215">
        <ele>1795</ele>
        <time>2014-01-29T12:42:14Z</time>
      </trkpt>
      <trkpt lat="45.8902702" lon="7.6335762">
        <ele>1796.2</ele>
        <time>2014-01-29T12:42:15Z</time>
      </trkpt>
      <trkpt lat="45.8902812" lon="7.633624">
        <ele>1797.4</ele>
        <time>2014-01-29T12:42:16Z</time>
      </trkpt>
      <trkpt lat="45.8903036" lon="7.6337166">
        <ele>1798.4</ele>
        <time>2014-01-29T12:42:18Z</time>
      </trkpt>
      <trkpt lat="45.890317" lon="7.6337709">
        <ele>1799.6</ele>
        <time>2014-01-29T12:42:19Z</time>
      </trkpt>
      <trkpt lat="45.8903262" lon="7.6338116">
        <ele>1800.6</ele>
        <time>2014-01-29T12:42:20Z</time>
      </trkpt>
      <trkpt lat="45.8903396" lon="7.6338718">
        <ele>1801.8</ele>
        <time>2014-01-29T12:42:21Z</time>
      </trkpt>
      <trkpt lat="45.8903493" lon="7.6339093">
        <ele>1803</ele>
        <time>2014-01-29T12:42:22Z</time>
      </trkpt>
      <trkpt lat="45.8903647" lon="7.6339639">
        <ele>1804.6</ele>
        <time>2014-01-29T12:42:23Z</time>
      </trkpt>
      <trkpt lat="45.8903759" lon="7.6340043">
        <ele>1805.6</ele>
        <time>2014-01-29T12:42:24Z</time>
      </trkpt>
      <trkpt lat="45.8903872" lon="7.6340585">
        <ele>1806.8</ele>
        <time>2014-01-29T12:42:25Z</time>
      </trkpt>
      <trkpt lat="45.8903958" lon="7.6341042">
        <ele>1808</ele>
        <time>2014-01-29T12:42:26Z</time>
      </trkpt>
      <trkpt lat="45.8904072" lon="7.6341605">
        <ele>1809.2</ele>
        <time>2014-01-29T12:42:27Z</time>
      </trkpt>
      <trkpt lat="45.8904161" lon="7.6342029">
        <ele>1810.2</ele>
        <time>2014-01-29T12:42:28Z</time>
      </trkpt>
      <trkpt lat="45.8904268" lon="7.6342578">
        <ele>1811.4</ele>
        <time>2014-01-29T12:42:29Z</time>
      </trkpt>
      <trkpt lat="45.8904337" lon="7.6342942">
        <ele>1812.6</ele>
        <time>2014-01-29T12:42:30Z</time>
      </trkpt>
      <trkpt lat="45.8904449" lon="7.6343531">
        <ele>1814</ele>
        <time>2014-01-29T12:42:31Z</time>
      </trkpt>
      <trkpt lat="45.8904646" lon="7.6344492">
        <ele>1816.8</ele>
        <time>2014-01-29T12:42:33Z</time>
      </trkpt>
      <trkpt lat="45.8904729" lon="7.6344913">
        <ele>1817.8</ele>
        <time>2014-01-29T12:42:34Z</time>
      </trkpt>
      <trkpt lat="45.8904826" lon="7.6345419">
        <ele>1819.4</ele>
        <time>2014-01-29T12:42:35Z</time>
      </trkpt>
      <trkpt lat="45.8904905" lon="7.6345851">
        <ele>1820.6</ele>
        <time>2014-01-29T12:42:36Z</time>
      </trkpt>
      <trkpt lat="45.8905015" lon="7.634643">
        <ele>1822</ele>
        <time>2014-01-29T12:42:37Z</time>
      </trkpt>
      <trkpt lat="45.8905096" lon="7.6346847">
        <ele>1823.4</ele>
        <time>2014-01-29T12:42:38Z</time>
      </trkpt>
      <trkpt lat="45.89052" lon="7.6347381">
        <ele>1824.8</ele>
        <time>2014-01-29T12:42:39Z</time>
      </trkpt>
      <trkpt lat="45.890528" lon="7.6347749">
        <ele>1825.8</ele>
        <time>2014-01-29T12:42:40Z</time>
      </trkpt>
      <trkpt lat="45.8905413" lon="7.6348303">
        <ele>1827.2</ele>
        <time>2014-01-29T12:42:41Z</time>
      </trkpt>
      <trkpt lat="45.8905483" lon="7.6348637">
        <ele>1828.4</ele>
        <time>2014-01-29T12:42:42Z</time>
      </trkpt>
      <trkpt lat="45.8905613" lon="7.6349254">
        <ele>1830.8</ele>
        <time>2014-01-29T12:42:43Z</time>
      </trkpt>
      <trkpt lat="45.8905805" lon="7.6350173">
        <ele>1832.2</ele>
        <time>2014-01-29T12:42:45Z</time>
      </trkpt>
      <trkpt lat="45.8905894" lon="7.6350605">
        <ele>1835</ele>
        <time>2014-01-29T12:42:46Z</time>
      </trkpt>
      <trkpt lat="45.8906003" lon="7.6351136">
        <ele>1836.4</ele>
        <time>2014-01-29T12:42:47Z</time>
      </trkpt>
      <trkpt lat="45.8906074" lon="7.6351536">
        <ele>1837.8</ele>
        <time>2014-01-29T12:42:48Z</time>
      </trkpt>
      <trkpt lat="45.8906183" lon="7.6352101">
        <ele>1839.2</ele>
        <time>2014-01-29T12:42:49Z</time>
      </trkpt>
      <trkpt lat="45.8906261" lon="7.635248">
        <ele>1840.4</ele>
        <time>2014-01-29T12:42:50Z</time>
      </trkpt>
      <trkpt lat="45.8906381" lon="7.6353038">
        <ele>1841.6</ele>
        <time>2014-01-29T12:42:51Z</time>
      </trkpt>
      <trkpt lat="45.8906459" lon="7.6353401">
        <ele>1842.6</ele>
        <time>2014-01-29T12:42:52Z</time>
      </trkpt>
      <trkpt lat="45.8906568" lon="7.6353952">
        <ele>1845</ele>
        <time>2014-01-29T12:42:53Z</time>
      </trkpt>
      <trkpt lat="45.8906662" lon="7.6354312">
        <ele>1846</ele>
        <time>2014-01-29T12:42:54Z</time>
      </trkpt>
      <trkpt lat="45.8906785" lon="7.6354801">
        <ele>1847.4</ele>
        <time>2014-01-29T12:42:55Z</time>
      </trkpt>
      <trkpt lat="45.8906866" lon="7.6355249">
        <ele>1848.8</ele>
        <time>2014-01-29T12:42:56Z</time>
      </trkpt>
      <trkpt lat="45.8906982" lon="7.6355793">
        <ele>1851.6</ele>
        <time>2014-01-29T12:42:57Z</time>
      </trkpt>
      <trkpt lat="45.8907069" lon="7.63562">
        <ele>1853</ele>
        <time>2014-01-29T12:42:58Z</time>
      </trkpt>
      <trkpt lat="45.8907164" lon="7.6356716">
        <ele>1854.4</ele>
        <time>2014-01-29T12:42:59Z</time>
      </trkpt>
      <trkpt lat="45.8907241" lon="7.6357049">
        <ele>1855.6</ele>
        <time>2014-01-29T12:43:00Z</time>
      </trkpt>
      <trkpt lat="45.8907368" lon="7.6357643">
        <ele>1857</ele>
        <time>2014-01-29T12:43:01Z</time>
      </trkpt>
      <trkpt lat="45.8907477" lon="7.6358139">
        <ele>1858.4</ele>
        <time>2014-01-29T12:43:02Z</time>
      </trkpt>
      <trkpt lat="45.8907527" lon="7.635863">
        <ele>1859.4</ele>
        <time>2014-01-29T12:43:03Z</time>
      </trkpt>
      <trkpt lat="45.8907713" lon="7.6359575">
        <ele>1860.6</ele>
        <time>2014-01-29T12:43:05Z</time>
      </trkpt>
      <trkpt lat="45.890779" lon="7.6359969">
        <ele>1863</ele>
        <time>2014-01-29T12:43:06Z</time>
      </trkpt>
      <trkpt lat="45.8907912" lon="7.6360575">
        <ele>1864</ele>
        <time>2014-01-29T12:43:07Z</time>
      </trkpt>
      <trkpt lat="45.8907996" lon="7.6361003">
        <ele>1865</ele>
        <time>2014-01-29T12:43:08Z</time>
      </trkpt>
      <trkpt lat="45.8908113" lon="7.6361553">
        <ele>1866.4</ele>
        <time>2014-01-29T12:43:09Z</time>
      </trkpt>
      <trkpt lat="45.89082" lon="7.6361937">
        <ele>1866.4</ele>
        <time>2014-01-29T12:43:10Z</time>
      </trkpt>
      <trkpt lat="45.8908394" lon="7.6362847">
        <ele>1868.8</ele>
        <time>2014-01-29T12:43:12Z</time>
      </trkpt>
      <trkpt lat="45.8908536" lon="7.636346">
        <ele>1870.2</ele>
        <time>2014-01-29T12:43:13Z</time>
      </trkpt>
      <trkpt lat="45.8908623" lon="7.6363875">
        <ele>1871.6</ele>
        <time>2014-01-29T12:43:14Z</time>
      </trkpt>
      <trkpt lat="45.8908726" lon="7.6364398">
        <ele>1873</ele>
        <time>2014-01-29T12:43:15Z</time>
      </trkpt>
      <trkpt lat="45.8908816" lon="7.636484">
        <ele>1874.6</ele>
        <time>2014-01-29T12:43:16Z</time>
      </trkpt>
      <trkpt lat="45.8908926" lon="7.636539">
        <ele>1876.2</ele>
        <time>2014-01-29T12:43:17Z</time>
      </trkpt>
      <trkpt lat="45.8909008" lon="7.63658">
        <ele>1877.6</ele>
        <time>2014-01-29T12:43:18Z</time>
      </trkpt>
      <trkpt lat="45.8909137" lon="7.6366372">
        <ele>1878.8</ele>
        <time>2014-01-29T12:43:19Z</time>
      </trkpt>
      <trkpt lat="45.8909221" lon="7.6366748">
        <ele>1880</ele>
        <time>2014-01-29T12:43:20Z</time>
      </trkpt>
      <trkpt lat="45.8909346" lon="7.6367309">
        <ele>1881.4</ele>
        <time>2014-01-29T12:43:21Z</time>
      </trkpt>
      <trkpt lat="45.8909427" lon="7.6367688">
        <ele>1882.6</ele>
        <time>2014-01-29T12:43:22Z</time>
      </trkpt>
      <trkpt lat="45.8909542" lon="7.6368266">
        <ele>1884.2</ele>
        <time>2014-01-29T12:43:23Z</time>
      </trkpt>
      <trkpt lat="45.8909619" lon="7.6368659">
        <ele>1885.6</ele>
        <time>2014-01-29T12:43:24Z</time>
      </trkpt>
      <trkpt lat="45.8909738" lon="7.6369187">
        <ele>1887</ele>
        <time>2014-01-29T12:43:25Z</time>
      </trkpt>
      <trkpt lat="45.8909826" lon="7.6369638">
        <ele>1888.4</ele>
        <time>2014-01-29T12:43:26Z</time>
      </trkpt>
      <trkpt lat="45.8909941" lon="7.6370178">
        <ele>1889.8</ele>
        <time>2014-01-29T12:43:27Z</time>
      </trkpt>
      <trkpt lat="45.8910039" lon="7.6370588">
        <ele>1891.2</ele>
        <time>2014-01-29T12:43:28Z</time>
      </trkpt>
      <trkpt lat="45.8910159" lon="7.6371118">
        <ele>1892.6</ele>
        <time>2014-01-29T12:43:29Z</time>
      </trkpt>
      <trkpt lat="45.8910223" lon="7.6371473">
        <ele>1894.2</ele>
        <time>2014-01-29T12:43:30Z</time>
      </trkpt>
      <trkpt lat="45.8910339" lon="7.6372059">
        <ele>1895.8</ele>
        <time>2014-01-29T12:43:31Z</time>
      </trkpt>
      <trkpt lat="45.8910408" lon="7.6372453">
        <ele>1897.2</ele>
        <time>2014-01-29T12:43:32Z</time>
      </trkpt>
      <trkpt lat="45.8910517" lon="7.6373016">
        <ele>1898.6</ele>
        <time>2014-01-29T12:43:33Z</time>
      </trkpt>
      <trkpt lat="45.8910605" lon="7.6373409">
        <ele>1900.2</ele>
        <time>2014-01-29T12:43:34Z</time>
      </trkpt>
      <trkpt lat="45.8910704" lon="7.6373909">
        <ele>1901.6</ele>
        <time>2014-01-29T12:43:35Z</time>
      </trkpt>
      <trkpt lat="45.8910767" lon="7.6374322">
        <ele>1903.4</ele>
        <time>2014-01-29T12:43:36Z</time>
      </trkpt>
      <trkpt lat="45.8910864" lon="7.6374882">
        <ele>1904.8</ele>
        <time>2014-01-29T12:43:37Z</time>
      </trkpt>
      <trkpt lat="45.8910947" lon="7.6375285">
        <ele>1906.2</ele>
        <time>2014-01-29T12:43:38Z</time>
      </trkpt>
      <trkpt lat="45.8911057" lon="7.6375812">
        <ele>1907.6</ele>
        <time>2014-01-29T12:43:39Z</time>
      </trkpt>
      <trkpt lat="45.8911142" lon="7.6376229">
        <ele>1909.2</ele>
        <time>2014-01-29T12:43:40Z</time>
      </trkpt>
      <trkpt lat="45.8911342" lon="7.637722">
        <ele>1910.4</ele>
        <time>2014-01-29T12:43:42Z</time>
      </trkpt>
      <trkpt lat="45.8911463" lon="7.6377828">
        <ele>1912.2</ele>
        <time>2014-01-29T12:43:43Z</time>
      </trkpt>
      <trkpt lat="45.8911549" lon="7.6378252">
        <ele>1913.4</ele>
        <time>2014-01-29T12:43:44Z</time>
      </trkpt>
      <trkpt lat="45.8911659" lon="7.6378796">
        <ele>1914.4</ele>
        <time>2014-01-29T12:43:45Z</time>
      </trkpt>
      <trkpt lat="45.8911747" lon="7.6379258">
        <ele>1915.6</ele>
        <time>2014-01-29T12:43:46Z</time>
      </trkpt>
      <trkpt lat="45.8911849" lon="7.6379823">
        <ele>1916.6</ele>
        <time>2014-01-29T12:43:47Z</time>
      </trkpt>
      <trkpt lat="45.891195" lon="7.6380197">
        <ele>1918.2</ele>
        <time>2014-01-29T12:43:48Z</time>
      </trkpt>
      <trkpt lat="45.8912095" lon="7.6380739">
        <ele>1919.4</ele>
        <time>2014-01-29T12:43:49Z</time>
      </trkpt>
      <trkpt lat="45.8912173" lon="7.6381123">
        <ele>1920.4</ele>
        <time>2014-01-29T12:43:50Z</time>
      </trkpt>
      <trkpt lat="45.8912282" lon="7.63817">
        <ele>1921.6</ele>
        <time>2014-01-29T12:43:51Z</time>
      </trkpt>
      <trkpt lat="45.8912348" lon="7.6382095">
        <ele>1921.6</ele>
        <time>2014-01-29T12:43:52Z</time>
      </trkpt>
      <trkpt lat="45.8912458" lon="7.6382668">
        <ele>1922.8</ele>
        <time>2014-01-29T12:43:53Z</time>
      </trkpt>
      <trkpt lat="45.8912535" lon="7.6383069">
        <ele>1925.2</ele>
        <time>2014-01-29T12:43:54Z</time>
      </trkpt>
      <trkpt lat="45.8912638" lon="7.6383615">
        <ele>1926.4</ele>
        <time>2014-01-29T12:43:55Z</time>
      </trkpt>
      <trkpt lat="45.8912722" lon="7.638407">
        <ele>1927.8</ele>
        <time>2014-01-29T12:43:56Z</time>
      </trkpt>
      <trkpt lat="45.891282" lon="7.6384604">
        <ele>1929.4</ele>
        <time>2014-01-29T12:43:57Z</time>
      </trkpt>
      <trkpt lat="45.8912908" lon="7.6385056">
        <ele>1931</ele>
        <time>2014-01-29T12:43:58Z</time>
      </trkpt>
      <trkpt lat="45.8912999" lon="7.6385614">
        <ele>1932.2</ele>
        <time>2014-01-29T12:43:59Z</time>
      </trkpt>
      <trkpt lat="45.8913098" lon="7.6385936">
        <ele>1933.6</ele>
        <time>2014-01-29T12:44:00Z</time>
      </trkpt>
      <trkpt lat="45.891324" lon="7.6386471">
        <ele>1935.4</ele>
        <time>2014-01-29T12:44:01Z</time>
      </trkpt>
      <trkpt lat="45.8913305" lon="7.6386828">
        <ele>1936.4</ele>
        <time>2014-01-29T12:44:02Z</time>
      </trkpt>
      <trkpt lat="45.8913428" lon="7.6387346">
        <ele>1939</ele>
        <time>2014-01-29T12:44:03Z</time>
      </trkpt>
      <trkpt lat="45.8913494" lon="7.6387712">
        <ele>1940.2</ele>
        <time>2014-01-29T12:44:04Z</time>
      </trkpt>
      <trkpt lat="45.8913566" lon="7.6388189">
        <ele>1942.6</ele>
        <time>2014-01-29T12:44:05Z</time>
      </trkpt>
      <trkpt lat="45.8913644" lon="7.6388548">
        <ele>1944.4</ele>
        <time>2014-01-29T12:44:06Z</time>
      </trkpt>
      <trkpt lat="45.8913754" lon="7.638905">
        <ele>1946.4</ele>
        <time>2014-01-29T12:44:07Z</time>
      </trkpt>
      <trkpt lat="45.8913827" lon="7.6389438">
        <ele>1948.6</ele>
        <time>2014-01-29T12:44:08Z</time>
      </trkpt>
      <trkpt lat="45.8913922" lon="7.6389927">
        <ele>1950.6</ele>
        <time>2014-01-29T12:44:09Z</time>
      </trkpt>
      <trkpt lat="45.8913988" lon="7.6390279">
        <ele>1951.6</ele>
        <time>2014-01-29T12:44:10Z</time>
      </trkpt>
      <trkpt lat="45.8914082" lon="7.6390785">
        <ele>1954.8</ele>
        <time>2014-01-29T12:44:11Z</time>
      </trkpt>
      <trkpt lat="45.8914161" lon="7.6391221">
        <ele>1955.8</ele>
        <time>2014-01-29T12:44:12Z</time>
      </trkpt>
      <trkpt lat="45.891426" lon="7.6391636">
        <ele>1959.4</ele>
        <time>2014-01-29T12:44:13Z</time>
      </trkpt>
      <trkpt lat="45.8914329" lon="7.6391997">
        <ele>1961.6</ele>
        <time>2014-01-29T12:44:14Z</time>
      </trkpt>
      <trkpt lat="45.8914447" lon="7.639244">
        <ele>1963.6</ele>
        <time>2014-01-29T12:44:15Z</time>
      </trkpt>
      <trkpt lat="45.89145" lon="7.6392816">
        <ele>1966.6</ele>
        <time>2014-01-29T12:44:16Z</time>
      </trkpt>
      <trkpt lat="45.8914578" lon="7.6393328">
        <ele>1969</ele>
        <time>2014-01-29T12:44:17Z</time>
      </trkpt>
      <trkpt lat="45.8914654" lon="7.639369">
        <ele>1971.6</ele>
        <time>2014-01-29T12:44:18Z</time>
      </trkpt>
      <trkpt lat="45.8914755" lon="7.6394182">
        <ele>1973</ele>
        <time>2014-01-29T12:44:19Z</time>
      </trkpt>
      <trkpt lat="45.8914833" lon="7.6394525">
        <ele>1974.2</ele>
        <time>2014-01-29T12:44:20Z</time>
      </trkpt>
      <trkpt lat="45.8914927" lon="7.6395023">
        <ele>1977.6</ele>
        <time>2014-01-29T12:44:21Z</time>
      </trkpt>
      <trkpt lat="45.8914986" lon="7.6395323">
        <ele>1980.2</ele>
        <time>2014-01-29T12:44:22Z</time>
      </trkpt>
      <trkpt lat="45.8915094" lon="7.6395842">
        <ele>1983</ele>
        <time>2014-01-29T12:44:23Z</time>
      </trkpt>
      <trkpt lat="45.8915154" lon="7.6396183">
        <ele>1985.6</ele>
        <time>2014-01-29T12:44:24Z</time>
      </trkpt>
      <trkpt lat="45.891524" lon="7.639665">
        <ele>1988.4</ele>
        <time>2014-01-29T12:44:25Z</time>
      </trkpt>
      <trkpt lat="45.8915328" lon="7.6397036">
        <ele>1991.2</ele>
        <time>2014-01-29T12:44:26Z</time>
      </trkpt>
      <trkpt lat="45.8915429" lon="7.6397486">
        <ele>1993.8</ele>
        <time>2014-01-29T12:44:27Z</time>
      </trkpt>
      <trkpt lat="45.8915506" lon="7.6397873">
        <ele>1996.6</ele>
        <time>2014-01-29T12:44:28Z</time>
      </trkpt>
      <trkpt lat="45.8915601" lon="7.6398331">
        <ele>1999.2</ele>
        <time>2014-01-29T12:44:29Z</time>
      </trkpt>
      <trkpt lat="45.8915662" lon="7.6398634">
        <ele>2002</ele>
        <time>2014-01-29T12:44:30Z</time>
      </trkpt>
      <trkpt lat="45.8915763" lon="7.6399148">
        <ele>2004.6</ele>
        <time>2014-01-29T12:44:31Z</time>
      </trkpt>
      <trkpt lat="45.891584" lon="7.6399474">
        <ele>2007.2</ele>
        <time>2014-01-29T12:44:32Z</time>
      </trkpt>
      <trkpt lat="45.8915932" lon="7.639998">
        <ele>2009.8</ele>
        <time>2014-01-29T12:44:33Z</time>
      </trkpt>
      <trkpt lat="45.8916001" lon="7.6400338">
        <ele>2012.4</ele>
        <time>2014-01-29T12:44:34Z</time>
      </trkpt>
      <trkpt lat="45.8916083" lon="7.6400786">
        <ele>2015.2</ele>
        <time>2014-01-29T12:44:35Z</time>
      </trkpt>
      <trkpt lat="45.8916157" lon="7.6401151">
        <ele>2017.8</ele>
        <time>2014-01-29T12:44:36Z</time>
      </trkpt>
      <trkpt lat="45.8916269" lon="7.6401637">
        <ele>2020.6</ele>
        <time>2014-01-29T12:44:37Z</time>
      </trkpt>
      <trkpt lat="45.8916344" lon="7.6401999">
        <ele>2023.2</ele>
        <time>2014-01-29T12:44:38Z</time>
      </trkpt>
      <trkpt lat="45.8916485" lon="7.6402466">
        <ele>2025.2</ele>
        <time>2014-01-29T12:44:39Z</time>
      </trkpt>
      <trkpt lat="45.891658" lon="7.6402841">
        <ele>2026.4</ele>
        <time>2014-01-29T12:44:40Z</time>
      </trkpt>
      <trkpt lat="45.8916693" lon="7.6403403">
        <ele>2029.6</ele>
        <time>2014-01-29T12:44:41Z</time>
      </trkpt>
      <trkpt lat="45.8916762" lon="7.6403707">
        <ele>2030.6</ele>
        <time>2014-01-29T12:44:42Z</time>
      </trkpt>
      <trkpt lat="45.8916881" lon="7.6404245">
        <ele>2033.6</ele>
        <time>2014-01-29T12:44:43Z</time>
      </trkpt>
      <trkpt lat="45.8916969" lon="7.6404619">
        <ele>2034.6</ele>
        <time>2014-01-29T12:44:44Z</time>
      </trkpt>
      <trkpt lat="45.8917074" lon="7.6405099">
        <ele>2037.8</ele>
        <time>2014-01-29T12:44:45Z</time>
      </trkpt>
      <trkpt lat="45.8917154" lon="7.6405504">
        <ele>2040</ele>
        <time>2014-01-29T12:44:46Z</time>
      </trkpt>
      <trkpt lat="45.891726" lon="7.6406002">
        <ele>2042.2</ele>
        <time>2014-01-29T12:44:47Z</time>
      </trkpt>
      <trkpt lat="45.8917337" lon="7.6406357">
        <ele>2043.4</ele>
        <time>2014-01-29T12:44:48Z</time>
      </trkpt>
      <trkpt lat="45.8917451" lon="7.6406868">
        <ele>2046.6</ele>
        <time>2014-01-29T12:44:49Z</time>
      </trkpt>
      <trkpt lat="45.8917529" lon="7.6407211">
        <ele>2049</ele>
        <time>2014-01-29T12:44:50Z</time>
      </trkpt>
      <trkpt lat="45.8917643" lon="7.6407729">
        <ele>2051.2</ele>
        <time>2014-01-29T12:44:51Z</time>
      </trkpt>
      <trkpt lat="45.8917721" lon="7.6408074">
        <ele>2053.4</ele>
        <time>2014-01-29T12:44:52Z</time>
      </trkpt>
      <trkpt lat="45.8917841" lon="7.6408584">
        <ele>2055.6</ele>
        <time>2014-01-29T12:44:53Z</time>
      </trkpt>
      <trkpt lat="45.8917913" lon="7.6408934">
        <ele>2058</ele>
        <time>2014-01-29T12:44:54Z</time>
      </trkpt>
      <trkpt lat="45.8918006" lon="7.6409401">
        <ele>2060.2</ele>
        <time>2014-01-29T12:44:55Z</time>
      </trkpt>
      <trkpt lat="45.8918079" lon="7.6409779">
        <ele>2062.6</ele>
        <time>2014-01-29T12:44:56Z</time>
      </trkpt>
      <trkpt lat="45.891817" lon="7.6410215">
        <ele>2064.8</ele>
        <time>2014-01-29T12:44:57Z</time>
      </trkpt>
      <trkpt lat="45.8918265" lon="7.6410617">
        <ele>2066.8</ele>
        <time>2014-01-29T12:44:58Z</time>
      </trkpt>
      <trkpt lat="45.8918388" lon="7.6411094">
        <ele>2069.4</ele>
        <time>2014-01-29T12:44:59Z</time>
      </trkpt>
      <trkpt lat="45.8918451" lon="7.6411392">
        <ele>2071.8</ele>
        <time>2014-01-29T12:45:00Z</time>
      </trkpt>
      <trkpt lat="45.891849" lon="7.641185">
        <ele>2074.2</ele>
        <time>2014-01-29T12:45:01Z</time>
      </trkpt>
      <trkpt lat="45.8918553" lon="7.6412185">
        <ele>2076.6</ele>
        <time>2014-01-29T12:45:02Z</time>
      </trkpt>
      <trkpt lat="45.8918659" lon="7.6412715">
        <ele>2078.8</ele>
        <time>2014-01-29T12:45:03Z</time>
      </trkpt>
      <trkpt lat="45.8918726" lon="7.6413067">
        <ele>2081</ele>
        <time>2014-01-29T12:45:04Z</time>
      </trkpt>
      <trkpt lat="45.8918814" lon="7.6413516">
        <ele>2083.4</ele>
        <time>2014-01-29T12:45:05Z</time>
      </trkpt>
      <trkpt lat="45.891889" lon="7.6413883">
        <ele>2085.8</ele>
        <time>2014-01-29T12:45:06Z</time>
      </trkpt>
      <trkpt lat="45.8918995" lon="7.6414384">
        <ele>2088</ele>
        <time>2014-01-29T12:45:07Z</time>
      </trkpt>
      <trkpt lat="45.8919067" lon="7.6414736">
        <ele>2090.6</ele>
        <time>2014-01-29T12:45:08Z</time>
      </trkpt>
      <trkpt lat="45.8919176" lon="7.6415198">
        <ele>2091.8</ele>
        <time>2014-01-29T12:45:09Z</time>
      </trkpt>
      <trkpt lat="45.8919256" lon="7.641553">
        <ele>2094.8</ele>
        <time>2014-01-29T12:45:10Z</time>
      </trkpt>
      <trkpt lat="45.8919361" lon="7.6416018">
        <ele>2097</ele>
        <time>2014-01-29T12:45:11Z</time>
      </trkpt>
      <trkpt lat="45.8919424" lon="7.6416302">
        <ele>2098.4</ele>
        <time>2014-01-29T12:45:12Z</time>
      </trkpt>
      <trkpt lat="45.8919538" lon="7.6416828">
        <ele>2101.6</ele>
        <time>2014-01-29T12:45:13Z</time>
      </trkpt>
      <trkpt lat="45.8919617" lon="7.6417188">
        <ele>2104.2</ele>
        <time>2014-01-29T12:45:14Z</time>
      </trkpt>
      <trkpt lat="45.8919717" lon="7.6417638">
        <ele>2106.2</ele>
        <time>2014-01-29T12:45:15Z</time>
      </trkpt>
      <trkpt lat="45.8919799" lon="7.6418015">
        <ele>2108.6</ele>
        <time>2014-01-29T12:45:16Z</time>
      </trkpt>
      <trkpt lat="45.8919899" lon="7.641847">
        <ele>2111</ele>
        <time>2014-01-29T12:45:17Z</time>
      </trkpt>
      <trkpt lat="45.8919971" lon="7.6418804">
        <ele>2113.4</ele>
        <time>2014-01-29T12:45:18Z</time>
      </trkpt>
      <trkpt lat="45.8920067" lon="7.6419289">
        <ele>2116</ele>
        <time>2014-01-29T12:45:19Z</time>
      </trkpt>
      <trkpt lat="45.8920136" lon="7.6419609">
        <ele>2118.4</ele>
        <time>2014-01-29T12:45:20Z</time>
      </trkpt>
      <trkpt lat="45.8920232" lon="7.6420085">
        <ele>2120.6</ele>
        <time>2014-01-29T12:45:21Z</time>
      </trkpt>
      <trkpt lat="45.89203" lon="7.6420394">
        <ele>2123.2</ele>
        <time>2014-01-29T12:45:22Z</time>
      </trkpt>
      <trkpt lat="45.8920412" lon="7.6420891">
        <ele>2125.6</ele>
        <time>2014-01-29T12:45:23Z</time>
      </trkpt>
      <trkpt lat="45.8920486" lon="7.6421225">
        <ele>2128</ele>
        <time>2014-01-29T12:45:24Z</time>
      </trkpt>
      <trkpt lat="45.8920601" lon="7.6421686">
        <ele>2130.4</ele>
        <time>2014-01-29T12:45:25Z</time>
      </trkpt>
      <trkpt lat="45.8920663" lon="7.6422046">
        <ele>2132.8</ele>
        <time>2014-01-29T12:45:26Z</time>
      </trkpt>
      <trkpt lat="45.8920718" lon="7.6422451">
        <ele>2135.2</ele>
        <time>2014-01-29T12:45:27Z</time>
      </trkpt>
      <trkpt lat="45.8920771" lon="7.6422816">
        <ele>2137.8</ele>
        <time>2014-01-29T12:45:28Z</time>
      </trkpt>
      <trkpt lat="45.8920855" lon="7.6423261">
        <ele>2139.2</ele>
        <time>2014-01-29T12:45:29Z</time>
      </trkpt>
      <trkpt lat="45.8920925" lon="7.6423568">
        <ele>2142.6</ele>
        <time>2014-01-29T12:45:30Z</time>
      </trkpt>
      <trkpt lat="45.8921038" lon="7.6424056">
        <ele>2145</ele>
        <time>2014-01-29T12:45:31Z</time>
      </trkpt>
      <trkpt lat="45.8921114" lon="7.6424361">
        <ele>2147.6</ele>
        <time>2014-01-29T12:45:32Z</time>
      </trkpt>
      <trkpt lat="45.8921212" lon="7.6424803">
        <ele>2149.8</ele>
        <time>2014-01-29T12:45:33Z</time>
      </trkpt>
      <trkpt lat="45.89213" lon="7.6425127">
        <ele>2151.4</ele>
        <time>2014-01-29T12:45:34Z</time>
      </trkpt>
      <trkpt lat="45.8921418" lon="7.64256">
        <ele>2153.8</ele>
        <time>2014-01-29T12:45:35Z</time>
      </trkpt>
      <trkpt lat="45.8921518" lon="7.6426058">
        <ele>2155</ele>
        <time>2014-01-29T12:45:36Z</time>
      </trkpt>
      <trkpt lat="45.8921632" lon="7.6426564">
        <ele>2157.8</ele>
        <time>2014-01-29T12:45:37Z</time>
      </trkpt>
      <trkpt lat="45.8921719" lon="7.6426924">
        <ele>2159</ele>
        <time>2014-01-29T12:45:38Z</time>
      </trkpt>
      <trkpt lat="45.892182" lon="7.6427396">
        <ele>2162</ele>
        <time>2014-01-29T12:45:39Z</time>
      </trkpt>
      <trkpt lat="45.8921923" lon="7.6427781">
        <ele>2163</ele>
        <time>2014-01-29T12:45:40Z</time>
      </trkpt>
      <trkpt lat="45.8922051" lon="7.6428325">
        <ele>2165.6</ele>
        <time>2014-01-29T12:45:41Z</time>
      </trkpt>
      <trkpt lat="45.8922128" lon="7.642864">
        <ele>2166.6</ele>
        <time>2014-01-29T12:45:42Z</time>
      </trkpt>
      <trkpt lat="45.8922215" lon="7.6429191">
        <ele>2169.6</ele>
        <time>2014-01-29T12:45:43Z</time>
      </trkpt>
      <trkpt lat="45.8922295" lon="7.6429571">
        <ele>2171.8</ele>
        <time>2014-01-29T12:45:44Z</time>
      </trkpt>
      <trkpt lat="45.8922395" lon="7.6430038">
        <ele>2173.8</ele>
        <time>2014-01-29T12:45:45Z</time>
      </trkpt>
      <trkpt lat="45.8922492" lon="7.6430423">
        <ele>2175</ele>
        <time>2014-01-29T12:45:46Z</time>
      </trkpt>
      <trkpt lat="45.8922606" lon="7.6430908">
        <ele>2178</ele>
        <time>2014-01-29T12:45:47Z</time>
      </trkpt>
      <trkpt lat="45.8922687" lon="7.6431262">
        <ele>2180.2</ele>
        <time>2014-01-29T12:45:48Z</time>
      </trkpt>
      <trkpt lat="45.8922792" lon="7.643175">
        <ele>2182.4</ele>
        <time>2014-01-29T12:45:49Z</time>
      </trkpt>
      <trkpt lat="45.8922864" lon="7.6432091">
        <ele>2183.6</ele>
        <time>2014-01-29T12:45:50Z</time>
      </trkpt>
      <trkpt lat="45.8922969" lon="7.6432623">
        <ele>2186.2</ele>
        <time>2014-01-29T12:45:51Z</time>
      </trkpt>
      <trkpt lat="45.8923057" lon="7.6433021">
        <ele>2187.4</ele>
        <time>2014-01-29T12:45:52Z</time>
      </trkpt>
      <trkpt lat="45.8923189" lon="7.643363">
        <ele>2190</ele>
        <time>2014-01-29T12:45:53Z</time>
      </trkpt>
      <trkpt lat="45.8923268" lon="7.6433993">
        <ele>2191.2</ele>
        <time>2014-01-29T12:45:54Z</time>
      </trkpt>
      <trkpt lat="45.8923366" lon="7.6434476">
        <ele>2192.8</ele>
        <time>2014-01-29T12:45:55Z</time>
      </trkpt>
      <trkpt lat="45.8923458" lon="7.6434909">
        <ele>2194.6</ele>
        <time>2014-01-29T12:45:56Z</time>
      </trkpt>
      <trkpt lat="45.8923574" lon="7.6435419">
        <ele>2196.2</ele>
        <time>2014-01-29T12:45:57Z</time>
      </trkpt>
      <trkpt lat="45.8923673" lon="7.6435845">
        <ele>2198</ele>
        <time>2014-01-29T12:45:58Z</time>
      </trkpt>
      <trkpt lat="45.8923788" lon="7.6436352">
        <ele>2199.6</ele>
        <time>2014-01-29T12:45:59Z</time>
      </trkpt>
      <trkpt lat="45.8923867" lon="7.6436701">
        <ele>2201.4</ele>
        <time>2014-01-29T12:46:00Z</time>
      </trkpt>
      <trkpt lat="45.8923989" lon="7.6437266">
        <ele>2203.2</ele>
        <time>2014-01-29T12:46:01Z</time>
      </trkpt>
      <trkpt lat="45.8924066" lon="7.6437625">
        <ele>2204.8</ele>
        <time>2014-01-29T12:46:02Z</time>
      </trkpt>
      <trkpt lat="45.8924183" lon="7.643817">
        <ele>2206.6</ele>
        <time>2014-01-29T12:46:03Z</time>
      </trkpt>
      <trkpt lat="45.8924261" lon="7.6438558">
        <ele>2208.2</ele>
        <time>2014-01-29T12:46:04Z</time>
      </trkpt>
      <trkpt lat="45.8924367" lon="7.6439063">
        <ele>2210</ele>
        <time>2014-01-29T12:46:05Z</time>
      </trkpt>
      <trkpt lat="45.8924465" lon="7.6439523">
        <ele>2211.2</ele>
        <time>2014-01-29T12:46:06Z</time>
      </trkpt>
      <trkpt lat="45.8924564" lon="7.6439917">
        <ele>2213.6</ele>
        <time>2014-01-29T12:46:07Z</time>
      </trkpt>
      <trkpt lat="45.8924669" lon="7.644038">
        <ele>2215.4</ele>
        <time>2014-01-29T12:46:08Z</time>
      </trkpt>
      <trkpt lat="45.8924782" lon="7.6440897">
        <ele>2217.4</ele>
        <time>2014-01-29T12:46:09Z</time>
      </trkpt>
      <trkpt lat="45.8924865" lon="7.6441255">
        <ele>2218.6</ele>
        <time>2014-01-29T12:46:10Z</time>
      </trkpt>
      <trkpt lat="45.8924988" lon="7.6441799">
        <ele>2220</ele>
        <time>2014-01-29T12:46:11Z</time>
      </trkpt>
      <trkpt lat="45.8925268" lon="7.6443104">
        <ele>2223.6</ele>
        <time>2014-01-29T12:46:14Z</time>
      </trkpt>
      <trkpt lat="45.8925375" lon="7.6443585">
        <ele>2225.6</ele>
        <time>2014-01-29T12:46:15Z</time>
      </trkpt>
      <trkpt lat="45.8925466" lon="7.6444006">
        <ele>2227.4</ele>
        <time>2014-01-29T12:46:16Z</time>
      </trkpt>
      <trkpt lat="45.8925579" lon="7.6444519">
        <ele>2229.2</ele>
        <time>2014-01-29T12:46:17Z</time>
      </trkpt>
      <trkpt lat="45.8925662" lon="7.6444893">
        <ele>2231.2</ele>
        <time>2014-01-29T12:46:18Z</time>
      </trkpt>
      <trkpt lat="45.8925776" lon="7.6445409">
        <ele>2233</ele>
        <time>2014-01-29T12:46:19Z</time>
      </trkpt>
      <trkpt lat="45.8925858" lon="7.6445775">
        <ele>2235</ele>
        <time>2014-01-29T12:46:20Z</time>
      </trkpt>
      <trkpt lat="45.8925977" lon="7.6446305">
        <ele>2237</ele>
        <time>2014-01-29T12:46:21Z</time>
      </trkpt>
      <trkpt lat="45.8926053" lon="7.6446658">
        <ele>2239</ele>
        <time>2014-01-29T12:46:22Z</time>
      </trkpt>
      <trkpt lat="45.8926162" lon="7.6447191">
        <ele>2241</ele>
        <time>2014-01-29T12:46:23Z</time>
      </trkpt>
      <trkpt lat="45.8926237" lon="7.6447549">
        <ele>2243.2</ele>
        <time>2014-01-29T12:46:24Z</time>
      </trkpt>
      <trkpt lat="45.8926345" lon="7.6448038">
        <ele>2244.8</ele>
        <time>2014-01-29T12:46:25Z</time>
      </trkpt>
      <trkpt lat="45.8926435" lon="7.644846">
        <ele>2246.4</ele>
        <time>2014-01-29T12:46:26Z</time>
      </trkpt>
      <trkpt lat="45.8926548" lon="7.6449021">
        <ele>2248</ele>
        <time>2014-01-29T12:46:27Z</time>
      </trkpt>
      <trkpt lat="45.8926639" lon="7.6449457">
        <ele>2249.4</ele>
        <time>2014-01-29T12:46:28Z</time>
      </trkpt>
      <trkpt lat="45.892675" lon="7.6449975">
        <ele>2251</ele>
        <time>2014-01-29T12:46:29Z</time>
      </trkpt>
      <trkpt lat="45.8926827" lon="7.6450325">
        <ele>2252.4</ele>
        <time>2014-01-29T12:46:30Z</time>
      </trkpt>
      <trkpt lat="45.8926954" lon="7.6450918">
        <ele>2254</ele>
        <time>2014-01-29T12:46:31Z</time>
      </trkpt>
      <trkpt lat="45.8927039" lon="7.6451305">
        <ele>2255.4</ele>
        <time>2014-01-29T12:46:32Z</time>
      </trkpt>
      <trkpt lat="45.8927163" lon="7.6451875">
        <ele>2256.8</ele>
        <time>2014-01-29T12:46:33Z</time>
      </trkpt>
      <trkpt lat="45.8927244" lon="7.6452243">
        <ele>2258.4</ele>
        <time>2014-01-29T12:46:34Z</time>
      </trkpt>
      <trkpt lat="45.8927363" lon="7.6452788">
        <ele>2259.8</ele>
        <time>2014-01-29T12:46:35Z</time>
      </trkpt>
      <trkpt lat="45.8927449" lon="7.6453216">
        <ele>2261.2</ele>
        <time>2014-01-29T12:46:36Z</time>
      </trkpt>
      <trkpt lat="45.8927578" lon="7.6453781">
        <ele>2262.6</ele>
        <time>2014-01-29T12:46:37Z</time>
      </trkpt>
      <trkpt lat="45.8927679" lon="7.6454185">
        <ele>2263.8</ele>
        <time>2014-01-29T12:46:38Z</time>
      </trkpt>
      <trkpt lat="45.8927811" lon="7.645472">
        <ele>2265.2</ele>
        <time>2014-01-29T12:46:39Z</time>
      </trkpt>
      <trkpt lat="45.8927894" lon="7.6455112">
        <ele>2266.8</ele>
        <time>2014-01-29T12:46:40Z</time>
      </trkpt>
      <trkpt lat="45.8928024" lon="7.645568">
        <ele>2268.2</ele>
        <time>2014-01-29T12:46:41Z</time>
      </trkpt>
      <trkpt lat="45.8928108" lon="7.6456033">
        <ele>2269.6</ele>
        <time>2014-01-29T12:46:42Z</time>
      </trkpt>
      <trkpt lat="45.8928247" lon="7.645662">
        <ele>2271.2</ele>
        <time>2014-01-29T12:46:43Z</time>
      </trkpt>
      <trkpt lat="45.892834" lon="7.645701">
        <ele>2272.8</ele>
        <time>2014-01-29T12:46:44Z</time>
      </trkpt>
      <trkpt lat="45.8928449" lon="7.6457506">
        <ele>2274.4</ele>
        <time>2014-01-29T12:46:45Z</time>
      </trkpt>
      <trkpt lat="45.892854" lon="7.645793">
        <ele>2276.2</ele>
        <time>2014-01-29T12:46:46Z</time>
      </trkpt>
      <trkpt lat="45.8928651" lon="7.6458462">
        <ele>2278</ele>
        <time>2014-01-29T12:46:47Z</time>
      </trkpt>
      <trkpt lat="45.8928726" lon="7.6458845">
        <ele>2279</ele>
        <time>2014-01-29T12:46:48Z</time>
      </trkpt>
      <trkpt lat="45.8928832" lon="7.6459343">
        <ele>2281.6</ele>
        <time>2014-01-29T12:46:49Z</time>
      </trkpt>
      <trkpt lat="45.8928913" lon="7.6459735">
        <ele>2283.4</ele>
        <time>2014-01-29T12:46:50Z</time>
      </trkpt>
      <trkpt lat="45.8929025" lon="7.6460276">
        <ele>2285.2</ele>
        <time>2014-01-29T12:46:51Z</time>
      </trkpt>
      <trkpt lat="45.8929103" lon="7.6460627">
        <ele>2286.4</ele>
        <time>2014-01-29T12:46:52Z</time>
      </trkpt>
      <trkpt lat="45.892922" lon="7.6461193">
        <ele>2287.4</ele>
        <time>2014-01-29T12:46:53Z</time>
      </trkpt>
      <trkpt lat="45.8929302" lon="7.6461593">
        <ele>2288.6</ele>
        <time>2014-01-29T12:46:54Z</time>
      </trkpt>
      <trkpt lat="45.8929419" lon="7.6462141">
        <ele>2290.6</ele>
        <time>2014-01-29T12:46:55Z</time>
      </trkpt>
      <trkpt lat="45.8929511" lon="7.6462575">
        <ele>2291.8</ele>
        <time>2014-01-29T12:46:56Z</time>
      </trkpt>
      <trkpt lat="45.8929838" lon="7.6464077">
        <ele>2293.8</ele>
        <time>2014-01-29T12:46:59Z</time>
      </trkpt>
      <trkpt lat="45.892994" lon="7.6464559">
        <ele>2295.2</ele>
        <time>2014-01-29T12:47:00Z</time>
      </trkpt>
      <trkpt lat="45.8930006" lon="7.6465009">
        <ele>2296.2</ele>
        <time>2014-01-29T12:47:01Z</time>
      </trkpt>
      <trkpt lat="45.8930084" lon="7.6465389">
        <ele>2297.8</ele>
        <time>2014-01-29T12:47:02Z</time>
      </trkpt>
      <trkpt lat="45.8930202" lon="7.6465959">
        <ele>2299.8</ele>
        <time>2014-01-29T12:47:03Z</time>
      </trkpt>
      <trkpt lat="45.8930278" lon="7.646633">
        <ele>2300.8</ele>
        <time>2014-01-29T12:47:04Z</time>
      </trkpt>
      <trkpt lat="45.8930389" lon="7.646687">
        <ele>2302</ele>
        <time>2014-01-29T12:47:05Z</time>
      </trkpt>
      <trkpt lat="45.8930469" lon="7.646727">
        <ele>2303.2</ele>
        <time>2014-01-29T12:47:06Z</time>
      </trkpt>
      <trkpt lat="45.8930568" lon="7.6467803">
        <ele>2304.6</ele>
        <time>2014-01-29T12:47:07Z</time>
      </trkpt>
      <trkpt lat="45.8930774" lon="7.646881">
        <ele>2305.6</ele>
        <time>2014-01-29T12:47:09Z</time>
      </trkpt>
      <trkpt lat="45.8931062" lon="7.6470171">
        <ele>2305.6</ele>
        <time>2014-01-29T12:47:12Z</time>
      </trkpt>
      <trkpt lat="45.8931597" lon="7.6472498">
        <ele>2305.6</ele>
        <time>2014-01-29T12:47:18Z</time>
      </trkpt>
      <trkpt lat="45.8931666" lon="7.6472599">
        <ele>2305.6</ele>
        <time>2014-01-29T12:47:22Z</time>
      </trkpt>
      <trkpt lat="45.8932095" lon="7.6472605">
        <ele>2305.6</ele>
        <time>2014-01-29T12:47:30Z</time>
      </trkpt>
      <trkpt lat="45.89321" lon="7.647265">
        <ele>2305.6</ele>
        <time>2014-01-29T12:47:35Z</time>
      </trkpt>
      <trkpt lat="45.8931852" lon="7.6472868">
        <ele>2305.6</ele>
        <time>2014-01-29T12:47:40Z</time>
      </trkpt>
      <trkpt lat="45.8931711" lon="7.6473304">
        <ele>2305.6</ele>
        <time>2014-01-29T12:47:48Z</time>
      </trkpt>
      <trkpt lat="45.8931619" lon="7.6473435">
        <ele>2305.6</ele>
        <time>2014-01-29T12:47:49Z</time>
      </trkpt>
      <trkpt lat="45.8931789" lon="7.6473581">
        <ele>2305.6</ele>
        <time>2014-01-29T12:47:51Z</time>
      </trkpt>
      <trkpt lat="45.893193" lon="7.6473573">
        <ele>2305.6</ele>
        <time>2014-01-29T12:47:53Z</time>
      </trkpt>
      <trkpt lat="45.8932132" lon="7.6473425">
        <ele>2305.6</ele>
        <time>2014-01-29T12:47:56Z</time>
      </trkpt>
      <trkpt lat="45.8932612" lon="7.6473072">
        <ele>2305.6</ele>
        <time>2014-01-29T12:48:03Z</time>
      </trkpt>
      <trkpt lat="45.8932836" lon="7.6473225">
        <ele>2305.6</ele>
        <time>2014-01-29T12:48:10Z</time>
      </trkpt>
      <trkpt lat="45.8932878" lon="7.6473177">
        <ele>2305.6</ele>
        <time>2014-01-29T12:48:14Z</time>
      </trkpt>
      <trkpt lat="45.8932857" lon="7.6473134">
        <ele>2305.6</ele>
        <time>2014-01-29T12:48:19Z</time>
      </trkpt>
      <trkpt lat="45.8932853" lon="7.6473194">
        <ele>2305.6</ele>
        <time>2014-01-29T12:48:24Z</time>
      </trkpt>
      <trkpt lat="45.8932953" lon="7.6473116">
        <ele>2305.6</ele>
        <time>2014-01-29T12:48:30Z</time>
      </trkpt>
      <trkpt lat="45.8933092" lon="7.6472659">
        <ele>2305.6</ele>
        <time>2014-01-29T12:48:35Z</time>
      </trkpt>
      <trkpt lat="45.8933219" lon="7.6472452">
        <ele>2305.6</ele>
        <time>2014-01-29T12:48:37Z</time>
      </trkpt>
      <trkpt lat="45.8933934" lon="7.6470973">
        <ele>2305.6</ele>
        <time>2014-01-29T12:48:50Z</time>
      </trkpt>
      <trkpt lat="45.8934455" lon="7.6469946">
        <ele>2305.6</ele>
        <time>2014-01-29T12:49:00Z</time>
      </trkpt>
      <trkpt lat="45.8934705" lon="7.6469181">
        <ele>2305.6</ele>
        <time>2014-01-29T12:49:09Z</time>
      </trkpt>
      <trkpt lat="45.8934793" lon="7.6468926">
        <ele>2305.6</ele>
        <time>2014-01-29T12:49:16Z</time>
      </trkpt>
      <trkpt lat="45.8934837" lon="7.6469016">
        <ele>2305.6</ele>
        <time>2014-01-29T12:49:23Z</time>
      </trkpt>
      <trkpt lat="45.8934882" lon="7.6468949">
        <ele>2305.6</ele>
        <time>2014-01-29T12:49:28Z</time>
      </trkpt>
      <trkpt lat="45.8934908" lon="7.6468968">
        <ele>2305.6</ele>
        <time>2014-01-29T12:49:34Z</time>
      </trkpt>
      <trkpt lat="45.8934973" lon="7.646916">
        <ele>2305.6</ele>
        <time>2014-01-29T12:49:37Z</time>
      </trkpt>
      <trkpt lat="45.8935126" lon="7.6469161">
        <ele>2305.6</ele>
        <time>2014-01-29T12:49:39Z</time>
      </trkpt>
      <trkpt lat="45.8935188" lon="7.646908">
        <ele>2305.6</ele>
        <time>2014-01-29T12:49:40Z</time>
      </trkpt>
      <trkpt lat="45.8935462" lon="7.6468517">
        <ele>2305.6</ele>
        <time>2014-01-29T12:49:46Z</time>
      </trkpt>
      <trkpt lat="45.8935567" lon="7.6468273">
        <ele>2305.6</ele>
        <time>2014-01-29T12:49:53Z</time>
      </trkpt>
      <trkpt lat="45.8935683" lon="7.646835">
        <ele>2305.6</ele>
        <time>2014-01-29T12:50:01Z</time>
      </trkpt>
      <trkpt lat="45.8935898" lon="7.6468041">
        <ele>2305.6</ele>
        <time>2014-01-29T12:50:09Z</time>
      </trkpt>
      <trkpt lat="45.8936383" lon="7.6466745">
        <ele>2305.6</ele>
        <time>2014-01-29T12:50:15Z</time>
      </trkpt>
      <trkpt lat="45.8936566" lon="7.6465565">
        <ele>2305.6</ele>
        <time>2014-01-29T12:50:20Z</time>
      </trkpt>
      <trkpt lat="45.8936577" lon="7.6465223">
        <ele>2305.6</ele>
        <time>2014-01-29T12:50:22Z</time>
      </trkpt>
      <trkpt lat="45.8937695" lon="7.646604">
        <ele>2305.6</ele>
        <time>2014-01-29T12:50:39Z</time>
      </trkpt>
    </trkseg>
  </trk>
</gpx>